<?xml version="1.0" encoding="utf-8"?>
<gpx xmlns:xsi="http://www.w3.org/2001/XMLSchema-instance" xmlns:xsd="http://www.w3.org/2001/XMLSchema" version="1.1" creator="Shapelink.com" xmlns="http://www.topografix.com/GPX/1/1" xmlns:gpxtpx="http://www.garmin.com/xmlschemas/TrackPointExtension/v1">
  <metadata>
    <name>Ciclismo 21.73 km, 2020-01-17</name>
    <desc></desc>
    <author><name>Peter Littke</name></author> 
    <time>2020-01-17T07:46:10Z</time>
  </metadata>
  <trk>
    <name>Ciclismo 21.73 km, 2020-01-17</name>
    <trkseg>
      <trkpt lat="59.340155" lon="18.084888">
        <ele>22</ele>
        <time>2020-01-17T07:46:10Z</time>
      </trkpt>
      <trkpt lat="59.340173" lon="18.084798">
        <ele>0</ele>
        <time>2020-01-17T07:46:18Z</time>
      </trkpt>
      <trkpt lat="59.340183" lon="18.084755">
        <ele>19</ele>
        <time>2020-01-17T07:46:18Z</time>
      </trkpt>
      <trkpt lat="59.340194" lon="18.084709">
        <ele>19</ele>
        <time>2020-01-17T07:46:19Z</time>
      </trkpt>
      <trkpt lat="59.340207" lon="18.084664">
        <ele>19</ele>
        <time>2020-01-17T07:46:20Z</time>
      </trkpt>
      <trkpt lat="59.34022" lon="18.084617">
        <ele>19</ele>
        <time>2020-01-17T07:46:21Z</time>
      </trkpt>
      <trkpt lat="59.340236" lon="18.08457">
        <ele>19</ele>
        <time>2020-01-17T07:46:22Z</time>
      </trkpt>
      <trkpt lat="59.340272" lon="18.084538">
        <ele>19</ele>
        <time>2020-01-17T07:46:23Z</time>
      </trkpt>
      <trkpt lat="59.340303" lon="18.084497">
        <ele>19</ele>
        <time>2020-01-17T07:46:24Z</time>
      </trkpt>
      <trkpt lat="59.34034" lon="18.084369">
        <ele>18</ele>
        <time>2020-01-17T07:46:26Z</time>
      </trkpt>
      <trkpt lat="59.340358" lon="18.0843">
        <ele>18</ele>
        <time>2020-01-17T07:46:27Z</time>
      </trkpt>
      <trkpt lat="59.340377" lon="18.08423">
        <ele>18</ele>
        <time>2020-01-17T07:46:28Z</time>
      </trkpt>
      <trkpt lat="59.340396" lon="18.084163">
        <ele>18</ele>
        <time>2020-01-17T07:46:29Z</time>
      </trkpt>
      <trkpt lat="59.340413" lon="18.084096">
        <ele>17</ele>
        <time>2020-01-17T07:46:30Z</time>
      </trkpt>
      <trkpt lat="59.340425" lon="18.084035">
        <ele>17</ele>
        <time>2020-01-17T07:46:31Z</time>
      </trkpt>
      <trkpt lat="59.34044" lon="18.083991">
        <ele>17</ele>
        <time>2020-01-17T07:46:32Z</time>
      </trkpt>
      <trkpt lat="59.340447" lon="18.083951">
        <ele>17</ele>
        <time>2020-01-17T07:46:33Z</time>
      </trkpt>
      <trkpt lat="59.340459" lon="18.083916">
        <ele>18</ele>
        <time>2020-01-17T07:46:34Z</time>
      </trkpt>
      <trkpt lat="59.340473" lon="18.083881">
        <ele>18</ele>
        <time>2020-01-17T07:46:35Z</time>
      </trkpt>
      <trkpt lat="59.340485" lon="18.083805">
        <ele>18</ele>
        <time>2020-01-17T07:46:37Z</time>
      </trkpt>
      <trkpt lat="59.340483" lon="18.083756">
        <ele>17</ele>
        <time>2020-01-17T07:46:38Z</time>
      </trkpt>
      <trkpt lat="59.340492" lon="18.083717">
        <ele>17</ele>
        <time>2020-01-17T07:46:39Z</time>
      </trkpt>
      <trkpt lat="59.340503" lon="18.083669">
        <ele>17</ele>
        <time>2020-01-17T07:46:40Z</time>
      </trkpt>
      <trkpt lat="59.340518" lon="18.083618">
        <ele>17</ele>
        <time>2020-01-17T07:46:41Z</time>
      </trkpt>
      <trkpt lat="59.340517" lon="18.083573">
        <ele>18</ele>
        <time>2020-01-17T07:46:42Z</time>
      </trkpt>
      <trkpt lat="59.3405" lon="18.083526">
        <ele>18</ele>
        <time>2020-01-17T07:46:43Z</time>
      </trkpt>
      <trkpt lat="59.340477" lon="18.083486">
        <ele>18</ele>
        <time>2020-01-17T07:46:44Z</time>
      </trkpt>
      <trkpt lat="59.34045" lon="18.083451">
        <ele>18</ele>
        <time>2020-01-17T07:46:45Z</time>
      </trkpt>
      <trkpt lat="59.340415" lon="18.083433">
        <ele>19</ele>
        <time>2020-01-17T07:46:46Z</time>
      </trkpt>
      <trkpt lat="59.340389" lon="18.083422">
        <ele>19</ele>
        <time>2020-01-17T07:46:47Z</time>
      </trkpt>
      <trkpt lat="59.340367" lon="18.08342">
        <ele>20</ele>
        <time>2020-01-17T07:46:48Z</time>
      </trkpt>
      <trkpt lat="59.340338" lon="18.083408">
        <ele>22</ele>
        <time>2020-01-17T07:46:50Z</time>
      </trkpt>
      <trkpt lat="59.340318" lon="18.083395">
        <ele>22</ele>
        <time>2020-01-17T07:46:51Z</time>
      </trkpt>
      <trkpt lat="59.340295" lon="18.08338">
        <ele>23</ele>
        <time>2020-01-17T07:46:52Z</time>
      </trkpt>
      <trkpt lat="59.340273" lon="18.083364">
        <ele>23</ele>
        <time>2020-01-17T07:46:53Z</time>
      </trkpt>
      <trkpt lat="59.340244" lon="18.083348">
        <ele>23</ele>
        <time>2020-01-17T07:46:54Z</time>
      </trkpt>
      <trkpt lat="59.34021" lon="18.083325">
        <ele>24</ele>
        <time>2020-01-17T07:46:55Z</time>
      </trkpt>
      <trkpt lat="59.340176" lon="18.083297">
        <ele>24</ele>
        <time>2020-01-17T07:46:56Z</time>
      </trkpt>
      <trkpt lat="59.340143" lon="18.083267">
        <ele>24</ele>
        <time>2020-01-17T07:46:57Z</time>
      </trkpt>
      <trkpt lat="59.3401" lon="18.08324">
        <ele>25</ele>
        <time>2020-01-17T07:46:58Z</time>
      </trkpt>
      <trkpt lat="59.340055" lon="18.083212">
        <ele>25</ele>
        <time>2020-01-17T07:46:59Z</time>
      </trkpt>
      <trkpt lat="59.340009" lon="18.083178">
        <ele>26</ele>
        <time>2020-01-17T07:47:00Z</time>
      </trkpt>
      <trkpt lat="59.339976" lon="18.083145">
        <ele>26</ele>
        <time>2020-01-17T07:47:01Z</time>
      </trkpt>
      <trkpt lat="59.339958" lon="18.083106">
        <ele>26</ele>
        <time>2020-01-17T07:47:02Z</time>
      </trkpt>
      <trkpt lat="59.339938" lon="18.083076">
        <ele>26</ele>
        <time>2020-01-17T07:47:03Z</time>
      </trkpt>
      <trkpt lat="59.339909" lon="18.083058">
        <ele>26</ele>
        <time>2020-01-17T07:47:04Z</time>
      </trkpt>
      <trkpt lat="59.339878" lon="18.083038">
        <ele>27</ele>
        <time>2020-01-17T07:47:05Z</time>
      </trkpt>
      <trkpt lat="59.33985" lon="18.083011">
        <ele>27</ele>
        <time>2020-01-17T07:47:06Z</time>
      </trkpt>
      <trkpt lat="59.339817" lon="18.082978">
        <ele>27</ele>
        <time>2020-01-17T07:47:07Z</time>
      </trkpt>
      <trkpt lat="59.339782" lon="18.082946">
        <ele>27</ele>
        <time>2020-01-17T07:47:08Z</time>
      </trkpt>
      <trkpt lat="59.339746" lon="18.082914">
        <ele>27</ele>
        <time>2020-01-17T07:47:09Z</time>
      </trkpt>
      <trkpt lat="59.339711" lon="18.082882">
        <ele>28</ele>
        <time>2020-01-17T07:47:10Z</time>
      </trkpt>
      <trkpt lat="59.339674" lon="18.082853">
        <ele>28</ele>
        <time>2020-01-17T07:47:11Z</time>
      </trkpt>
      <trkpt lat="59.339635" lon="18.082828">
        <ele>28</ele>
        <time>2020-01-17T07:47:12Z</time>
      </trkpt>
      <trkpt lat="59.339596" lon="18.082815">
        <ele>29</ele>
        <time>2020-01-17T07:47:13Z</time>
      </trkpt>
      <trkpt lat="59.339565" lon="18.082804">
        <ele>29</ele>
        <time>2020-01-17T07:47:14Z</time>
      </trkpt>
      <trkpt lat="59.339539" lon="18.082791">
        <ele>29</ele>
        <time>2020-01-17T07:47:15Z</time>
      </trkpt>
      <trkpt lat="59.339514" lon="18.082777">
        <ele>30</ele>
        <time>2020-01-17T07:47:16Z</time>
      </trkpt>
      <trkpt lat="59.33949" lon="18.082759">
        <ele>30</ele>
        <time>2020-01-17T07:47:17Z</time>
      </trkpt>
      <trkpt lat="59.339464" lon="18.082752">
        <ele>31</ele>
        <time>2020-01-17T07:47:18Z</time>
      </trkpt>
      <trkpt lat="59.339434" lon="18.082738">
        <ele>31</ele>
        <time>2020-01-17T07:47:19Z</time>
      </trkpt>
      <trkpt lat="59.339399" lon="18.082718">
        <ele>31</ele>
        <time>2020-01-17T07:47:20Z</time>
      </trkpt>
      <trkpt lat="59.339369" lon="18.082697">
        <ele>31</ele>
        <time>2020-01-17T07:47:21Z</time>
      </trkpt>
      <trkpt lat="59.339342" lon="18.082664">
        <ele>31</ele>
        <time>2020-01-17T07:47:22Z</time>
      </trkpt>
      <trkpt lat="59.339319" lon="18.08263">
        <ele>31</ele>
        <time>2020-01-17T07:47:23Z</time>
      </trkpt>
      <trkpt lat="59.339299" lon="18.082597">
        <ele>31</ele>
        <time>2020-01-17T07:47:24Z</time>
      </trkpt>
      <trkpt lat="59.339279" lon="18.082571">
        <ele>31</ele>
        <time>2020-01-17T07:47:25Z</time>
      </trkpt>
      <trkpt lat="59.339254" lon="18.082545">
        <ele>31</ele>
        <time>2020-01-17T07:47:26Z</time>
      </trkpt>
      <trkpt lat="59.339232" lon="18.082522">
        <ele>31</ele>
        <time>2020-01-17T07:47:27Z</time>
      </trkpt>
      <trkpt lat="59.339204" lon="18.082496">
        <ele>31</ele>
        <time>2020-01-17T07:47:28Z</time>
      </trkpt>
      <trkpt lat="59.339179" lon="18.082477">
        <ele>31</ele>
        <time>2020-01-17T07:47:29Z</time>
      </trkpt>
      <trkpt lat="59.339158" lon="18.082463">
        <ele>31</ele>
        <time>2020-01-17T07:47:30Z</time>
      </trkpt>
      <trkpt lat="59.33914" lon="18.082453">
        <ele>31</ele>
        <time>2020-01-17T07:47:31Z</time>
      </trkpt>
      <trkpt lat="59.339117" lon="18.082442">
        <ele>31</ele>
        <time>2020-01-17T07:47:32Z</time>
      </trkpt>
      <trkpt lat="59.33909" lon="18.082434">
        <ele>32</ele>
        <time>2020-01-17T07:47:33Z</time>
      </trkpt>
      <trkpt lat="59.339059" lon="18.082419">
        <ele>32</ele>
        <time>2020-01-17T07:47:34Z</time>
      </trkpt>
      <trkpt lat="59.339025" lon="18.082399">
        <ele>32</ele>
        <time>2020-01-17T07:47:35Z</time>
      </trkpt>
      <trkpt lat="59.338982" lon="18.082371">
        <ele>32</ele>
        <time>2020-01-17T07:47:36Z</time>
      </trkpt>
      <trkpt lat="59.338939" lon="18.082343">
        <ele>33</ele>
        <time>2020-01-17T07:47:37Z</time>
      </trkpt>
      <trkpt lat="59.338891" lon="18.082311">
        <ele>33</ele>
        <time>2020-01-17T07:47:38Z</time>
      </trkpt>
      <trkpt lat="59.338838" lon="18.082263">
        <ele>33</ele>
        <time>2020-01-17T07:47:39Z</time>
      </trkpt>
      <trkpt lat="59.338789" lon="18.082216">
        <ele>33</ele>
        <time>2020-01-17T07:47:40Z</time>
      </trkpt>
      <trkpt lat="59.338735" lon="18.082174">
        <ele>33</ele>
        <time>2020-01-17T07:47:41Z</time>
      </trkpt>
      <trkpt lat="59.338675" lon="18.082136">
        <ele>33</ele>
        <time>2020-01-17T07:47:42Z</time>
      </trkpt>
      <trkpt lat="59.338623" lon="18.082094">
        <ele>33</ele>
        <time>2020-01-17T07:47:43Z</time>
      </trkpt>
      <trkpt lat="59.338567" lon="18.082052">
        <ele>33</ele>
        <time>2020-01-17T07:47:44Z</time>
      </trkpt>
      <trkpt lat="59.338515" lon="18.082008">
        <ele>34</ele>
        <time>2020-01-17T07:47:45Z</time>
      </trkpt>
      <trkpt lat="59.338473" lon="18.081971">
        <ele>34</ele>
        <time>2020-01-17T07:47:46Z</time>
      </trkpt>
      <trkpt lat="59.338438" lon="18.081935">
        <ele>34</ele>
        <time>2020-01-17T07:47:47Z</time>
      </trkpt>
      <trkpt lat="59.338405" lon="18.081909">
        <ele>34</ele>
        <time>2020-01-17T07:47:48Z</time>
      </trkpt>
      <trkpt lat="59.338371" lon="18.081887">
        <ele>35</ele>
        <time>2020-01-17T07:47:49Z</time>
      </trkpt>
      <trkpt lat="59.338335" lon="18.081864">
        <ele>35</ele>
        <time>2020-01-17T07:47:50Z</time>
      </trkpt>
      <trkpt lat="59.338308" lon="18.081835">
        <ele>35</ele>
        <time>2020-01-17T07:47:51Z</time>
      </trkpt>
      <trkpt lat="59.338284" lon="18.0818">
        <ele>35</ele>
        <time>2020-01-17T07:47:52Z</time>
      </trkpt>
      <trkpt lat="59.338261" lon="18.081765">
        <ele>36</ele>
        <time>2020-01-17T07:47:53Z</time>
      </trkpt>
      <trkpt lat="59.338239" lon="18.081722">
        <ele>35</ele>
        <time>2020-01-17T07:47:54Z</time>
      </trkpt>
      <trkpt lat="59.338209" lon="18.081682">
        <ele>35</ele>
        <time>2020-01-17T07:47:55Z</time>
      </trkpt>
      <trkpt lat="59.338173" lon="18.081646">
        <ele>35</ele>
        <time>2020-01-17T07:47:56Z</time>
      </trkpt>
      <trkpt lat="59.33813" lon="18.081611">
        <ele>35</ele>
        <time>2020-01-17T07:47:57Z</time>
      </trkpt>
      <trkpt lat="59.338087" lon="18.081571">
        <ele>36</ele>
        <time>2020-01-17T07:47:58Z</time>
      </trkpt>
      <trkpt lat="59.338046" lon="18.081532">
        <ele>36</ele>
        <time>2020-01-17T07:47:59Z</time>
      </trkpt>
      <trkpt lat="59.338003" lon="18.081494">
        <ele>36</ele>
        <time>2020-01-17T07:48:00Z</time>
      </trkpt>
      <trkpt lat="59.33796" lon="18.081456">
        <ele>36</ele>
        <time>2020-01-17T07:48:01Z</time>
      </trkpt>
      <trkpt lat="59.337918" lon="18.08142">
        <ele>36</ele>
        <time>2020-01-17T07:48:02Z</time>
      </trkpt>
      <trkpt lat="59.337876" lon="18.081385">
        <ele>36</ele>
        <time>2020-01-17T07:48:03Z</time>
      </trkpt>
      <trkpt lat="59.337832" lon="18.081353">
        <ele>36</ele>
        <time>2020-01-17T07:48:04Z</time>
      </trkpt>
      <trkpt lat="59.337787" lon="18.081322">
        <ele>36</ele>
        <time>2020-01-17T07:48:05Z</time>
      </trkpt>
      <trkpt lat="59.337746" lon="18.081286">
        <ele>36</ele>
        <time>2020-01-17T07:48:06Z</time>
      </trkpt>
      <trkpt lat="59.337704" lon="18.081253">
        <ele>36</ele>
        <time>2020-01-17T07:48:07Z</time>
      </trkpt>
      <trkpt lat="59.337664" lon="18.081223">
        <ele>36</ele>
        <time>2020-01-17T07:48:08Z</time>
      </trkpt>
      <trkpt lat="59.337625" lon="18.081189">
        <ele>36</ele>
        <time>2020-01-17T07:48:09Z</time>
      </trkpt>
      <trkpt lat="59.337587" lon="18.081161">
        <ele>36</ele>
        <time>2020-01-17T07:48:10Z</time>
      </trkpt>
      <trkpt lat="59.337552" lon="18.081131">
        <ele>36</ele>
        <time>2020-01-17T07:48:11Z</time>
      </trkpt>
      <trkpt lat="59.337514" lon="18.081103">
        <ele>36</ele>
        <time>2020-01-17T07:48:12Z</time>
      </trkpt>
      <trkpt lat="59.337471" lon="18.081077">
        <ele>37</ele>
        <time>2020-01-17T07:48:13Z</time>
      </trkpt>
      <trkpt lat="59.337431" lon="18.081046">
        <ele>37</ele>
        <time>2020-01-17T07:48:14Z</time>
      </trkpt>
      <trkpt lat="59.337396" lon="18.081017">
        <ele>37</ele>
        <time>2020-01-17T07:48:15Z</time>
      </trkpt>
      <trkpt lat="59.33736" lon="18.080992">
        <ele>37</ele>
        <time>2020-01-17T07:48:16Z</time>
      </trkpt>
      <trkpt lat="59.337325" lon="18.080972">
        <ele>38</ele>
        <time>2020-01-17T07:48:17Z</time>
      </trkpt>
      <trkpt lat="59.337293" lon="18.080966">
        <ele>38</ele>
        <time>2020-01-17T07:48:18Z</time>
      </trkpt>
      <trkpt lat="59.337256" lon="18.080941">
        <ele>38</ele>
        <time>2020-01-17T07:48:19Z</time>
      </trkpt>
      <trkpt lat="59.337217" lon="18.080907">
        <ele>38</ele>
        <time>2020-01-17T07:48:20Z</time>
      </trkpt>
      <trkpt lat="59.33717" lon="18.080851">
        <ele>38</ele>
        <time>2020-01-17T07:48:21Z</time>
      </trkpt>
      <trkpt lat="59.337141" lon="18.080815">
        <ele>38</ele>
        <time>2020-01-17T07:48:22Z</time>
      </trkpt>
      <trkpt lat="59.337123" lon="18.080782">
        <ele>38</ele>
        <time>2020-01-17T07:48:23Z</time>
      </trkpt>
      <trkpt lat="59.337092" lon="18.080765">
        <ele>38</ele>
        <time>2020-01-17T07:48:24Z</time>
      </trkpt>
      <trkpt lat="59.337057" lon="18.080752">
        <ele>38</ele>
        <time>2020-01-17T07:48:25Z</time>
      </trkpt>
      <trkpt lat="59.337016" lon="18.080733">
        <ele>39</ele>
        <time>2020-01-17T07:48:26Z</time>
      </trkpt>
      <trkpt lat="59.336977" lon="18.080716">
        <ele>39</ele>
        <time>2020-01-17T07:48:27Z</time>
      </trkpt>
      <trkpt lat="59.336933" lon="18.080692">
        <ele>39</ele>
        <time>2020-01-17T07:48:28Z</time>
      </trkpt>
      <trkpt lat="59.336886" lon="18.080661">
        <ele>39</ele>
        <time>2020-01-17T07:48:29Z</time>
      </trkpt>
      <trkpt lat="59.336841" lon="18.080621">
        <ele>39</ele>
        <time>2020-01-17T07:48:30Z</time>
      </trkpt>
      <trkpt lat="59.336799" lon="18.080581">
        <ele>39</ele>
        <time>2020-01-17T07:48:31Z</time>
      </trkpt>
      <trkpt lat="59.336752" lon="18.080545">
        <ele>39</ele>
        <time>2020-01-17T07:48:32Z</time>
      </trkpt>
      <trkpt lat="59.336704" lon="18.080492">
        <ele>39</ele>
        <time>2020-01-17T07:48:33Z</time>
      </trkpt>
      <trkpt lat="59.336663" lon="18.080433">
        <ele>39</ele>
        <time>2020-01-17T07:48:34Z</time>
      </trkpt>
      <trkpt lat="59.336624" lon="18.080391">
        <ele>39</ele>
        <time>2020-01-17T07:48:35Z</time>
      </trkpt>
      <trkpt lat="59.336577" lon="18.080354">
        <ele>40</ele>
        <time>2020-01-17T07:48:36Z</time>
      </trkpt>
      <trkpt lat="59.336527" lon="18.080302">
        <ele>40</ele>
        <time>2020-01-17T07:48:37Z</time>
      </trkpt>
      <trkpt lat="59.336477" lon="18.080252">
        <ele>40</ele>
        <time>2020-01-17T07:48:38Z</time>
      </trkpt>
      <trkpt lat="59.336429" lon="18.080203">
        <ele>40</ele>
        <time>2020-01-17T07:48:39Z</time>
      </trkpt>
      <trkpt lat="59.336384" lon="18.080153">
        <ele>40</ele>
        <time>2020-01-17T07:48:40Z</time>
      </trkpt>
      <trkpt lat="59.336331" lon="18.080113">
        <ele>40</ele>
        <time>2020-01-17T07:48:41Z</time>
      </trkpt>
      <trkpt lat="59.336285" lon="18.080069">
        <ele>40</ele>
        <time>2020-01-17T07:48:42Z</time>
      </trkpt>
      <trkpt lat="59.336239" lon="18.080022">
        <ele>40</ele>
        <time>2020-01-17T07:48:43Z</time>
      </trkpt>
      <trkpt lat="59.336198" lon="18.079981">
        <ele>41</ele>
        <time>2020-01-17T07:48:44Z</time>
      </trkpt>
      <trkpt lat="59.336163" lon="18.079939">
        <ele>41</ele>
        <time>2020-01-17T07:48:45Z</time>
      </trkpt>
      <trkpt lat="59.336125" lon="18.079899">
        <ele>41</ele>
        <time>2020-01-17T07:48:46Z</time>
      </trkpt>
      <trkpt lat="59.336085" lon="18.079863">
        <ele>41</ele>
        <time>2020-01-17T07:48:47Z</time>
      </trkpt>
      <trkpt lat="59.33604" lon="18.079831">
        <ele>41</ele>
        <time>2020-01-17T07:48:48Z</time>
      </trkpt>
      <trkpt lat="59.335994" lon="18.079798">
        <ele>41</ele>
        <time>2020-01-17T07:48:49Z</time>
      </trkpt>
      <trkpt lat="59.33595" lon="18.079767">
        <ele>41</ele>
        <time>2020-01-17T07:48:50Z</time>
      </trkpt>
      <trkpt lat="59.335903" lon="18.079743">
        <ele>41</ele>
        <time>2020-01-17T07:48:51Z</time>
      </trkpt>
      <trkpt lat="59.335854" lon="18.079718">
        <ele>40</ele>
        <time>2020-01-17T07:48:52Z</time>
      </trkpt>
      <trkpt lat="59.335805" lon="18.079684">
        <ele>40</ele>
        <time>2020-01-17T07:48:53Z</time>
      </trkpt>
      <trkpt lat="59.335755" lon="18.079652">
        <ele>40</ele>
        <time>2020-01-17T07:48:54Z</time>
      </trkpt>
      <trkpt lat="59.335705" lon="18.07961">
        <ele>39</ele>
        <time>2020-01-17T07:48:55Z</time>
      </trkpt>
      <trkpt lat="59.335661" lon="18.079569">
        <ele>39</ele>
        <time>2020-01-17T07:48:56Z</time>
      </trkpt>
      <trkpt lat="59.335621" lon="18.079534">
        <ele>39</ele>
        <time>2020-01-17T07:48:57Z</time>
      </trkpt>
      <trkpt lat="59.335578" lon="18.079505">
        <ele>39</ele>
        <time>2020-01-17T07:48:58Z</time>
      </trkpt>
      <trkpt lat="59.33553" lon="18.079483">
        <ele>39</ele>
        <time>2020-01-17T07:48:59Z</time>
      </trkpt>
      <trkpt lat="59.33548" lon="18.079456">
        <ele>39</ele>
        <time>2020-01-17T07:49:00Z</time>
      </trkpt>
      <trkpt lat="59.33543" lon="18.07942">
        <ele>39</ele>
        <time>2020-01-17T07:49:01Z</time>
      </trkpt>
      <trkpt lat="59.33538" lon="18.079382">
        <ele>38</ele>
        <time>2020-01-17T07:49:02Z</time>
      </trkpt>
      <trkpt lat="59.335333" lon="18.079342">
        <ele>38</ele>
        <time>2020-01-17T07:49:03Z</time>
      </trkpt>
      <trkpt lat="59.335284" lon="18.0793">
        <ele>39</ele>
        <time>2020-01-17T07:49:04Z</time>
      </trkpt>
      <trkpt lat="59.335223" lon="18.079254">
        <ele>39</ele>
        <time>2020-01-17T07:49:05Z</time>
      </trkpt>
      <trkpt lat="59.33516" lon="18.079206">
        <ele>38</ele>
        <time>2020-01-17T07:49:06Z</time>
      </trkpt>
      <trkpt lat="59.334999" lon="18.079086">
        <ele>38</ele>
        <time>2020-01-17T07:49:08Z</time>
      </trkpt>
      <trkpt lat="59.334926" lon="18.079032">
        <ele>37</ele>
        <time>2020-01-17T07:49:09Z</time>
      </trkpt>
      <trkpt lat="59.334852" lon="18.078972">
        <ele>37</ele>
        <time>2020-01-17T07:49:10Z</time>
      </trkpt>
      <trkpt lat="59.334782" lon="18.078912">
        <ele>36</ele>
        <time>2020-01-17T07:49:11Z</time>
      </trkpt>
      <trkpt lat="59.334716" lon="18.078858">
        <ele>36</ele>
        <time>2020-01-17T07:49:12Z</time>
      </trkpt>
      <trkpt lat="59.334645" lon="18.078802">
        <ele>36</ele>
        <time>2020-01-17T07:49:13Z</time>
      </trkpt>
      <trkpt lat="59.334577" lon="18.078746">
        <ele>35</ele>
        <time>2020-01-17T07:49:14Z</time>
      </trkpt>
      <trkpt lat="59.334517" lon="18.078696">
        <ele>35</ele>
        <time>2020-01-17T07:49:15Z</time>
      </trkpt>
      <trkpt lat="59.334466" lon="18.078652">
        <ele>35</ele>
        <time>2020-01-17T07:49:16Z</time>
      </trkpt>
      <trkpt lat="59.334422" lon="18.078616">
        <ele>34</ele>
        <time>2020-01-17T07:49:17Z</time>
      </trkpt>
      <trkpt lat="59.334388" lon="18.078584">
        <ele>34</ele>
        <time>2020-01-17T07:49:18Z</time>
      </trkpt>
      <trkpt lat="59.334362" lon="18.07856">
        <ele>34</ele>
        <time>2020-01-17T07:49:19Z</time>
      </trkpt>
      <trkpt lat="59.334338" lon="18.07854">
        <ele>34</ele>
        <time>2020-01-17T07:49:20Z</time>
      </trkpt>
      <trkpt lat="59.33432" lon="18.078526">
        <ele>34</ele>
        <time>2020-01-17T07:49:21Z</time>
      </trkpt>
      <trkpt lat="59.334288" lon="18.078498">
        <ele>33</ele>
        <time>2020-01-17T07:49:23Z</time>
      </trkpt>
      <trkpt lat="59.334251" lon="18.078456">
        <ele>33</ele>
        <time>2020-01-17T07:49:25Z</time>
      </trkpt>
      <trkpt lat="59.334213" lon="18.078436">
        <ele>33</ele>
        <time>2020-01-17T07:49:26Z</time>
      </trkpt>
      <trkpt lat="59.334178" lon="18.078414">
        <ele>33</ele>
        <time>2020-01-17T07:49:27Z</time>
      </trkpt>
      <trkpt lat="59.334138" lon="18.078388">
        <ele>32</ele>
        <time>2020-01-17T07:49:28Z</time>
      </trkpt>
      <trkpt lat="59.3341" lon="18.078356">
        <ele>32</ele>
        <time>2020-01-17T07:49:29Z</time>
      </trkpt>
      <trkpt lat="59.334058" lon="18.07832">
        <ele>33</ele>
        <time>2020-01-17T07:49:30Z</time>
      </trkpt>
      <trkpt lat="59.334016" lon="18.078284">
        <ele>33</ele>
        <time>2020-01-17T07:49:31Z</time>
      </trkpt>
      <trkpt lat="59.333972" lon="18.078244">
        <ele>33</ele>
        <time>2020-01-17T07:49:32Z</time>
      </trkpt>
      <trkpt lat="59.333924" lon="18.078204">
        <ele>33</ele>
        <time>2020-01-17T07:49:33Z</time>
      </trkpt>
      <trkpt lat="59.333874" lon="18.078164">
        <ele>33</ele>
        <time>2020-01-17T07:49:34Z</time>
      </trkpt>
      <trkpt lat="59.333828" lon="18.078116">
        <ele>33</ele>
        <time>2020-01-17T07:49:35Z</time>
      </trkpt>
      <trkpt lat="59.333772" lon="18.078072">
        <ele>33</ele>
        <time>2020-01-17T07:49:36Z</time>
      </trkpt>
      <trkpt lat="59.333722" lon="18.078024">
        <ele>33</ele>
        <time>2020-01-17T07:49:37Z</time>
      </trkpt>
      <trkpt lat="59.333668" lon="18.077972">
        <ele>33</ele>
        <time>2020-01-17T07:49:38Z</time>
      </trkpt>
      <trkpt lat="59.333615" lon="18.077904">
        <ele>33</ele>
        <time>2020-01-17T07:49:39Z</time>
      </trkpt>
      <trkpt lat="59.333572" lon="18.077832">
        <ele>33</ele>
        <time>2020-01-17T07:49:40Z</time>
      </trkpt>
      <trkpt lat="59.333524" lon="18.077782">
        <ele>33</ele>
        <time>2020-01-17T07:49:41Z</time>
      </trkpt>
      <trkpt lat="59.333473" lon="18.077738">
        <ele>33</ele>
        <time>2020-01-17T07:49:42Z</time>
      </trkpt>
      <trkpt lat="59.333356" lon="18.077674">
        <ele>33</ele>
        <time>2020-01-17T07:49:44Z</time>
      </trkpt>
      <trkpt lat="59.333248" lon="18.0776">
        <ele>33</ele>
        <time>2020-01-17T07:49:46Z</time>
      </trkpt>
      <trkpt lat="59.33314" lon="18.077522">
        <ele>32</ele>
        <time>2020-01-17T07:49:48Z</time>
      </trkpt>
      <trkpt lat="59.333" lon="18.077404">
        <ele>31</ele>
        <time>2020-01-17T07:49:50Z</time>
      </trkpt>
      <trkpt lat="59.332936" lon="18.077352">
        <ele>30</ele>
        <time>2020-01-17T07:49:51Z</time>
      </trkpt>
      <trkpt lat="59.33289" lon="18.0773">
        <ele>29</ele>
        <time>2020-01-17T07:49:52Z</time>
      </trkpt>
      <trkpt lat="59.332858" lon="18.077248">
        <ele>29</ele>
        <time>2020-01-17T07:49:53Z</time>
      </trkpt>
      <trkpt lat="59.332848" lon="18.07719">
        <ele>28</ele>
        <time>2020-01-17T07:49:54Z</time>
      </trkpt>
      <trkpt lat="59.332846" lon="18.077122">
        <ele>28</ele>
        <time>2020-01-17T07:49:55Z</time>
      </trkpt>
      <trkpt lat="59.332846" lon="18.077046">
        <ele>27</ele>
        <time>2020-01-17T07:49:56Z</time>
      </trkpt>
      <trkpt lat="59.332844" lon="18.076966">
        <ele>25</ele>
        <time>2020-01-17T07:49:57Z</time>
      </trkpt>
      <trkpt lat="59.332854" lon="18.076878">
        <ele>24</ele>
        <time>2020-01-17T07:49:58Z</time>
      </trkpt>
      <trkpt lat="59.332874" lon="18.076792">
        <ele>22</ele>
        <time>2020-01-17T07:49:59Z</time>
      </trkpt>
      <trkpt lat="59.332892" lon="18.076708">
        <ele>21</ele>
        <time>2020-01-17T07:50:00Z</time>
      </trkpt>
      <trkpt lat="59.332909" lon="18.07663">
        <ele>20</ele>
        <time>2020-01-17T07:50:01Z</time>
      </trkpt>
      <trkpt lat="59.332927" lon="18.076553">
        <ele>20</ele>
        <time>2020-01-17T07:50:02Z</time>
      </trkpt>
      <trkpt lat="59.332945" lon="18.076479">
        <ele>19</ele>
        <time>2020-01-17T07:50:03Z</time>
      </trkpt>
      <trkpt lat="59.332967" lon="18.076412">
        <ele>18</ele>
        <time>2020-01-17T07:50:04Z</time>
      </trkpt>
      <trkpt lat="59.332988" lon="18.076352">
        <ele>17</ele>
        <time>2020-01-17T07:50:05Z</time>
      </trkpt>
      <trkpt lat="59.333006" lon="18.076296">
        <ele>16</ele>
        <time>2020-01-17T07:50:06Z</time>
      </trkpt>
      <trkpt lat="59.333031" lon="18.076242">
        <ele>15</ele>
        <time>2020-01-17T07:50:07Z</time>
      </trkpt>
      <trkpt lat="59.333062" lon="18.076195">
        <ele>15</ele>
        <time>2020-01-17T07:50:08Z</time>
      </trkpt>
      <trkpt lat="59.333089" lon="18.076155">
        <ele>15</ele>
        <time>2020-01-17T07:50:09Z</time>
      </trkpt>
      <trkpt lat="59.333106" lon="18.076118">
        <ele>15</ele>
        <time>2020-01-17T07:50:10Z</time>
      </trkpt>
      <trkpt lat="59.33311" lon="18.076083">
        <ele>15</ele>
        <time>2020-01-17T07:50:12Z</time>
      </trkpt>
      <trkpt lat="59.333106" lon="18.076079">
        <ele>14</ele>
        <time>2020-01-17T07:50:17Z</time>
      </trkpt>
      <trkpt lat="59.333035" lon="18.076021">
        <ele>14</ele>
        <time>2020-01-17T07:50:59Z</time>
      </trkpt>
      <trkpt lat="59.333001" lon="18.075996">
        <ele>14</ele>
        <time>2020-01-17T07:50:59Z</time>
      </trkpt>
      <trkpt lat="59.332966" lon="18.07597">
        <ele>14</ele>
        <time>2020-01-17T07:51:00Z</time>
      </trkpt>
      <trkpt lat="59.33293" lon="18.075944">
        <ele>14</ele>
        <time>2020-01-17T07:51:01Z</time>
      </trkpt>
      <trkpt lat="59.332895" lon="18.075919">
        <ele>14</ele>
        <time>2020-01-17T07:51:02Z</time>
      </trkpt>
      <trkpt lat="59.332861" lon="18.075896">
        <ele>14</ele>
        <time>2020-01-17T07:51:03Z</time>
      </trkpt>
      <trkpt lat="59.33283" lon="18.075876">
        <ele>14</ele>
        <time>2020-01-17T07:51:04Z</time>
      </trkpt>
      <trkpt lat="59.332807" lon="18.075855">
        <ele>13</ele>
        <time>2020-01-17T07:51:05Z</time>
      </trkpt>
      <trkpt lat="59.332784" lon="18.075823">
        <ele>13</ele>
        <time>2020-01-17T07:51:06Z</time>
      </trkpt>
      <trkpt lat="59.332761" lon="18.075784">
        <ele>13</ele>
        <time>2020-01-17T07:51:07Z</time>
      </trkpt>
      <trkpt lat="59.332745" lon="18.075733">
        <ele>13</ele>
        <time>2020-01-17T07:51:08Z</time>
      </trkpt>
      <trkpt lat="59.332737" lon="18.075668">
        <ele>13</ele>
        <time>2020-01-17T07:51:09Z</time>
      </trkpt>
      <trkpt lat="59.332735" lon="18.075595">
        <ele>13</ele>
        <time>2020-01-17T07:51:10Z</time>
      </trkpt>
      <trkpt lat="59.332729" lon="18.075518">
        <ele>13</ele>
        <time>2020-01-17T07:51:11Z</time>
      </trkpt>
      <trkpt lat="59.332714" lon="18.07545">
        <ele>13</ele>
        <time>2020-01-17T07:51:12Z</time>
      </trkpt>
      <trkpt lat="59.332693" lon="18.075392">
        <ele>13</ele>
        <time>2020-01-17T07:51:13Z</time>
      </trkpt>
      <trkpt lat="59.332665" lon="18.075341">
        <ele>13</ele>
        <time>2020-01-17T07:51:14Z</time>
      </trkpt>
      <trkpt lat="59.332631" lon="18.075308">
        <ele>13</ele>
        <time>2020-01-17T07:51:15Z</time>
      </trkpt>
      <trkpt lat="59.33259" lon="18.075295">
        <ele>13</ele>
        <time>2020-01-17T07:51:16Z</time>
      </trkpt>
      <trkpt lat="59.332545" lon="18.075293">
        <ele>13</ele>
        <time>2020-01-17T07:51:17Z</time>
      </trkpt>
      <trkpt lat="59.332501" lon="18.07529">
        <ele>13</ele>
        <time>2020-01-17T07:51:18Z</time>
      </trkpt>
      <trkpt lat="59.332459" lon="18.075276">
        <ele>13</ele>
        <time>2020-01-17T07:51:19Z</time>
      </trkpt>
      <trkpt lat="59.332421" lon="18.075247">
        <ele>13</ele>
        <time>2020-01-17T07:51:20Z</time>
      </trkpt>
      <trkpt lat="59.332387" lon="18.075207">
        <ele>13</ele>
        <time>2020-01-17T07:51:21Z</time>
      </trkpt>
      <trkpt lat="59.332353" lon="18.075158">
        <ele>13</ele>
        <time>2020-01-17T07:51:22Z</time>
      </trkpt>
      <trkpt lat="59.332316" lon="18.075106">
        <ele>13</ele>
        <time>2020-01-17T07:51:23Z</time>
      </trkpt>
      <trkpt lat="59.332278" lon="18.075054">
        <ele>13</ele>
        <time>2020-01-17T07:51:24Z</time>
      </trkpt>
      <trkpt lat="59.332239" lon="18.075002">
        <ele>13</ele>
        <time>2020-01-17T07:51:25Z</time>
      </trkpt>
      <trkpt lat="59.332201" lon="18.074957">
        <ele>13</ele>
        <time>2020-01-17T07:51:26Z</time>
      </trkpt>
      <trkpt lat="59.332165" lon="18.074912">
        <ele>13</ele>
        <time>2020-01-17T07:51:27Z</time>
      </trkpt>
      <trkpt lat="59.332128" lon="18.074866">
        <ele>13</ele>
        <time>2020-01-17T07:51:28Z</time>
      </trkpt>
      <trkpt lat="59.332089" lon="18.074818">
        <ele>13</ele>
        <time>2020-01-17T07:51:29Z</time>
      </trkpt>
      <trkpt lat="59.332048" lon="18.074771">
        <ele>13</ele>
        <time>2020-01-17T07:51:30Z</time>
      </trkpt>
      <trkpt lat="59.332008" lon="18.074723">
        <ele>13</ele>
        <time>2020-01-17T07:51:31Z</time>
      </trkpt>
      <trkpt lat="59.331968" lon="18.074678">
        <ele>13</ele>
        <time>2020-01-17T07:51:32Z</time>
      </trkpt>
      <trkpt lat="59.331928" lon="18.074633">
        <ele>13</ele>
        <time>2020-01-17T07:51:33Z</time>
      </trkpt>
      <trkpt lat="59.331886" lon="18.074588">
        <ele>13</ele>
        <time>2020-01-17T07:51:34Z</time>
      </trkpt>
      <trkpt lat="59.331844" lon="18.074537">
        <ele>13</ele>
        <time>2020-01-17T07:51:35Z</time>
      </trkpt>
      <trkpt lat="59.3318" lon="18.07449">
        <ele>13</ele>
        <time>2020-01-17T07:51:36Z</time>
      </trkpt>
      <trkpt lat="59.33175" lon="18.074443">
        <ele>13</ele>
        <time>2020-01-17T07:51:37Z</time>
      </trkpt>
      <trkpt lat="59.331704" lon="18.074396">
        <ele>13</ele>
        <time>2020-01-17T07:51:38Z</time>
      </trkpt>
      <trkpt lat="59.331659" lon="18.074342">
        <ele>13</ele>
        <time>2020-01-17T07:51:39Z</time>
      </trkpt>
      <trkpt lat="59.331626" lon="18.074289">
        <ele>13</ele>
        <time>2020-01-17T07:51:40Z</time>
      </trkpt>
      <trkpt lat="59.331606" lon="18.074219">
        <ele>13</ele>
        <time>2020-01-17T07:51:41Z</time>
      </trkpt>
      <trkpt lat="59.331594" lon="18.074117">
        <ele>12</ele>
        <time>2020-01-17T07:51:42Z</time>
      </trkpt>
      <trkpt lat="59.33158" lon="18.07402">
        <ele>12</ele>
        <time>2020-01-17T07:51:43Z</time>
      </trkpt>
      <trkpt lat="59.331563" lon="18.07393">
        <ele>12</ele>
        <time>2020-01-17T07:51:44Z</time>
      </trkpt>
      <trkpt lat="59.331548" lon="18.073844">
        <ele>12</ele>
        <time>2020-01-17T07:51:45Z</time>
      </trkpt>
      <trkpt lat="59.331534" lon="18.073756">
        <ele>11</ele>
        <time>2020-01-17T07:51:46Z</time>
      </trkpt>
      <trkpt lat="59.331519" lon="18.073663">
        <ele>11</ele>
        <time>2020-01-17T07:51:47Z</time>
      </trkpt>
      <trkpt lat="59.3315" lon="18.073579">
        <ele>11</ele>
        <time>2020-01-17T07:51:48Z</time>
      </trkpt>
      <trkpt lat="59.331474" lon="18.073497">
        <ele>11</ele>
        <time>2020-01-17T07:51:49Z</time>
      </trkpt>
      <trkpt lat="59.33145" lon="18.073415">
        <ele>12</ele>
        <time>2020-01-17T07:51:50Z</time>
      </trkpt>
      <trkpt lat="59.331431" lon="18.07323">
        <ele>12</ele>
        <time>2020-01-17T07:51:52Z</time>
      </trkpt>
      <trkpt lat="59.331409" lon="18.073057">
        <ele>12</ele>
        <time>2020-01-17T07:51:54Z</time>
      </trkpt>
      <trkpt lat="59.331391" lon="18.072828">
        <ele>13</ele>
        <time>2020-01-17T07:51:57Z</time>
      </trkpt>
      <trkpt lat="59.331397" lon="18.07275">
        <ele>13</ele>
        <time>2020-01-17T07:51:58Z</time>
      </trkpt>
      <trkpt lat="59.331396" lon="18.072683">
        <ele>13</ele>
        <time>2020-01-17T07:51:59Z</time>
      </trkpt>
      <trkpt lat="59.331388" lon="18.072626">
        <ele>13</ele>
        <time>2020-01-17T07:52:00Z</time>
      </trkpt>
      <trkpt lat="59.331381" lon="18.072593">
        <ele>13</ele>
        <time>2020-01-17T07:52:01Z</time>
      </trkpt>
      <trkpt lat="59.331383" lon="18.07254">
        <ele>14</ele>
        <time>2020-01-17T07:52:03Z</time>
      </trkpt>
      <trkpt lat="59.33137" lon="18.072512">
        <ele>14</ele>
        <time>2020-01-17T07:52:04Z</time>
      </trkpt>
      <trkpt lat="59.331346" lon="18.072497">
        <ele>14</ele>
        <time>2020-01-17T07:52:05Z</time>
      </trkpt>
      <trkpt lat="59.331319" lon="18.072496">
        <ele>14</ele>
        <time>2020-01-17T07:52:06Z</time>
      </trkpt>
      <trkpt lat="59.331276" lon="18.072522">
        <ele>14</ele>
        <time>2020-01-17T07:52:07Z</time>
      </trkpt>
      <trkpt lat="59.331233" lon="18.072546">
        <ele>15</ele>
        <time>2020-01-17T07:52:08Z</time>
      </trkpt>
      <trkpt lat="59.331187" lon="18.07257">
        <ele>15</ele>
        <time>2020-01-17T07:52:09Z</time>
      </trkpt>
      <trkpt lat="59.331141" lon="18.072597">
        <ele>15</ele>
        <time>2020-01-17T07:52:10Z</time>
      </trkpt>
      <trkpt lat="59.331095" lon="18.072627">
        <ele>15</ele>
        <time>2020-01-17T07:52:11Z</time>
      </trkpt>
      <trkpt lat="59.331049" lon="18.072656">
        <ele>15</ele>
        <time>2020-01-17T07:52:12Z</time>
      </trkpt>
      <trkpt lat="59.331005" lon="18.072685">
        <ele>15</ele>
        <time>2020-01-17T07:52:13Z</time>
      </trkpt>
      <trkpt lat="59.330959" lon="18.072713">
        <ele>16</ele>
        <time>2020-01-17T07:52:14Z</time>
      </trkpt>
      <trkpt lat="59.330915" lon="18.072741">
        <ele>16</ele>
        <time>2020-01-17T07:52:15Z</time>
      </trkpt>
      <trkpt lat="59.330875" lon="18.072774">
        <ele>16</ele>
        <time>2020-01-17T07:52:16Z</time>
      </trkpt>
      <trkpt lat="59.330834" lon="18.072802">
        <ele>16</ele>
        <time>2020-01-17T07:52:17Z</time>
      </trkpt>
      <trkpt lat="59.330794" lon="18.072828">
        <ele>16</ele>
        <time>2020-01-17T07:52:18Z</time>
      </trkpt>
      <trkpt lat="59.330753" lon="18.072851">
        <ele>17</ele>
        <time>2020-01-17T07:52:19Z</time>
      </trkpt>
      <trkpt lat="59.330714" lon="18.072876">
        <ele>16</ele>
        <time>2020-01-17T07:52:20Z</time>
      </trkpt>
      <trkpt lat="59.330674" lon="18.072889">
        <ele>16</ele>
        <time>2020-01-17T07:52:21Z</time>
      </trkpt>
      <trkpt lat="59.330632" lon="18.07288">
        <ele>16</ele>
        <time>2020-01-17T07:52:22Z</time>
      </trkpt>
      <trkpt lat="59.330595" lon="18.072851">
        <ele>16</ele>
        <time>2020-01-17T07:52:23Z</time>
      </trkpt>
      <trkpt lat="59.33056" lon="18.072818">
        <ele>16</ele>
        <time>2020-01-17T07:52:24Z</time>
      </trkpt>
      <trkpt lat="59.330521" lon="18.072797">
        <ele>16</ele>
        <time>2020-01-17T07:52:25Z</time>
      </trkpt>
      <trkpt lat="59.330478" lon="18.072786">
        <ele>16</ele>
        <time>2020-01-17T07:52:26Z</time>
      </trkpt>
      <trkpt lat="59.330437" lon="18.07278">
        <ele>17</ele>
        <time>2020-01-17T07:52:27Z</time>
      </trkpt>
      <trkpt lat="59.330396" lon="18.072779">
        <ele>17</ele>
        <time>2020-01-17T07:52:28Z</time>
      </trkpt>
      <trkpt lat="59.330359" lon="18.072786">
        <ele>17</ele>
        <time>2020-01-17T07:52:29Z</time>
      </trkpt>
      <trkpt lat="59.33032" lon="18.072795">
        <ele>17</ele>
        <time>2020-01-17T07:52:30Z</time>
      </trkpt>
      <trkpt lat="59.330273" lon="18.07282">
        <ele>18</ele>
        <time>2020-01-17T07:52:31Z</time>
      </trkpt>
      <trkpt lat="59.330236" lon="18.072846">
        <ele>18</ele>
        <time>2020-01-17T07:52:32Z</time>
      </trkpt>
      <trkpt lat="59.330194" lon="18.072882">
        <ele>18</ele>
        <time>2020-01-17T07:52:33Z</time>
      </trkpt>
      <trkpt lat="59.330149" lon="18.072903">
        <ele>18</ele>
        <time>2020-01-17T07:52:34Z</time>
      </trkpt>
      <trkpt lat="59.330102" lon="18.072934">
        <ele>17</ele>
        <time>2020-01-17T07:52:35Z</time>
      </trkpt>
      <trkpt lat="59.330059" lon="18.072962">
        <ele>17</ele>
        <time>2020-01-17T07:52:36Z</time>
      </trkpt>
      <trkpt lat="59.330016" lon="18.07299">
        <ele>17</ele>
        <time>2020-01-17T07:52:37Z</time>
      </trkpt>
      <trkpt lat="59.329967" lon="18.073025">
        <ele>16</ele>
        <time>2020-01-17T07:52:38Z</time>
      </trkpt>
      <trkpt lat="59.329925" lon="18.073056">
        <ele>16</ele>
        <time>2020-01-17T07:52:39Z</time>
      </trkpt>
      <trkpt lat="59.329881" lon="18.073097">
        <ele>16</ele>
        <time>2020-01-17T07:52:40Z</time>
      </trkpt>
      <trkpt lat="59.329823" lon="18.073142">
        <ele>15</ele>
        <time>2020-01-17T07:52:41Z</time>
      </trkpt>
      <trkpt lat="59.329762" lon="18.073172">
        <ele>14</ele>
        <time>2020-01-17T07:52:42Z</time>
      </trkpt>
      <trkpt lat="59.329693" lon="18.073177">
        <ele>14</ele>
        <time>2020-01-17T07:52:43Z</time>
      </trkpt>
      <trkpt lat="59.329626" lon="18.073175">
        <ele>13</ele>
        <time>2020-01-17T07:52:44Z</time>
      </trkpt>
      <trkpt lat="59.329562" lon="18.073179">
        <ele>13</ele>
        <time>2020-01-17T07:52:45Z</time>
      </trkpt>
      <trkpt lat="59.329493" lon="18.073175">
        <ele>13</ele>
        <time>2020-01-17T07:52:46Z</time>
      </trkpt>
      <trkpt lat="59.329427" lon="18.07317">
        <ele>13</ele>
        <time>2020-01-17T07:52:47Z</time>
      </trkpt>
      <trkpt lat="59.329366" lon="18.073159">
        <ele>13</ele>
        <time>2020-01-17T07:52:48Z</time>
      </trkpt>
      <trkpt lat="59.329308" lon="18.073144">
        <ele>13</ele>
        <time>2020-01-17T07:52:49Z</time>
      </trkpt>
      <trkpt lat="59.329254" lon="18.073128">
        <ele>12</ele>
        <time>2020-01-17T07:52:50Z</time>
      </trkpt>
      <trkpt lat="59.3292" lon="18.073113">
        <ele>12</ele>
        <time>2020-01-17T07:52:51Z</time>
      </trkpt>
      <trkpt lat="59.329149" lon="18.0731">
        <ele>12</ele>
        <time>2020-01-17T07:52:52Z</time>
      </trkpt>
      <trkpt lat="59.329101" lon="18.07309">
        <ele>12</ele>
        <time>2020-01-17T07:52:53Z</time>
      </trkpt>
      <trkpt lat="59.329053" lon="18.07308">
        <ele>12</ele>
        <time>2020-01-17T07:52:54Z</time>
      </trkpt>
      <trkpt lat="59.329005" lon="18.073068">
        <ele>12</ele>
        <time>2020-01-17T07:52:55Z</time>
      </trkpt>
      <trkpt lat="59.328959" lon="18.073057">
        <ele>12</ele>
        <time>2020-01-17T07:52:56Z</time>
      </trkpt>
      <trkpt lat="59.328913" lon="18.073046">
        <ele>11</ele>
        <time>2020-01-17T07:52:57Z</time>
      </trkpt>
      <trkpt lat="59.328866" lon="18.073035">
        <ele>11</ele>
        <time>2020-01-17T07:52:58Z</time>
      </trkpt>
      <trkpt lat="59.328821" lon="18.073024">
        <ele>11</ele>
        <time>2020-01-17T07:52:59Z</time>
      </trkpt>
      <trkpt lat="59.328777" lon="18.073013">
        <ele>11</ele>
        <time>2020-01-17T07:53:00Z</time>
      </trkpt>
      <trkpt lat="59.328733" lon="18.073003">
        <ele>10</ele>
        <time>2020-01-17T07:53:01Z</time>
      </trkpt>
      <trkpt lat="59.328686" lon="18.072993">
        <ele>10</ele>
        <time>2020-01-17T07:53:02Z</time>
      </trkpt>
      <trkpt lat="59.328639" lon="18.072982">
        <ele>10</ele>
        <time>2020-01-17T07:53:03Z</time>
      </trkpt>
      <trkpt lat="59.328591" lon="18.072972">
        <ele>10</ele>
        <time>2020-01-17T07:53:04Z</time>
      </trkpt>
      <trkpt lat="59.328539" lon="18.072961">
        <ele>10</ele>
        <time>2020-01-17T07:53:05Z</time>
      </trkpt>
      <trkpt lat="59.328486" lon="18.072946">
        <ele>10</ele>
        <time>2020-01-17T07:53:06Z</time>
      </trkpt>
      <trkpt lat="59.328433" lon="18.072934">
        <ele>10</ele>
        <time>2020-01-17T07:53:07Z</time>
      </trkpt>
      <trkpt lat="59.328378" lon="18.07292">
        <ele>10</ele>
        <time>2020-01-17T07:53:08Z</time>
      </trkpt>
      <trkpt lat="59.328323" lon="18.072903">
        <ele>9</ele>
        <time>2020-01-17T07:53:09Z</time>
      </trkpt>
      <trkpt lat="59.328268" lon="18.072888">
        <ele>9</ele>
        <time>2020-01-17T07:53:10Z</time>
      </trkpt>
      <trkpt lat="59.328214" lon="18.072875">
        <ele>9</ele>
        <time>2020-01-17T07:53:11Z</time>
      </trkpt>
      <trkpt lat="59.328158" lon="18.07286">
        <ele>9</ele>
        <time>2020-01-17T07:53:12Z</time>
      </trkpt>
      <trkpt lat="59.3281" lon="18.072845">
        <ele>8</ele>
        <time>2020-01-17T07:53:13Z</time>
      </trkpt>
      <trkpt lat="59.328042" lon="18.072835">
        <ele>8</ele>
        <time>2020-01-17T07:53:14Z</time>
      </trkpt>
      <trkpt lat="59.327985" lon="18.072837">
        <ele>8</ele>
        <time>2020-01-17T07:53:15Z</time>
      </trkpt>
      <trkpt lat="59.32793" lon="18.072851">
        <ele>8</ele>
        <time>2020-01-17T07:53:16Z</time>
      </trkpt>
      <trkpt lat="59.327878" lon="18.072877">
        <ele>8</ele>
        <time>2020-01-17T07:53:17Z</time>
      </trkpt>
      <trkpt lat="59.327827" lon="18.072915">
        <ele>8</ele>
        <time>2020-01-17T07:53:18Z</time>
      </trkpt>
      <trkpt lat="59.32778" lon="18.072963">
        <ele>8</ele>
        <time>2020-01-17T07:53:19Z</time>
      </trkpt>
      <trkpt lat="59.327733" lon="18.073015">
        <ele>8</ele>
        <time>2020-01-17T07:53:20Z</time>
      </trkpt>
      <trkpt lat="59.327688" lon="18.073068">
        <ele>8</ele>
        <time>2020-01-17T07:53:21Z</time>
      </trkpt>
      <trkpt lat="59.327643" lon="18.073122">
        <ele>8</ele>
        <time>2020-01-17T07:53:22Z</time>
      </trkpt>
      <trkpt lat="59.327599" lon="18.073175">
        <ele>8</ele>
        <time>2020-01-17T07:53:23Z</time>
      </trkpt>
      <trkpt lat="59.327555" lon="18.073229">
        <ele>8</ele>
        <time>2020-01-17T07:53:24Z</time>
      </trkpt>
      <trkpt lat="59.327511" lon="18.073283">
        <ele>8</ele>
        <time>2020-01-17T07:53:25Z</time>
      </trkpt>
      <trkpt lat="59.327467" lon="18.073338">
        <ele>8</ele>
        <time>2020-01-17T07:53:26Z</time>
      </trkpt>
      <trkpt lat="59.327423" lon="18.073395">
        <ele>8</ele>
        <time>2020-01-17T07:53:27Z</time>
      </trkpt>
      <trkpt lat="59.327378" lon="18.073451">
        <ele>8</ele>
        <time>2020-01-17T07:53:28Z</time>
      </trkpt>
      <trkpt lat="59.327332" lon="18.073507">
        <ele>8</ele>
        <time>2020-01-17T07:53:29Z</time>
      </trkpt>
      <trkpt lat="59.327286" lon="18.073564">
        <ele>8</ele>
        <time>2020-01-17T07:53:30Z</time>
      </trkpt>
      <trkpt lat="59.327239" lon="18.073621">
        <ele>8</ele>
        <time>2020-01-17T07:53:31Z</time>
      </trkpt>
      <trkpt lat="59.327192" lon="18.07368">
        <ele>8</ele>
        <time>2020-01-17T07:53:32Z</time>
      </trkpt>
      <trkpt lat="59.327148" lon="18.073737">
        <ele>8</ele>
        <time>2020-01-17T07:53:33Z</time>
      </trkpt>
      <trkpt lat="59.327102" lon="18.073793">
        <ele>8</ele>
        <time>2020-01-17T07:53:34Z</time>
      </trkpt>
      <trkpt lat="59.32705" lon="18.073854">
        <ele>8</ele>
        <time>2020-01-17T07:53:35Z</time>
      </trkpt>
      <trkpt lat="59.327003" lon="18.073913">
        <ele>9</ele>
        <time>2020-01-17T07:53:36Z</time>
      </trkpt>
      <trkpt lat="59.326953" lon="18.073977">
        <ele>9</ele>
        <time>2020-01-17T07:53:37Z</time>
      </trkpt>
      <trkpt lat="59.326903" lon="18.074041">
        <ele>9</ele>
        <time>2020-01-17T07:53:38Z</time>
      </trkpt>
      <trkpt lat="59.326852" lon="18.074101">
        <ele>8</ele>
        <time>2020-01-17T07:53:39Z</time>
      </trkpt>
      <trkpt lat="59.3268" lon="18.074161">
        <ele>8</ele>
        <time>2020-01-17T07:53:40Z</time>
      </trkpt>
      <trkpt lat="59.326751" lon="18.074223">
        <ele>8</ele>
        <time>2020-01-17T07:53:41Z</time>
      </trkpt>
      <trkpt lat="59.326702" lon="18.074284">
        <ele>8</ele>
        <time>2020-01-17T07:53:42Z</time>
      </trkpt>
      <trkpt lat="59.326652" lon="18.074344">
        <ele>8</ele>
        <time>2020-01-17T07:53:43Z</time>
      </trkpt>
      <trkpt lat="59.326602" lon="18.074404">
        <ele>8</ele>
        <time>2020-01-17T07:53:44Z</time>
      </trkpt>
      <trkpt lat="59.326553" lon="18.074467">
        <ele>8</ele>
        <time>2020-01-17T07:53:45Z</time>
      </trkpt>
      <trkpt lat="59.326505" lon="18.074532">
        <ele>8</ele>
        <time>2020-01-17T07:53:46Z</time>
      </trkpt>
      <trkpt lat="59.326458" lon="18.074599">
        <ele>8</ele>
        <time>2020-01-17T07:53:47Z</time>
      </trkpt>
      <trkpt lat="59.32641" lon="18.074664">
        <ele>8</ele>
        <time>2020-01-17T07:53:48Z</time>
      </trkpt>
      <trkpt lat="59.326362" lon="18.07473">
        <ele>8</ele>
        <time>2020-01-17T07:53:49Z</time>
      </trkpt>
      <trkpt lat="59.326312" lon="18.074795">
        <ele>8</ele>
        <time>2020-01-17T07:53:50Z</time>
      </trkpt>
      <trkpt lat="59.326262" lon="18.074862">
        <ele>8</ele>
        <time>2020-01-17T07:53:51Z</time>
      </trkpt>
      <trkpt lat="59.326209" lon="18.074923">
        <ele>8</ele>
        <time>2020-01-17T07:53:52Z</time>
      </trkpt>
      <trkpt lat="59.326155" lon="18.07498">
        <ele>8</ele>
        <time>2020-01-17T07:53:53Z</time>
      </trkpt>
      <trkpt lat="59.326101" lon="18.075038">
        <ele>8</ele>
        <time>2020-01-17T07:53:54Z</time>
      </trkpt>
      <trkpt lat="59.326047" lon="18.075095">
        <ele>9</ele>
        <time>2020-01-17T07:53:55Z</time>
      </trkpt>
      <trkpt lat="59.325992" lon="18.075148">
        <ele>9</ele>
        <time>2020-01-17T07:53:56Z</time>
      </trkpt>
      <trkpt lat="59.325937" lon="18.0752">
        <ele>9</ele>
        <time>2020-01-17T07:53:57Z</time>
      </trkpt>
      <trkpt lat="59.325881" lon="18.075253">
        <ele>9</ele>
        <time>2020-01-17T07:53:58Z</time>
      </trkpt>
      <trkpt lat="59.325826" lon="18.075306">
        <ele>9</ele>
        <time>2020-01-17T07:53:59Z</time>
      </trkpt>
      <trkpt lat="59.32577" lon="18.075355">
        <ele>9</ele>
        <time>2020-01-17T07:54:00Z</time>
      </trkpt>
      <trkpt lat="59.325714" lon="18.075403">
        <ele>9</ele>
        <time>2020-01-17T07:54:01Z</time>
      </trkpt>
      <trkpt lat="59.32566" lon="18.075452">
        <ele>9</ele>
        <time>2020-01-17T07:54:02Z</time>
      </trkpt>
      <trkpt lat="59.325604" lon="18.075501">
        <ele>9</ele>
        <time>2020-01-17T07:54:03Z</time>
      </trkpt>
      <trkpt lat="59.325548" lon="18.075542">
        <ele>9</ele>
        <time>2020-01-17T07:54:04Z</time>
      </trkpt>
      <trkpt lat="59.325491" lon="18.075566">
        <ele>9</ele>
        <time>2020-01-17T07:54:05Z</time>
      </trkpt>
      <trkpt lat="59.325435" lon="18.07558">
        <ele>9</ele>
        <time>2020-01-17T07:54:06Z</time>
      </trkpt>
      <trkpt lat="59.325378" lon="18.075591">
        <ele>10</ele>
        <time>2020-01-17T07:54:07Z</time>
      </trkpt>
      <trkpt lat="59.325323" lon="18.075603">
        <ele>10</ele>
        <time>2020-01-17T07:54:08Z</time>
      </trkpt>
      <trkpt lat="59.325268" lon="18.075619">
        <ele>10</ele>
        <time>2020-01-17T07:54:09Z</time>
      </trkpt>
      <trkpt lat="59.325215" lon="18.075632">
        <ele>10</ele>
        <time>2020-01-17T07:54:10Z</time>
      </trkpt>
      <trkpt lat="59.325161" lon="18.07564">
        <ele>10</ele>
        <time>2020-01-17T07:54:11Z</time>
      </trkpt>
      <trkpt lat="59.325107" lon="18.075643">
        <ele>10</ele>
        <time>2020-01-17T07:54:12Z</time>
      </trkpt>
      <trkpt lat="59.325053" lon="18.075651">
        <ele>10</ele>
        <time>2020-01-17T07:54:13Z</time>
      </trkpt>
      <trkpt lat="59.325" lon="18.075654">
        <ele>10</ele>
        <time>2020-01-17T07:54:14Z</time>
      </trkpt>
      <trkpt lat="59.324946" lon="18.075656">
        <ele>10</ele>
        <time>2020-01-17T07:54:15Z</time>
      </trkpt>
      <trkpt lat="59.324892" lon="18.075652">
        <ele>10</ele>
        <time>2020-01-17T07:54:16Z</time>
      </trkpt>
      <trkpt lat="59.324838" lon="18.075644">
        <ele>10</ele>
        <time>2020-01-17T07:54:17Z</time>
      </trkpt>
      <trkpt lat="59.324784" lon="18.075629">
        <ele>10</ele>
        <time>2020-01-17T07:54:18Z</time>
      </trkpt>
      <trkpt lat="59.324732" lon="18.075611">
        <ele>10</ele>
        <time>2020-01-17T07:54:19Z</time>
      </trkpt>
      <trkpt lat="59.32468" lon="18.075583">
        <ele>10</ele>
        <time>2020-01-17T07:54:20Z</time>
      </trkpt>
      <trkpt lat="59.324627" lon="18.075558">
        <ele>10</ele>
        <time>2020-01-17T07:54:21Z</time>
      </trkpt>
      <trkpt lat="59.324574" lon="18.075538">
        <ele>10</ele>
        <time>2020-01-17T07:54:22Z</time>
      </trkpt>
      <trkpt lat="59.324521" lon="18.07552">
        <ele>10</ele>
        <time>2020-01-17T07:54:23Z</time>
      </trkpt>
      <trkpt lat="59.324468" lon="18.075507">
        <ele>10</ele>
        <time>2020-01-17T07:54:24Z</time>
      </trkpt>
      <trkpt lat="59.324415" lon="18.075486">
        <ele>10</ele>
        <time>2020-01-17T07:54:25Z</time>
      </trkpt>
      <trkpt lat="59.324362" lon="18.075469">
        <ele>10</ele>
        <time>2020-01-17T07:54:26Z</time>
      </trkpt>
      <trkpt lat="59.324309" lon="18.075453">
        <ele>10</ele>
        <time>2020-01-17T07:54:27Z</time>
      </trkpt>
      <trkpt lat="59.324256" lon="18.075435">
        <ele>9</ele>
        <time>2020-01-17T07:54:29Z</time>
      </trkpt>
      <trkpt lat="59.324204" lon="18.075415">
        <ele>9</ele>
        <time>2020-01-17T07:54:29Z</time>
      </trkpt>
      <trkpt lat="59.324152" lon="18.075397">
        <ele>9</ele>
        <time>2020-01-17T07:54:30Z</time>
      </trkpt>
      <trkpt lat="59.324101" lon="18.075377">
        <ele>9</ele>
        <time>2020-01-17T07:54:31Z</time>
      </trkpt>
      <trkpt lat="59.324049" lon="18.075353">
        <ele>9</ele>
        <time>2020-01-17T07:54:32Z</time>
      </trkpt>
      <trkpt lat="59.323999" lon="18.075329">
        <ele>9</ele>
        <time>2020-01-17T07:54:33Z</time>
      </trkpt>
      <trkpt lat="59.323949" lon="18.075306">
        <ele>9</ele>
        <time>2020-01-17T07:54:34Z</time>
      </trkpt>
      <trkpt lat="59.323897" lon="18.075287">
        <ele>9</ele>
        <time>2020-01-17T07:54:35Z</time>
      </trkpt>
      <trkpt lat="59.323845" lon="18.075268">
        <ele>9</ele>
        <time>2020-01-17T07:54:36Z</time>
      </trkpt>
      <trkpt lat="59.323794" lon="18.07525">
        <ele>9</ele>
        <time>2020-01-17T07:54:37Z</time>
      </trkpt>
      <trkpt lat="59.323743" lon="18.07523">
        <ele>9</ele>
        <time>2020-01-17T07:54:38Z</time>
      </trkpt>
      <trkpt lat="59.323692" lon="18.075211">
        <ele>9</ele>
        <time>2020-01-17T07:54:39Z</time>
      </trkpt>
      <trkpt lat="59.323641" lon="18.075194">
        <ele>9</ele>
        <time>2020-01-17T07:54:40Z</time>
      </trkpt>
      <trkpt lat="59.32359" lon="18.075176">
        <ele>9</ele>
        <time>2020-01-17T07:54:41Z</time>
      </trkpt>
      <trkpt lat="59.32354" lon="18.075156">
        <ele>9</ele>
        <time>2020-01-17T07:54:42Z</time>
      </trkpt>
      <trkpt lat="59.323491" lon="18.075136">
        <ele>9</ele>
        <time>2020-01-17T07:54:43Z</time>
      </trkpt>
      <trkpt lat="59.323441" lon="18.075116">
        <ele>9</ele>
        <time>2020-01-17T07:54:44Z</time>
      </trkpt>
      <trkpt lat="59.323392" lon="18.075096">
        <ele>9</ele>
        <time>2020-01-17T07:54:45Z</time>
      </trkpt>
      <trkpt lat="59.323343" lon="18.075078">
        <ele>9</ele>
        <time>2020-01-17T07:54:46Z</time>
      </trkpt>
      <trkpt lat="59.323294" lon="18.07506">
        <ele>9</ele>
        <time>2020-01-17T07:54:48Z</time>
      </trkpt>
      <trkpt lat="59.323244" lon="18.075042">
        <ele>9</ele>
        <time>2020-01-17T07:54:48Z</time>
      </trkpt>
      <trkpt lat="59.323194" lon="18.075021">
        <ele>9</ele>
        <time>2020-01-17T07:54:49Z</time>
      </trkpt>
      <trkpt lat="59.323142" lon="18.075">
        <ele>9</ele>
        <time>2020-01-17T07:54:50Z</time>
      </trkpt>
      <trkpt lat="59.323089" lon="18.074979">
        <ele>9</ele>
        <time>2020-01-17T07:54:51Z</time>
      </trkpt>
      <trkpt lat="59.323036" lon="18.074958">
        <ele>9</ele>
        <time>2020-01-17T07:54:52Z</time>
      </trkpt>
      <trkpt lat="59.322983" lon="18.074934">
        <ele>9</ele>
        <time>2020-01-17T07:54:53Z</time>
      </trkpt>
      <trkpt lat="59.322932" lon="18.0749">
        <ele>9</ele>
        <time>2020-01-17T07:54:54Z</time>
      </trkpt>
      <trkpt lat="59.322883" lon="18.074856">
        <ele>9</ele>
        <time>2020-01-17T07:54:55Z</time>
      </trkpt>
      <trkpt lat="59.322836" lon="18.074809">
        <ele>9</ele>
        <time>2020-01-17T07:54:56Z</time>
      </trkpt>
      <trkpt lat="59.322788" lon="18.07476">
        <ele>9</ele>
        <time>2020-01-17T07:54:57Z</time>
      </trkpt>
      <trkpt lat="59.32274" lon="18.07471">
        <ele>9</ele>
        <time>2020-01-17T07:54:58Z</time>
      </trkpt>
      <trkpt lat="59.322692" lon="18.074654">
        <ele>9</ele>
        <time>2020-01-17T07:54:59Z</time>
      </trkpt>
      <trkpt lat="59.322644" lon="18.074593">
        <ele>9</ele>
        <time>2020-01-17T07:55:00Z</time>
      </trkpt>
      <trkpt lat="59.322594" lon="18.074535">
        <ele>9</ele>
        <time>2020-01-17T07:55:01Z</time>
      </trkpt>
      <trkpt lat="59.322543" lon="18.074484">
        <ele>9</ele>
        <time>2020-01-17T07:55:02Z</time>
      </trkpt>
      <trkpt lat="59.322491" lon="18.074437">
        <ele>9</ele>
        <time>2020-01-17T07:55:03Z</time>
      </trkpt>
      <trkpt lat="59.32244" lon="18.07439">
        <ele>9</ele>
        <time>2020-01-17T07:55:04Z</time>
      </trkpt>
      <trkpt lat="59.322389" lon="18.074346">
        <ele>9</ele>
        <time>2020-01-17T07:55:05Z</time>
      </trkpt>
      <trkpt lat="59.322339" lon="18.074304">
        <ele>9</ele>
        <time>2020-01-17T07:55:07Z</time>
      </trkpt>
      <trkpt lat="59.32229" lon="18.074263">
        <ele>9</ele>
        <time>2020-01-17T07:55:07Z</time>
      </trkpt>
      <trkpt lat="59.322241" lon="18.074225">
        <ele>9</ele>
        <time>2020-01-17T07:55:08Z</time>
      </trkpt>
      <trkpt lat="59.322195" lon="18.074183">
        <ele>9</ele>
        <time>2020-01-17T07:55:09Z</time>
      </trkpt>
      <trkpt lat="59.322151" lon="18.074136">
        <ele>9</ele>
        <time>2020-01-17T07:55:10Z</time>
      </trkpt>
      <trkpt lat="59.32211" lon="18.074083">
        <ele>9</ele>
        <time>2020-01-17T07:55:11Z</time>
      </trkpt>
      <trkpt lat="59.322072" lon="18.074029">
        <ele>9</ele>
        <time>2020-01-17T07:55:12Z</time>
      </trkpt>
      <trkpt lat="59.322033" lon="18.073982">
        <ele>9</ele>
        <time>2020-01-17T07:55:13Z</time>
      </trkpt>
      <trkpt lat="59.322001" lon="18.073943">
        <ele>9</ele>
        <time>2020-01-17T07:55:14Z</time>
      </trkpt>
      <trkpt lat="59.321974" lon="18.073905">
        <ele>9</ele>
        <time>2020-01-17T07:55:15Z</time>
      </trkpt>
      <trkpt lat="59.321955" lon="18.073857">
        <ele>9</ele>
        <time>2020-01-17T07:55:16Z</time>
      </trkpt>
      <trkpt lat="59.321947" lon="18.073793">
        <ele>9</ele>
        <time>2020-01-17T07:55:17Z</time>
      </trkpt>
      <trkpt lat="59.321939" lon="18.073722">
        <ele>9</ele>
        <time>2020-01-17T07:55:18Z</time>
      </trkpt>
      <trkpt lat="59.321946" lon="18.073653">
        <ele>9</ele>
        <time>2020-01-17T07:55:19Z</time>
      </trkpt>
      <trkpt lat="59.321965" lon="18.073575">
        <ele>8</ele>
        <time>2020-01-17T07:55:20Z</time>
      </trkpt>
      <trkpt lat="59.321982" lon="18.0735">
        <ele>8</ele>
        <time>2020-01-17T07:55:21Z</time>
      </trkpt>
      <trkpt lat="59.322" lon="18.073425">
        <ele>8</ele>
        <time>2020-01-17T07:55:22Z</time>
      </trkpt>
      <trkpt lat="59.322017" lon="18.073348">
        <ele>8</ele>
        <time>2020-01-17T07:55:23Z</time>
      </trkpt>
      <trkpt lat="59.322036" lon="18.073269">
        <ele>8</ele>
        <time>2020-01-17T07:55:24Z</time>
      </trkpt>
      <trkpt lat="59.322055" lon="18.073189">
        <ele>8</ele>
        <time>2020-01-17T07:55:25Z</time>
      </trkpt>
      <trkpt lat="59.322073" lon="18.07311">
        <ele>8</ele>
        <time>2020-01-17T07:55:26Z</time>
      </trkpt>
      <trkpt lat="59.32209" lon="18.07303">
        <ele>8</ele>
        <time>2020-01-17T07:55:27Z</time>
      </trkpt>
      <trkpt lat="59.322106" lon="18.072953">
        <ele>8</ele>
        <time>2020-01-17T07:55:28Z</time>
      </trkpt>
      <trkpt lat="59.322119" lon="18.072871">
        <ele>8</ele>
        <time>2020-01-17T07:55:29Z</time>
      </trkpt>
      <trkpt lat="59.322125" lon="18.072787">
        <ele>8</ele>
        <time>2020-01-17T07:55:30Z</time>
      </trkpt>
      <trkpt lat="59.32213" lon="18.072707">
        <ele>8</ele>
        <time>2020-01-17T07:55:31Z</time>
      </trkpt>
      <trkpt lat="59.322134" lon="18.072634">
        <ele>8</ele>
        <time>2020-01-17T07:55:32Z</time>
      </trkpt>
      <trkpt lat="59.322134" lon="18.072562">
        <ele>8</ele>
        <time>2020-01-17T07:55:33Z</time>
      </trkpt>
      <trkpt lat="59.322137" lon="18.072494">
        <ele>8</ele>
        <time>2020-01-17T07:55:34Z</time>
      </trkpt>
      <trkpt lat="59.322137" lon="18.072437">
        <ele>8</ele>
        <time>2020-01-17T07:55:35Z</time>
      </trkpt>
      <trkpt lat="59.322122" lon="18.072398">
        <ele>8</ele>
        <time>2020-01-17T07:55:36Z</time>
      </trkpt>
      <trkpt lat="59.322102" lon="18.072359">
        <ele>8</ele>
        <time>2020-01-17T07:55:37Z</time>
      </trkpt>
      <trkpt lat="59.322085" lon="18.072331">
        <ele>8</ele>
        <time>2020-01-17T07:55:38Z</time>
      </trkpt>
      <trkpt lat="59.322057" lon="18.072318">
        <ele>8</ele>
        <time>2020-01-17T07:55:39Z</time>
      </trkpt>
      <trkpt lat="59.322023" lon="18.072311">
        <ele>9</ele>
        <time>2020-01-17T07:55:40Z</time>
      </trkpt>
      <trkpt lat="59.321988" lon="18.072297">
        <ele>9</ele>
        <time>2020-01-17T07:55:41Z</time>
      </trkpt>
      <trkpt lat="59.321949" lon="18.072276">
        <ele>9</ele>
        <time>2020-01-17T07:55:42Z</time>
      </trkpt>
      <trkpt lat="59.321901" lon="18.072248">
        <ele>10</ele>
        <time>2020-01-17T07:55:43Z</time>
      </trkpt>
      <trkpt lat="59.321857" lon="18.072224">
        <ele>11</ele>
        <time>2020-01-17T07:55:44Z</time>
      </trkpt>
      <trkpt lat="59.321813" lon="18.072207">
        <ele>11</ele>
        <time>2020-01-17T07:55:45Z</time>
      </trkpt>
      <trkpt lat="59.321774" lon="18.072204">
        <ele>11</ele>
        <time>2020-01-17T07:55:46Z</time>
      </trkpt>
      <trkpt lat="59.321739" lon="18.072209">
        <ele>11</ele>
        <time>2020-01-17T07:55:47Z</time>
      </trkpt>
      <trkpt lat="59.321705" lon="18.072211">
        <ele>11</ele>
        <time>2020-01-17T07:55:48Z</time>
      </trkpt>
      <trkpt lat="59.32167" lon="18.072207">
        <ele>12</ele>
        <time>2020-01-17T07:55:49Z</time>
      </trkpt>
      <trkpt lat="59.321639" lon="18.072197">
        <ele>12</ele>
        <time>2020-01-17T07:55:50Z</time>
      </trkpt>
      <trkpt lat="59.321608" lon="18.07218">
        <ele>12</ele>
        <time>2020-01-17T07:55:51Z</time>
      </trkpt>
      <trkpt lat="59.321579" lon="18.072159">
        <ele>12</ele>
        <time>2020-01-17T07:55:52Z</time>
      </trkpt>
      <trkpt lat="59.321549" lon="18.072138">
        <ele>12</ele>
        <time>2020-01-17T07:55:53Z</time>
      </trkpt>
      <trkpt lat="59.32152" lon="18.072117">
        <ele>12</ele>
        <time>2020-01-17T07:55:54Z</time>
      </trkpt>
      <trkpt lat="59.32149" lon="18.072096">
        <ele>13</ele>
        <time>2020-01-17T07:55:55Z</time>
      </trkpt>
      <trkpt lat="59.32146" lon="18.072075">
        <ele>13</ele>
        <time>2020-01-17T07:55:56Z</time>
      </trkpt>
      <trkpt lat="59.321429" lon="18.072053">
        <ele>13</ele>
        <time>2020-01-17T07:55:57Z</time>
      </trkpt>
      <trkpt lat="59.321397" lon="18.07203">
        <ele>13</ele>
        <time>2020-01-17T07:55:58Z</time>
      </trkpt>
      <trkpt lat="59.321365" lon="18.072008">
        <ele>13</ele>
        <time>2020-01-17T07:55:59Z</time>
      </trkpt>
      <trkpt lat="59.321334" lon="18.071987">
        <ele>13</ele>
        <time>2020-01-17T07:56:00Z</time>
      </trkpt>
      <trkpt lat="59.321303" lon="18.071965">
        <ele>13</ele>
        <time>2020-01-17T07:56:01Z</time>
      </trkpt>
      <trkpt lat="59.32127" lon="18.071939">
        <ele>13</ele>
        <time>2020-01-17T07:56:02Z</time>
      </trkpt>
      <trkpt lat="59.321242" lon="18.071913">
        <ele>13</ele>
        <time>2020-01-17T07:56:03Z</time>
      </trkpt>
      <trkpt lat="59.321214" lon="18.071882">
        <ele>14</ele>
        <time>2020-01-17T07:56:04Z</time>
      </trkpt>
      <trkpt lat="59.32119" lon="18.071832">
        <ele>13</ele>
        <time>2020-01-17T07:56:05Z</time>
      </trkpt>
      <trkpt lat="59.321169" lon="18.071779">
        <ele>13</ele>
        <time>2020-01-17T07:56:06Z</time>
      </trkpt>
      <trkpt lat="59.321148" lon="18.071723">
        <ele>13</ele>
        <time>2020-01-17T07:56:07Z</time>
      </trkpt>
      <trkpt lat="59.321132" lon="18.071665">
        <ele>13</ele>
        <time>2020-01-17T07:56:08Z</time>
      </trkpt>
      <trkpt lat="59.321124" lon="18.07161">
        <ele>13</ele>
        <time>2020-01-17T07:56:09Z</time>
      </trkpt>
      <trkpt lat="59.321119" lon="18.071554">
        <ele>13</ele>
        <time>2020-01-17T07:56:10Z</time>
      </trkpt>
      <trkpt lat="59.321111" lon="18.071498">
        <ele>13</ele>
        <time>2020-01-17T07:56:11Z</time>
      </trkpt>
      <trkpt lat="59.321104" lon="18.071445">
        <ele>13</ele>
        <time>2020-01-17T07:56:12Z</time>
      </trkpt>
      <trkpt lat="59.321097" lon="18.071393">
        <ele>13</ele>
        <time>2020-01-17T07:56:13Z</time>
      </trkpt>
      <trkpt lat="59.321089" lon="18.071344">
        <ele>14</ele>
        <time>2020-01-17T07:56:14Z</time>
      </trkpt>
      <trkpt lat="59.321084" lon="18.071299">
        <ele>14</ele>
        <time>2020-01-17T07:56:15Z</time>
      </trkpt>
      <trkpt lat="59.321078" lon="18.071255">
        <ele>14</ele>
        <time>2020-01-17T07:56:16Z</time>
      </trkpt>
      <trkpt lat="59.321072" lon="18.07121">
        <ele>14</ele>
        <time>2020-01-17T07:56:17Z</time>
      </trkpt>
      <trkpt lat="59.321064" lon="18.071164">
        <ele>14</ele>
        <time>2020-01-17T07:56:18Z</time>
      </trkpt>
      <trkpt lat="59.321053" lon="18.071121">
        <ele>14</ele>
        <time>2020-01-17T07:56:19Z</time>
      </trkpt>
      <trkpt lat="59.321039" lon="18.071083">
        <ele>14</ele>
        <time>2020-01-17T07:56:20Z</time>
      </trkpt>
      <trkpt lat="59.321018" lon="18.071055">
        <ele>14</ele>
        <time>2020-01-17T07:56:21Z</time>
      </trkpt>
      <trkpt lat="59.320993" lon="18.071033">
        <ele>14</ele>
        <time>2020-01-17T07:56:22Z</time>
      </trkpt>
      <trkpt lat="59.320968" lon="18.071013">
        <ele>14</ele>
        <time>2020-01-17T07:56:23Z</time>
      </trkpt>
      <trkpt lat="59.320942" lon="18.070994">
        <ele>14</ele>
        <time>2020-01-17T07:56:24Z</time>
      </trkpt>
      <trkpt lat="59.320915" lon="18.070976">
        <ele>15</ele>
        <time>2020-01-17T07:56:25Z</time>
      </trkpt>
      <trkpt lat="59.320889" lon="18.070958">
        <ele>15</ele>
        <time>2020-01-17T07:56:26Z</time>
      </trkpt>
      <trkpt lat="59.320863" lon="18.070939">
        <ele>15</ele>
        <time>2020-01-17T07:56:27Z</time>
      </trkpt>
      <trkpt lat="59.320836" lon="18.070919">
        <ele>15</ele>
        <time>2020-01-17T07:56:28Z</time>
      </trkpt>
      <trkpt lat="59.32081" lon="18.070902">
        <ele>15</ele>
        <time>2020-01-17T07:56:29Z</time>
      </trkpt>
      <trkpt lat="59.320783" lon="18.070886">
        <ele>15</ele>
        <time>2020-01-17T07:56:30Z</time>
      </trkpt>
      <trkpt lat="59.320757" lon="18.07087">
        <ele>15</ele>
        <time>2020-01-17T07:56:31Z</time>
      </trkpt>
      <trkpt lat="59.320731" lon="18.070855">
        <ele>15</ele>
        <time>2020-01-17T07:56:32Z</time>
      </trkpt>
      <trkpt lat="59.320704" lon="18.070845">
        <ele>16</ele>
        <time>2020-01-17T07:56:33Z</time>
      </trkpt>
      <trkpt lat="59.320677" lon="18.070836">
        <ele>16</ele>
        <time>2020-01-17T07:56:34Z</time>
      </trkpt>
      <trkpt lat="59.320651" lon="18.070829">
        <ele>16</ele>
        <time>2020-01-17T07:56:35Z</time>
      </trkpt>
      <trkpt lat="59.320626" lon="18.07082">
        <ele>16</ele>
        <time>2020-01-17T07:56:36Z</time>
      </trkpt>
      <trkpt lat="59.320603" lon="18.070801">
        <ele>16</ele>
        <time>2020-01-17T07:56:37Z</time>
      </trkpt>
      <trkpt lat="59.320585" lon="18.070765">
        <ele>16</ele>
        <time>2020-01-17T07:56:38Z</time>
      </trkpt>
      <trkpt lat="59.320572" lon="18.070717">
        <ele>16</ele>
        <time>2020-01-17T07:56:39Z</time>
      </trkpt>
      <trkpt lat="59.320562" lon="18.070666">
        <ele>16</ele>
        <time>2020-01-17T07:56:40Z</time>
      </trkpt>
      <trkpt lat="59.320554" lon="18.070612">
        <ele>16</ele>
        <time>2020-01-17T07:56:41Z</time>
      </trkpt>
      <trkpt lat="59.320546" lon="18.070552">
        <ele>16</ele>
        <time>2020-01-17T07:56:42Z</time>
      </trkpt>
      <trkpt lat="59.320535" lon="18.070486">
        <ele>16</ele>
        <time>2020-01-17T07:56:43Z</time>
      </trkpt>
      <trkpt lat="59.320523" lon="18.070421">
        <ele>16</ele>
        <time>2020-01-17T07:56:44Z</time>
      </trkpt>
      <trkpt lat="59.320505" lon="18.070359">
        <ele>16</ele>
        <time>2020-01-17T07:56:45Z</time>
      </trkpt>
      <trkpt lat="59.320479" lon="18.070312">
        <ele>16</ele>
        <time>2020-01-17T07:56:46Z</time>
      </trkpt>
      <trkpt lat="59.320447" lon="18.070286">
        <ele>16</ele>
        <time>2020-01-17T07:56:47Z</time>
      </trkpt>
      <trkpt lat="59.320409" lon="18.070277">
        <ele>17</ele>
        <time>2020-01-17T07:56:48Z</time>
      </trkpt>
      <trkpt lat="59.320371" lon="18.070282">
        <ele>17</ele>
        <time>2020-01-17T07:56:49Z</time>
      </trkpt>
      <trkpt lat="59.320332" lon="18.070289">
        <ele>17</ele>
        <time>2020-01-17T07:56:50Z</time>
      </trkpt>
      <trkpt lat="59.320294" lon="18.0703">
        <ele>17</ele>
        <time>2020-01-17T07:56:51Z</time>
      </trkpt>
      <trkpt lat="59.320259" lon="18.07031">
        <ele>17</ele>
        <time>2020-01-17T07:56:52Z</time>
      </trkpt>
      <trkpt lat="59.320227" lon="18.070317">
        <ele>17</ele>
        <time>2020-01-17T07:56:53Z</time>
      </trkpt>
      <trkpt lat="59.320193" lon="18.070327">
        <ele>17</ele>
        <time>2020-01-17T07:56:54Z</time>
      </trkpt>
      <trkpt lat="59.320159" lon="18.070335">
        <ele>17</ele>
        <time>2020-01-17T07:56:55Z</time>
      </trkpt>
      <trkpt lat="59.320125" lon="18.070343">
        <ele>17</ele>
        <time>2020-01-17T07:56:56Z</time>
      </trkpt>
      <trkpt lat="59.320091" lon="18.070349">
        <ele>17</ele>
        <time>2020-01-17T07:56:57Z</time>
      </trkpt>
      <trkpt lat="59.320056" lon="18.070355">
        <ele>17</ele>
        <time>2020-01-17T07:56:58Z</time>
      </trkpt>
      <trkpt lat="59.320021" lon="18.070363">
        <ele>17</ele>
        <time>2020-01-17T07:56:59Z</time>
      </trkpt>
      <trkpt lat="59.319986" lon="18.070371">
        <ele>17</ele>
        <time>2020-01-17T07:57:00Z</time>
      </trkpt>
      <trkpt lat="59.319951" lon="18.070381">
        <ele>17</ele>
        <time>2020-01-17T07:57:01Z</time>
      </trkpt>
      <trkpt lat="59.319915" lon="18.070396">
        <ele>17</ele>
        <time>2020-01-17T07:57:02Z</time>
      </trkpt>
      <trkpt lat="59.319879" lon="18.070413">
        <ele>17</ele>
        <time>2020-01-17T07:57:03Z</time>
      </trkpt>
      <trkpt lat="59.319842" lon="18.070433">
        <ele>18</ele>
        <time>2020-01-17T07:57:04Z</time>
      </trkpt>
      <trkpt lat="59.319804" lon="18.070454">
        <ele>18</ele>
        <time>2020-01-17T07:57:05Z</time>
      </trkpt>
      <trkpt lat="59.319767" lon="18.070477">
        <ele>18</ele>
        <time>2020-01-17T07:57:06Z</time>
      </trkpt>
      <trkpt lat="59.319732" lon="18.070498">
        <ele>18</ele>
        <time>2020-01-17T07:57:07Z</time>
      </trkpt>
      <trkpt lat="59.3197" lon="18.070522">
        <ele>18</ele>
        <time>2020-01-17T07:57:08Z</time>
      </trkpt>
      <trkpt lat="59.319672" lon="18.070546">
        <ele>18</ele>
        <time>2020-01-17T07:57:09Z</time>
      </trkpt>
      <trkpt lat="59.319645" lon="18.070568">
        <ele>18</ele>
        <time>2020-01-17T07:57:10Z</time>
      </trkpt>
      <trkpt lat="59.319617" lon="18.070586">
        <ele>19</ele>
        <time>2020-01-17T07:57:11Z</time>
      </trkpt>
      <trkpt lat="59.319586" lon="18.070605">
        <ele>19</ele>
        <time>2020-01-17T07:57:12Z</time>
      </trkpt>
      <trkpt lat="59.319559" lon="18.070625">
        <ele>19</ele>
        <time>2020-01-17T07:57:13Z</time>
      </trkpt>
      <trkpt lat="59.319528" lon="18.070643">
        <ele>19</ele>
        <time>2020-01-17T07:57:14Z</time>
      </trkpt>
      <trkpt lat="59.319495" lon="18.070658">
        <ele>19</ele>
        <time>2020-01-17T07:57:15Z</time>
      </trkpt>
      <trkpt lat="59.319459" lon="18.070665">
        <ele>19</ele>
        <time>2020-01-17T07:57:16Z</time>
      </trkpt>
      <trkpt lat="59.319428" lon="18.070677">
        <ele>20</ele>
        <time>2020-01-17T07:57:17Z</time>
      </trkpt>
      <trkpt lat="59.319402" lon="18.070692">
        <ele>20</ele>
        <time>2020-01-17T07:57:18Z</time>
      </trkpt>
      <trkpt lat="59.319377" lon="18.070709">
        <ele>20</ele>
        <time>2020-01-17T07:57:19Z</time>
      </trkpt>
      <trkpt lat="59.319333" lon="18.070725">
        <ele>21</ele>
        <time>2020-01-17T07:57:20Z</time>
      </trkpt>
      <trkpt lat="59.319304" lon="18.070745">
        <ele>21</ele>
        <time>2020-01-17T07:57:21Z</time>
      </trkpt>
      <trkpt lat="59.31927" lon="18.070763">
        <ele>21</ele>
        <time>2020-01-17T07:57:22Z</time>
      </trkpt>
      <trkpt lat="59.319239" lon="18.07078">
        <ele>21</ele>
        <time>2020-01-17T07:57:23Z</time>
      </trkpt>
      <trkpt lat="59.319208" lon="18.070803">
        <ele>22</ele>
        <time>2020-01-17T07:57:24Z</time>
      </trkpt>
      <trkpt lat="59.319173" lon="18.070823">
        <ele>22</ele>
        <time>2020-01-17T07:57:25Z</time>
      </trkpt>
      <trkpt lat="59.319075" lon="18.070882">
        <ele>23</ele>
        <time>2020-01-17T07:57:28Z</time>
      </trkpt>
      <trkpt lat="59.318991" lon="18.070951">
        <ele>24</ele>
        <time>2020-01-17T07:57:31Z</time>
      </trkpt>
      <trkpt lat="59.318897" lon="18.07103">
        <ele>25</ele>
        <time>2020-01-17T07:57:35Z</time>
      </trkpt>
      <trkpt lat="59.318794" lon="18.071121">
        <ele>26</ele>
        <time>2020-01-17T07:57:40Z</time>
      </trkpt>
      <trkpt lat="59.318694" lon="18.071149">
        <ele>26</ele>
        <time>2020-01-17T07:57:43Z</time>
      </trkpt>
      <trkpt lat="59.318659" lon="18.071157">
        <ele>26</ele>
        <time>2020-01-17T07:57:44Z</time>
      </trkpt>
      <trkpt lat="59.318625" lon="18.071165">
        <ele>25</ele>
        <time>2020-01-17T07:57:45Z</time>
      </trkpt>
      <trkpt lat="59.318598" lon="18.071181">
        <ele>26</ele>
        <time>2020-01-17T07:57:46Z</time>
      </trkpt>
      <trkpt lat="59.318575" lon="18.071199">
        <ele>26</ele>
        <time>2020-01-17T07:57:47Z</time>
      </trkpt>
      <trkpt lat="59.318531" lon="18.071236">
        <ele>27</ele>
        <time>2020-01-17T07:57:49Z</time>
      </trkpt>
      <trkpt lat="59.31851" lon="18.071254">
        <ele>27</ele>
        <time>2020-01-17T07:57:50Z</time>
      </trkpt>
      <trkpt lat="59.318486" lon="18.071271">
        <ele>27</ele>
        <time>2020-01-17T07:57:51Z</time>
      </trkpt>
      <trkpt lat="59.318464" lon="18.071287">
        <ele>28</ele>
        <time>2020-01-17T07:57:52Z</time>
      </trkpt>
      <trkpt lat="59.318436" lon="18.071313">
        <ele>28</ele>
        <time>2020-01-17T07:57:53Z</time>
      </trkpt>
      <trkpt lat="59.318408" lon="18.071336">
        <ele>28</ele>
        <time>2020-01-17T07:57:54Z</time>
      </trkpt>
      <trkpt lat="59.318319" lon="18.071427">
        <ele>29</ele>
        <time>2020-01-17T07:57:58Z</time>
      </trkpt>
      <trkpt lat="59.318264" lon="18.071479">
        <ele>30</ele>
        <time>2020-01-17T07:58:01Z</time>
      </trkpt>
      <trkpt lat="59.31818" lon="18.071568">
        <ele>31</ele>
        <time>2020-01-17T07:58:06Z</time>
      </trkpt>
      <trkpt lat="59.318119" lon="18.071608">
        <ele>33</ele>
        <time>2020-01-17T07:58:09Z</time>
      </trkpt>
      <trkpt lat="59.318024" lon="18.071649">
        <ele>36</ele>
        <time>2020-01-17T07:58:14Z</time>
      </trkpt>
      <trkpt lat="59.317935" lon="18.071733">
        <ele>36</ele>
        <time>2020-01-17T07:58:17Z</time>
      </trkpt>
      <trkpt lat="59.317823" lon="18.071803">
        <ele>37</ele>
        <time>2020-01-17T07:58:20Z</time>
      </trkpt>
      <trkpt lat="59.317732" lon="18.071867">
        <ele>38</ele>
        <time>2020-01-17T07:58:23Z</time>
      </trkpt>
      <trkpt lat="59.317706" lon="18.071891">
        <ele>39</ele>
        <time>2020-01-17T07:58:24Z</time>
      </trkpt>
      <trkpt lat="59.317657" lon="18.071926">
        <ele>39</ele>
        <time>2020-01-17T07:58:26Z</time>
      </trkpt>
      <trkpt lat="59.31763" lon="18.071939">
        <ele>39</ele>
        <time>2020-01-17T07:58:27Z</time>
      </trkpt>
      <trkpt lat="59.317519" lon="18.071991">
        <ele>40</ele>
        <time>2020-01-17T07:58:31Z</time>
      </trkpt>
      <trkpt lat="59.31739" lon="18.071929">
        <ele>41</ele>
        <time>2020-01-17T07:58:34Z</time>
      </trkpt>
      <trkpt lat="59.317299" lon="18.071877">
        <ele>41</ele>
        <time>2020-01-17T07:58:37Z</time>
      </trkpt>
      <trkpt lat="59.317199" lon="18.071928">
        <ele>41</ele>
        <time>2020-01-17T07:58:40Z</time>
      </trkpt>
      <trkpt lat="59.317118" lon="18.072008">
        <ele>40</ele>
        <time>2020-01-17T07:58:42Z</time>
      </trkpt>
      <trkpt lat="59.317009" lon="18.072073">
        <ele>41</ele>
        <time>2020-01-17T07:58:45Z</time>
      </trkpt>
      <trkpt lat="59.316924" lon="18.072135">
        <ele>41</ele>
        <time>2020-01-17T07:58:47Z</time>
      </trkpt>
      <trkpt lat="59.316807" lon="18.072191">
        <ele>41</ele>
        <time>2020-01-17T07:58:50Z</time>
      </trkpt>
      <trkpt lat="59.316673" lon="18.072153">
        <ele>42</ele>
        <time>2020-01-17T07:58:52Z</time>
      </trkpt>
      <trkpt lat="59.316596" lon="18.072207">
        <ele>43</ele>
        <time>2020-01-17T07:58:55Z</time>
      </trkpt>
      <trkpt lat="59.316561" lon="18.072227">
        <ele>43</ele>
        <time>2020-01-17T07:58:55Z</time>
      </trkpt>
      <trkpt lat="59.31653" lon="18.07225">
        <ele>43</ele>
        <time>2020-01-17T07:58:56Z</time>
      </trkpt>
      <trkpt lat="59.316487" lon="18.072285">
        <ele>43</ele>
        <time>2020-01-17T07:58:57Z</time>
      </trkpt>
      <trkpt lat="59.316448" lon="18.072314">
        <ele>44</ele>
        <time>2020-01-17T07:58:58Z</time>
      </trkpt>
      <trkpt lat="59.316413" lon="18.072346">
        <ele>44</ele>
        <time>2020-01-17T07:58:59Z</time>
      </trkpt>
      <trkpt lat="59.316289" lon="18.072437">
        <ele>44</ele>
        <time>2020-01-17T07:59:02Z</time>
      </trkpt>
      <trkpt lat="59.316174" lon="18.0725">
        <ele>45</ele>
        <time>2020-01-17T07:59:05Z</time>
      </trkpt>
      <trkpt lat="59.316061" lon="18.072562">
        <ele>45</ele>
        <time>2020-01-17T07:59:08Z</time>
      </trkpt>
      <trkpt lat="59.315959" lon="18.072613">
        <ele>45</ele>
        <time>2020-01-17T07:59:11Z</time>
      </trkpt>
      <trkpt lat="59.315914" lon="18.072645">
        <ele>0</ele>
        <time>2020-01-17T07:59:22Z</time>
      </trkpt>
      <trkpt lat="59.315824" lon="18.072676">
        <ele>43</ele>
        <time>2020-01-17T08:00:23Z</time>
      </trkpt>
      <trkpt lat="59.315774" lon="18.072675">
        <ele>43</ele>
        <time>2020-01-17T08:00:24Z</time>
      </trkpt>
      <trkpt lat="59.315744" lon="18.072698">
        <ele>42</ele>
        <time>2020-01-17T08:00:25Z</time>
      </trkpt>
      <trkpt lat="59.315722" lon="18.072728">
        <ele>42</ele>
        <time>2020-01-17T08:00:26Z</time>
      </trkpt>
      <trkpt lat="59.3157" lon="18.072764">
        <ele>42</ele>
        <time>2020-01-17T08:00:27Z</time>
      </trkpt>
      <trkpt lat="59.31568" lon="18.072806">
        <ele>42</ele>
        <time>2020-01-17T08:00:28Z</time>
      </trkpt>
      <trkpt lat="59.315654" lon="18.072842">
        <ele>42</ele>
        <time>2020-01-17T08:00:29Z</time>
      </trkpt>
      <trkpt lat="59.315617" lon="18.072857">
        <ele>42</ele>
        <time>2020-01-17T08:00:30Z</time>
      </trkpt>
      <trkpt lat="59.315533" lon="18.072831">
        <ele>42</ele>
        <time>2020-01-17T08:00:31Z</time>
      </trkpt>
      <trkpt lat="59.31547" lon="18.072815">
        <ele>42</ele>
        <time>2020-01-17T08:00:32Z</time>
      </trkpt>
      <trkpt lat="59.315422" lon="18.072819">
        <ele>41</ele>
        <time>2020-01-17T08:00:33Z</time>
      </trkpt>
      <trkpt lat="59.315377" lon="18.072826">
        <ele>41</ele>
        <time>2020-01-17T08:00:34Z</time>
      </trkpt>
      <trkpt lat="59.315333" lon="18.072839">
        <ele>40</ele>
        <time>2020-01-17T08:00:35Z</time>
      </trkpt>
      <trkpt lat="59.31529" lon="18.072857">
        <ele>40</ele>
        <time>2020-01-17T08:00:36Z</time>
      </trkpt>
      <trkpt lat="59.315242" lon="18.072875">
        <ele>39</ele>
        <time>2020-01-17T08:00:37Z</time>
      </trkpt>
      <trkpt lat="59.315195" lon="18.072894">
        <ele>39</ele>
        <time>2020-01-17T08:00:38Z</time>
      </trkpt>
      <trkpt lat="59.31515" lon="18.072913">
        <ele>38</ele>
        <time>2020-01-17T08:00:39Z</time>
      </trkpt>
      <trkpt lat="59.315104" lon="18.072935">
        <ele>38</ele>
        <time>2020-01-17T08:00:40Z</time>
      </trkpt>
      <trkpt lat="59.315057" lon="18.072956">
        <ele>38</ele>
        <time>2020-01-17T08:00:41Z</time>
      </trkpt>
      <trkpt lat="59.315012" lon="18.072979">
        <ele>37</ele>
        <time>2020-01-17T08:00:42Z</time>
      </trkpt>
      <trkpt lat="59.314968" lon="18.073001">
        <ele>37</ele>
        <time>2020-01-17T08:00:43Z</time>
      </trkpt>
      <trkpt lat="59.314925" lon="18.073027">
        <ele>37</ele>
        <time>2020-01-17T08:00:44Z</time>
      </trkpt>
      <trkpt lat="59.314883" lon="18.073056">
        <ele>37</ele>
        <time>2020-01-17T08:00:45Z</time>
      </trkpt>
      <trkpt lat="59.31484" lon="18.073084">
        <ele>37</ele>
        <time>2020-01-17T08:00:46Z</time>
      </trkpt>
      <trkpt lat="59.314802" lon="18.073111">
        <ele>37</ele>
        <time>2020-01-17T08:00:47Z</time>
      </trkpt>
      <trkpt lat="59.314761" lon="18.073131">
        <ele>37</ele>
        <time>2020-01-17T08:00:48Z</time>
      </trkpt>
      <trkpt lat="59.314723" lon="18.073151">
        <ele>37</ele>
        <time>2020-01-17T08:00:49Z</time>
      </trkpt>
      <trkpt lat="59.314687" lon="18.073164">
        <ele>37</ele>
        <time>2020-01-17T08:00:50Z</time>
      </trkpt>
      <trkpt lat="59.31465" lon="18.073179">
        <ele>37</ele>
        <time>2020-01-17T08:00:51Z</time>
      </trkpt>
      <trkpt lat="59.314616" lon="18.073193">
        <ele>37</ele>
        <time>2020-01-17T08:00:52Z</time>
      </trkpt>
      <trkpt lat="59.31458" lon="18.073209">
        <ele>37</ele>
        <time>2020-01-17T08:00:53Z</time>
      </trkpt>
      <trkpt lat="59.314542" lon="18.073228">
        <ele>37</ele>
        <time>2020-01-17T08:00:54Z</time>
      </trkpt>
      <trkpt lat="59.314505" lon="18.073244">
        <ele>37</ele>
        <time>2020-01-17T08:00:55Z</time>
      </trkpt>
      <trkpt lat="59.314475" lon="18.073263">
        <ele>37</ele>
        <time>2020-01-17T08:00:56Z</time>
      </trkpt>
      <trkpt lat="59.314451" lon="18.07328">
        <ele>37</ele>
        <time>2020-01-17T08:00:57Z</time>
      </trkpt>
      <trkpt lat="59.314433" lon="18.073295">
        <ele>37</ele>
        <time>2020-01-17T08:00:58Z</time>
      </trkpt>
      <trkpt lat="59.314413" lon="18.073303">
        <ele>37</ele>
        <time>2020-01-17T08:01:00Z</time>
      </trkpt>
      <trkpt lat="59.314418" lon="18.073308">
        <ele>37</ele>
        <time>2020-01-17T08:01:07Z</time>
      </trkpt>
      <trkpt lat="59.314363" lon="18.073387">
        <ele>38</ele>
        <time>2020-01-17T08:01:40Z</time>
      </trkpt>
      <trkpt lat="59.31433" lon="18.0734">
        <ele>38</ele>
        <time>2020-01-17T08:01:41Z</time>
      </trkpt>
      <trkpt lat="59.314279" lon="18.073402">
        <ele>38</ele>
        <time>2020-01-17T08:01:42Z</time>
      </trkpt>
      <trkpt lat="59.314232" lon="18.073418">
        <ele>38</ele>
        <time>2020-01-17T08:01:43Z</time>
      </trkpt>
      <trkpt lat="59.314185" lon="18.073432">
        <ele>37</ele>
        <time>2020-01-17T08:01:44Z</time>
      </trkpt>
      <trkpt lat="59.314144" lon="18.073459">
        <ele>37</ele>
        <time>2020-01-17T08:01:45Z</time>
      </trkpt>
      <trkpt lat="59.314097" lon="18.07349">
        <ele>37</ele>
        <time>2020-01-17T08:01:46Z</time>
      </trkpt>
      <trkpt lat="59.314044" lon="18.073518">
        <ele>37</ele>
        <time>2020-01-17T08:01:47Z</time>
      </trkpt>
      <trkpt lat="59.313991" lon="18.073546">
        <ele>37</ele>
        <time>2020-01-17T08:01:48Z</time>
      </trkpt>
      <trkpt lat="59.313934" lon="18.073575">
        <ele>38</ele>
        <time>2020-01-17T08:01:49Z</time>
      </trkpt>
      <trkpt lat="59.313887" lon="18.073604">
        <ele>38</ele>
        <time>2020-01-17T08:01:50Z</time>
      </trkpt>
      <trkpt lat="59.313848" lon="18.073629">
        <ele>38</ele>
        <time>2020-01-17T08:01:51Z</time>
      </trkpt>
      <trkpt lat="59.313803" lon="18.073651">
        <ele>38</ele>
        <time>2020-01-17T08:01:52Z</time>
      </trkpt>
      <trkpt lat="59.313758" lon="18.073683">
        <ele>38</ele>
        <time>2020-01-17T08:01:53Z</time>
      </trkpt>
      <trkpt lat="59.31371" lon="18.073712">
        <ele>38</ele>
        <time>2020-01-17T08:01:54Z</time>
      </trkpt>
      <trkpt lat="59.313667" lon="18.073746">
        <ele>39</ele>
        <time>2020-01-17T08:01:55Z</time>
      </trkpt>
      <trkpt lat="59.313625" lon="18.073782">
        <ele>39</ele>
        <time>2020-01-17T08:01:56Z</time>
      </trkpt>
      <trkpt lat="59.313584" lon="18.073813">
        <ele>39</ele>
        <time>2020-01-17T08:01:57Z</time>
      </trkpt>
      <trkpt lat="59.313536" lon="18.073835">
        <ele>39</ele>
        <time>2020-01-17T08:01:58Z</time>
      </trkpt>
      <trkpt lat="59.313486" lon="18.073849">
        <ele>40</ele>
        <time>2020-01-17T08:01:59Z</time>
      </trkpt>
      <trkpt lat="59.313444" lon="18.073868">
        <ele>40</ele>
        <time>2020-01-17T08:02:00Z</time>
      </trkpt>
      <trkpt lat="59.313402" lon="18.073885">
        <ele>40</ele>
        <time>2020-01-17T08:02:01Z</time>
      </trkpt>
      <trkpt lat="59.313358" lon="18.073898">
        <ele>40</ele>
        <time>2020-01-17T08:02:02Z</time>
      </trkpt>
      <trkpt lat="59.313309" lon="18.073909">
        <ele>40</ele>
        <time>2020-01-17T08:02:03Z</time>
      </trkpt>
      <trkpt lat="59.313269" lon="18.073926">
        <ele>40</ele>
        <time>2020-01-17T08:02:04Z</time>
      </trkpt>
      <trkpt lat="59.313236" lon="18.073942">
        <ele>40</ele>
        <time>2020-01-17T08:02:05Z</time>
      </trkpt>
      <trkpt lat="59.313209" lon="18.073954">
        <ele>41</ele>
        <time>2020-01-17T08:02:06Z</time>
      </trkpt>
      <trkpt lat="59.313184" lon="18.073968">
        <ele>41</ele>
        <time>2020-01-17T08:02:07Z</time>
      </trkpt>
      <trkpt lat="59.313156" lon="18.073981">
        <ele>41</ele>
        <time>2020-01-17T08:02:08Z</time>
      </trkpt>
      <trkpt lat="59.313135" lon="18.073993">
        <ele>41</ele>
        <time>2020-01-17T08:02:09Z</time>
      </trkpt>
      <trkpt lat="59.313117" lon="18.074005">
        <ele>42</ele>
        <time>2020-01-17T08:02:10Z</time>
      </trkpt>
      <trkpt lat="59.313091" lon="18.074023">
        <ele>42</ele>
        <time>2020-01-17T08:02:12Z</time>
      </trkpt>
      <trkpt lat="59.313058" lon="18.074036">
        <ele>43</ele>
        <time>2020-01-17T08:02:14Z</time>
      </trkpt>
      <trkpt lat="59.313033" lon="18.074026">
        <ele>44</ele>
        <time>2020-01-17T08:02:17Z</time>
      </trkpt>
      <trkpt lat="59.313014" lon="18.074029">
        <ele>45</ele>
        <time>2020-01-17T08:02:19Z</time>
      </trkpt>
      <trkpt lat="59.312991" lon="18.074036">
        <ele>46</ele>
        <time>2020-01-17T08:02:23Z</time>
      </trkpt>
      <trkpt lat="59.312965" lon="18.074035">
        <ele>46</ele>
        <time>2020-01-17T08:02:26Z</time>
      </trkpt>
      <trkpt lat="59.312944" lon="18.07403">
        <ele>47</ele>
        <time>2020-01-17T08:02:29Z</time>
      </trkpt>
      <trkpt lat="59.312915" lon="18.07404">
        <ele>47</ele>
        <time>2020-01-17T08:02:31Z</time>
      </trkpt>
      <trkpt lat="59.312888" lon="18.074039">
        <ele>47</ele>
        <time>2020-01-17T08:02:32Z</time>
      </trkpt>
      <trkpt lat="59.312837" lon="18.074012">
        <ele>48</ele>
        <time>2020-01-17T08:02:33Z</time>
      </trkpt>
      <trkpt lat="59.312794" lon="18.073997">
        <ele>48</ele>
        <time>2020-01-17T08:02:34Z</time>
      </trkpt>
      <trkpt lat="59.312756" lon="18.073992">
        <ele>48</ele>
        <time>2020-01-17T08:02:35Z</time>
      </trkpt>
      <trkpt lat="59.312719" lon="18.073994">
        <ele>48</ele>
        <time>2020-01-17T08:02:36Z</time>
      </trkpt>
      <trkpt lat="59.31268" lon="18.074006">
        <ele>48</ele>
        <time>2020-01-17T08:02:37Z</time>
      </trkpt>
      <trkpt lat="59.312634" lon="18.074024">
        <ele>48</ele>
        <time>2020-01-17T08:02:38Z</time>
      </trkpt>
      <trkpt lat="59.312585" lon="18.074048">
        <ele>48</ele>
        <time>2020-01-17T08:02:39Z</time>
      </trkpt>
      <trkpt lat="59.312541" lon="18.074077">
        <ele>49</ele>
        <time>2020-01-17T08:02:40Z</time>
      </trkpt>
      <trkpt lat="59.312503" lon="18.07411">
        <ele>49</ele>
        <time>2020-01-17T08:02:41Z</time>
      </trkpt>
      <trkpt lat="59.312455" lon="18.074137">
        <ele>49</ele>
        <time>2020-01-17T08:02:42Z</time>
      </trkpt>
      <trkpt lat="59.312397" lon="18.074166">
        <ele>49</ele>
        <time>2020-01-17T08:02:43Z</time>
      </trkpt>
      <trkpt lat="59.312345" lon="18.074202">
        <ele>49</ele>
        <time>2020-01-17T08:02:44Z</time>
      </trkpt>
      <trkpt lat="59.312291" lon="18.074231">
        <ele>49</ele>
        <time>2020-01-17T08:02:45Z</time>
      </trkpt>
      <trkpt lat="59.312241" lon="18.074261">
        <ele>48</ele>
        <time>2020-01-17T08:02:46Z</time>
      </trkpt>
      <trkpt lat="59.312204" lon="18.074301">
        <ele>48</ele>
        <time>2020-01-17T08:02:47Z</time>
      </trkpt>
      <trkpt lat="59.312155" lon="18.074335">
        <ele>48</ele>
        <time>2020-01-17T08:02:48Z</time>
      </trkpt>
      <trkpt lat="59.312108" lon="18.074359">
        <ele>48</ele>
        <time>2020-01-17T08:02:49Z</time>
      </trkpt>
      <trkpt lat="59.312065" lon="18.07438">
        <ele>49</ele>
        <time>2020-01-17T08:02:50Z</time>
      </trkpt>
      <trkpt lat="59.312026" lon="18.074403">
        <ele>49</ele>
        <time>2020-01-17T08:02:51Z</time>
      </trkpt>
      <trkpt lat="59.311937" lon="18.074412">
        <ele>49</ele>
        <time>2020-01-17T08:02:53Z</time>
      </trkpt>
      <trkpt lat="59.311872" lon="18.074405">
        <ele>50</ele>
        <time>2020-01-17T08:02:55Z</time>
      </trkpt>
      <trkpt lat="59.311823" lon="18.074432">
        <ele>50</ele>
        <time>2020-01-17T08:02:56Z</time>
      </trkpt>
      <trkpt lat="59.311793" lon="18.074453">
        <ele>50</ele>
        <time>2020-01-17T08:02:57Z</time>
      </trkpt>
      <trkpt lat="59.311754" lon="18.074486">
        <ele>50</ele>
        <time>2020-01-17T08:02:58Z</time>
      </trkpt>
      <trkpt lat="59.311697" lon="18.074516">
        <ele>49</ele>
        <time>2020-01-17T08:02:59Z</time>
      </trkpt>
      <trkpt lat="59.311641" lon="18.074529">
        <ele>49</ele>
        <time>2020-01-17T08:03:00Z</time>
      </trkpt>
      <trkpt lat="59.311591" lon="18.074549">
        <ele>49</ele>
        <time>2020-01-17T08:03:01Z</time>
      </trkpt>
      <trkpt lat="59.311544" lon="18.074574">
        <ele>48</ele>
        <time>2020-01-17T08:03:02Z</time>
      </trkpt>
      <trkpt lat="59.311493" lon="18.074596">
        <ele>48</ele>
        <time>2020-01-17T08:03:03Z</time>
      </trkpt>
      <trkpt lat="59.311444" lon="18.074626">
        <ele>48</ele>
        <time>2020-01-17T08:03:04Z</time>
      </trkpt>
      <trkpt lat="59.311397" lon="18.074654">
        <ele>48</ele>
        <time>2020-01-17T08:03:05Z</time>
      </trkpt>
      <trkpt lat="59.311348" lon="18.074687">
        <ele>48</ele>
        <time>2020-01-17T08:03:06Z</time>
      </trkpt>
      <trkpt lat="59.311299" lon="18.074715">
        <ele>48</ele>
        <time>2020-01-17T08:03:07Z</time>
      </trkpt>
      <trkpt lat="59.311254" lon="18.074737">
        <ele>48</ele>
        <time>2020-01-17T08:03:08Z</time>
      </trkpt>
      <trkpt lat="59.311208" lon="18.07476">
        <ele>49</ele>
        <time>2020-01-17T08:03:09Z</time>
      </trkpt>
      <trkpt lat="59.311113" lon="18.074809">
        <ele>49</ele>
        <time>2020-01-17T08:03:11Z</time>
      </trkpt>
      <trkpt lat="59.311064" lon="18.074832">
        <ele>49</ele>
        <time>2020-01-17T08:03:12Z</time>
      </trkpt>
      <trkpt lat="59.31102" lon="18.074856">
        <ele>49</ele>
        <time>2020-01-17T08:03:13Z</time>
      </trkpt>
      <trkpt lat="59.310975" lon="18.074881">
        <ele>49</ele>
        <time>2020-01-17T08:03:14Z</time>
      </trkpt>
      <trkpt lat="59.310941" lon="18.074908">
        <ele>49</ele>
        <time>2020-01-17T08:03:15Z</time>
      </trkpt>
      <trkpt lat="59.310903" lon="18.074933">
        <ele>49</ele>
        <time>2020-01-17T08:03:16Z</time>
      </trkpt>
      <trkpt lat="59.310866" lon="18.07496">
        <ele>49</ele>
        <time>2020-01-17T08:03:17Z</time>
      </trkpt>
      <trkpt lat="59.310835" lon="18.074987">
        <ele>49</ele>
        <time>2020-01-17T08:03:18Z</time>
      </trkpt>
      <trkpt lat="59.310794" lon="18.075004">
        <ele>49</ele>
        <time>2020-01-17T08:03:19Z</time>
      </trkpt>
      <trkpt lat="59.310705" lon="18.075043">
        <ele>49</ele>
        <time>2020-01-17T08:03:22Z</time>
      </trkpt>
      <trkpt lat="59.310609" lon="18.075094">
        <ele>50</ele>
        <time>2020-01-17T08:03:25Z</time>
      </trkpt>
      <trkpt lat="59.310479" lon="18.075143">
        <ele>48</ele>
        <time>2020-01-17T08:03:29Z</time>
      </trkpt>
      <trkpt lat="59.310436" lon="18.075175">
        <ele>48</ele>
        <time>2020-01-17T08:03:30Z</time>
      </trkpt>
      <trkpt lat="59.310393" lon="18.075213">
        <ele>48</ele>
        <time>2020-01-17T08:03:31Z</time>
      </trkpt>
      <trkpt lat="59.310295" lon="18.075289">
        <ele>49</ele>
        <time>2020-01-17T08:03:33Z</time>
      </trkpt>
      <trkpt lat="59.310178" lon="18.075415">
        <ele>49</ele>
        <time>2020-01-17T08:03:36Z</time>
      </trkpt>
      <trkpt lat="59.310094" lon="18.075505">
        <ele>50</ele>
        <time>2020-01-17T08:03:38Z</time>
      </trkpt>
      <trkpt lat="59.309988" lon="18.07558">
        <ele>50</ele>
        <time>2020-01-17T08:03:40Z</time>
      </trkpt>
      <trkpt lat="59.309864" lon="18.075654">
        <ele>50</ele>
        <time>2020-01-17T08:03:43Z</time>
      </trkpt>
      <trkpt lat="59.309776" lon="18.075744">
        <ele>51</ele>
        <time>2020-01-17T08:03:45Z</time>
      </trkpt>
      <trkpt lat="59.309657" lon="18.075861">
        <ele>51</ele>
        <time>2020-01-17T08:03:48Z</time>
      </trkpt>
      <trkpt lat="59.309557" lon="18.075915">
        <ele>52</ele>
        <time>2020-01-17T08:03:50Z</time>
      </trkpt>
      <trkpt lat="59.309454" lon="18.075964">
        <ele>53</ele>
        <time>2020-01-17T08:03:52Z</time>
      </trkpt>
      <trkpt lat="59.309319" lon="18.075976">
        <ele>53</ele>
        <time>2020-01-17T08:03:54Z</time>
      </trkpt>
      <trkpt lat="59.309271" lon="18.075992">
        <ele>53</ele>
        <time>2020-01-17T08:03:55Z</time>
      </trkpt>
      <trkpt lat="59.309178" lon="18.076056">
        <ele>54</ele>
        <time>2020-01-17T08:03:57Z</time>
      </trkpt>
      <trkpt lat="59.309097" lon="18.076141">
        <ele>54</ele>
        <time>2020-01-17T08:03:59Z</time>
      </trkpt>
      <trkpt lat="59.309014" lon="18.076227">
        <ele>55</ele>
        <time>2020-01-17T08:04:01Z</time>
      </trkpt>
      <trkpt lat="59.308928" lon="18.076313">
        <ele>55</ele>
        <time>2020-01-17T08:04:03Z</time>
      </trkpt>
      <trkpt lat="59.308845" lon="18.076394">
        <ele>56</ele>
        <time>2020-01-17T08:04:05Z</time>
      </trkpt>
      <trkpt lat="59.308735" lon="18.076435">
        <ele>57</ele>
        <time>2020-01-17T08:04:07Z</time>
      </trkpt>
      <trkpt lat="59.308665" lon="18.076432">
        <ele>57</ele>
        <time>2020-01-17T08:04:08Z</time>
      </trkpt>
      <trkpt lat="59.30855" lon="18.076458">
        <ele>58</ele>
        <time>2020-01-17T08:04:10Z</time>
      </trkpt>
      <trkpt lat="59.308451" lon="18.076493">
        <ele>59</ele>
        <time>2020-01-17T08:04:12Z</time>
      </trkpt>
      <trkpt lat="59.30832" lon="18.076531">
        <ele>60</ele>
        <time>2020-01-17T08:04:15Z</time>
      </trkpt>
      <trkpt lat="59.30822" lon="18.076535">
        <ele>60</ele>
        <time>2020-01-17T08:04:17Z</time>
      </trkpt>
      <trkpt lat="59.308144" lon="18.076586">
        <ele>60</ele>
        <time>2020-01-17T08:04:20Z</time>
      </trkpt>
      <trkpt lat="59.308122" lon="18.076606">
        <ele>60</ele>
        <time>2020-01-17T08:04:21Z</time>
      </trkpt>
      <trkpt lat="59.308102" lon="18.076628">
        <ele>60</ele>
        <time>2020-01-17T08:04:22Z</time>
      </trkpt>
      <trkpt lat="59.308076" lon="18.076638">
        <ele>60</ele>
        <time>2020-01-17T08:04:23Z</time>
      </trkpt>
      <trkpt lat="59.308044" lon="18.076643">
        <ele>60</ele>
        <time>2020-01-17T08:04:24Z</time>
      </trkpt>
      <trkpt lat="59.308" lon="18.076657">
        <ele>60</ele>
        <time>2020-01-17T08:04:26Z</time>
      </trkpt>
      <trkpt lat="59.308004" lon="18.076656">
        <ele>0</ele>
        <time>2020-01-17T08:04:32Z</time>
      </trkpt>
      <trkpt lat="59.308026" lon="18.076743">
        <ele>61</ele>
        <time>2020-01-17T08:04:47Z</time>
      </trkpt>
      <trkpt lat="59.308014" lon="18.076775">
        <ele>61</ele>
        <time>2020-01-17T08:04:48Z</time>
      </trkpt>
      <trkpt lat="59.30799" lon="18.076812">
        <ele>60</ele>
        <time>2020-01-17T08:04:49Z</time>
      </trkpt>
      <trkpt lat="59.307958" lon="18.076846">
        <ele>61</ele>
        <time>2020-01-17T08:04:50Z</time>
      </trkpt>
      <trkpt lat="59.307923" lon="18.07685">
        <ele>60</ele>
        <time>2020-01-17T08:04:51Z</time>
      </trkpt>
      <trkpt lat="59.307886" lon="18.076859">
        <ele>60</ele>
        <time>2020-01-17T08:04:52Z</time>
      </trkpt>
      <trkpt lat="59.307844" lon="18.076873">
        <ele>60</ele>
        <time>2020-01-17T08:04:53Z</time>
      </trkpt>
      <trkpt lat="59.307801" lon="18.076891">
        <ele>59</ele>
        <time>2020-01-17T08:04:54Z</time>
      </trkpt>
      <trkpt lat="59.307754" lon="18.076909">
        <ele>59</ele>
        <time>2020-01-17T08:04:55Z</time>
      </trkpt>
      <trkpt lat="59.307708" lon="18.076929">
        <ele>59</ele>
        <time>2020-01-17T08:04:56Z</time>
      </trkpt>
      <trkpt lat="59.307662" lon="18.076954">
        <ele>59</ele>
        <time>2020-01-17T08:04:57Z</time>
      </trkpt>
      <trkpt lat="59.307608" lon="18.076985">
        <ele>59</ele>
        <time>2020-01-17T08:04:58Z</time>
      </trkpt>
      <trkpt lat="59.307556" lon="18.077016">
        <ele>59</ele>
        <time>2020-01-17T08:04:59Z</time>
      </trkpt>
      <trkpt lat="59.307502" lon="18.077045">
        <ele>59</ele>
        <time>2020-01-17T08:05:00Z</time>
      </trkpt>
      <trkpt lat="59.307447" lon="18.077075">
        <ele>59</ele>
        <time>2020-01-17T08:05:01Z</time>
      </trkpt>
      <trkpt lat="59.307395" lon="18.077105">
        <ele>59</ele>
        <time>2020-01-17T08:05:02Z</time>
      </trkpt>
      <trkpt lat="59.307344" lon="18.077136">
        <ele>59</ele>
        <time>2020-01-17T08:05:03Z</time>
      </trkpt>
      <trkpt lat="59.30729" lon="18.077161">
        <ele>59</ele>
        <time>2020-01-17T08:05:04Z</time>
      </trkpt>
      <trkpt lat="59.307233" lon="18.077185">
        <ele>59</ele>
        <time>2020-01-17T08:05:05Z</time>
      </trkpt>
      <trkpt lat="59.307174" lon="18.077204">
        <ele>59</ele>
        <time>2020-01-17T08:05:06Z</time>
      </trkpt>
      <trkpt lat="59.307114" lon="18.077226">
        <ele>59</ele>
        <time>2020-01-17T08:05:07Z</time>
      </trkpt>
      <trkpt lat="59.307051" lon="18.077245">
        <ele>58</ele>
        <time>2020-01-17T08:05:08Z</time>
      </trkpt>
      <trkpt lat="59.306993" lon="18.077267">
        <ele>58</ele>
        <time>2020-01-17T08:05:09Z</time>
      </trkpt>
      <trkpt lat="59.306933" lon="18.077286">
        <ele>58</ele>
        <time>2020-01-17T08:05:10Z</time>
      </trkpt>
      <trkpt lat="59.306871" lon="18.077306">
        <ele>58</ele>
        <time>2020-01-17T08:05:11Z</time>
      </trkpt>
      <trkpt lat="59.306812" lon="18.077326">
        <ele>58</ele>
        <time>2020-01-17T08:05:12Z</time>
      </trkpt>
      <trkpt lat="59.306755" lon="18.077348">
        <ele>57</ele>
        <time>2020-01-17T08:05:13Z</time>
      </trkpt>
      <trkpt lat="59.306701" lon="18.07737">
        <ele>57</ele>
        <time>2020-01-17T08:05:14Z</time>
      </trkpt>
      <trkpt lat="59.306642" lon="18.077385">
        <ele>56</ele>
        <time>2020-01-17T08:05:15Z</time>
      </trkpt>
      <trkpt lat="59.306579" lon="18.077409">
        <ele>56</ele>
        <time>2020-01-17T08:05:16Z</time>
      </trkpt>
      <trkpt lat="59.306526" lon="18.077426">
        <ele>55</ele>
        <time>2020-01-17T08:05:17Z</time>
      </trkpt>
      <trkpt lat="59.306472" lon="18.077432">
        <ele>54</ele>
        <time>2020-01-17T08:05:18Z</time>
      </trkpt>
      <trkpt lat="59.306423" lon="18.077449">
        <ele>53</ele>
        <time>2020-01-17T08:05:19Z</time>
      </trkpt>
      <trkpt lat="59.306364" lon="18.077467">
        <ele>53</ele>
        <time>2020-01-17T08:05:20Z</time>
      </trkpt>
      <trkpt lat="59.306311" lon="18.077484">
        <ele>52</ele>
        <time>2020-01-17T08:05:21Z</time>
      </trkpt>
      <trkpt lat="59.306258" lon="18.077503">
        <ele>51</ele>
        <time>2020-01-17T08:05:22Z</time>
      </trkpt>
      <trkpt lat="59.306198" lon="18.077522">
        <ele>51</ele>
        <time>2020-01-17T08:05:23Z</time>
      </trkpt>
      <trkpt lat="59.306144" lon="18.077547">
        <ele>51</ele>
        <time>2020-01-17T08:05:24Z</time>
      </trkpt>
      <trkpt lat="59.306091" lon="18.077572">
        <ele>51</ele>
        <time>2020-01-17T08:05:25Z</time>
      </trkpt>
      <trkpt lat="59.30604" lon="18.077602">
        <ele>50</ele>
        <time>2020-01-17T08:05:26Z</time>
      </trkpt>
      <trkpt lat="59.305987" lon="18.077632">
        <ele>50</ele>
        <time>2020-01-17T08:05:27Z</time>
      </trkpt>
      <trkpt lat="59.305936" lon="18.077661">
        <ele>50</ele>
        <time>2020-01-17T08:05:28Z</time>
      </trkpt>
      <trkpt lat="59.305886" lon="18.077689">
        <ele>50</ele>
        <time>2020-01-17T08:05:29Z</time>
      </trkpt>
      <trkpt lat="59.305839" lon="18.077717">
        <ele>49</ele>
        <time>2020-01-17T08:05:30Z</time>
      </trkpt>
      <trkpt lat="59.305793" lon="18.077748">
        <ele>49</ele>
        <time>2020-01-17T08:05:31Z</time>
      </trkpt>
      <trkpt lat="59.305746" lon="18.077781">
        <ele>49</ele>
        <time>2020-01-17T08:05:32Z</time>
      </trkpt>
      <trkpt lat="59.305698" lon="18.077812">
        <ele>48</ele>
        <time>2020-01-17T08:05:33Z</time>
      </trkpt>
      <trkpt lat="59.305648" lon="18.077839">
        <ele>48</ele>
        <time>2020-01-17T08:05:34Z</time>
      </trkpt>
      <trkpt lat="59.305597" lon="18.077865">
        <ele>48</ele>
        <time>2020-01-17T08:05:35Z</time>
      </trkpt>
      <trkpt lat="59.305547" lon="18.077892">
        <ele>48</ele>
        <time>2020-01-17T08:05:36Z</time>
      </trkpt>
      <trkpt lat="59.305496" lon="18.07792">
        <ele>48</ele>
        <time>2020-01-17T08:05:37Z</time>
      </trkpt>
      <trkpt lat="59.305444" lon="18.077946">
        <ele>47</ele>
        <time>2020-01-17T08:05:38Z</time>
      </trkpt>
      <trkpt lat="59.305393" lon="18.077973">
        <ele>47</ele>
        <time>2020-01-17T08:05:39Z</time>
      </trkpt>
      <trkpt lat="59.305342" lon="18.077998">
        <ele>47</ele>
        <time>2020-01-17T08:05:40Z</time>
      </trkpt>
      <trkpt lat="59.305291" lon="18.07802">
        <ele>47</ele>
        <time>2020-01-17T08:05:41Z</time>
      </trkpt>
      <trkpt lat="59.30524" lon="18.078041">
        <ele>46</ele>
        <time>2020-01-17T08:05:42Z</time>
      </trkpt>
      <trkpt lat="59.30519" lon="18.078064">
        <ele>46</ele>
        <time>2020-01-17T08:05:43Z</time>
      </trkpt>
      <trkpt lat="59.305141" lon="18.078088">
        <ele>46</ele>
        <time>2020-01-17T08:05:44Z</time>
      </trkpt>
      <trkpt lat="59.305093" lon="18.078114">
        <ele>46</ele>
        <time>2020-01-17T08:05:45Z</time>
      </trkpt>
      <trkpt lat="59.305045" lon="18.078139">
        <ele>45</ele>
        <time>2020-01-17T08:05:46Z</time>
      </trkpt>
      <trkpt lat="59.304998" lon="18.078163">
        <ele>45</ele>
        <time>2020-01-17T08:05:47Z</time>
      </trkpt>
      <trkpt lat="59.304951" lon="18.078188">
        <ele>45</ele>
        <time>2020-01-17T08:05:48Z</time>
      </trkpt>
      <trkpt lat="59.304904" lon="18.078213">
        <ele>45</ele>
        <time>2020-01-17T08:05:49Z</time>
      </trkpt>
      <trkpt lat="59.304859" lon="18.078238">
        <ele>45</ele>
        <time>2020-01-17T08:05:50Z</time>
      </trkpt>
      <trkpt lat="59.304815" lon="18.078264">
        <ele>45</ele>
        <time>2020-01-17T08:05:51Z</time>
      </trkpt>
      <trkpt lat="59.304772" lon="18.078289">
        <ele>45</ele>
        <time>2020-01-17T08:05:52Z</time>
      </trkpt>
      <trkpt lat="59.30473" lon="18.078314">
        <ele>45</ele>
        <time>2020-01-17T08:05:53Z</time>
      </trkpt>
      <trkpt lat="59.304688" lon="18.078338">
        <ele>44</ele>
        <time>2020-01-17T08:05:54Z</time>
      </trkpt>
      <trkpt lat="59.304646" lon="18.078362">
        <ele>44</ele>
        <time>2020-01-17T08:05:55Z</time>
      </trkpt>
      <trkpt lat="59.304604" lon="18.078384">
        <ele>44</ele>
        <time>2020-01-17T08:05:56Z</time>
      </trkpt>
      <trkpt lat="59.304564" lon="18.078405">
        <ele>44</ele>
        <time>2020-01-17T08:05:57Z</time>
      </trkpt>
      <trkpt lat="59.304523" lon="18.078427">
        <ele>44</ele>
        <time>2020-01-17T08:05:58Z</time>
      </trkpt>
      <trkpt lat="59.304482" lon="18.078449">
        <ele>44</ele>
        <time>2020-01-17T08:05:59Z</time>
      </trkpt>
      <trkpt lat="59.304442" lon="18.078472">
        <ele>43</ele>
        <time>2020-01-17T08:06:00Z</time>
      </trkpt>
      <trkpt lat="59.304402" lon="18.078495">
        <ele>43</ele>
        <time>2020-01-17T08:06:01Z</time>
      </trkpt>
      <trkpt lat="59.304362" lon="18.078517">
        <ele>43</ele>
        <time>2020-01-17T08:06:02Z</time>
      </trkpt>
      <trkpt lat="59.304322" lon="18.078541">
        <ele>43</ele>
        <time>2020-01-17T08:06:03Z</time>
      </trkpt>
      <trkpt lat="59.304282" lon="18.078566">
        <ele>43</ele>
        <time>2020-01-17T08:06:04Z</time>
      </trkpt>
      <trkpt lat="59.304243" lon="18.078589">
        <ele>43</ele>
        <time>2020-01-17T08:06:05Z</time>
      </trkpt>
      <trkpt lat="59.304205" lon="18.078611">
        <ele>43</ele>
        <time>2020-01-17T08:06:06Z</time>
      </trkpt>
      <trkpt lat="59.304166" lon="18.078633">
        <ele>43</ele>
        <time>2020-01-17T08:06:07Z</time>
      </trkpt>
      <trkpt lat="59.304128" lon="18.078655">
        <ele>43</ele>
        <time>2020-01-17T08:06:08Z</time>
      </trkpt>
      <trkpt lat="59.30409" lon="18.078677">
        <ele>43</ele>
        <time>2020-01-17T08:06:09Z</time>
      </trkpt>
      <trkpt lat="59.304052" lon="18.078699">
        <ele>43</ele>
        <time>2020-01-17T08:06:10Z</time>
      </trkpt>
      <trkpt lat="59.304015" lon="18.078721">
        <ele>43</ele>
        <time>2020-01-17T08:06:11Z</time>
      </trkpt>
      <trkpt lat="59.303979" lon="18.078744">
        <ele>43</ele>
        <time>2020-01-17T08:06:12Z</time>
      </trkpt>
      <trkpt lat="59.303942" lon="18.078766">
        <ele>43</ele>
        <time>2020-01-17T08:06:13Z</time>
      </trkpt>
      <trkpt lat="59.303906" lon="18.078787">
        <ele>43</ele>
        <time>2020-01-17T08:06:14Z</time>
      </trkpt>
      <trkpt lat="59.30387" lon="18.078807">
        <ele>43</ele>
        <time>2020-01-17T08:06:15Z</time>
      </trkpt>
      <trkpt lat="59.303835" lon="18.078828">
        <ele>43</ele>
        <time>2020-01-17T08:06:16Z</time>
      </trkpt>
      <trkpt lat="59.303799" lon="18.078849">
        <ele>43</ele>
        <time>2020-01-17T08:06:17Z</time>
      </trkpt>
      <trkpt lat="59.303763" lon="18.078869">
        <ele>43</ele>
        <time>2020-01-17T08:06:18Z</time>
      </trkpt>
      <trkpt lat="59.303728" lon="18.07889">
        <ele>43</ele>
        <time>2020-01-17T08:06:19Z</time>
      </trkpt>
      <trkpt lat="59.303693" lon="18.07891">
        <ele>43</ele>
        <time>2020-01-17T08:06:20Z</time>
      </trkpt>
      <trkpt lat="59.303659" lon="18.078929">
        <ele>43</ele>
        <time>2020-01-17T08:06:21Z</time>
      </trkpt>
      <trkpt lat="59.303625" lon="18.078949">
        <ele>43</ele>
        <time>2020-01-17T08:06:22Z</time>
      </trkpt>
      <trkpt lat="59.303591" lon="18.078971">
        <ele>43</ele>
        <time>2020-01-17T08:06:23Z</time>
      </trkpt>
      <trkpt lat="59.303557" lon="18.078993">
        <ele>43</ele>
        <time>2020-01-17T08:06:24Z</time>
      </trkpt>
      <trkpt lat="59.303522" lon="18.079014">
        <ele>43</ele>
        <time>2020-01-17T08:06:25Z</time>
      </trkpt>
      <trkpt lat="59.303487" lon="18.079035">
        <ele>43</ele>
        <time>2020-01-17T08:06:26Z</time>
      </trkpt>
      <trkpt lat="59.303453" lon="18.079057">
        <ele>43</ele>
        <time>2020-01-17T08:06:27Z</time>
      </trkpt>
      <trkpt lat="59.303418" lon="18.07908">
        <ele>43</ele>
        <time>2020-01-17T08:06:28Z</time>
      </trkpt>
      <trkpt lat="59.303383" lon="18.079102">
        <ele>43</ele>
        <time>2020-01-17T08:06:29Z</time>
      </trkpt>
      <trkpt lat="59.303347" lon="18.079123">
        <ele>43</ele>
        <time>2020-01-17T08:06:30Z</time>
      </trkpt>
      <trkpt lat="59.303312" lon="18.079146">
        <ele>44</ele>
        <time>2020-01-17T08:06:31Z</time>
      </trkpt>
      <trkpt lat="59.303277" lon="18.079167">
        <ele>44</ele>
        <time>2020-01-17T08:06:32Z</time>
      </trkpt>
      <trkpt lat="59.303242" lon="18.079188">
        <ele>44</ele>
        <time>2020-01-17T08:06:33Z</time>
      </trkpt>
      <trkpt lat="59.303206" lon="18.079209">
        <ele>44</ele>
        <time>2020-01-17T08:06:34Z</time>
      </trkpt>
      <trkpt lat="59.303171" lon="18.079232">
        <ele>44</ele>
        <time>2020-01-17T08:06:35Z</time>
      </trkpt>
      <trkpt lat="59.303134" lon="18.079254">
        <ele>44</ele>
        <time>2020-01-17T08:06:36Z</time>
      </trkpt>
      <trkpt lat="59.303097" lon="18.079276">
        <ele>44</ele>
        <time>2020-01-17T08:06:37Z</time>
      </trkpt>
      <trkpt lat="59.303059" lon="18.0793">
        <ele>44</ele>
        <time>2020-01-17T08:06:38Z</time>
      </trkpt>
      <trkpt lat="59.30302" lon="18.079324">
        <ele>43</ele>
        <time>2020-01-17T08:06:39Z</time>
      </trkpt>
      <trkpt lat="59.30298" lon="18.07935">
        <ele>43</ele>
        <time>2020-01-17T08:06:40Z</time>
      </trkpt>
      <trkpt lat="59.302939" lon="18.079375">
        <ele>43</ele>
        <time>2020-01-17T08:06:41Z</time>
      </trkpt>
      <trkpt lat="59.302896" lon="18.079402">
        <ele>43</ele>
        <time>2020-01-17T08:06:42Z</time>
      </trkpt>
      <trkpt lat="59.302852" lon="18.079429">
        <ele>43</ele>
        <time>2020-01-17T08:06:43Z</time>
      </trkpt>
      <trkpt lat="59.302808" lon="18.079456">
        <ele>43</ele>
        <time>2020-01-17T08:06:44Z</time>
      </trkpt>
      <trkpt lat="59.302763" lon="18.079482">
        <ele>43</ele>
        <time>2020-01-17T08:06:45Z</time>
      </trkpt>
      <trkpt lat="59.302719" lon="18.079509">
        <ele>43</ele>
        <time>2020-01-17T08:06:46Z</time>
      </trkpt>
      <trkpt lat="59.302674" lon="18.079538">
        <ele>43</ele>
        <time>2020-01-17T08:06:47Z</time>
      </trkpt>
      <trkpt lat="59.302628" lon="18.079566">
        <ele>43</ele>
        <time>2020-01-17T08:06:48Z</time>
      </trkpt>
      <trkpt lat="59.302583" lon="18.079595">
        <ele>43</ele>
        <time>2020-01-17T08:06:49Z</time>
      </trkpt>
      <trkpt lat="59.302537" lon="18.079623">
        <ele>43</ele>
        <time>2020-01-17T08:06:50Z</time>
      </trkpt>
      <trkpt lat="59.302492" lon="18.079651">
        <ele>43</ele>
        <time>2020-01-17T08:06:51Z</time>
      </trkpt>
      <trkpt lat="59.302447" lon="18.079681">
        <ele>43</ele>
        <time>2020-01-17T08:06:52Z</time>
      </trkpt>
      <trkpt lat="59.302402" lon="18.079712">
        <ele>43</ele>
        <time>2020-01-17T08:06:53Z</time>
      </trkpt>
      <trkpt lat="59.302356" lon="18.079743">
        <ele>44</ele>
        <time>2020-01-17T08:06:54Z</time>
      </trkpt>
      <trkpt lat="59.302311" lon="18.079773">
        <ele>44</ele>
        <time>2020-01-17T08:06:55Z</time>
      </trkpt>
      <trkpt lat="59.302264" lon="18.079803">
        <ele>44</ele>
        <time>2020-01-17T08:06:56Z</time>
      </trkpt>
      <trkpt lat="59.302217" lon="18.079832">
        <ele>44</ele>
        <time>2020-01-17T08:06:57Z</time>
      </trkpt>
      <trkpt lat="59.302168" lon="18.07986">
        <ele>44</ele>
        <time>2020-01-17T08:06:58Z</time>
      </trkpt>
      <trkpt lat="59.302118" lon="18.07989">
        <ele>44</ele>
        <time>2020-01-17T08:06:59Z</time>
      </trkpt>
      <trkpt lat="59.302068" lon="18.079922">
        <ele>44</ele>
        <time>2020-01-17T08:07:00Z</time>
      </trkpt>
      <trkpt lat="59.302017" lon="18.079953">
        <ele>44</ele>
        <time>2020-01-17T08:07:01Z</time>
      </trkpt>
      <trkpt lat="59.301966" lon="18.079982">
        <ele>44</ele>
        <time>2020-01-17T08:07:02Z</time>
      </trkpt>
      <trkpt lat="59.301915" lon="18.080011">
        <ele>44</ele>
        <time>2020-01-17T08:07:03Z</time>
      </trkpt>
      <trkpt lat="59.301863" lon="18.080041">
        <ele>44</ele>
        <time>2020-01-17T08:07:04Z</time>
      </trkpt>
      <trkpt lat="59.301812" lon="18.08007">
        <ele>44</ele>
        <time>2020-01-17T08:07:05Z</time>
      </trkpt>
      <trkpt lat="59.30176" lon="18.080098">
        <ele>44</ele>
        <time>2020-01-17T08:07:06Z</time>
      </trkpt>
      <trkpt lat="59.301708" lon="18.080128">
        <ele>44</ele>
        <time>2020-01-17T08:07:07Z</time>
      </trkpt>
      <trkpt lat="59.301657" lon="18.08016">
        <ele>44</ele>
        <time>2020-01-17T08:07:08Z</time>
      </trkpt>
      <trkpt lat="59.301606" lon="18.080192">
        <ele>44</ele>
        <time>2020-01-17T08:07:09Z</time>
      </trkpt>
      <trkpt lat="59.301555" lon="18.080222">
        <ele>44</ele>
        <time>2020-01-17T08:07:10Z</time>
      </trkpt>
      <trkpt lat="59.301503" lon="18.080248">
        <ele>43</ele>
        <time>2020-01-17T08:07:11Z</time>
      </trkpt>
      <trkpt lat="59.301451" lon="18.080272">
        <ele>43</ele>
        <time>2020-01-17T08:07:12Z</time>
      </trkpt>
      <trkpt lat="59.301401" lon="18.080294">
        <ele>43</ele>
        <time>2020-01-17T08:07:13Z</time>
      </trkpt>
      <trkpt lat="59.301349" lon="18.08031">
        <ele>43</ele>
        <time>2020-01-17T08:07:14Z</time>
      </trkpt>
      <trkpt lat="59.301298" lon="18.080321">
        <ele>43</ele>
        <time>2020-01-17T08:07:15Z</time>
      </trkpt>
      <trkpt lat="59.301249" lon="18.080331">
        <ele>43</ele>
        <time>2020-01-17T08:07:16Z</time>
      </trkpt>
      <trkpt lat="59.3012" lon="18.080341">
        <ele>43</ele>
        <time>2020-01-17T08:07:17Z</time>
      </trkpt>
      <trkpt lat="59.301154" lon="18.080348">
        <ele>42</ele>
        <time>2020-01-17T08:07:18Z</time>
      </trkpt>
      <trkpt lat="59.301109" lon="18.080342">
        <ele>42</ele>
        <time>2020-01-17T08:07:19Z</time>
      </trkpt>
      <trkpt lat="59.301064" lon="18.080341">
        <ele>42</ele>
        <time>2020-01-17T08:07:20Z</time>
      </trkpt>
      <trkpt lat="59.301009" lon="18.080348">
        <ele>42</ele>
        <time>2020-01-17T08:07:21Z</time>
      </trkpt>
      <trkpt lat="59.300955" lon="18.080358">
        <ele>43</ele>
        <time>2020-01-17T08:07:22Z</time>
      </trkpt>
      <trkpt lat="59.300903" lon="18.080376">
        <ele>43</ele>
        <time>2020-01-17T08:07:23Z</time>
      </trkpt>
      <trkpt lat="59.300851" lon="18.080402">
        <ele>43</ele>
        <time>2020-01-17T08:07:24Z</time>
      </trkpt>
      <trkpt lat="59.3008" lon="18.080423">
        <ele>43</ele>
        <time>2020-01-17T08:07:25Z</time>
      </trkpt>
      <trkpt lat="59.300751" lon="18.080449">
        <ele>43</ele>
        <time>2020-01-17T08:07:26Z</time>
      </trkpt>
      <trkpt lat="59.300704" lon="18.080479">
        <ele>44</ele>
        <time>2020-01-17T08:07:27Z</time>
      </trkpt>
      <trkpt lat="59.300657" lon="18.080509">
        <ele>44</ele>
        <time>2020-01-17T08:07:28Z</time>
      </trkpt>
      <trkpt lat="59.300611" lon="18.080538">
        <ele>44</ele>
        <time>2020-01-17T08:07:29Z</time>
      </trkpt>
      <trkpt lat="59.300565" lon="18.080567">
        <ele>44</ele>
        <time>2020-01-17T08:07:30Z</time>
      </trkpt>
      <trkpt lat="59.300519" lon="18.080597">
        <ele>44</ele>
        <time>2020-01-17T08:07:31Z</time>
      </trkpt>
      <trkpt lat="59.300474" lon="18.080628">
        <ele>44</ele>
        <time>2020-01-17T08:07:32Z</time>
      </trkpt>
      <trkpt lat="59.30043" lon="18.080659">
        <ele>44</ele>
        <time>2020-01-17T08:07:33Z</time>
      </trkpt>
      <trkpt lat="59.300386" lon="18.080689">
        <ele>44</ele>
        <time>2020-01-17T08:07:34Z</time>
      </trkpt>
      <trkpt lat="59.300341" lon="18.08072">
        <ele>44</ele>
        <time>2020-01-17T08:07:35Z</time>
      </trkpt>
      <trkpt lat="59.300296" lon="18.080755">
        <ele>44</ele>
        <time>2020-01-17T08:07:36Z</time>
      </trkpt>
      <trkpt lat="59.30025" lon="18.080793">
        <ele>44</ele>
        <time>2020-01-17T08:07:37Z</time>
      </trkpt>
      <trkpt lat="59.300202" lon="18.08083">
        <ele>44</ele>
        <time>2020-01-17T08:07:38Z</time>
      </trkpt>
      <trkpt lat="59.300151" lon="18.080865">
        <ele>44</ele>
        <time>2020-01-17T08:07:39Z</time>
      </trkpt>
      <trkpt lat="59.3001" lon="18.080897">
        <ele>44</ele>
        <time>2020-01-17T08:07:40Z</time>
      </trkpt>
      <trkpt lat="59.300049" lon="18.080927">
        <ele>44</ele>
        <time>2020-01-17T08:07:41Z</time>
      </trkpt>
      <trkpt lat="59.299998" lon="18.080961">
        <ele>45</ele>
        <time>2020-01-17T08:07:42Z</time>
      </trkpt>
      <trkpt lat="59.299944" lon="18.080995">
        <ele>45</ele>
        <time>2020-01-17T08:07:43Z</time>
      </trkpt>
      <trkpt lat="59.299891" lon="18.081025">
        <ele>45</ele>
        <time>2020-01-17T08:07:44Z</time>
      </trkpt>
      <trkpt lat="59.299837" lon="18.08105">
        <ele>45</ele>
        <time>2020-01-17T08:07:45Z</time>
      </trkpt>
      <trkpt lat="59.299782" lon="18.081079">
        <ele>45</ele>
        <time>2020-01-17T08:07:46Z</time>
      </trkpt>
      <trkpt lat="59.299727" lon="18.081111">
        <ele>45</ele>
        <time>2020-01-17T08:07:47Z</time>
      </trkpt>
      <trkpt lat="59.299671" lon="18.081143">
        <ele>45</ele>
        <time>2020-01-17T08:07:48Z</time>
      </trkpt>
      <trkpt lat="59.299616" lon="18.081177">
        <ele>46</ele>
        <time>2020-01-17T08:07:49Z</time>
      </trkpt>
      <trkpt lat="59.299561" lon="18.081209">
        <ele>46</ele>
        <time>2020-01-17T08:07:50Z</time>
      </trkpt>
      <trkpt lat="59.299506" lon="18.081238">
        <ele>46</ele>
        <time>2020-01-17T08:07:51Z</time>
      </trkpt>
      <trkpt lat="59.299454" lon="18.081266">
        <ele>46</ele>
        <time>2020-01-17T08:07:52Z</time>
      </trkpt>
      <trkpt lat="59.299409" lon="18.081296">
        <ele>46</ele>
        <time>2020-01-17T08:07:53Z</time>
      </trkpt>
      <trkpt lat="59.299368" lon="18.081324">
        <ele>46</ele>
        <time>2020-01-17T08:07:54Z</time>
      </trkpt>
      <trkpt lat="59.299326" lon="18.081359">
        <ele>45</ele>
        <time>2020-01-17T08:07:55Z</time>
      </trkpt>
      <trkpt lat="59.299282" lon="18.081392">
        <ele>45</ele>
        <time>2020-01-17T08:07:56Z</time>
      </trkpt>
      <trkpt lat="59.299182" lon="18.081504">
        <ele>45</ele>
        <time>2020-01-17T08:07:58Z</time>
      </trkpt>
      <trkpt lat="59.299071" lon="18.081656">
        <ele>45</ele>
        <time>2020-01-17T08:08:00Z</time>
      </trkpt>
      <trkpt lat="59.298953" lon="18.08178">
        <ele>44</ele>
        <time>2020-01-17T08:08:02Z</time>
      </trkpt>
      <trkpt lat="59.298895" lon="18.081843">
        <ele>44</ele>
        <time>2020-01-17T08:08:03Z</time>
      </trkpt>
      <trkpt lat="59.29884" lon="18.081909">
        <ele>44</ele>
        <time>2020-01-17T08:08:04Z</time>
      </trkpt>
      <trkpt lat="59.298785" lon="18.081972">
        <ele>44</ele>
        <time>2020-01-17T08:08:05Z</time>
      </trkpt>
      <trkpt lat="59.298731" lon="18.082027">
        <ele>44</ele>
        <time>2020-01-17T08:08:06Z</time>
      </trkpt>
      <trkpt lat="59.29868" lon="18.082082">
        <ele>44</ele>
        <time>2020-01-17T08:08:07Z</time>
      </trkpt>
      <trkpt lat="59.298627" lon="18.082107">
        <ele>45</ele>
        <time>2020-01-17T08:08:08Z</time>
      </trkpt>
      <trkpt lat="59.298577" lon="18.082151">
        <ele>45</ele>
        <time>2020-01-17T08:08:09Z</time>
      </trkpt>
      <trkpt lat="59.298526" lon="18.082185">
        <ele>45</ele>
        <time>2020-01-17T08:08:10Z</time>
      </trkpt>
      <trkpt lat="59.298477" lon="18.082216">
        <ele>46</ele>
        <time>2020-01-17T08:08:11Z</time>
      </trkpt>
      <trkpt lat="59.298429" lon="18.082244">
        <ele>47</ele>
        <time>2020-01-17T08:08:12Z</time>
      </trkpt>
      <trkpt lat="59.298382" lon="18.082271">
        <ele>47</ele>
        <time>2020-01-17T08:08:13Z</time>
      </trkpt>
      <trkpt lat="59.298336" lon="18.082305">
        <ele>48</ele>
        <time>2020-01-17T08:08:14Z</time>
      </trkpt>
      <trkpt lat="59.298291" lon="18.08234">
        <ele>49</ele>
        <time>2020-01-17T08:08:15Z</time>
      </trkpt>
      <trkpt lat="59.298245" lon="18.082367">
        <ele>49</ele>
        <time>2020-01-17T08:08:16Z</time>
      </trkpt>
      <trkpt lat="59.298199" lon="18.082383">
        <ele>49</ele>
        <time>2020-01-17T08:08:17Z</time>
      </trkpt>
      <trkpt lat="59.298151" lon="18.082392">
        <ele>48</ele>
        <time>2020-01-17T08:08:18Z</time>
      </trkpt>
      <trkpt lat="59.298107" lon="18.082408">
        <ele>48</ele>
        <time>2020-01-17T08:08:19Z</time>
      </trkpt>
      <trkpt lat="59.298063" lon="18.082426">
        <ele>48</ele>
        <time>2020-01-17T08:08:20Z</time>
      </trkpt>
      <trkpt lat="59.29802" lon="18.082444">
        <ele>48</ele>
        <time>2020-01-17T08:08:21Z</time>
      </trkpt>
      <trkpt lat="59.297976" lon="18.08246">
        <ele>48</ele>
        <time>2020-01-17T08:08:22Z</time>
      </trkpt>
      <trkpt lat="59.297933" lon="18.082474">
        <ele>47</ele>
        <time>2020-01-17T08:08:23Z</time>
      </trkpt>
      <trkpt lat="59.297888" lon="18.082491">
        <ele>47</ele>
        <time>2020-01-17T08:08:24Z</time>
      </trkpt>
      <trkpt lat="59.297844" lon="18.082509">
        <ele>47</ele>
        <time>2020-01-17T08:08:25Z</time>
      </trkpt>
      <trkpt lat="59.297801" lon="18.082529">
        <ele>47</ele>
        <time>2020-01-17T08:08:26Z</time>
      </trkpt>
      <trkpt lat="59.297757" lon="18.082549">
        <ele>47</ele>
        <time>2020-01-17T08:08:27Z</time>
      </trkpt>
      <trkpt lat="59.297715" lon="18.082568">
        <ele>47</ele>
        <time>2020-01-17T08:08:28Z</time>
      </trkpt>
      <trkpt lat="59.297674" lon="18.082591">
        <ele>47</ele>
        <time>2020-01-17T08:08:29Z</time>
      </trkpt>
      <trkpt lat="59.297632" lon="18.082616">
        <ele>47</ele>
        <time>2020-01-17T08:08:30Z</time>
      </trkpt>
      <trkpt lat="59.29759" lon="18.08264">
        <ele>47</ele>
        <time>2020-01-17T08:08:31Z</time>
      </trkpt>
      <trkpt lat="59.297547" lon="18.082662">
        <ele>47</ele>
        <time>2020-01-17T08:08:32Z</time>
      </trkpt>
      <trkpt lat="59.297504" lon="18.082684">
        <ele>47</ele>
        <time>2020-01-17T08:08:33Z</time>
      </trkpt>
      <trkpt lat="59.297461" lon="18.082707">
        <ele>47</ele>
        <time>2020-01-17T08:08:34Z</time>
      </trkpt>
      <trkpt lat="59.297418" lon="18.082729">
        <ele>47</ele>
        <time>2020-01-17T08:08:35Z</time>
      </trkpt>
      <trkpt lat="59.297374" lon="18.082749">
        <ele>47</ele>
        <time>2020-01-17T08:08:36Z</time>
      </trkpt>
      <trkpt lat="59.29733" lon="18.082766">
        <ele>47</ele>
        <time>2020-01-17T08:08:37Z</time>
      </trkpt>
      <trkpt lat="59.297286" lon="18.082784">
        <ele>47</ele>
        <time>2020-01-17T08:08:38Z</time>
      </trkpt>
      <trkpt lat="59.297241" lon="18.082796">
        <ele>47</ele>
        <time>2020-01-17T08:08:39Z</time>
      </trkpt>
      <trkpt lat="59.297195" lon="18.082807">
        <ele>47</ele>
        <time>2020-01-17T08:08:40Z</time>
      </trkpt>
      <trkpt lat="59.297149" lon="18.082819">
        <ele>47</ele>
        <time>2020-01-17T08:08:41Z</time>
      </trkpt>
      <trkpt lat="59.297105" lon="18.082838">
        <ele>47</ele>
        <time>2020-01-17T08:08:42Z</time>
      </trkpt>
      <trkpt lat="59.297061" lon="18.08286">
        <ele>47</ele>
        <time>2020-01-17T08:08:43Z</time>
      </trkpt>
      <trkpt lat="59.297018" lon="18.082879">
        <ele>47</ele>
        <time>2020-01-17T08:08:44Z</time>
      </trkpt>
      <trkpt lat="59.296973" lon="18.0829">
        <ele>47</ele>
        <time>2020-01-17T08:08:45Z</time>
      </trkpt>
      <trkpt lat="59.296929" lon="18.08293">
        <ele>48</ele>
        <time>2020-01-17T08:08:46Z</time>
      </trkpt>
      <trkpt lat="59.296887" lon="18.082968">
        <ele>48</ele>
        <time>2020-01-17T08:08:47Z</time>
      </trkpt>
      <trkpt lat="59.296847" lon="18.083009">
        <ele>48</ele>
        <time>2020-01-17T08:08:48Z</time>
      </trkpt>
      <trkpt lat="59.296807" lon="18.083049">
        <ele>48</ele>
        <time>2020-01-17T08:08:49Z</time>
      </trkpt>
      <trkpt lat="59.296768" lon="18.083089">
        <ele>48</ele>
        <time>2020-01-17T08:08:50Z</time>
      </trkpt>
      <trkpt lat="59.29673" lon="18.083128">
        <ele>48</ele>
        <time>2020-01-17T08:08:51Z</time>
      </trkpt>
      <trkpt lat="59.29669" lon="18.08317">
        <ele>48</ele>
        <time>2020-01-17T08:08:52Z</time>
      </trkpt>
      <trkpt lat="59.29665" lon="18.083211">
        <ele>48</ele>
        <time>2020-01-17T08:08:53Z</time>
      </trkpt>
      <trkpt lat="59.296609" lon="18.08325">
        <ele>48</ele>
        <time>2020-01-17T08:08:54Z</time>
      </trkpt>
      <trkpt lat="59.296568" lon="18.083289">
        <ele>48</ele>
        <time>2020-01-17T08:08:55Z</time>
      </trkpt>
      <trkpt lat="59.296525" lon="18.083325">
        <ele>49</ele>
        <time>2020-01-17T08:08:56Z</time>
      </trkpt>
      <trkpt lat="59.296482" lon="18.083357">
        <ele>49</ele>
        <time>2020-01-17T08:08:57Z</time>
      </trkpt>
      <trkpt lat="59.296439" lon="18.083384">
        <ele>49</ele>
        <time>2020-01-17T08:08:58Z</time>
      </trkpt>
      <trkpt lat="59.296395" lon="18.08341">
        <ele>49</ele>
        <time>2020-01-17T08:08:59Z</time>
      </trkpt>
      <trkpt lat="59.29635" lon="18.083434">
        <ele>49</ele>
        <time>2020-01-17T08:09:00Z</time>
      </trkpt>
      <trkpt lat="59.296305" lon="18.083459">
        <ele>49</ele>
        <time>2020-01-17T08:09:01Z</time>
      </trkpt>
      <trkpt lat="59.29626" lon="18.083486">
        <ele>49</ele>
        <time>2020-01-17T08:09:02Z</time>
      </trkpt>
      <trkpt lat="59.296215" lon="18.083514">
        <ele>49</ele>
        <time>2020-01-17T08:09:03Z</time>
      </trkpt>
      <trkpt lat="59.29617" lon="18.083544">
        <ele>49</ele>
        <time>2020-01-17T08:09:04Z</time>
      </trkpt>
      <trkpt lat="59.296125" lon="18.083578">
        <ele>49</ele>
        <time>2020-01-17T08:09:05Z</time>
      </trkpt>
      <trkpt lat="59.296081" lon="18.083612">
        <ele>49</ele>
        <time>2020-01-17T08:09:06Z</time>
      </trkpt>
      <trkpt lat="59.296036" lon="18.083644">
        <ele>49</ele>
        <time>2020-01-17T08:09:07Z</time>
      </trkpt>
      <trkpt lat="59.295992" lon="18.083675">
        <ele>49</ele>
        <time>2020-01-17T08:09:08Z</time>
      </trkpt>
      <trkpt lat="59.295946" lon="18.083705">
        <ele>49</ele>
        <time>2020-01-17T08:09:09Z</time>
      </trkpt>
      <trkpt lat="59.295898" lon="18.083731">
        <ele>49</ele>
        <time>2020-01-17T08:09:10Z</time>
      </trkpt>
      <trkpt lat="59.295849" lon="18.083755">
        <ele>49</ele>
        <time>2020-01-17T08:09:11Z</time>
      </trkpt>
      <trkpt lat="59.295799" lon="18.083781">
        <ele>50</ele>
        <time>2020-01-17T08:09:12Z</time>
      </trkpt>
      <trkpt lat="59.295749" lon="18.083809">
        <ele>50</ele>
        <time>2020-01-17T08:09:13Z</time>
      </trkpt>
      <trkpt lat="59.295699" lon="18.08384">
        <ele>50</ele>
        <time>2020-01-17T08:09:14Z</time>
      </trkpt>
      <trkpt lat="59.295648" lon="18.083873">
        <ele>50</ele>
        <time>2020-01-17T08:09:15Z</time>
      </trkpt>
      <trkpt lat="59.295597" lon="18.083906">
        <ele>50</ele>
        <time>2020-01-17T08:09:16Z</time>
      </trkpt>
      <trkpt lat="59.295544" lon="18.08394">
        <ele>50</ele>
        <time>2020-01-17T08:09:17Z</time>
      </trkpt>
      <trkpt lat="59.295492" lon="18.083973">
        <ele>50</ele>
        <time>2020-01-17T08:09:18Z</time>
      </trkpt>
      <trkpt lat="59.295438" lon="18.084006">
        <ele>50</ele>
        <time>2020-01-17T08:09:19Z</time>
      </trkpt>
      <trkpt lat="59.295385" lon="18.084039">
        <ele>50</ele>
        <time>2020-01-17T08:09:20Z</time>
      </trkpt>
      <trkpt lat="59.295331" lon="18.08407">
        <ele>50</ele>
        <time>2020-01-17T08:09:21Z</time>
      </trkpt>
      <trkpt lat="59.295278" lon="18.084103">
        <ele>50</ele>
        <time>2020-01-17T08:09:22Z</time>
      </trkpt>
      <trkpt lat="59.295225" lon="18.084135">
        <ele>50</ele>
        <time>2020-01-17T08:09:23Z</time>
      </trkpt>
      <trkpt lat="59.295171" lon="18.084167">
        <ele>49</ele>
        <time>2020-01-17T08:09:24Z</time>
      </trkpt>
      <trkpt lat="59.295118" lon="18.0842">
        <ele>49</ele>
        <time>2020-01-17T08:09:25Z</time>
      </trkpt>
      <trkpt lat="59.295065" lon="18.084231">
        <ele>49</ele>
        <time>2020-01-17T08:09:26Z</time>
      </trkpt>
      <trkpt lat="59.295011" lon="18.084261">
        <ele>49</ele>
        <time>2020-01-17T08:09:27Z</time>
      </trkpt>
      <trkpt lat="59.294957" lon="18.084291">
        <ele>49</ele>
        <time>2020-01-17T08:09:28Z</time>
      </trkpt>
      <trkpt lat="59.294903" lon="18.084319">
        <ele>49</ele>
        <time>2020-01-17T08:09:29Z</time>
      </trkpt>
      <trkpt lat="59.294848" lon="18.084348">
        <ele>50</ele>
        <time>2020-01-17T08:09:30Z</time>
      </trkpt>
      <trkpt lat="59.294792" lon="18.084378">
        <ele>50</ele>
        <time>2020-01-17T08:09:31Z</time>
      </trkpt>
      <trkpt lat="59.294735" lon="18.084407">
        <ele>50</ele>
        <time>2020-01-17T08:09:32Z</time>
      </trkpt>
      <trkpt lat="59.294677" lon="18.084437">
        <ele>50</ele>
        <time>2020-01-17T08:09:33Z</time>
      </trkpt>
      <trkpt lat="59.294619" lon="18.084466">
        <ele>50</ele>
        <time>2020-01-17T08:09:34Z</time>
      </trkpt>
      <trkpt lat="59.294563" lon="18.084494">
        <ele>50</ele>
        <time>2020-01-17T08:09:35Z</time>
      </trkpt>
      <trkpt lat="59.294511" lon="18.084522">
        <ele>50</ele>
        <time>2020-01-17T08:09:36Z</time>
      </trkpt>
      <trkpt lat="59.294461" lon="18.084553">
        <ele>50</ele>
        <time>2020-01-17T08:09:37Z</time>
      </trkpt>
      <trkpt lat="59.294406" lon="18.084586">
        <ele>50</ele>
        <time>2020-01-17T08:09:38Z</time>
      </trkpt>
      <trkpt lat="59.294358" lon="18.084614">
        <ele>50</ele>
        <time>2020-01-17T08:09:39Z</time>
      </trkpt>
      <trkpt lat="59.294312" lon="18.084662">
        <ele>50</ele>
        <time>2020-01-17T08:09:40Z</time>
      </trkpt>
      <trkpt lat="59.294254" lon="18.084703">
        <ele>49</ele>
        <time>2020-01-17T08:09:41Z</time>
      </trkpt>
      <trkpt lat="59.294185" lon="18.084738">
        <ele>49</ele>
        <time>2020-01-17T08:09:42Z</time>
      </trkpt>
      <trkpt lat="59.29411" lon="18.084773">
        <ele>49</ele>
        <time>2020-01-17T08:09:43Z</time>
      </trkpt>
      <trkpt lat="59.294044" lon="18.084812">
        <ele>49</ele>
        <time>2020-01-17T08:09:44Z</time>
      </trkpt>
      <trkpt lat="59.29392" lon="18.084874">
        <ele>49</ele>
        <time>2020-01-17T08:09:46Z</time>
      </trkpt>
      <trkpt lat="59.293794" lon="18.084938">
        <ele>48</ele>
        <time>2020-01-17T08:09:48Z</time>
      </trkpt>
      <trkpt lat="59.293666" lon="18.084983">
        <ele>48</ele>
        <time>2020-01-17T08:09:50Z</time>
      </trkpt>
      <trkpt lat="59.293604" lon="18.085004">
        <ele>48</ele>
        <time>2020-01-17T08:09:51Z</time>
      </trkpt>
      <trkpt lat="59.293541" lon="18.085022">
        <ele>47</ele>
        <time>2020-01-17T08:09:52Z</time>
      </trkpt>
      <trkpt lat="59.293481" lon="18.085042">
        <ele>47</ele>
        <time>2020-01-17T08:09:53Z</time>
      </trkpt>
      <trkpt lat="59.293418" lon="18.08506">
        <ele>47</ele>
        <time>2020-01-17T08:09:54Z</time>
      </trkpt>
      <trkpt lat="59.293359" lon="18.08508">
        <ele>47</ele>
        <time>2020-01-17T08:09:55Z</time>
      </trkpt>
      <trkpt lat="59.2933" lon="18.085094">
        <ele>47</ele>
        <time>2020-01-17T08:09:56Z</time>
      </trkpt>
      <trkpt lat="59.293246" lon="18.085103">
        <ele>47</ele>
        <time>2020-01-17T08:09:57Z</time>
      </trkpt>
      <trkpt lat="59.293187" lon="18.085109">
        <ele>47</ele>
        <time>2020-01-17T08:09:58Z</time>
      </trkpt>
      <trkpt lat="59.293133" lon="18.085119">
        <ele>47</ele>
        <time>2020-01-17T08:09:59Z</time>
      </trkpt>
      <trkpt lat="59.293079" lon="18.08513">
        <ele>48</ele>
        <time>2020-01-17T08:10:00Z</time>
      </trkpt>
      <trkpt lat="59.29303" lon="18.085141">
        <ele>48</ele>
        <time>2020-01-17T08:10:01Z</time>
      </trkpt>
      <trkpt lat="59.292984" lon="18.085152">
        <ele>48</ele>
        <time>2020-01-17T08:10:02Z</time>
      </trkpt>
      <trkpt lat="59.292941" lon="18.085164">
        <ele>48</ele>
        <time>2020-01-17T08:10:03Z</time>
      </trkpt>
      <trkpt lat="59.292899" lon="18.085173">
        <ele>48</ele>
        <time>2020-01-17T08:10:04Z</time>
      </trkpt>
      <trkpt lat="59.292858" lon="18.085177">
        <ele>48</ele>
        <time>2020-01-17T08:10:05Z</time>
      </trkpt>
      <trkpt lat="59.292817" lon="18.085172">
        <ele>48</ele>
        <time>2020-01-17T08:10:06Z</time>
      </trkpt>
      <trkpt lat="59.292777" lon="18.08515">
        <ele>49</ele>
        <time>2020-01-17T08:10:07Z</time>
      </trkpt>
      <trkpt lat="59.292738" lon="18.08511">
        <ele>49</ele>
        <time>2020-01-17T08:10:08Z</time>
      </trkpt>
      <trkpt lat="59.292698" lon="18.085062">
        <ele>49</ele>
        <time>2020-01-17T08:10:09Z</time>
      </trkpt>
      <trkpt lat="59.292658" lon="18.08502">
        <ele>49</ele>
        <time>2020-01-17T08:10:10Z</time>
      </trkpt>
      <trkpt lat="59.292615" lon="18.084996">
        <ele>49</ele>
        <time>2020-01-17T08:10:11Z</time>
      </trkpt>
      <trkpt lat="59.292564" lon="18.084996">
        <ele>49</ele>
        <time>2020-01-17T08:10:12Z</time>
      </trkpt>
      <trkpt lat="59.29251" lon="18.085014">
        <ele>49</ele>
        <time>2020-01-17T08:10:13Z</time>
      </trkpt>
      <trkpt lat="59.292459" lon="18.085046">
        <ele>48</ele>
        <time>2020-01-17T08:10:14Z</time>
      </trkpt>
      <trkpt lat="59.292411" lon="18.085087">
        <ele>48</ele>
        <time>2020-01-17T08:10:15Z</time>
      </trkpt>
      <trkpt lat="59.292361" lon="18.085128">
        <ele>48</ele>
        <time>2020-01-17T08:10:16Z</time>
      </trkpt>
      <trkpt lat="59.292309" lon="18.08517">
        <ele>48</ele>
        <time>2020-01-17T08:10:17Z</time>
      </trkpt>
      <trkpt lat="59.292257" lon="18.085211">
        <ele>48</ele>
        <time>2020-01-17T08:10:18Z</time>
      </trkpt>
      <trkpt lat="59.292206" lon="18.08525">
        <ele>48</ele>
        <time>2020-01-17T08:10:19Z</time>
      </trkpt>
      <trkpt lat="59.292157" lon="18.08529">
        <ele>48</ele>
        <time>2020-01-17T08:10:20Z</time>
      </trkpt>
      <trkpt lat="59.292106" lon="18.085329">
        <ele>48</ele>
        <time>2020-01-17T08:10:21Z</time>
      </trkpt>
      <trkpt lat="59.292053" lon="18.085372">
        <ele>48</ele>
        <time>2020-01-17T08:10:22Z</time>
      </trkpt>
      <trkpt lat="59.292004" lon="18.08542">
        <ele>48</ele>
        <time>2020-01-17T08:10:23Z</time>
      </trkpt>
      <trkpt lat="59.291958" lon="18.085471">
        <ele>48</ele>
        <time>2020-01-17T08:10:24Z</time>
      </trkpt>
      <trkpt lat="59.291894" lon="18.085519">
        <ele>48</ele>
        <time>2020-01-17T08:10:25Z</time>
      </trkpt>
      <trkpt lat="59.291834" lon="18.085568">
        <ele>47</ele>
        <time>2020-01-17T08:10:26Z</time>
      </trkpt>
      <trkpt lat="59.291775" lon="18.085625">
        <ele>47</ele>
        <time>2020-01-17T08:10:27Z</time>
      </trkpt>
      <trkpt lat="59.291718" lon="18.085681">
        <ele>47</ele>
        <time>2020-01-17T08:10:28Z</time>
      </trkpt>
      <trkpt lat="59.291663" lon="18.085732">
        <ele>47</ele>
        <time>2020-01-17T08:10:29Z</time>
      </trkpt>
      <trkpt lat="59.291606" lon="18.085784">
        <ele>47</ele>
        <time>2020-01-17T08:10:30Z</time>
      </trkpt>
      <trkpt lat="59.29155" lon="18.085844">
        <ele>46</ele>
        <time>2020-01-17T08:10:31Z</time>
      </trkpt>
      <trkpt lat="59.291492" lon="18.085906">
        <ele>46</ele>
        <time>2020-01-17T08:10:32Z</time>
      </trkpt>
      <trkpt lat="59.291438" lon="18.085965">
        <ele>45</ele>
        <time>2020-01-17T08:10:33Z</time>
      </trkpt>
      <trkpt lat="59.291383" lon="18.086017">
        <ele>45</ele>
        <time>2020-01-17T08:10:34Z</time>
      </trkpt>
      <trkpt lat="59.291328" lon="18.086066">
        <ele>45</ele>
        <time>2020-01-17T08:10:35Z</time>
      </trkpt>
      <trkpt lat="59.291271" lon="18.08611">
        <ele>45</ele>
        <time>2020-01-17T08:10:36Z</time>
      </trkpt>
      <trkpt lat="59.291215" lon="18.08615">
        <ele>44</ele>
        <time>2020-01-17T08:10:37Z</time>
      </trkpt>
      <trkpt lat="59.291159" lon="18.08619">
        <ele>44</ele>
        <time>2020-01-17T08:10:38Z</time>
      </trkpt>
      <trkpt lat="59.291105" lon="18.086235">
        <ele>44</ele>
        <time>2020-01-17T08:10:39Z</time>
      </trkpt>
      <trkpt lat="59.291051" lon="18.086274">
        <ele>43</ele>
        <time>2020-01-17T08:10:40Z</time>
      </trkpt>
      <trkpt lat="59.290996" lon="18.086312">
        <ele>43</ele>
        <time>2020-01-17T08:10:41Z</time>
      </trkpt>
      <trkpt lat="59.29094" lon="18.086346">
        <ele>43</ele>
        <time>2020-01-17T08:10:42Z</time>
      </trkpt>
      <trkpt lat="59.290883" lon="18.086375">
        <ele>42</ele>
        <time>2020-01-17T08:10:43Z</time>
      </trkpt>
      <trkpt lat="59.290824" lon="18.0864">
        <ele>42</ele>
        <time>2020-01-17T08:10:44Z</time>
      </trkpt>
      <trkpt lat="59.290764" lon="18.086416">
        <ele>41</ele>
        <time>2020-01-17T08:10:45Z</time>
      </trkpt>
      <trkpt lat="59.290704" lon="18.086431">
        <ele>41</ele>
        <time>2020-01-17T08:10:46Z</time>
      </trkpt>
      <trkpt lat="59.290644" lon="18.086432">
        <ele>42</ele>
        <time>2020-01-17T08:10:47Z</time>
      </trkpt>
      <trkpt lat="59.290584" lon="18.086421">
        <ele>43</ele>
        <time>2020-01-17T08:10:48Z</time>
      </trkpt>
      <trkpt lat="59.290529" lon="18.086418">
        <ele>44</ele>
        <time>2020-01-17T08:10:49Z</time>
      </trkpt>
      <trkpt lat="59.290476" lon="18.086424">
        <ele>45</ele>
        <time>2020-01-17T08:10:50Z</time>
      </trkpt>
      <trkpt lat="59.290427" lon="18.086448">
        <ele>46</ele>
        <time>2020-01-17T08:10:51Z</time>
      </trkpt>
      <trkpt lat="59.290375" lon="18.086461">
        <ele>46</ele>
        <time>2020-01-17T08:10:52Z</time>
      </trkpt>
      <trkpt lat="59.290324" lon="18.086471">
        <ele>47</ele>
        <time>2020-01-17T08:10:53Z</time>
      </trkpt>
      <trkpt lat="59.290272" lon="18.086477">
        <ele>47</ele>
        <time>2020-01-17T08:10:54Z</time>
      </trkpt>
      <trkpt lat="59.290219" lon="18.086486">
        <ele>46</ele>
        <time>2020-01-17T08:10:55Z</time>
      </trkpt>
      <trkpt lat="59.290163" lon="18.086501">
        <ele>46</ele>
        <time>2020-01-17T08:10:56Z</time>
      </trkpt>
      <trkpt lat="59.290106" lon="18.086516">
        <ele>46</ele>
        <time>2020-01-17T08:10:57Z</time>
      </trkpt>
      <trkpt lat="59.290045" lon="18.08653">
        <ele>46</ele>
        <time>2020-01-17T08:10:58Z</time>
      </trkpt>
      <trkpt lat="59.289983" lon="18.086551">
        <ele>46</ele>
        <time>2020-01-17T08:10:59Z</time>
      </trkpt>
      <trkpt lat="59.289918" lon="18.086562">
        <ele>45</ele>
        <time>2020-01-17T08:11:00Z</time>
      </trkpt>
      <trkpt lat="59.289851" lon="18.086582">
        <ele>44</ele>
        <time>2020-01-17T08:11:01Z</time>
      </trkpt>
      <trkpt lat="59.289783" lon="18.086606">
        <ele>44</ele>
        <time>2020-01-17T08:11:02Z</time>
      </trkpt>
      <trkpt lat="59.289711" lon="18.086634">
        <ele>43</ele>
        <time>2020-01-17T08:11:03Z</time>
      </trkpt>
      <trkpt lat="59.289639" lon="18.086666">
        <ele>42</ele>
        <time>2020-01-17T08:11:04Z</time>
      </trkpt>
      <trkpt lat="59.289565" lon="18.0867">
        <ele>42</ele>
        <time>2020-01-17T08:11:05Z</time>
      </trkpt>
      <trkpt lat="59.289489" lon="18.086736">
        <ele>41</ele>
        <time>2020-01-17T08:11:06Z</time>
      </trkpt>
      <trkpt lat="59.289411" lon="18.086775">
        <ele>41</ele>
        <time>2020-01-17T08:11:07Z</time>
      </trkpt>
      <trkpt lat="59.289333" lon="18.086818">
        <ele>40</ele>
        <time>2020-01-17T08:11:08Z</time>
      </trkpt>
      <trkpt lat="59.289253" lon="18.086865">
        <ele>40</ele>
        <time>2020-01-17T08:11:09Z</time>
      </trkpt>
      <trkpt lat="59.289171" lon="18.086917">
        <ele>39</ele>
        <time>2020-01-17T08:11:10Z</time>
      </trkpt>
      <trkpt lat="59.289088" lon="18.086968">
        <ele>39</ele>
        <time>2020-01-17T08:11:11Z</time>
      </trkpt>
      <trkpt lat="59.289004" lon="18.08702">
        <ele>38</ele>
        <time>2020-01-17T08:11:12Z</time>
      </trkpt>
      <trkpt lat="59.288918" lon="18.087068">
        <ele>38</ele>
        <time>2020-01-17T08:11:13Z</time>
      </trkpt>
      <trkpt lat="59.288834" lon="18.087112">
        <ele>37</ele>
        <time>2020-01-17T08:11:14Z</time>
      </trkpt>
      <trkpt lat="59.288749" lon="18.087155">
        <ele>37</ele>
        <time>2020-01-17T08:11:15Z</time>
      </trkpt>
      <trkpt lat="59.288665" lon="18.087193">
        <ele>37</ele>
        <time>2020-01-17T08:11:16Z</time>
      </trkpt>
      <trkpt lat="59.288581" lon="18.087234">
        <ele>36</ele>
        <time>2020-01-17T08:11:17Z</time>
      </trkpt>
      <trkpt lat="59.288491" lon="18.087288">
        <ele>36</ele>
        <time>2020-01-17T08:11:18Z</time>
      </trkpt>
      <trkpt lat="59.288407" lon="18.087354">
        <ele>36</ele>
        <time>2020-01-17T08:11:19Z</time>
      </trkpt>
      <trkpt lat="59.288321" lon="18.087408">
        <ele>36</ele>
        <time>2020-01-17T08:11:20Z</time>
      </trkpt>
      <trkpt lat="59.288245" lon="18.087427">
        <ele>37</ele>
        <time>2020-01-17T08:11:21Z</time>
      </trkpt>
      <trkpt lat="59.288183" lon="18.087448">
        <ele>37</ele>
        <time>2020-01-17T08:11:22Z</time>
      </trkpt>
      <trkpt lat="59.288115" lon="18.08748">
        <ele>37</ele>
        <time>2020-01-17T08:11:23Z</time>
      </trkpt>
      <trkpt lat="59.288056" lon="18.087516">
        <ele>38</ele>
        <time>2020-01-17T08:11:24Z</time>
      </trkpt>
      <trkpt lat="59.287998" lon="18.087549">
        <ele>38</ele>
        <time>2020-01-17T08:11:25Z</time>
      </trkpt>
      <trkpt lat="59.287934" lon="18.087574">
        <ele>38</ele>
        <time>2020-01-17T08:11:26Z</time>
      </trkpt>
      <trkpt lat="59.287878" lon="18.087602">
        <ele>38</ele>
        <time>2020-01-17T08:11:27Z</time>
      </trkpt>
      <trkpt lat="59.287823" lon="18.087631">
        <ele>38</ele>
        <time>2020-01-17T08:11:28Z</time>
      </trkpt>
      <trkpt lat="59.28777" lon="18.087661">
        <ele>38</ele>
        <time>2020-01-17T08:11:29Z</time>
      </trkpt>
      <trkpt lat="59.287718" lon="18.087695">
        <ele>38</ele>
        <time>2020-01-17T08:11:30Z</time>
      </trkpt>
      <trkpt lat="59.287669" lon="18.087731">
        <ele>38</ele>
        <time>2020-01-17T08:11:31Z</time>
      </trkpt>
      <trkpt lat="59.287622" lon="18.087765">
        <ele>38</ele>
        <time>2020-01-17T08:11:32Z</time>
      </trkpt>
      <trkpt lat="59.287574" lon="18.087798">
        <ele>38</ele>
        <time>2020-01-17T08:11:33Z</time>
      </trkpt>
      <trkpt lat="59.287529" lon="18.087832">
        <ele>39</ele>
        <time>2020-01-17T08:11:34Z</time>
      </trkpt>
      <trkpt lat="59.287486" lon="18.087867">
        <ele>39</ele>
        <time>2020-01-17T08:11:35Z</time>
      </trkpt>
      <trkpt lat="59.287442" lon="18.087904">
        <ele>39</ele>
        <time>2020-01-17T08:11:36Z</time>
      </trkpt>
      <trkpt lat="59.287397" lon="18.087943">
        <ele>39</ele>
        <time>2020-01-17T08:11:37Z</time>
      </trkpt>
      <trkpt lat="59.287352" lon="18.087981">
        <ele>39</ele>
        <time>2020-01-17T08:11:38Z</time>
      </trkpt>
      <trkpt lat="59.287306" lon="18.088014">
        <ele>39</ele>
        <time>2020-01-17T08:11:39Z</time>
      </trkpt>
      <trkpt lat="59.287258" lon="18.088046">
        <ele>39</ele>
        <time>2020-01-17T08:11:40Z</time>
      </trkpt>
      <trkpt lat="59.287208" lon="18.088076">
        <ele>39</ele>
        <time>2020-01-17T08:11:41Z</time>
      </trkpt>
      <trkpt lat="59.287157" lon="18.088103">
        <ele>39</ele>
        <time>2020-01-17T08:11:42Z</time>
      </trkpt>
      <trkpt lat="59.287107" lon="18.088128">
        <ele>39</ele>
        <time>2020-01-17T08:11:43Z</time>
      </trkpt>
      <trkpt lat="59.287056" lon="18.088155">
        <ele>39</ele>
        <time>2020-01-17T08:11:44Z</time>
      </trkpt>
      <trkpt lat="59.287005" lon="18.088184">
        <ele>39</ele>
        <time>2020-01-17T08:11:45Z</time>
      </trkpt>
      <trkpt lat="59.286954" lon="18.088211">
        <ele>39</ele>
        <time>2020-01-17T08:11:46Z</time>
      </trkpt>
      <trkpt lat="59.286902" lon="18.088241">
        <ele>39</ele>
        <time>2020-01-17T08:11:47Z</time>
      </trkpt>
      <trkpt lat="59.286849" lon="18.08827">
        <ele>39</ele>
        <time>2020-01-17T08:11:48Z</time>
      </trkpt>
      <trkpt lat="59.286796" lon="18.088301">
        <ele>39</ele>
        <time>2020-01-17T08:11:49Z</time>
      </trkpt>
      <trkpt lat="59.286744" lon="18.08833">
        <ele>39</ele>
        <time>2020-01-17T08:11:50Z</time>
      </trkpt>
      <trkpt lat="59.286691" lon="18.088358">
        <ele>39</ele>
        <time>2020-01-17T08:11:51Z</time>
      </trkpt>
      <trkpt lat="59.28664" lon="18.088384">
        <ele>39</ele>
        <time>2020-01-17T08:11:52Z</time>
      </trkpt>
      <trkpt lat="59.286587" lon="18.088406">
        <ele>39</ele>
        <time>2020-01-17T08:11:53Z</time>
      </trkpt>
      <trkpt lat="59.286534" lon="18.088428">
        <ele>39</ele>
        <time>2020-01-17T08:11:54Z</time>
      </trkpt>
      <trkpt lat="59.28648" lon="18.088455">
        <ele>39</ele>
        <time>2020-01-17T08:11:55Z</time>
      </trkpt>
      <trkpt lat="59.286427" lon="18.088482">
        <ele>39</ele>
        <time>2020-01-17T08:11:56Z</time>
      </trkpt>
      <trkpt lat="59.286374" lon="18.088508">
        <ele>39</ele>
        <time>2020-01-17T08:11:57Z</time>
      </trkpt>
      <trkpt lat="59.286322" lon="18.088535">
        <ele>39</ele>
        <time>2020-01-17T08:11:58Z</time>
      </trkpt>
      <trkpt lat="59.28627" lon="18.088567">
        <ele>39</ele>
        <time>2020-01-17T08:11:59Z</time>
      </trkpt>
      <trkpt lat="59.286218" lon="18.088598">
        <ele>39</ele>
        <time>2020-01-17T08:12:00Z</time>
      </trkpt>
      <trkpt lat="59.286166" lon="18.088624">
        <ele>39</ele>
        <time>2020-01-17T08:12:01Z</time>
      </trkpt>
      <trkpt lat="59.286114" lon="18.08865">
        <ele>39</ele>
        <time>2020-01-17T08:12:02Z</time>
      </trkpt>
      <trkpt lat="59.286061" lon="18.088678">
        <ele>39</ele>
        <time>2020-01-17T08:12:03Z</time>
      </trkpt>
      <trkpt lat="59.286007" lon="18.088704">
        <ele>39</ele>
        <time>2020-01-17T08:12:04Z</time>
      </trkpt>
      <trkpt lat="59.285953" lon="18.088734">
        <ele>39</ele>
        <time>2020-01-17T08:12:05Z</time>
      </trkpt>
      <trkpt lat="59.285899" lon="18.08876">
        <ele>39</ele>
        <time>2020-01-17T08:12:06Z</time>
      </trkpt>
      <trkpt lat="59.285847" lon="18.08879">
        <ele>39</ele>
        <time>2020-01-17T08:12:07Z</time>
      </trkpt>
      <trkpt lat="59.285795" lon="18.08882">
        <ele>39</ele>
        <time>2020-01-17T08:12:08Z</time>
      </trkpt>
      <trkpt lat="59.285743" lon="18.088852">
        <ele>39</ele>
        <time>2020-01-17T08:12:09Z</time>
      </trkpt>
      <trkpt lat="59.285689" lon="18.08888">
        <ele>39</ele>
        <time>2020-01-17T08:12:10Z</time>
      </trkpt>
      <trkpt lat="59.285634" lon="18.088904">
        <ele>39</ele>
        <time>2020-01-17T08:12:11Z</time>
      </trkpt>
      <trkpt lat="59.285581" lon="18.08893">
        <ele>39</ele>
        <time>2020-01-17T08:12:12Z</time>
      </trkpt>
      <trkpt lat="59.285527" lon="18.088964">
        <ele>39</ele>
        <time>2020-01-17T08:12:13Z</time>
      </trkpt>
      <trkpt lat="59.285474" lon="18.089">
        <ele>40</ele>
        <time>2020-01-17T08:12:14Z</time>
      </trkpt>
      <trkpt lat="59.285421" lon="18.089034">
        <ele>40</ele>
        <time>2020-01-17T08:12:15Z</time>
      </trkpt>
      <trkpt lat="59.285368" lon="18.089062">
        <ele>40</ele>
        <time>2020-01-17T08:12:16Z</time>
      </trkpt>
      <trkpt lat="59.285315" lon="18.08909">
        <ele>40</ele>
        <time>2020-01-17T08:12:17Z</time>
      </trkpt>
      <trkpt lat="59.285261" lon="18.089118">
        <ele>40</ele>
        <time>2020-01-17T08:12:18Z</time>
      </trkpt>
      <trkpt lat="59.285206" lon="18.089144">
        <ele>40</ele>
        <time>2020-01-17T08:12:19Z</time>
      </trkpt>
      <trkpt lat="59.285151" lon="18.089172">
        <ele>40</ele>
        <time>2020-01-17T08:12:20Z</time>
      </trkpt>
      <trkpt lat="59.285097" lon="18.089204">
        <ele>40</ele>
        <time>2020-01-17T08:12:21Z</time>
      </trkpt>
      <trkpt lat="59.285042" lon="18.089236">
        <ele>40</ele>
        <time>2020-01-17T08:12:22Z</time>
      </trkpt>
      <trkpt lat="59.284987" lon="18.089262">
        <ele>40</ele>
        <time>2020-01-17T08:12:23Z</time>
      </trkpt>
      <trkpt lat="59.28493" lon="18.089278">
        <ele>39</ele>
        <time>2020-01-17T08:12:24Z</time>
      </trkpt>
      <trkpt lat="59.284873" lon="18.089286">
        <ele>39</ele>
        <time>2020-01-17T08:12:25Z</time>
      </trkpt>
      <trkpt lat="59.284817" lon="18.089308">
        <ele>39</ele>
        <time>2020-01-17T08:12:26Z</time>
      </trkpt>
      <trkpt lat="59.284762" lon="18.08934">
        <ele>39</ele>
        <time>2020-01-17T08:12:27Z</time>
      </trkpt>
      <trkpt lat="59.28471" lon="18.089376">
        <ele>39</ele>
        <time>2020-01-17T08:12:28Z</time>
      </trkpt>
      <trkpt lat="59.284658" lon="18.08941">
        <ele>39</ele>
        <time>2020-01-17T08:12:29Z</time>
      </trkpt>
      <trkpt lat="59.284604" lon="18.089426">
        <ele>39</ele>
        <time>2020-01-17T08:12:30Z</time>
      </trkpt>
      <trkpt lat="59.28455" lon="18.089438">
        <ele>38</ele>
        <time>2020-01-17T08:12:31Z</time>
      </trkpt>
      <trkpt lat="59.284497" lon="18.089458">
        <ele>38</ele>
        <time>2020-01-17T08:12:32Z</time>
      </trkpt>
      <trkpt lat="59.284446" lon="18.089486">
        <ele>38</ele>
        <time>2020-01-17T08:12:33Z</time>
      </trkpt>
      <trkpt lat="59.284394" lon="18.089516">
        <ele>39</ele>
        <time>2020-01-17T08:12:34Z</time>
      </trkpt>
      <trkpt lat="59.28434" lon="18.089548">
        <ele>39</ele>
        <time>2020-01-17T08:12:35Z</time>
      </trkpt>
      <trkpt lat="59.284285" lon="18.089576">
        <ele>39</ele>
        <time>2020-01-17T08:12:36Z</time>
      </trkpt>
      <trkpt lat="59.284227" lon="18.089606">
        <ele>39</ele>
        <time>2020-01-17T08:12:37Z</time>
      </trkpt>
      <trkpt lat="59.284171" lon="18.089638">
        <ele>39</ele>
        <time>2020-01-17T08:12:38Z</time>
      </trkpt>
      <trkpt lat="59.284116" lon="18.089658">
        <ele>39</ele>
        <time>2020-01-17T08:12:39Z</time>
      </trkpt>
      <trkpt lat="59.284063" lon="18.089682">
        <ele>39</ele>
        <time>2020-01-17T08:12:40Z</time>
      </trkpt>
      <trkpt lat="59.284009" lon="18.089708">
        <ele>39</ele>
        <time>2020-01-17T08:12:41Z</time>
      </trkpt>
      <trkpt lat="59.283954" lon="18.089738">
        <ele>39</ele>
        <time>2020-01-17T08:12:42Z</time>
      </trkpt>
      <trkpt lat="59.2839" lon="18.08977">
        <ele>40</ele>
        <time>2020-01-17T08:12:43Z</time>
      </trkpt>
      <trkpt lat="59.283849" lon="18.089798">
        <ele>40</ele>
        <time>2020-01-17T08:12:44Z</time>
      </trkpt>
      <trkpt lat="59.283795" lon="18.089828">
        <ele>40</ele>
        <time>2020-01-17T08:12:45Z</time>
      </trkpt>
      <trkpt lat="59.283738" lon="18.089856">
        <ele>40</ele>
        <time>2020-01-17T08:12:46Z</time>
      </trkpt>
      <trkpt lat="59.28368" lon="18.089884">
        <ele>40</ele>
        <time>2020-01-17T08:12:47Z</time>
      </trkpt>
      <trkpt lat="59.283624" lon="18.089908">
        <ele>40</ele>
        <time>2020-01-17T08:12:48Z</time>
      </trkpt>
      <trkpt lat="59.283566" lon="18.08992">
        <ele>39</ele>
        <time>2020-01-17T08:12:49Z</time>
      </trkpt>
      <trkpt lat="59.283509" lon="18.089938">
        <ele>39</ele>
        <time>2020-01-17T08:12:50Z</time>
      </trkpt>
      <trkpt lat="59.283452" lon="18.08996">
        <ele>39</ele>
        <time>2020-01-17T08:12:51Z</time>
      </trkpt>
      <trkpt lat="59.283395" lon="18.089984">
        <ele>39</ele>
        <time>2020-01-17T08:12:52Z</time>
      </trkpt>
      <trkpt lat="59.283338" lon="18.090008">
        <ele>39</ele>
        <time>2020-01-17T08:12:53Z</time>
      </trkpt>
      <trkpt lat="59.28328" lon="18.090022">
        <ele>39</ele>
        <time>2020-01-17T08:12:54Z</time>
      </trkpt>
      <trkpt lat="59.283223" lon="18.09004">
        <ele>38</ele>
        <time>2020-01-17T08:12:55Z</time>
      </trkpt>
      <trkpt lat="59.283167" lon="18.090054">
        <ele>38</ele>
        <time>2020-01-17T08:12:56Z</time>
      </trkpt>
      <trkpt lat="59.283111" lon="18.090076">
        <ele>38</ele>
        <time>2020-01-17T08:12:57Z</time>
      </trkpt>
      <trkpt lat="59.283057" lon="18.0901">
        <ele>38</ele>
        <time>2020-01-17T08:12:58Z</time>
      </trkpt>
      <trkpt lat="59.283004" lon="18.090124">
        <ele>38</ele>
        <time>2020-01-17T08:12:59Z</time>
      </trkpt>
      <trkpt lat="59.282949" lon="18.090146">
        <ele>38</ele>
        <time>2020-01-17T08:13:00Z</time>
      </trkpt>
      <trkpt lat="59.282894" lon="18.090171">
        <ele>38</ele>
        <time>2020-01-17T08:13:01Z</time>
      </trkpt>
      <trkpt lat="59.282837" lon="18.090192">
        <ele>38</ele>
        <time>2020-01-17T08:13:02Z</time>
      </trkpt>
      <trkpt lat="59.282782" lon="18.09021">
        <ele>38</ele>
        <time>2020-01-17T08:13:03Z</time>
      </trkpt>
      <trkpt lat="59.282726" lon="18.090237">
        <ele>38</ele>
        <time>2020-01-17T08:13:04Z</time>
      </trkpt>
      <trkpt lat="59.282672" lon="18.090266">
        <ele>38</ele>
        <time>2020-01-17T08:13:05Z</time>
      </trkpt>
      <trkpt lat="59.282617" lon="18.090296">
        <ele>38</ele>
        <time>2020-01-17T08:13:06Z</time>
      </trkpt>
      <trkpt lat="59.282561" lon="18.090325">
        <ele>39</ele>
        <time>2020-01-17T08:13:07Z</time>
      </trkpt>
      <trkpt lat="59.282504" lon="18.09035">
        <ele>39</ele>
        <time>2020-01-17T08:13:08Z</time>
      </trkpt>
      <trkpt lat="59.282447" lon="18.090368">
        <ele>38</ele>
        <time>2020-01-17T08:13:09Z</time>
      </trkpt>
      <trkpt lat="59.282391" lon="18.090384">
        <ele>38</ele>
        <time>2020-01-17T08:13:10Z</time>
      </trkpt>
      <trkpt lat="59.282339" lon="18.090404">
        <ele>38</ele>
        <time>2020-01-17T08:13:11Z</time>
      </trkpt>
      <trkpt lat="59.282288" lon="18.090422">
        <ele>38</ele>
        <time>2020-01-17T08:13:12Z</time>
      </trkpt>
      <trkpt lat="59.282235" lon="18.090444">
        <ele>38</ele>
        <time>2020-01-17T08:13:13Z</time>
      </trkpt>
      <trkpt lat="59.282182" lon="18.090459">
        <ele>38</ele>
        <time>2020-01-17T08:13:14Z</time>
      </trkpt>
      <trkpt lat="59.282129" lon="18.090465">
        <ele>38</ele>
        <time>2020-01-17T08:13:15Z</time>
      </trkpt>
      <trkpt lat="59.282076" lon="18.090469">
        <ele>38</ele>
        <time>2020-01-17T08:13:16Z</time>
      </trkpt>
      <trkpt lat="59.282025" lon="18.090483">
        <ele>38</ele>
        <time>2020-01-17T08:13:17Z</time>
      </trkpt>
      <trkpt lat="59.281974" lon="18.090501">
        <ele>38</ele>
        <time>2020-01-17T08:13:18Z</time>
      </trkpt>
      <trkpt lat="59.281924" lon="18.090524">
        <ele>38</ele>
        <time>2020-01-17T08:13:19Z</time>
      </trkpt>
      <trkpt lat="59.281876" lon="18.090544">
        <ele>38</ele>
        <time>2020-01-17T08:13:20Z</time>
      </trkpt>
      <trkpt lat="59.281828" lon="18.090562">
        <ele>38</ele>
        <time>2020-01-17T08:13:21Z</time>
      </trkpt>
      <trkpt lat="59.281777" lon="18.090585">
        <ele>38</ele>
        <time>2020-01-17T08:13:22Z</time>
      </trkpt>
      <trkpt lat="59.281728" lon="18.090607">
        <ele>38</ele>
        <time>2020-01-17T08:13:23Z</time>
      </trkpt>
      <trkpt lat="59.281679" lon="18.090626">
        <ele>38</ele>
        <time>2020-01-17T08:13:24Z</time>
      </trkpt>
      <trkpt lat="59.281629" lon="18.090649">
        <ele>38</ele>
        <time>2020-01-17T08:13:25Z</time>
      </trkpt>
      <trkpt lat="59.281576" lon="18.090666">
        <ele>38</ele>
        <time>2020-01-17T08:13:26Z</time>
      </trkpt>
      <trkpt lat="59.281524" lon="18.090684">
        <ele>38</ele>
        <time>2020-01-17T08:13:27Z</time>
      </trkpt>
      <trkpt lat="59.281472" lon="18.090704">
        <ele>38</ele>
        <time>2020-01-17T08:13:28Z</time>
      </trkpt>
      <trkpt lat="59.281421" lon="18.090721">
        <ele>38</ele>
        <time>2020-01-17T08:13:29Z</time>
      </trkpt>
      <trkpt lat="59.28137" lon="18.090742">
        <ele>38</ele>
        <time>2020-01-17T08:13:30Z</time>
      </trkpt>
      <trkpt lat="59.28132" lon="18.090763">
        <ele>38</ele>
        <time>2020-01-17T08:13:31Z</time>
      </trkpt>
      <trkpt lat="59.281269" lon="18.090784">
        <ele>38</ele>
        <time>2020-01-17T08:13:32Z</time>
      </trkpt>
      <trkpt lat="59.281219" lon="18.090799">
        <ele>38</ele>
        <time>2020-01-17T08:13:33Z</time>
      </trkpt>
      <trkpt lat="59.28117" lon="18.090813">
        <ele>38</ele>
        <time>2020-01-17T08:13:34Z</time>
      </trkpt>
      <trkpt lat="59.281122" lon="18.090829">
        <ele>37</ele>
        <time>2020-01-17T08:13:35Z</time>
      </trkpt>
      <trkpt lat="59.281074" lon="18.090845">
        <ele>37</ele>
        <time>2020-01-17T08:13:36Z</time>
      </trkpt>
      <trkpt lat="59.281026" lon="18.090863">
        <ele>37</ele>
        <time>2020-01-17T08:13:37Z</time>
      </trkpt>
      <trkpt lat="59.280977" lon="18.090882">
        <ele>37</ele>
        <time>2020-01-17T08:13:38Z</time>
      </trkpt>
      <trkpt lat="59.280928" lon="18.090898">
        <ele>37</ele>
        <time>2020-01-17T08:13:39Z</time>
      </trkpt>
      <trkpt lat="59.280881" lon="18.090913">
        <ele>37</ele>
        <time>2020-01-17T08:13:40Z</time>
      </trkpt>
      <trkpt lat="59.280833" lon="18.090927">
        <ele>37</ele>
        <time>2020-01-17T08:13:41Z</time>
      </trkpt>
      <trkpt lat="59.280785" lon="18.090939">
        <ele>36</ele>
        <time>2020-01-17T08:13:42Z</time>
      </trkpt>
      <trkpt lat="59.280737" lon="18.090948">
        <ele>36</ele>
        <time>2020-01-17T08:13:43Z</time>
      </trkpt>
      <trkpt lat="59.28069" lon="18.090961">
        <ele>36</ele>
        <time>2020-01-17T08:13:44Z</time>
      </trkpt>
      <trkpt lat="59.280643" lon="18.090978">
        <ele>36</ele>
        <time>2020-01-17T08:13:45Z</time>
      </trkpt>
      <trkpt lat="59.280597" lon="18.090995">
        <ele>36</ele>
        <time>2020-01-17T08:13:46Z</time>
      </trkpt>
      <trkpt lat="59.28055" lon="18.091013">
        <ele>36</ele>
        <time>2020-01-17T08:13:47Z</time>
      </trkpt>
      <trkpt lat="59.280504" lon="18.091033">
        <ele>36</ele>
        <time>2020-01-17T08:13:48Z</time>
      </trkpt>
      <trkpt lat="59.280457" lon="18.091051">
        <ele>36</ele>
        <time>2020-01-17T08:13:49Z</time>
      </trkpt>
      <trkpt lat="59.28041" lon="18.091069">
        <ele>36</ele>
        <time>2020-01-17T08:13:50Z</time>
      </trkpt>
      <trkpt lat="59.280364" lon="18.091088">
        <ele>36</ele>
        <time>2020-01-17T08:13:51Z</time>
      </trkpt>
      <trkpt lat="59.280317" lon="18.091104">
        <ele>36</ele>
        <time>2020-01-17T08:13:52Z</time>
      </trkpt>
      <trkpt lat="59.28027" lon="18.091122">
        <ele>36</ele>
        <time>2020-01-17T08:13:53Z</time>
      </trkpt>
      <trkpt lat="59.280224" lon="18.091137">
        <ele>36</ele>
        <time>2020-01-17T08:13:54Z</time>
      </trkpt>
      <trkpt lat="59.280179" lon="18.091153">
        <ele>36</ele>
        <time>2020-01-17T08:13:55Z</time>
      </trkpt>
      <trkpt lat="59.280134" lon="18.091171">
        <ele>36</ele>
        <time>2020-01-17T08:13:56Z</time>
      </trkpt>
      <trkpt lat="59.28009" lon="18.091187">
        <ele>36</ele>
        <time>2020-01-17T08:13:57Z</time>
      </trkpt>
      <trkpt lat="59.280044" lon="18.091202">
        <ele>36</ele>
        <time>2020-01-17T08:13:58Z</time>
      </trkpt>
      <trkpt lat="59.280001" lon="18.091221">
        <ele>36</ele>
        <time>2020-01-17T08:13:59Z</time>
      </trkpt>
      <trkpt lat="59.279958" lon="18.091238">
        <ele>36</ele>
        <time>2020-01-17T08:14:00Z</time>
      </trkpt>
      <trkpt lat="59.279914" lon="18.091255">
        <ele>36</ele>
        <time>2020-01-17T08:14:01Z</time>
      </trkpt>
      <trkpt lat="59.279869" lon="18.091272">
        <ele>36</ele>
        <time>2020-01-17T08:14:02Z</time>
      </trkpt>
      <trkpt lat="59.279823" lon="18.091286">
        <ele>36</ele>
        <time>2020-01-17T08:14:03Z</time>
      </trkpt>
      <trkpt lat="59.279778" lon="18.091297">
        <ele>36</ele>
        <time>2020-01-17T08:14:04Z</time>
      </trkpt>
      <trkpt lat="59.279733" lon="18.091308">
        <ele>36</ele>
        <time>2020-01-17T08:14:05Z</time>
      </trkpt>
      <trkpt lat="59.279692" lon="18.091315">
        <ele>36</ele>
        <time>2020-01-17T08:14:06Z</time>
      </trkpt>
      <trkpt lat="59.279652" lon="18.091323">
        <ele>36</ele>
        <time>2020-01-17T08:14:07Z</time>
      </trkpt>
      <trkpt lat="59.279614" lon="18.09133">
        <ele>36</ele>
        <time>2020-01-17T08:14:08Z</time>
      </trkpt>
      <trkpt lat="59.279576" lon="18.091333">
        <ele>36</ele>
        <time>2020-01-17T08:14:09Z</time>
      </trkpt>
      <trkpt lat="59.279539" lon="18.091335">
        <ele>35</ele>
        <time>2020-01-17T08:14:10Z</time>
      </trkpt>
      <trkpt lat="59.279504" lon="18.09134">
        <ele>35</ele>
        <time>2020-01-17T08:14:11Z</time>
      </trkpt>
      <trkpt lat="59.279472" lon="18.091345">
        <ele>35</ele>
        <time>2020-01-17T08:14:12Z</time>
      </trkpt>
      <trkpt lat="59.279452" lon="18.091345">
        <ele>35</ele>
        <time>2020-01-17T08:14:13Z</time>
      </trkpt>
      <trkpt lat="59.279427" lon="18.091329">
        <ele>35</ele>
        <time>2020-01-17T08:14:16Z</time>
      </trkpt>
      <trkpt lat="59.279403" lon="18.09133">
        <ele>35</ele>
        <time>2020-01-17T08:14:18Z</time>
      </trkpt>
      <trkpt lat="59.279384" lon="18.09133">
        <ele>35</ele>
        <time>2020-01-17T08:14:20Z</time>
      </trkpt>
      <trkpt lat="59.279384" lon="18.091331">
        <ele>35</ele>
        <time>2020-01-17T08:14:23Z</time>
      </trkpt>
      <trkpt lat="59.279352" lon="18.091334">
        <ele>35</ele>
        <time>2020-01-17T08:14:34Z</time>
      </trkpt>
      <trkpt lat="59.279332" lon="18.091339">
        <ele>35</ele>
        <time>2020-01-17T08:14:35Z</time>
      </trkpt>
      <trkpt lat="59.279312" lon="18.091343">
        <ele>35</ele>
        <time>2020-01-17T08:14:36Z</time>
      </trkpt>
      <trkpt lat="59.279281" lon="18.091344">
        <ele>35</ele>
        <time>2020-01-17T08:14:38Z</time>
      </trkpt>
      <trkpt lat="59.279261" lon="18.091354">
        <ele>35</ele>
        <time>2020-01-17T08:14:40Z</time>
      </trkpt>
      <trkpt lat="59.279243" lon="18.091351">
        <ele>34</ele>
        <time>2020-01-17T08:14:43Z</time>
      </trkpt>
      <trkpt lat="59.279208" lon="18.091358">
        <ele>34</ele>
        <time>2020-01-17T08:14:45Z</time>
      </trkpt>
      <trkpt lat="59.279181" lon="18.091371">
        <ele>34</ele>
        <time>2020-01-17T08:14:46Z</time>
      </trkpt>
      <trkpt lat="59.27915" lon="18.091395">
        <ele>34</ele>
        <time>2020-01-17T08:14:47Z</time>
      </trkpt>
      <trkpt lat="59.279119" lon="18.091428">
        <ele>34</ele>
        <time>2020-01-17T08:14:48Z</time>
      </trkpt>
      <trkpt lat="59.279083" lon="18.091463">
        <ele>34</ele>
        <time>2020-01-17T08:14:49Z</time>
      </trkpt>
      <trkpt lat="59.279043" lon="18.091495">
        <ele>34</ele>
        <time>2020-01-17T08:14:50Z</time>
      </trkpt>
      <trkpt lat="59.278999" lon="18.09152">
        <ele>34</ele>
        <time>2020-01-17T08:14:51Z</time>
      </trkpt>
      <trkpt lat="59.278954" lon="18.09154">
        <ele>34</ele>
        <time>2020-01-17T08:14:52Z</time>
      </trkpt>
      <trkpt lat="59.27891" lon="18.091557">
        <ele>35</ele>
        <time>2020-01-17T08:14:53Z</time>
      </trkpt>
      <trkpt lat="59.278865" lon="18.091576">
        <ele>35</ele>
        <time>2020-01-17T08:14:54Z</time>
      </trkpt>
      <trkpt lat="59.27882" lon="18.091594">
        <ele>35</ele>
        <time>2020-01-17T08:14:55Z</time>
      </trkpt>
      <trkpt lat="59.278775" lon="18.091611">
        <ele>35</ele>
        <time>2020-01-17T08:14:56Z</time>
      </trkpt>
      <trkpt lat="59.278732" lon="18.091628">
        <ele>35</ele>
        <time>2020-01-17T08:14:57Z</time>
      </trkpt>
      <trkpt lat="59.278687" lon="18.091648">
        <ele>35</ele>
        <time>2020-01-17T08:14:58Z</time>
      </trkpt>
      <trkpt lat="59.278642" lon="18.091664">
        <ele>35</ele>
        <time>2020-01-17T08:14:59Z</time>
      </trkpt>
      <trkpt lat="59.278598" lon="18.091677">
        <ele>35</ele>
        <time>2020-01-17T08:15:00Z</time>
      </trkpt>
      <trkpt lat="59.278553" lon="18.091686">
        <ele>35</ele>
        <time>2020-01-17T08:15:01Z</time>
      </trkpt>
      <trkpt lat="59.278509" lon="18.091693">
        <ele>35</ele>
        <time>2020-01-17T08:15:02Z</time>
      </trkpt>
      <trkpt lat="59.278464" lon="18.091695">
        <ele>35</ele>
        <time>2020-01-17T08:15:03Z</time>
      </trkpt>
      <trkpt lat="59.278419" lon="18.091694">
        <ele>35</ele>
        <time>2020-01-17T08:15:04Z</time>
      </trkpt>
      <trkpt lat="59.278373" lon="18.09169">
        <ele>35</ele>
        <time>2020-01-17T08:15:05Z</time>
      </trkpt>
      <trkpt lat="59.278329" lon="18.091686">
        <ele>34</ele>
        <time>2020-01-17T08:15:06Z</time>
      </trkpt>
      <trkpt lat="59.278288" lon="18.091698">
        <ele>34</ele>
        <time>2020-01-17T08:15:07Z</time>
      </trkpt>
      <trkpt lat="59.278248" lon="18.09173">
        <ele>34</ele>
        <time>2020-01-17T08:15:08Z</time>
      </trkpt>
      <trkpt lat="59.278208" lon="18.091767">
        <ele>34</ele>
        <time>2020-01-17T08:15:09Z</time>
      </trkpt>
      <trkpt lat="59.278169" lon="18.091794">
        <ele>34</ele>
        <time>2020-01-17T08:15:10Z</time>
      </trkpt>
      <trkpt lat="59.278129" lon="18.091806">
        <ele>34</ele>
        <time>2020-01-17T08:15:11Z</time>
      </trkpt>
      <trkpt lat="59.278089" lon="18.091812">
        <ele>34</ele>
        <time>2020-01-17T08:15:12Z</time>
      </trkpt>
      <trkpt lat="59.278049" lon="18.091817">
        <ele>34</ele>
        <time>2020-01-17T08:15:13Z</time>
      </trkpt>
      <trkpt lat="59.278008" lon="18.091822">
        <ele>34</ele>
        <time>2020-01-17T08:15:14Z</time>
      </trkpt>
      <trkpt lat="59.277968" lon="18.091826">
        <ele>34</ele>
        <time>2020-01-17T08:15:15Z</time>
      </trkpt>
      <trkpt lat="59.277927" lon="18.091827">
        <ele>34</ele>
        <time>2020-01-17T08:15:16Z</time>
      </trkpt>
      <trkpt lat="59.277887" lon="18.091828">
        <ele>34</ele>
        <time>2020-01-17T08:15:17Z</time>
      </trkpt>
      <trkpt lat="59.277846" lon="18.09183">
        <ele>34</ele>
        <time>2020-01-17T08:15:18Z</time>
      </trkpt>
      <trkpt lat="59.277805" lon="18.091833">
        <ele>35</ele>
        <time>2020-01-17T08:15:19Z</time>
      </trkpt>
      <trkpt lat="59.277765" lon="18.091838">
        <ele>35</ele>
        <time>2020-01-17T08:15:20Z</time>
      </trkpt>
      <trkpt lat="59.277724" lon="18.091845">
        <ele>35</ele>
        <time>2020-01-17T08:15:21Z</time>
      </trkpt>
      <trkpt lat="59.277683" lon="18.091852">
        <ele>35</ele>
        <time>2020-01-17T08:15:22Z</time>
      </trkpt>
      <trkpt lat="59.277642" lon="18.091861">
        <ele>35</ele>
        <time>2020-01-17T08:15:23Z</time>
      </trkpt>
      <trkpt lat="59.277601" lon="18.09187">
        <ele>35</ele>
        <time>2020-01-17T08:15:24Z</time>
      </trkpt>
      <trkpt lat="59.277559" lon="18.09188">
        <ele>35</ele>
        <time>2020-01-17T08:15:25Z</time>
      </trkpt>
      <trkpt lat="59.277518" lon="18.091892">
        <ele>35</ele>
        <time>2020-01-17T08:15:26Z</time>
      </trkpt>
      <trkpt lat="59.277477" lon="18.091903">
        <ele>35</ele>
        <time>2020-01-17T08:15:27Z</time>
      </trkpt>
      <trkpt lat="59.277436" lon="18.091916">
        <ele>35</ele>
        <time>2020-01-17T08:15:28Z</time>
      </trkpt>
      <trkpt lat="59.277394" lon="18.091927">
        <ele>35</ele>
        <time>2020-01-17T08:15:29Z</time>
      </trkpt>
      <trkpt lat="59.277353" lon="18.091939">
        <ele>35</ele>
        <time>2020-01-17T08:15:30Z</time>
      </trkpt>
      <trkpt lat="59.277313" lon="18.091948">
        <ele>35</ele>
        <time>2020-01-17T08:15:31Z</time>
      </trkpt>
      <trkpt lat="59.277272" lon="18.091957">
        <ele>35</ele>
        <time>2020-01-17T08:15:32Z</time>
      </trkpt>
      <trkpt lat="59.277232" lon="18.091966">
        <ele>36</ele>
        <time>2020-01-17T08:15:33Z</time>
      </trkpt>
      <trkpt lat="59.277191" lon="18.091976">
        <ele>36</ele>
        <time>2020-01-17T08:15:34Z</time>
      </trkpt>
      <trkpt lat="59.277151" lon="18.091988">
        <ele>36</ele>
        <time>2020-01-17T08:15:35Z</time>
      </trkpt>
      <trkpt lat="59.277111" lon="18.092001">
        <ele>36</ele>
        <time>2020-01-17T08:15:36Z</time>
      </trkpt>
      <trkpt lat="59.27707" lon="18.092011">
        <ele>36</ele>
        <time>2020-01-17T08:15:37Z</time>
      </trkpt>
      <trkpt lat="59.277029" lon="18.092021">
        <ele>36</ele>
        <time>2020-01-17T08:15:38Z</time>
      </trkpt>
      <trkpt lat="59.276987" lon="18.092032">
        <ele>36</ele>
        <time>2020-01-17T08:15:39Z</time>
      </trkpt>
      <trkpt lat="59.276944" lon="18.092044">
        <ele>36</ele>
        <time>2020-01-17T08:15:40Z</time>
      </trkpt>
      <trkpt lat="59.276901" lon="18.092057">
        <ele>36</ele>
        <time>2020-01-17T08:15:41Z</time>
      </trkpt>
      <trkpt lat="59.276857" lon="18.09207">
        <ele>36</ele>
        <time>2020-01-17T08:15:42Z</time>
      </trkpt>
      <trkpt lat="59.276814" lon="18.092086">
        <ele>36</ele>
        <time>2020-01-17T08:15:43Z</time>
      </trkpt>
      <trkpt lat="59.276771" lon="18.092101">
        <ele>36</ele>
        <time>2020-01-17T08:15:44Z</time>
      </trkpt>
      <trkpt lat="59.276729" lon="18.092117">
        <ele>36</ele>
        <time>2020-01-17T08:15:45Z</time>
      </trkpt>
      <trkpt lat="59.276686" lon="18.092135">
        <ele>36</ele>
        <time>2020-01-17T08:15:46Z</time>
      </trkpt>
      <trkpt lat="59.276644" lon="18.092151">
        <ele>36</ele>
        <time>2020-01-17T08:15:47Z</time>
      </trkpt>
      <trkpt lat="59.276601" lon="18.092168">
        <ele>36</ele>
        <time>2020-01-17T08:15:48Z</time>
      </trkpt>
      <trkpt lat="59.276558" lon="18.092187">
        <ele>36</ele>
        <time>2020-01-17T08:15:49Z</time>
      </trkpt>
      <trkpt lat="59.276515" lon="18.092206">
        <ele>36</ele>
        <time>2020-01-17T08:15:50Z</time>
      </trkpt>
      <trkpt lat="59.276471" lon="18.092222">
        <ele>37</ele>
        <time>2020-01-17T08:15:51Z</time>
      </trkpt>
      <trkpt lat="59.276427" lon="18.092238">
        <ele>37</ele>
        <time>2020-01-17T08:15:52Z</time>
      </trkpt>
      <trkpt lat="59.276384" lon="18.092254">
        <ele>37</ele>
        <time>2020-01-17T08:15:53Z</time>
      </trkpt>
      <trkpt lat="59.276339" lon="18.09227">
        <ele>37</ele>
        <time>2020-01-17T08:15:54Z</time>
      </trkpt>
      <trkpt lat="59.276294" lon="18.092288">
        <ele>37</ele>
        <time>2020-01-17T08:15:55Z</time>
      </trkpt>
      <trkpt lat="59.276249" lon="18.092303">
        <ele>37</ele>
        <time>2020-01-17T08:15:56Z</time>
      </trkpt>
      <trkpt lat="59.276204" lon="18.092316">
        <ele>37</ele>
        <time>2020-01-17T08:15:57Z</time>
      </trkpt>
      <trkpt lat="59.276158" lon="18.092328">
        <ele>37</ele>
        <time>2020-01-17T08:15:58Z</time>
      </trkpt>
      <trkpt lat="59.276113" lon="18.09234">
        <ele>37</ele>
        <time>2020-01-17T08:15:59Z</time>
      </trkpt>
      <trkpt lat="59.276067" lon="18.092352">
        <ele>37</ele>
        <time>2020-01-17T08:16:00Z</time>
      </trkpt>
      <trkpt lat="59.276023" lon="18.092364">
        <ele>37</ele>
        <time>2020-01-17T08:16:01Z</time>
      </trkpt>
      <trkpt lat="59.275978" lon="18.092374">
        <ele>37</ele>
        <time>2020-01-17T08:16:02Z</time>
      </trkpt>
      <trkpt lat="59.275934" lon="18.092386">
        <ele>37</ele>
        <time>2020-01-17T08:16:03Z</time>
      </trkpt>
      <trkpt lat="59.27589" lon="18.092396">
        <ele>37</ele>
        <time>2020-01-17T08:16:04Z</time>
      </trkpt>
      <trkpt lat="59.275846" lon="18.092406">
        <ele>37</ele>
        <time>2020-01-17T08:16:05Z</time>
      </trkpt>
      <trkpt lat="59.275802" lon="18.092418">
        <ele>37</ele>
        <time>2020-01-17T08:16:06Z</time>
      </trkpt>
      <trkpt lat="59.275758" lon="18.09243">
        <ele>37</ele>
        <time>2020-01-17T08:16:07Z</time>
      </trkpt>
      <trkpt lat="59.275714" lon="18.092442">
        <ele>37</ele>
        <time>2020-01-17T08:16:08Z</time>
      </trkpt>
      <trkpt lat="59.275669" lon="18.092456">
        <ele>37</ele>
        <time>2020-01-17T08:16:09Z</time>
      </trkpt>
      <trkpt lat="59.275624" lon="18.092466">
        <ele>37</ele>
        <time>2020-01-17T08:16:10Z</time>
      </trkpt>
      <trkpt lat="59.27558" lon="18.092474">
        <ele>37</ele>
        <time>2020-01-17T08:16:11Z</time>
      </trkpt>
      <trkpt lat="59.275535" lon="18.092482">
        <ele>37</ele>
        <time>2020-01-17T08:16:12Z</time>
      </trkpt>
      <trkpt lat="59.27549" lon="18.092488">
        <ele>37</ele>
        <time>2020-01-17T08:16:13Z</time>
      </trkpt>
      <trkpt lat="59.275444" lon="18.092496">
        <ele>37</ele>
        <time>2020-01-17T08:16:14Z</time>
      </trkpt>
      <trkpt lat="59.275397" lon="18.092504">
        <ele>37</ele>
        <time>2020-01-17T08:16:15Z</time>
      </trkpt>
      <trkpt lat="59.27535" lon="18.092512">
        <ele>37</ele>
        <time>2020-01-17T08:16:16Z</time>
      </trkpt>
      <trkpt lat="59.275303" lon="18.092518">
        <ele>37</ele>
        <time>2020-01-17T08:16:17Z</time>
      </trkpt>
      <trkpt lat="59.275257" lon="18.092526">
        <ele>37</ele>
        <time>2020-01-17T08:16:18Z</time>
      </trkpt>
      <trkpt lat="59.27521" lon="18.092536">
        <ele>37</ele>
        <time>2020-01-17T08:16:19Z</time>
      </trkpt>
      <trkpt lat="59.275164" lon="18.092542">
        <ele>37</ele>
        <time>2020-01-17T08:16:20Z</time>
      </trkpt>
      <trkpt lat="59.275119" lon="18.092548">
        <ele>37</ele>
        <time>2020-01-17T08:16:21Z</time>
      </trkpt>
      <trkpt lat="59.275074" lon="18.09255">
        <ele>37</ele>
        <time>2020-01-17T08:16:22Z</time>
      </trkpt>
      <trkpt lat="59.275029" lon="18.092552">
        <ele>37</ele>
        <time>2020-01-17T08:16:23Z</time>
      </trkpt>
      <trkpt lat="59.274985" lon="18.092548">
        <ele>37</ele>
        <time>2020-01-17T08:16:24Z</time>
      </trkpt>
      <trkpt lat="59.274942" lon="18.09254">
        <ele>37</ele>
        <time>2020-01-17T08:16:25Z</time>
      </trkpt>
      <trkpt lat="59.274899" lon="18.092522">
        <ele>37</ele>
        <time>2020-01-17T08:16:26Z</time>
      </trkpt>
      <trkpt lat="59.274858" lon="18.092492">
        <ele>37</ele>
        <time>2020-01-17T08:16:27Z</time>
      </trkpt>
      <trkpt lat="59.274818" lon="18.092452">
        <ele>37</ele>
        <time>2020-01-17T08:16:28Z</time>
      </trkpt>
      <trkpt lat="59.27478" lon="18.092406">
        <ele>37</ele>
        <time>2020-01-17T08:16:29Z</time>
      </trkpt>
      <trkpt lat="59.274744" lon="18.092354">
        <ele>37</ele>
        <time>2020-01-17T08:16:30Z</time>
      </trkpt>
      <trkpt lat="59.274708" lon="18.0923">
        <ele>37</ele>
        <time>2020-01-17T08:16:31Z</time>
      </trkpt>
      <trkpt lat="59.274672" lon="18.092246">
        <ele>37</ele>
        <time>2020-01-17T08:16:32Z</time>
      </trkpt>
      <trkpt lat="59.274636" lon="18.09219">
        <ele>37</ele>
        <time>2020-01-17T08:16:33Z</time>
      </trkpt>
      <trkpt lat="59.274598" lon="18.092136">
        <ele>37</ele>
        <time>2020-01-17T08:16:34Z</time>
      </trkpt>
      <trkpt lat="59.27456" lon="18.092084">
        <ele>36</ele>
        <time>2020-01-17T08:16:35Z</time>
      </trkpt>
      <trkpt lat="59.27452" lon="18.09204">
        <ele>36</ele>
        <time>2020-01-17T08:16:36Z</time>
      </trkpt>
      <trkpt lat="59.274477" lon="18.09201">
        <ele>36</ele>
        <time>2020-01-17T08:16:37Z</time>
      </trkpt>
      <trkpt lat="59.274434" lon="18.091984">
        <ele>36</ele>
        <time>2020-01-17T08:16:38Z</time>
      </trkpt>
      <trkpt lat="59.27439" lon="18.09196">
        <ele>36</ele>
        <time>2020-01-17T08:16:39Z</time>
      </trkpt>
      <trkpt lat="59.274346" lon="18.091938">
        <ele>36</ele>
        <time>2020-01-17T08:16:40Z</time>
      </trkpt>
      <trkpt lat="59.2743" lon="18.09192">
        <ele>36</ele>
        <time>2020-01-17T08:16:41Z</time>
      </trkpt>
      <trkpt lat="59.274256" lon="18.091896">
        <ele>36</ele>
        <time>2020-01-17T08:16:42Z</time>
      </trkpt>
      <trkpt lat="59.274214" lon="18.091866">
        <ele>36</ele>
        <time>2020-01-17T08:16:43Z</time>
      </trkpt>
      <trkpt lat="59.274177" lon="18.091826">
        <ele>36</ele>
        <time>2020-01-17T08:16:44Z</time>
      </trkpt>
      <trkpt lat="59.274146" lon="18.091776">
        <ele>36</ele>
        <time>2020-01-17T08:16:45Z</time>
      </trkpt>
      <trkpt lat="59.27412" lon="18.09172">
        <ele>37</ele>
        <time>2020-01-17T08:16:46Z</time>
      </trkpt>
      <trkpt lat="59.274097" lon="18.09166">
        <ele>37</ele>
        <time>2020-01-17T08:16:47Z</time>
      </trkpt>
      <trkpt lat="59.274074" lon="18.091602">
        <ele>37</ele>
        <time>2020-01-17T08:16:48Z</time>
      </trkpt>
      <trkpt lat="59.274053" lon="18.091544">
        <ele>37</ele>
        <time>2020-01-17T08:16:49Z</time>
      </trkpt>
      <trkpt lat="59.274032" lon="18.091486">
        <ele>37</ele>
        <time>2020-01-17T08:16:50Z</time>
      </trkpt>
      <trkpt lat="59.27401" lon="18.09143">
        <ele>37</ele>
        <time>2020-01-17T08:16:51Z</time>
      </trkpt>
      <trkpt lat="59.273989" lon="18.091374">
        <ele>37</ele>
        <time>2020-01-17T08:16:52Z</time>
      </trkpt>
      <trkpt lat="59.273968" lon="18.09132">
        <ele>37</ele>
        <time>2020-01-17T08:16:53Z</time>
      </trkpt>
      <trkpt lat="59.273947" lon="18.091266">
        <ele>37</ele>
        <time>2020-01-17T08:16:54Z</time>
      </trkpt>
      <trkpt lat="59.273926" lon="18.091214">
        <ele>37</ele>
        <time>2020-01-17T08:16:55Z</time>
      </trkpt>
      <trkpt lat="59.273907" lon="18.091162">
        <ele>37</ele>
        <time>2020-01-17T08:16:56Z</time>
      </trkpt>
      <trkpt lat="59.273887" lon="18.09111">
        <ele>37</ele>
        <time>2020-01-17T08:16:57Z</time>
      </trkpt>
      <trkpt lat="59.273867" lon="18.09106">
        <ele>38</ele>
        <time>2020-01-17T08:16:58Z</time>
      </trkpt>
      <trkpt lat="59.273846" lon="18.091008">
        <ele>38</ele>
        <time>2020-01-17T08:16:59Z</time>
      </trkpt>
      <trkpt lat="59.273824" lon="18.090957">
        <ele>38</ele>
        <time>2020-01-17T08:17:00Z</time>
      </trkpt>
      <trkpt lat="59.2738" lon="18.090909">
        <ele>38</ele>
        <time>2020-01-17T08:17:01Z</time>
      </trkpt>
      <trkpt lat="59.273771" lon="18.090873">
        <ele>38</ele>
        <time>2020-01-17T08:17:02Z</time>
      </trkpt>
      <trkpt lat="59.273738" lon="18.090854">
        <ele>38</ele>
        <time>2020-01-17T08:17:03Z</time>
      </trkpt>
      <trkpt lat="59.273703" lon="18.090853">
        <ele>38</ele>
        <time>2020-01-17T08:17:04Z</time>
      </trkpt>
      <trkpt lat="59.27367" lon="18.090863">
        <ele>39</ele>
        <time>2020-01-17T08:17:05Z</time>
      </trkpt>
      <trkpt lat="59.273636" lon="18.09088">
        <ele>39</ele>
        <time>2020-01-17T08:17:06Z</time>
      </trkpt>
      <trkpt lat="59.273602" lon="18.090898">
        <ele>39</ele>
        <time>2020-01-17T08:17:07Z</time>
      </trkpt>
      <trkpt lat="59.273568" lon="18.090915">
        <ele>39</ele>
        <time>2020-01-17T08:17:08Z</time>
      </trkpt>
      <trkpt lat="59.273534" lon="18.090933">
        <ele>39</ele>
        <time>2020-01-17T08:17:09Z</time>
      </trkpt>
      <trkpt lat="59.273501" lon="18.090953">
        <ele>39</ele>
        <time>2020-01-17T08:17:10Z</time>
      </trkpt>
      <trkpt lat="59.273466" lon="18.090973">
        <ele>39</ele>
        <time>2020-01-17T08:17:11Z</time>
      </trkpt>
      <trkpt lat="59.27343" lon="18.090993">
        <ele>40</ele>
        <time>2020-01-17T08:17:12Z</time>
      </trkpt>
      <trkpt lat="59.273395" lon="18.091012">
        <ele>40</ele>
        <time>2020-01-17T08:17:13Z</time>
      </trkpt>
      <trkpt lat="59.27336" lon="18.091029">
        <ele>40</ele>
        <time>2020-01-17T08:17:14Z</time>
      </trkpt>
      <trkpt lat="59.273327" lon="18.091045">
        <ele>40</ele>
        <time>2020-01-17T08:17:15Z</time>
      </trkpt>
      <trkpt lat="59.273294" lon="18.09106">
        <ele>40</ele>
        <time>2020-01-17T08:17:16Z</time>
      </trkpt>
      <trkpt lat="59.273261" lon="18.091078">
        <ele>40</ele>
        <time>2020-01-17T08:17:17Z</time>
      </trkpt>
      <trkpt lat="59.273231" lon="18.091097">
        <ele>41</ele>
        <time>2020-01-17T08:17:18Z</time>
      </trkpt>
      <trkpt lat="59.273197" lon="18.091119">
        <ele>41</ele>
        <time>2020-01-17T08:17:19Z</time>
      </trkpt>
      <trkpt lat="59.273162" lon="18.09114">
        <ele>41</ele>
        <time>2020-01-17T08:17:20Z</time>
      </trkpt>
      <trkpt lat="59.273128" lon="18.091161">
        <ele>41</ele>
        <time>2020-01-17T08:17:21Z</time>
      </trkpt>
      <trkpt lat="59.273092" lon="18.091183">
        <ele>41</ele>
        <time>2020-01-17T08:17:22Z</time>
      </trkpt>
      <trkpt lat="59.273061" lon="18.091202">
        <ele>41</ele>
        <time>2020-01-17T08:17:23Z</time>
      </trkpt>
      <trkpt lat="59.27303" lon="18.091218">
        <ele>41</ele>
        <time>2020-01-17T08:17:24Z</time>
      </trkpt>
      <trkpt lat="59.272996" lon="18.091237">
        <ele>42</ele>
        <time>2020-01-17T08:17:25Z</time>
      </trkpt>
      <trkpt lat="59.272957" lon="18.09126">
        <ele>42</ele>
        <time>2020-01-17T08:17:26Z</time>
      </trkpt>
      <trkpt lat="59.272918" lon="18.091287">
        <ele>42</ele>
        <time>2020-01-17T08:17:27Z</time>
      </trkpt>
      <trkpt lat="59.272882" lon="18.091317">
        <ele>42</ele>
        <time>2020-01-17T08:17:28Z</time>
      </trkpt>
      <trkpt lat="59.272849" lon="18.091354">
        <ele>42</ele>
        <time>2020-01-17T08:17:29Z</time>
      </trkpt>
      <trkpt lat="59.272822" lon="18.091404">
        <ele>42</ele>
        <time>2020-01-17T08:17:30Z</time>
      </trkpt>
      <trkpt lat="59.272797" lon="18.091466">
        <ele>42</ele>
        <time>2020-01-17T08:17:31Z</time>
      </trkpt>
      <trkpt lat="59.272773" lon="18.091536">
        <ele>42</ele>
        <time>2020-01-17T08:17:32Z</time>
      </trkpt>
      <trkpt lat="59.272754" lon="18.091604">
        <ele>42</ele>
        <time>2020-01-17T08:17:33Z</time>
      </trkpt>
      <trkpt lat="59.27274" lon="18.091671">
        <ele>42</ele>
        <time>2020-01-17T08:17:34Z</time>
      </trkpt>
      <trkpt lat="59.27273" lon="18.091738">
        <ele>42</ele>
        <time>2020-01-17T08:17:35Z</time>
      </trkpt>
      <trkpt lat="59.272719" lon="18.091805">
        <ele>42</ele>
        <time>2020-01-17T08:17:36Z</time>
      </trkpt>
      <trkpt lat="59.272712" lon="18.091865">
        <ele>42</ele>
        <time>2020-01-17T08:17:37Z</time>
      </trkpt>
      <trkpt lat="59.272706" lon="18.091915">
        <ele>42</ele>
        <time>2020-01-17T08:17:38Z</time>
      </trkpt>
      <trkpt lat="59.272701" lon="18.091952">
        <ele>42</ele>
        <time>2020-01-17T08:17:39Z</time>
      </trkpt>
      <trkpt lat="59.272695" lon="18.091989">
        <ele>42</ele>
        <time>2020-01-17T08:17:41Z</time>
      </trkpt>
      <trkpt lat="59.272695" lon="18.091988">
        <ele>0</ele>
        <time>2020-01-17T08:17:46Z</time>
      </trkpt>
      <trkpt lat="59.272689" lon="18.0921">
        <ele>43</ele>
        <time>2020-01-17T08:19:04Z</time>
      </trkpt>
      <trkpt lat="59.272687" lon="18.092154">
        <ele>43</ele>
        <time>2020-01-17T08:19:05Z</time>
      </trkpt>
      <trkpt lat="59.272683" lon="18.092221">
        <ele>43</ele>
        <time>2020-01-17T08:19:06Z</time>
      </trkpt>
      <trkpt lat="59.272676" lon="18.092298">
        <ele>43</ele>
        <time>2020-01-17T08:19:07Z</time>
      </trkpt>
      <trkpt lat="59.272669" lon="18.09238">
        <ele>43</ele>
        <time>2020-01-17T08:19:08Z</time>
      </trkpt>
      <trkpt lat="59.27266" lon="18.092472">
        <ele>43</ele>
        <time>2020-01-17T08:19:09Z</time>
      </trkpt>
      <trkpt lat="59.272646" lon="18.092569">
        <ele>43</ele>
        <time>2020-01-17T08:19:10Z</time>
      </trkpt>
      <trkpt lat="59.27263" lon="18.092669">
        <ele>43</ele>
        <time>2020-01-17T08:19:11Z</time>
      </trkpt>
      <trkpt lat="59.272611" lon="18.092772">
        <ele>43</ele>
        <time>2020-01-17T08:19:12Z</time>
      </trkpt>
      <trkpt lat="59.27259" lon="18.092875">
        <ele>43</ele>
        <time>2020-01-17T08:19:13Z</time>
      </trkpt>
      <trkpt lat="59.272571" lon="18.092974">
        <ele>43</ele>
        <time>2020-01-17T08:19:14Z</time>
      </trkpt>
      <trkpt lat="59.272545" lon="18.093059">
        <ele>43</ele>
        <time>2020-01-17T08:19:15Z</time>
      </trkpt>
      <trkpt lat="59.27252" lon="18.093134">
        <ele>43</ele>
        <time>2020-01-17T08:19:16Z</time>
      </trkpt>
      <trkpt lat="59.2725" lon="18.093228">
        <ele>43</ele>
        <time>2020-01-17T08:19:17Z</time>
      </trkpt>
      <trkpt lat="59.272475" lon="18.09332">
        <ele>43</ele>
        <time>2020-01-17T08:19:18Z</time>
      </trkpt>
      <trkpt lat="59.272445" lon="18.093394">
        <ele>43</ele>
        <time>2020-01-17T08:19:19Z</time>
      </trkpt>
      <trkpt lat="59.272402" lon="18.09344">
        <ele>44</ele>
        <time>2020-01-17T08:19:20Z</time>
      </trkpt>
      <trkpt lat="59.272354" lon="18.09347">
        <ele>44</ele>
        <time>2020-01-17T08:19:21Z</time>
      </trkpt>
      <trkpt lat="59.2723" lon="18.093491">
        <ele>43</ele>
        <time>2020-01-17T08:19:22Z</time>
      </trkpt>
      <trkpt lat="59.27225" lon="18.093508">
        <ele>43</ele>
        <time>2020-01-17T08:19:23Z</time>
      </trkpt>
      <trkpt lat="59.272196" lon="18.093526">
        <ele>43</ele>
        <time>2020-01-17T08:19:24Z</time>
      </trkpt>
      <trkpt lat="59.272145" lon="18.093548">
        <ele>43</ele>
        <time>2020-01-17T08:19:25Z</time>
      </trkpt>
      <trkpt lat="59.272092" lon="18.093571">
        <ele>43</ele>
        <time>2020-01-17T08:19:26Z</time>
      </trkpt>
      <trkpt lat="59.272037" lon="18.093595">
        <ele>43</ele>
        <time>2020-01-17T08:19:27Z</time>
      </trkpt>
      <trkpt lat="59.271984" lon="18.093622">
        <ele>43</ele>
        <time>2020-01-17T08:19:28Z</time>
      </trkpt>
      <trkpt lat="59.271929" lon="18.093654">
        <ele>43</ele>
        <time>2020-01-17T08:19:29Z</time>
      </trkpt>
      <trkpt lat="59.271872" lon="18.093688">
        <ele>42</ele>
        <time>2020-01-17T08:19:30Z</time>
      </trkpt>
      <trkpt lat="59.271814" lon="18.093722">
        <ele>42</ele>
        <time>2020-01-17T08:19:31Z</time>
      </trkpt>
      <trkpt lat="59.271754" lon="18.093754">
        <ele>42</ele>
        <time>2020-01-17T08:19:32Z</time>
      </trkpt>
      <trkpt lat="59.271694" lon="18.093785">
        <ele>41</ele>
        <time>2020-01-17T08:19:33Z</time>
      </trkpt>
      <trkpt lat="59.271634" lon="18.093817">
        <ele>41</ele>
        <time>2020-01-17T08:19:34Z</time>
      </trkpt>
      <trkpt lat="59.271572" lon="18.093846">
        <ele>41</ele>
        <time>2020-01-17T08:19:35Z</time>
      </trkpt>
      <trkpt lat="59.271508" lon="18.093871">
        <ele>41</ele>
        <time>2020-01-17T08:19:36Z</time>
      </trkpt>
      <trkpt lat="59.271444" lon="18.093896">
        <ele>40</ele>
        <time>2020-01-17T08:19:37Z</time>
      </trkpt>
      <trkpt lat="59.271379" lon="18.093915">
        <ele>40</ele>
        <time>2020-01-17T08:19:38Z</time>
      </trkpt>
      <trkpt lat="59.271313" lon="18.093932">
        <ele>40</ele>
        <time>2020-01-17T08:19:39Z</time>
      </trkpt>
      <trkpt lat="59.27125" lon="18.093951">
        <ele>40</ele>
        <time>2020-01-17T08:19:40Z</time>
      </trkpt>
      <trkpt lat="59.271189" lon="18.093972">
        <ele>40</ele>
        <time>2020-01-17T08:19:41Z</time>
      </trkpt>
      <trkpt lat="59.271129" lon="18.093996">
        <ele>40</ele>
        <time>2020-01-17T08:19:42Z</time>
      </trkpt>
      <trkpt lat="59.271068" lon="18.094021">
        <ele>40</ele>
        <time>2020-01-17T08:19:44Z</time>
      </trkpt>
      <trkpt lat="59.271009" lon="18.094052">
        <ele>40</ele>
        <time>2020-01-17T08:19:44Z</time>
      </trkpt>
      <trkpt lat="59.270948" lon="18.094086">
        <ele>40</ele>
        <time>2020-01-17T08:19:45Z</time>
      </trkpt>
      <trkpt lat="59.270886" lon="18.094121">
        <ele>40</ele>
        <time>2020-01-17T08:19:46Z</time>
      </trkpt>
      <trkpt lat="59.270824" lon="18.094152">
        <ele>40</ele>
        <time>2020-01-17T08:19:47Z</time>
      </trkpt>
      <trkpt lat="59.270761" lon="18.094184">
        <ele>40</ele>
        <time>2020-01-17T08:19:48Z</time>
      </trkpt>
      <trkpt lat="59.270699" lon="18.094215">
        <ele>40</ele>
        <time>2020-01-17T08:19:49Z</time>
      </trkpt>
      <trkpt lat="59.270638" lon="18.094244">
        <ele>40</ele>
        <time>2020-01-17T08:19:50Z</time>
      </trkpt>
      <trkpt lat="59.270574" lon="18.094268">
        <ele>40</ele>
        <time>2020-01-17T08:19:51Z</time>
      </trkpt>
      <trkpt lat="59.270511" lon="18.094293">
        <ele>40</ele>
        <time>2020-01-17T08:19:52Z</time>
      </trkpt>
      <trkpt lat="59.270446" lon="18.094316">
        <ele>39</ele>
        <time>2020-01-17T08:19:53Z</time>
      </trkpt>
      <trkpt lat="59.270384" lon="18.094341">
        <ele>39</ele>
        <time>2020-01-17T08:19:54Z</time>
      </trkpt>
      <trkpt lat="59.270323" lon="18.094365">
        <ele>39</ele>
        <time>2020-01-17T08:19:55Z</time>
      </trkpt>
      <trkpt lat="59.270264" lon="18.094388">
        <ele>39</ele>
        <time>2020-01-17T08:19:56Z</time>
      </trkpt>
      <trkpt lat="59.270207" lon="18.094408">
        <ele>39</ele>
        <time>2020-01-17T08:19:57Z</time>
      </trkpt>
      <trkpt lat="59.270149" lon="18.094427">
        <ele>39</ele>
        <time>2020-01-17T08:19:58Z</time>
      </trkpt>
      <trkpt lat="59.270092" lon="18.094449">
        <ele>39</ele>
        <time>2020-01-17T08:19:59Z</time>
      </trkpt>
      <trkpt lat="59.270037" lon="18.094469">
        <ele>39</ele>
        <time>2020-01-17T08:20:00Z</time>
      </trkpt>
      <trkpt lat="59.269984" lon="18.094494">
        <ele>39</ele>
        <time>2020-01-17T08:20:01Z</time>
      </trkpt>
      <trkpt lat="59.269933" lon="18.094524">
        <ele>39</ele>
        <time>2020-01-17T08:20:02Z</time>
      </trkpt>
      <trkpt lat="59.269882" lon="18.09456">
        <ele>39</ele>
        <time>2020-01-17T08:20:03Z</time>
      </trkpt>
      <trkpt lat="59.269836" lon="18.094603">
        <ele>39</ele>
        <time>2020-01-17T08:20:04Z</time>
      </trkpt>
      <trkpt lat="59.269787" lon="18.094647">
        <ele>39</ele>
        <time>2020-01-17T08:20:05Z</time>
      </trkpt>
      <trkpt lat="59.269735" lon="18.094682">
        <ele>39</ele>
        <time>2020-01-17T08:20:06Z</time>
      </trkpt>
      <trkpt lat="59.269692" lon="18.09471">
        <ele>39</ele>
        <time>2020-01-17T08:20:07Z</time>
      </trkpt>
      <trkpt lat="59.26965" lon="18.094732">
        <ele>39</ele>
        <time>2020-01-17T08:20:08Z</time>
      </trkpt>
      <trkpt lat="59.269598" lon="18.09476">
        <ele>39</ele>
        <time>2020-01-17T08:20:09Z</time>
      </trkpt>
      <trkpt lat="59.269541" lon="18.094785">
        <ele>39</ele>
        <time>2020-01-17T08:20:10Z</time>
      </trkpt>
      <trkpt lat="59.269489" lon="18.094807">
        <ele>39</ele>
        <time>2020-01-17T08:20:11Z</time>
      </trkpt>
      <trkpt lat="59.269433" lon="18.094825">
        <ele>39</ele>
        <time>2020-01-17T08:20:12Z</time>
      </trkpt>
      <trkpt lat="59.269376" lon="18.094843">
        <ele>39</ele>
        <time>2020-01-17T08:20:13Z</time>
      </trkpt>
      <trkpt lat="59.269323" lon="18.094867">
        <ele>39</ele>
        <time>2020-01-17T08:20:14Z</time>
      </trkpt>
      <trkpt lat="59.269267" lon="18.094899">
        <ele>39</ele>
        <time>2020-01-17T08:20:15Z</time>
      </trkpt>
      <trkpt lat="59.269215" lon="18.094931">
        <ele>40</ele>
        <time>2020-01-17T08:20:16Z</time>
      </trkpt>
      <trkpt lat="59.269158" lon="18.09496">
        <ele>40</ele>
        <time>2020-01-17T08:20:17Z</time>
      </trkpt>
      <trkpt lat="59.269107" lon="18.094985">
        <ele>40</ele>
        <time>2020-01-17T08:20:18Z</time>
      </trkpt>
      <trkpt lat="59.269058" lon="18.095009">
        <ele>40</ele>
        <time>2020-01-17T08:20:19Z</time>
      </trkpt>
      <trkpt lat="59.26901" lon="18.095033">
        <ele>40</ele>
        <time>2020-01-17T08:20:20Z</time>
      </trkpt>
      <trkpt lat="59.268962" lon="18.095052">
        <ele>40</ele>
        <time>2020-01-17T08:20:21Z</time>
      </trkpt>
      <trkpt lat="59.268913" lon="18.095072">
        <ele>40</ele>
        <time>2020-01-17T08:20:22Z</time>
      </trkpt>
      <trkpt lat="59.268865" lon="18.095097">
        <ele>40</ele>
        <time>2020-01-17T08:20:23Z</time>
      </trkpt>
      <trkpt lat="59.268819" lon="18.095127">
        <ele>40</ele>
        <time>2020-01-17T08:20:24Z</time>
      </trkpt>
      <trkpt lat="59.268772" lon="18.095155">
        <ele>40</ele>
        <time>2020-01-17T08:20:25Z</time>
      </trkpt>
      <trkpt lat="59.268728" lon="18.095181">
        <ele>40</ele>
        <time>2020-01-17T08:20:26Z</time>
      </trkpt>
      <trkpt lat="59.268685" lon="18.09521">
        <ele>40</ele>
        <time>2020-01-17T08:20:27Z</time>
      </trkpt>
      <trkpt lat="59.268642" lon="18.095239">
        <ele>40</ele>
        <time>2020-01-17T08:20:28Z</time>
      </trkpt>
      <trkpt lat="59.2686" lon="18.095268">
        <ele>40</ele>
        <time>2020-01-17T08:20:29Z</time>
      </trkpt>
      <trkpt lat="59.268556" lon="18.095298">
        <ele>40</ele>
        <time>2020-01-17T08:20:30Z</time>
      </trkpt>
      <trkpt lat="59.268504" lon="18.095334">
        <ele>40</ele>
        <time>2020-01-17T08:20:31Z</time>
      </trkpt>
      <trkpt lat="59.26845" lon="18.095373">
        <ele>40</ele>
        <time>2020-01-17T08:20:32Z</time>
      </trkpt>
      <trkpt lat="59.268392" lon="18.095414">
        <ele>40</ele>
        <time>2020-01-17T08:20:33Z</time>
      </trkpt>
      <trkpt lat="59.268338" lon="18.095449">
        <ele>40</ele>
        <time>2020-01-17T08:20:34Z</time>
      </trkpt>
      <trkpt lat="59.268284" lon="18.095486">
        <ele>40</ele>
        <time>2020-01-17T08:20:35Z</time>
      </trkpt>
      <trkpt lat="59.268229" lon="18.095527">
        <ele>40</ele>
        <time>2020-01-17T08:20:36Z</time>
      </trkpt>
      <trkpt lat="59.268175" lon="18.095566">
        <ele>40</ele>
        <time>2020-01-17T08:20:37Z</time>
      </trkpt>
      <trkpt lat="59.268125" lon="18.095599">
        <ele>40</ele>
        <time>2020-01-17T08:20:38Z</time>
      </trkpt>
      <trkpt lat="59.268075" lon="18.095633">
        <ele>40</ele>
        <time>2020-01-17T08:20:39Z</time>
      </trkpt>
      <trkpt lat="59.268026" lon="18.095666">
        <ele>40</ele>
        <time>2020-01-17T08:20:40Z</time>
      </trkpt>
      <trkpt lat="59.267979" lon="18.095697">
        <ele>41</ele>
        <time>2020-01-17T08:20:41Z</time>
      </trkpt>
      <trkpt lat="59.267929" lon="18.095728">
        <ele>41</ele>
        <time>2020-01-17T08:20:42Z</time>
      </trkpt>
      <trkpt lat="59.267876" lon="18.095756">
        <ele>40</ele>
        <time>2020-01-17T08:20:43Z</time>
      </trkpt>
      <trkpt lat="59.267822" lon="18.09578">
        <ele>40</ele>
        <time>2020-01-17T08:20:44Z</time>
      </trkpt>
      <trkpt lat="59.267767" lon="18.095791">
        <ele>40</ele>
        <time>2020-01-17T08:20:45Z</time>
      </trkpt>
      <trkpt lat="59.267712" lon="18.095799">
        <ele>39</ele>
        <time>2020-01-17T08:20:46Z</time>
      </trkpt>
      <trkpt lat="59.267658" lon="18.095808">
        <ele>39</ele>
        <time>2020-01-17T08:20:47Z</time>
      </trkpt>
      <trkpt lat="59.267604" lon="18.095824">
        <ele>39</ele>
        <time>2020-01-17T08:20:48Z</time>
      </trkpt>
      <trkpt lat="59.26755" lon="18.095841">
        <ele>39</ele>
        <time>2020-01-17T08:20:49Z</time>
      </trkpt>
      <trkpt lat="59.267495" lon="18.095858">
        <ele>39</ele>
        <time>2020-01-17T08:20:50Z</time>
      </trkpt>
      <trkpt lat="59.267442" lon="18.095873">
        <ele>39</ele>
        <time>2020-01-17T08:20:51Z</time>
      </trkpt>
      <trkpt lat="59.267389" lon="18.095888">
        <ele>39</ele>
        <time>2020-01-17T08:20:52Z</time>
      </trkpt>
      <trkpt lat="59.26734" lon="18.095904">
        <ele>39</ele>
        <time>2020-01-17T08:20:53Z</time>
      </trkpt>
      <trkpt lat="59.267289" lon="18.09592">
        <ele>39</ele>
        <time>2020-01-17T08:20:54Z</time>
      </trkpt>
      <trkpt lat="59.267242" lon="18.095935">
        <ele>39</ele>
        <time>2020-01-17T08:20:55Z</time>
      </trkpt>
      <trkpt lat="59.267199" lon="18.095949">
        <ele>39</ele>
        <time>2020-01-17T08:20:56Z</time>
      </trkpt>
      <trkpt lat="59.267151" lon="18.095962">
        <ele>39</ele>
        <time>2020-01-17T08:20:57Z</time>
      </trkpt>
      <trkpt lat="59.267103" lon="18.095977">
        <ele>39</ele>
        <time>2020-01-17T08:20:58Z</time>
      </trkpt>
      <trkpt lat="59.267057" lon="18.095989">
        <ele>39</ele>
        <time>2020-01-17T08:20:59Z</time>
      </trkpt>
      <trkpt lat="59.26701" lon="18.096005">
        <ele>39</ele>
        <time>2020-01-17T08:21:00Z</time>
      </trkpt>
      <trkpt lat="59.266961" lon="18.096031">
        <ele>39</ele>
        <time>2020-01-17T08:21:01Z</time>
      </trkpt>
      <trkpt lat="59.266912" lon="18.096065">
        <ele>39</ele>
        <time>2020-01-17T08:21:02Z</time>
      </trkpt>
      <trkpt lat="59.266866" lon="18.096109">
        <ele>39</ele>
        <time>2020-01-17T08:21:03Z</time>
      </trkpt>
      <trkpt lat="59.266825" lon="18.096161">
        <ele>39</ele>
        <time>2020-01-17T08:21:04Z</time>
      </trkpt>
      <trkpt lat="59.26679" lon="18.096215">
        <ele>40</ele>
        <time>2020-01-17T08:21:05Z</time>
      </trkpt>
      <trkpt lat="59.266754" lon="18.096273">
        <ele>40</ele>
        <time>2020-01-17T08:21:06Z</time>
      </trkpt>
      <trkpt lat="59.26671" lon="18.09634">
        <ele>40</ele>
        <time>2020-01-17T08:21:07Z</time>
      </trkpt>
      <trkpt lat="59.266667" lon="18.096406">
        <ele>40</ele>
        <time>2020-01-17T08:21:08Z</time>
      </trkpt>
      <trkpt lat="59.266626" lon="18.096471">
        <ele>40</ele>
        <time>2020-01-17T08:21:09Z</time>
      </trkpt>
      <trkpt lat="59.266586" lon="18.096532">
        <ele>40</ele>
        <time>2020-01-17T08:21:10Z</time>
      </trkpt>
      <trkpt lat="59.26654" lon="18.09659">
        <ele>40</ele>
        <time>2020-01-17T08:21:11Z</time>
      </trkpt>
      <trkpt lat="59.266497" lon="18.096646">
        <ele>40</ele>
        <time>2020-01-17T08:21:12Z</time>
      </trkpt>
      <trkpt lat="59.26645" lon="18.096701">
        <ele>41</ele>
        <time>2020-01-17T08:21:13Z</time>
      </trkpt>
      <trkpt lat="59.266403" lon="18.096757">
        <ele>40</ele>
        <time>2020-01-17T08:21:14Z</time>
      </trkpt>
      <trkpt lat="59.266356" lon="18.096812">
        <ele>40</ele>
        <time>2020-01-17T08:21:15Z</time>
      </trkpt>
      <trkpt lat="59.266305" lon="18.096861">
        <ele>40</ele>
        <time>2020-01-17T08:21:16Z</time>
      </trkpt>
      <trkpt lat="59.266251" lon="18.096905">
        <ele>41</ele>
        <time>2020-01-17T08:21:17Z</time>
      </trkpt>
      <trkpt lat="59.266201" lon="18.096939">
        <ele>41</ele>
        <time>2020-01-17T08:21:18Z</time>
      </trkpt>
      <trkpt lat="59.266152" lon="18.09697">
        <ele>41</ele>
        <time>2020-01-17T08:21:19Z</time>
      </trkpt>
      <trkpt lat="59.266106" lon="18.096997">
        <ele>41</ele>
        <time>2020-01-17T08:21:20Z</time>
      </trkpt>
      <trkpt lat="59.266061" lon="18.097025">
        <ele>41</ele>
        <time>2020-01-17T08:21:21Z</time>
      </trkpt>
      <trkpt lat="59.266018" lon="18.097051">
        <ele>41</ele>
        <time>2020-01-17T08:21:22Z</time>
      </trkpt>
      <trkpt lat="59.265974" lon="18.097074">
        <ele>41</ele>
        <time>2020-01-17T08:21:23Z</time>
      </trkpt>
      <trkpt lat="59.265933" lon="18.097096">
        <ele>41</ele>
        <time>2020-01-17T08:21:24Z</time>
      </trkpt>
      <trkpt lat="59.265894" lon="18.097116">
        <ele>40</ele>
        <time>2020-01-17T08:21:25Z</time>
      </trkpt>
      <trkpt lat="59.265861" lon="18.097133">
        <ele>40</ele>
        <time>2020-01-17T08:21:26Z</time>
      </trkpt>
      <trkpt lat="59.26584" lon="18.097138">
        <ele>40</ele>
        <time>2020-01-17T08:21:27Z</time>
      </trkpt>
      <trkpt lat="59.265818" lon="18.097138">
        <ele>40</ele>
        <time>2020-01-17T08:21:29Z</time>
      </trkpt>
      <trkpt lat="59.26582" lon="18.097136">
        <ele>40</ele>
        <time>2020-01-17T08:21:32Z</time>
      </trkpt>
      <trkpt lat="59.265783" lon="18.097169">
        <ele>39</ele>
        <time>2020-01-17T08:23:29Z</time>
      </trkpt>
      <trkpt lat="59.26576" lon="18.09718">
        <ele>39</ele>
        <time>2020-01-17T08:23:30Z</time>
      </trkpt>
      <trkpt lat="59.26573" lon="18.097192">
        <ele>39</ele>
        <time>2020-01-17T08:23:31Z</time>
      </trkpt>
      <trkpt lat="59.265693" lon="18.097207">
        <ele>39</ele>
        <time>2020-01-17T08:23:32Z</time>
      </trkpt>
      <trkpt lat="59.265647" lon="18.097225">
        <ele>39</ele>
        <time>2020-01-17T08:23:33Z</time>
      </trkpt>
      <trkpt lat="59.265596" lon="18.097248">
        <ele>39</ele>
        <time>2020-01-17T08:23:34Z</time>
      </trkpt>
      <trkpt lat="59.265542" lon="18.097275">
        <ele>39</ele>
        <time>2020-01-17T08:23:35Z</time>
      </trkpt>
      <trkpt lat="59.265485" lon="18.097298">
        <ele>39</ele>
        <time>2020-01-17T08:23:36Z</time>
      </trkpt>
      <trkpt lat="59.265427" lon="18.097317">
        <ele>38</ele>
        <time>2020-01-17T08:23:37Z</time>
      </trkpt>
      <trkpt lat="59.265367" lon="18.09733">
        <ele>38</ele>
        <time>2020-01-17T08:23:38Z</time>
      </trkpt>
      <trkpt lat="59.265309" lon="18.097342">
        <ele>38</ele>
        <time>2020-01-17T08:23:39Z</time>
      </trkpt>
      <trkpt lat="59.265254" lon="18.097357">
        <ele>38</ele>
        <time>2020-01-17T08:23:40Z</time>
      </trkpt>
      <trkpt lat="59.265195" lon="18.097379">
        <ele>38</ele>
        <time>2020-01-17T08:23:41Z</time>
      </trkpt>
      <trkpt lat="59.26514" lon="18.097402">
        <ele>38</ele>
        <time>2020-01-17T08:23:42Z</time>
      </trkpt>
      <trkpt lat="59.265086" lon="18.097426">
        <ele>39</ele>
        <time>2020-01-17T08:23:43Z</time>
      </trkpt>
      <trkpt lat="59.265037" lon="18.097446">
        <ele>39</ele>
        <time>2020-01-17T08:23:44Z</time>
      </trkpt>
      <trkpt lat="59.264989" lon="18.097463">
        <ele>39</ele>
        <time>2020-01-17T08:23:45Z</time>
      </trkpt>
      <trkpt lat="59.264946" lon="18.097482">
        <ele>39</ele>
        <time>2020-01-17T08:23:46Z</time>
      </trkpt>
      <trkpt lat="59.264903" lon="18.097503">
        <ele>39</ele>
        <time>2020-01-17T08:23:47Z</time>
      </trkpt>
      <trkpt lat="59.264857" lon="18.097524">
        <ele>39</ele>
        <time>2020-01-17T08:23:48Z</time>
      </trkpt>
      <trkpt lat="59.264816" lon="18.097538">
        <ele>39</ele>
        <time>2020-01-17T08:23:50Z</time>
      </trkpt>
      <trkpt lat="59.264774" lon="18.097552">
        <ele>39</ele>
        <time>2020-01-17T08:23:50Z</time>
      </trkpt>
      <trkpt lat="59.264729" lon="18.09757">
        <ele>39</ele>
        <time>2020-01-17T08:23:51Z</time>
      </trkpt>
      <trkpt lat="59.264682" lon="18.097586">
        <ele>39</ele>
        <time>2020-01-17T08:23:52Z</time>
      </trkpt>
      <trkpt lat="59.264636" lon="18.097606">
        <ele>39</ele>
        <time>2020-01-17T08:23:53Z</time>
      </trkpt>
      <trkpt lat="59.264591" lon="18.097629">
        <ele>39</ele>
        <time>2020-01-17T08:23:54Z</time>
      </trkpt>
      <trkpt lat="59.264548" lon="18.09765">
        <ele>39</ele>
        <time>2020-01-17T08:23:55Z</time>
      </trkpt>
      <trkpt lat="59.264509" lon="18.097669">
        <ele>39</ele>
        <time>2020-01-17T08:23:56Z</time>
      </trkpt>
      <trkpt lat="59.264467" lon="18.097686">
        <ele>39</ele>
        <time>2020-01-17T08:23:57Z</time>
      </trkpt>
      <trkpt lat="59.264424" lon="18.0977">
        <ele>39</ele>
        <time>2020-01-17T08:23:58Z</time>
      </trkpt>
      <trkpt lat="59.264381" lon="18.097717">
        <ele>39</ele>
        <time>2020-01-17T08:23:59Z</time>
      </trkpt>
      <trkpt lat="59.264335" lon="18.097732">
        <ele>40</ele>
        <time>2020-01-17T08:24:00Z</time>
      </trkpt>
      <trkpt lat="59.264293" lon="18.097748">
        <ele>40</ele>
        <time>2020-01-17T08:24:01Z</time>
      </trkpt>
      <trkpt lat="59.264253" lon="18.097764">
        <ele>40</ele>
        <time>2020-01-17T08:24:02Z</time>
      </trkpt>
      <trkpt lat="59.264212" lon="18.097782">
        <ele>40</ele>
        <time>2020-01-17T08:24:03Z</time>
      </trkpt>
      <trkpt lat="59.264166" lon="18.0978">
        <ele>40</ele>
        <time>2020-01-17T08:24:04Z</time>
      </trkpt>
      <trkpt lat="59.264117" lon="18.097816">
        <ele>40</ele>
        <time>2020-01-17T08:24:05Z</time>
      </trkpt>
      <trkpt lat="59.264068" lon="18.097832">
        <ele>40</ele>
        <time>2020-01-17T08:24:06Z</time>
      </trkpt>
      <trkpt lat="59.264017" lon="18.09785">
        <ele>40</ele>
        <time>2020-01-17T08:24:07Z</time>
      </trkpt>
      <trkpt lat="59.263966" lon="18.09787">
        <ele>40</ele>
        <time>2020-01-17T08:24:08Z</time>
      </trkpt>
      <trkpt lat="59.263912" lon="18.09789">
        <ele>40</ele>
        <time>2020-01-17T08:24:09Z</time>
      </trkpt>
      <trkpt lat="59.263855" lon="18.09791">
        <ele>40</ele>
        <time>2020-01-17T08:24:10Z</time>
      </trkpt>
      <trkpt lat="59.263798" lon="18.09793">
        <ele>40</ele>
        <time>2020-01-17T08:24:11Z</time>
      </trkpt>
      <trkpt lat="59.263739" lon="18.09795">
        <ele>40</ele>
        <time>2020-01-17T08:24:12Z</time>
      </trkpt>
      <trkpt lat="59.263681" lon="18.09797">
        <ele>39</ele>
        <time>2020-01-17T08:24:13Z</time>
      </trkpt>
      <trkpt lat="59.263625" lon="18.097988">
        <ele>39</ele>
        <time>2020-01-17T08:24:14Z</time>
      </trkpt>
      <trkpt lat="59.263565" lon="18.098008">
        <ele>39</ele>
        <time>2020-01-17T08:24:15Z</time>
      </trkpt>
      <trkpt lat="59.263504" lon="18.09803">
        <ele>39</ele>
        <time>2020-01-17T08:24:16Z</time>
      </trkpt>
      <trkpt lat="59.263444" lon="18.09805">
        <ele>39</ele>
        <time>2020-01-17T08:24:17Z</time>
      </trkpt>
      <trkpt lat="59.263372" lon="18.09807">
        <ele>39</ele>
        <time>2020-01-17T08:24:18Z</time>
      </trkpt>
      <trkpt lat="59.263298" lon="18.098086">
        <ele>39</ele>
        <time>2020-01-17T08:24:19Z</time>
      </trkpt>
      <trkpt lat="59.263224" lon="18.098104">
        <ele>38</ele>
        <time>2020-01-17T08:24:20Z</time>
      </trkpt>
      <trkpt lat="59.26315" lon="18.098116">
        <ele>38</ele>
        <time>2020-01-17T08:24:21Z</time>
      </trkpt>
      <trkpt lat="59.263072" lon="18.098128">
        <ele>37</ele>
        <time>2020-01-17T08:24:22Z</time>
      </trkpt>
      <trkpt lat="59.263003" lon="18.09813">
        <ele>37</ele>
        <time>2020-01-17T08:24:23Z</time>
      </trkpt>
      <trkpt lat="59.262937" lon="18.09813">
        <ele>37</ele>
        <time>2020-01-17T08:24:24Z</time>
      </trkpt>
      <trkpt lat="59.262874" lon="18.098126">
        <ele>36</ele>
        <time>2020-01-17T08:24:25Z</time>
      </trkpt>
      <trkpt lat="59.262809" lon="18.098124">
        <ele>36</ele>
        <time>2020-01-17T08:24:26Z</time>
      </trkpt>
      <trkpt lat="59.262744" lon="18.098122">
        <ele>36</ele>
        <time>2020-01-17T08:24:27Z</time>
      </trkpt>
      <trkpt lat="59.262668" lon="18.098122">
        <ele>35</ele>
        <time>2020-01-17T08:24:28Z</time>
      </trkpt>
      <trkpt lat="59.262601" lon="18.09812">
        <ele>34</ele>
        <time>2020-01-17T08:24:29Z</time>
      </trkpt>
      <trkpt lat="59.262536" lon="18.098114">
        <ele>34</ele>
        <time>2020-01-17T08:24:30Z</time>
      </trkpt>
      <trkpt lat="59.262469" lon="18.098104">
        <ele>34</ele>
        <time>2020-01-17T08:24:31Z</time>
      </trkpt>
      <trkpt lat="59.262404" lon="18.098086">
        <ele>34</ele>
        <time>2020-01-17T08:24:32Z</time>
      </trkpt>
      <trkpt lat="59.262337" lon="18.098056">
        <ele>33</ele>
        <time>2020-01-17T08:24:33Z</time>
      </trkpt>
      <trkpt lat="59.262272" lon="18.09801">
        <ele>33</ele>
        <time>2020-01-17T08:24:34Z</time>
      </trkpt>
      <trkpt lat="59.262213" lon="18.09795">
        <ele>32</ele>
        <time>2020-01-17T08:24:35Z</time>
      </trkpt>
      <trkpt lat="59.262159" lon="18.097879">
        <ele>32</ele>
        <time>2020-01-17T08:24:36Z</time>
      </trkpt>
      <trkpt lat="59.262107" lon="18.097806">
        <ele>32</ele>
        <time>2020-01-17T08:24:37Z</time>
      </trkpt>
      <trkpt lat="59.262057" lon="18.097732">
        <ele>32</ele>
        <time>2020-01-17T08:24:38Z</time>
      </trkpt>
      <trkpt lat="59.262008" lon="18.097658">
        <ele>31</ele>
        <time>2020-01-17T08:24:39Z</time>
      </trkpt>
      <trkpt lat="59.261958" lon="18.097588">
        <ele>31</ele>
        <time>2020-01-17T08:24:40Z</time>
      </trkpt>
      <trkpt lat="59.26191" lon="18.097518">
        <ele>31</ele>
        <time>2020-01-17T08:24:41Z</time>
      </trkpt>
      <trkpt lat="59.261863" lon="18.097446">
        <ele>31</ele>
        <time>2020-01-17T08:24:42Z</time>
      </trkpt>
      <trkpt lat="59.261817" lon="18.097374">
        <ele>31</ele>
        <time>2020-01-17T08:24:43Z</time>
      </trkpt>
      <trkpt lat="59.261771" lon="18.097302">
        <ele>31</ele>
        <time>2020-01-17T08:24:44Z</time>
      </trkpt>
      <trkpt lat="59.261728" lon="18.09723">
        <ele>31</ele>
        <time>2020-01-17T08:24:45Z</time>
      </trkpt>
      <trkpt lat="59.261687" lon="18.097154">
        <ele>30</ele>
        <time>2020-01-17T08:24:46Z</time>
      </trkpt>
      <trkpt lat="59.261648" lon="18.097078">
        <ele>30</ele>
        <time>2020-01-17T08:24:47Z</time>
      </trkpt>
      <trkpt lat="59.261607" lon="18.097004">
        <ele>30</ele>
        <time>2020-01-17T08:24:48Z</time>
      </trkpt>
      <trkpt lat="59.261566" lon="18.096934">
        <ele>30</ele>
        <time>2020-01-17T08:24:49Z</time>
      </trkpt>
      <trkpt lat="59.261524" lon="18.096866">
        <ele>30</ele>
        <time>2020-01-17T08:24:50Z</time>
      </trkpt>
      <trkpt lat="59.261482" lon="18.096801">
        <ele>30</ele>
        <time>2020-01-17T08:24:51Z</time>
      </trkpt>
      <trkpt lat="59.261439" lon="18.096742">
        <ele>30</ele>
        <time>2020-01-17T08:24:52Z</time>
      </trkpt>
      <trkpt lat="59.261394" lon="18.09669">
        <ele>30</ele>
        <time>2020-01-17T08:24:53Z</time>
      </trkpt>
      <trkpt lat="59.261348" lon="18.096644">
        <ele>30</ele>
        <time>2020-01-17T08:24:54Z</time>
      </trkpt>
      <trkpt lat="59.261302" lon="18.0966">
        <ele>29</ele>
        <time>2020-01-17T08:24:55Z</time>
      </trkpt>
      <trkpt lat="59.261255" lon="18.09656">
        <ele>29</ele>
        <time>2020-01-17T08:24:56Z</time>
      </trkpt>
      <trkpt lat="59.261207" lon="18.096526">
        <ele>29</ele>
        <time>2020-01-17T08:24:57Z</time>
      </trkpt>
      <trkpt lat="59.26116" lon="18.096494">
        <ele>29</ele>
        <time>2020-01-17T08:24:58Z</time>
      </trkpt>
      <trkpt lat="59.261112" lon="18.096466">
        <ele>29</ele>
        <time>2020-01-17T08:24:59Z</time>
      </trkpt>
      <trkpt lat="59.261064" lon="18.096443">
        <ele>29</ele>
        <time>2020-01-17T08:25:00Z</time>
      </trkpt>
      <trkpt lat="59.261015" lon="18.096428">
        <ele>29</ele>
        <time>2020-01-17T08:25:01Z</time>
      </trkpt>
      <trkpt lat="59.260964" lon="18.096419">
        <ele>29</ele>
        <time>2020-01-17T08:25:02Z</time>
      </trkpt>
      <trkpt lat="59.260912" lon="18.096418">
        <ele>29</ele>
        <time>2020-01-17T08:25:03Z</time>
      </trkpt>
      <trkpt lat="59.260857" lon="18.096423">
        <ele>29</ele>
        <time>2020-01-17T08:25:04Z</time>
      </trkpt>
      <trkpt lat="59.2608" lon="18.096433">
        <ele>28</ele>
        <time>2020-01-17T08:25:05Z</time>
      </trkpt>
      <trkpt lat="59.260741" lon="18.096446">
        <ele>28</ele>
        <time>2020-01-17T08:25:06Z</time>
      </trkpt>
      <trkpt lat="59.260681" lon="18.096463">
        <ele>28</ele>
        <time>2020-01-17T08:25:07Z</time>
      </trkpt>
      <trkpt lat="59.260619" lon="18.096484">
        <ele>28</ele>
        <time>2020-01-17T08:25:08Z</time>
      </trkpt>
      <trkpt lat="59.260556" lon="18.096506">
        <ele>27</ele>
        <time>2020-01-17T08:25:09Z</time>
      </trkpt>
      <trkpt lat="59.260491" lon="18.096531">
        <ele>27</ele>
        <time>2020-01-17T08:25:10Z</time>
      </trkpt>
      <trkpt lat="59.260425" lon="18.09656">
        <ele>27</ele>
        <time>2020-01-17T08:25:11Z</time>
      </trkpt>
      <trkpt lat="59.260295" lon="18.096618">
        <ele>27</ele>
        <time>2020-01-17T08:25:13Z</time>
      </trkpt>
      <trkpt lat="59.260172" lon="18.096707">
        <ele>27</ele>
        <time>2020-01-17T08:25:15Z</time>
      </trkpt>
      <trkpt lat="59.260065" lon="18.09681">
        <ele>27</ele>
        <time>2020-01-17T08:25:17Z</time>
      </trkpt>
      <trkpt lat="59.259967" lon="18.096902">
        <ele>27</ele>
        <time>2020-01-17T08:25:19Z</time>
      </trkpt>
      <trkpt lat="59.259924" lon="18.096946">
        <ele>28</ele>
        <time>2020-01-17T08:25:20Z</time>
      </trkpt>
      <trkpt lat="59.259885" lon="18.096997">
        <ele>28</ele>
        <time>2020-01-17T08:25:21Z</time>
      </trkpt>
      <trkpt lat="59.259851" lon="18.097052">
        <ele>28</ele>
        <time>2020-01-17T08:25:22Z</time>
      </trkpt>
      <trkpt lat="59.259819" lon="18.097117">
        <ele>28</ele>
        <time>2020-01-17T08:25:23Z</time>
      </trkpt>
      <trkpt lat="59.25979" lon="18.097191">
        <ele>28</ele>
        <time>2020-01-17T08:25:24Z</time>
      </trkpt>
      <trkpt lat="59.259765" lon="18.097269">
        <ele>29</ele>
        <time>2020-01-17T08:25:25Z</time>
      </trkpt>
      <trkpt lat="59.259744" lon="18.097351">
        <ele>29</ele>
        <time>2020-01-17T08:25:26Z</time>
      </trkpt>
      <trkpt lat="59.259728" lon="18.097441">
        <ele>29</ele>
        <time>2020-01-17T08:25:27Z</time>
      </trkpt>
      <trkpt lat="59.259725" lon="18.097533">
        <ele>30</ele>
        <time>2020-01-17T08:25:28Z</time>
      </trkpt>
      <trkpt lat="59.259716" lon="18.097631">
        <ele>31</ele>
        <time>2020-01-17T08:25:29Z</time>
      </trkpt>
      <trkpt lat="59.259706" lon="18.09773">
        <ele>31</ele>
        <time>2020-01-17T08:25:30Z</time>
      </trkpt>
      <trkpt lat="59.259698" lon="18.097831">
        <ele>32</ele>
        <time>2020-01-17T08:25:31Z</time>
      </trkpt>
      <trkpt lat="59.25969" lon="18.097937">
        <ele>32</ele>
        <time>2020-01-17T08:25:32Z</time>
      </trkpt>
      <trkpt lat="59.259686" lon="18.098041">
        <ele>33</ele>
        <time>2020-01-17T08:25:33Z</time>
      </trkpt>
      <trkpt lat="59.259682" lon="18.09815">
        <ele>33</ele>
        <time>2020-01-17T08:25:34Z</time>
      </trkpt>
      <trkpt lat="59.259671" lon="18.098261">
        <ele>33</ele>
        <time>2020-01-17T08:25:35Z</time>
      </trkpt>
      <trkpt lat="59.259661" lon="18.098373">
        <ele>33</ele>
        <time>2020-01-17T08:25:36Z</time>
      </trkpt>
      <trkpt lat="59.25965" lon="18.098485">
        <ele>32</ele>
        <time>2020-01-17T08:25:37Z</time>
      </trkpt>
      <trkpt lat="59.259636" lon="18.098595">
        <ele>32</ele>
        <time>2020-01-17T08:25:38Z</time>
      </trkpt>
      <trkpt lat="59.259614" lon="18.098702">
        <ele>31</ele>
        <time>2020-01-17T08:25:39Z</time>
      </trkpt>
      <trkpt lat="59.259588" lon="18.098806">
        <ele>31</ele>
        <time>2020-01-17T08:25:40Z</time>
      </trkpt>
      <trkpt lat="59.259558" lon="18.098901">
        <ele>31</ele>
        <time>2020-01-17T08:25:41Z</time>
      </trkpt>
      <trkpt lat="59.25952" lon="18.098987">
        <ele>31</ele>
        <time>2020-01-17T08:25:42Z</time>
      </trkpt>
      <trkpt lat="59.259474" lon="18.099061">
        <ele>31</ele>
        <time>2020-01-17T08:25:43Z</time>
      </trkpt>
      <trkpt lat="59.259427" lon="18.099123">
        <ele>31</ele>
        <time>2020-01-17T08:25:44Z</time>
      </trkpt>
      <trkpt lat="59.259377" lon="18.099174">
        <ele>31</ele>
        <time>2020-01-17T08:25:45Z</time>
      </trkpt>
      <trkpt lat="59.259327" lon="18.099215">
        <ele>31</ele>
        <time>2020-01-17T08:25:46Z</time>
      </trkpt>
      <trkpt lat="59.259277" lon="18.099246">
        <ele>31</ele>
        <time>2020-01-17T08:25:47Z</time>
      </trkpt>
      <trkpt lat="59.259223" lon="18.09926">
        <ele>31</ele>
        <time>2020-01-17T08:25:48Z</time>
      </trkpt>
      <trkpt lat="59.25917" lon="18.099262">
        <ele>31</ele>
        <time>2020-01-17T08:25:49Z</time>
      </trkpt>
      <trkpt lat="59.259119" lon="18.099262">
        <ele>31</ele>
        <time>2020-01-17T08:25:50Z</time>
      </trkpt>
      <trkpt lat="59.259067" lon="18.099258">
        <ele>31</ele>
        <time>2020-01-17T08:25:51Z</time>
      </trkpt>
      <trkpt lat="59.259018" lon="18.09926">
        <ele>31</ele>
        <time>2020-01-17T08:25:52Z</time>
      </trkpt>
      <trkpt lat="59.258972" lon="18.099265">
        <ele>30</ele>
        <time>2020-01-17T08:25:53Z</time>
      </trkpt>
      <trkpt lat="59.258926" lon="18.099267">
        <ele>30</ele>
        <time>2020-01-17T08:25:54Z</time>
      </trkpt>
      <trkpt lat="59.258878" lon="18.099269">
        <ele>30</ele>
        <time>2020-01-17T08:25:55Z</time>
      </trkpt>
      <trkpt lat="59.258828" lon="18.099273">
        <ele>30</ele>
        <time>2020-01-17T08:25:56Z</time>
      </trkpt>
      <trkpt lat="59.258776" lon="18.099276">
        <ele>30</ele>
        <time>2020-01-17T08:25:57Z</time>
      </trkpt>
      <trkpt lat="59.258722" lon="18.099278">
        <ele>30</ele>
        <time>2020-01-17T08:25:58Z</time>
      </trkpt>
      <trkpt lat="59.258668" lon="18.099279">
        <ele>30</ele>
        <time>2020-01-17T08:25:59Z</time>
      </trkpt>
      <trkpt lat="59.258615" lon="18.099278">
        <ele>30</ele>
        <time>2020-01-17T08:26:00Z</time>
      </trkpt>
      <trkpt lat="59.25856" lon="18.099275">
        <ele>30</ele>
        <time>2020-01-17T08:26:01Z</time>
      </trkpt>
      <trkpt lat="59.258506" lon="18.099271">
        <ele>30</ele>
        <time>2020-01-17T08:26:02Z</time>
      </trkpt>
      <trkpt lat="59.258452" lon="18.099266">
        <ele>30</ele>
        <time>2020-01-17T08:26:03Z</time>
      </trkpt>
      <trkpt lat="59.258398" lon="18.09926">
        <ele>31</ele>
        <time>2020-01-17T08:26:04Z</time>
      </trkpt>
      <trkpt lat="59.258346" lon="18.099253">
        <ele>31</ele>
        <time>2020-01-17T08:26:05Z</time>
      </trkpt>
      <trkpt lat="59.258293" lon="18.099244">
        <ele>31</ele>
        <time>2020-01-17T08:26:06Z</time>
      </trkpt>
      <trkpt lat="59.258241" lon="18.099238">
        <ele>31</ele>
        <time>2020-01-17T08:26:07Z</time>
      </trkpt>
      <trkpt lat="59.258185" lon="18.099232">
        <ele>31</ele>
        <time>2020-01-17T08:26:08Z</time>
      </trkpt>
      <trkpt lat="59.258129" lon="18.099226">
        <ele>31</ele>
        <time>2020-01-17T08:26:09Z</time>
      </trkpt>
      <trkpt lat="59.258074" lon="18.099219">
        <ele>31</ele>
        <time>2020-01-17T08:26:10Z</time>
      </trkpt>
      <trkpt lat="59.258025" lon="18.099207">
        <ele>31</ele>
        <time>2020-01-17T08:26:11Z</time>
      </trkpt>
      <trkpt lat="59.257975" lon="18.099195">
        <ele>31</ele>
        <time>2020-01-17T08:26:12Z</time>
      </trkpt>
      <trkpt lat="59.25792" lon="18.099187">
        <ele>31</ele>
        <time>2020-01-17T08:26:13Z</time>
      </trkpt>
      <trkpt lat="59.257862" lon="18.099177">
        <ele>31</ele>
        <time>2020-01-17T08:26:14Z</time>
      </trkpt>
      <trkpt lat="59.257803" lon="18.099167">
        <ele>31</ele>
        <time>2020-01-17T08:26:15Z</time>
      </trkpt>
      <trkpt lat="59.257745" lon="18.099164">
        <ele>31</ele>
        <time>2020-01-17T08:26:16Z</time>
      </trkpt>
      <trkpt lat="59.257684" lon="18.099174">
        <ele>31</ele>
        <time>2020-01-17T08:26:17Z</time>
      </trkpt>
      <trkpt lat="59.257629" lon="18.0992">
        <ele>30</ele>
        <time>2020-01-17T08:26:18Z</time>
      </trkpt>
      <trkpt lat="59.257574" lon="18.099241">
        <ele>30</ele>
        <time>2020-01-17T08:26:19Z</time>
      </trkpt>
      <trkpt lat="59.257524" lon="18.099298">
        <ele>30</ele>
        <time>2020-01-17T08:26:20Z</time>
      </trkpt>
      <trkpt lat="59.257479" lon="18.099374">
        <ele>30</ele>
        <time>2020-01-17T08:26:22Z</time>
      </trkpt>
      <trkpt lat="59.257434" lon="18.09947">
        <ele>29</ele>
        <time>2020-01-17T08:26:22Z</time>
      </trkpt>
      <trkpt lat="59.257393" lon="18.09958">
        <ele>29</ele>
        <time>2020-01-17T08:26:23Z</time>
      </trkpt>
      <trkpt lat="59.257354" lon="18.099698">
        <ele>28</ele>
        <time>2020-01-17T08:26:24Z</time>
      </trkpt>
      <trkpt lat="59.257312" lon="18.099819">
        <ele>28</ele>
        <time>2020-01-17T08:26:25Z</time>
      </trkpt>
      <trkpt lat="59.257272" lon="18.099941">
        <ele>28</ele>
        <time>2020-01-17T08:26:26Z</time>
      </trkpt>
      <trkpt lat="59.257236" lon="18.100055">
        <ele>28</ele>
        <time>2020-01-17T08:26:27Z</time>
      </trkpt>
      <trkpt lat="59.257203" lon="18.100153">
        <ele>28</ele>
        <time>2020-01-17T08:26:28Z</time>
      </trkpt>
      <trkpt lat="59.257172" lon="18.100239">
        <ele>28</ele>
        <time>2020-01-17T08:26:29Z</time>
      </trkpt>
      <trkpt lat="59.257124" lon="18.10045">
        <ele>28</ele>
        <time>2020-01-17T08:26:31Z</time>
      </trkpt>
      <trkpt lat="59.257059" lon="18.100682">
        <ele>28</ele>
        <time>2020-01-17T08:26:33Z</time>
      </trkpt>
      <trkpt lat="59.257027" lon="18.100918">
        <ele>28</ele>
        <time>2020-01-17T08:26:35Z</time>
      </trkpt>
      <trkpt lat="59.256974" lon="18.101114">
        <ele>29</ele>
        <time>2020-01-17T08:26:38Z</time>
      </trkpt>
      <trkpt lat="59.256932" lon="18.101123">
        <ele>29</ele>
        <time>2020-01-17T08:26:39Z</time>
      </trkpt>
      <trkpt lat="59.256887" lon="18.101113">
        <ele>29</ele>
        <time>2020-01-17T08:26:40Z</time>
      </trkpt>
      <trkpt lat="59.256839" lon="18.101108">
        <ele>28</ele>
        <time>2020-01-17T08:26:41Z</time>
      </trkpt>
      <trkpt lat="59.256789" lon="18.101105">
        <ele>28</ele>
        <time>2020-01-17T08:26:42Z</time>
      </trkpt>
      <trkpt lat="59.256739" lon="18.1011">
        <ele>28</ele>
        <time>2020-01-17T08:26:43Z</time>
      </trkpt>
      <trkpt lat="59.256692" lon="18.101091">
        <ele>28</ele>
        <time>2020-01-17T08:26:44Z</time>
      </trkpt>
      <trkpt lat="59.256643" lon="18.101087">
        <ele>28</ele>
        <time>2020-01-17T08:26:45Z</time>
      </trkpt>
      <trkpt lat="59.25659" lon="18.101085">
        <ele>27</ele>
        <time>2020-01-17T08:26:46Z</time>
      </trkpt>
      <trkpt lat="59.256537" lon="18.101083">
        <ele>27</ele>
        <time>2020-01-17T08:26:47Z</time>
      </trkpt>
      <trkpt lat="59.256486" lon="18.101078">
        <ele>27</ele>
        <time>2020-01-17T08:26:48Z</time>
      </trkpt>
      <trkpt lat="59.256435" lon="18.101072">
        <ele>27</ele>
        <time>2020-01-17T08:26:49Z</time>
      </trkpt>
      <trkpt lat="59.256385" lon="18.101064">
        <ele>27</ele>
        <time>2020-01-17T08:26:50Z</time>
      </trkpt>
      <trkpt lat="59.256334" lon="18.101057">
        <ele>27</ele>
        <time>2020-01-17T08:26:51Z</time>
      </trkpt>
      <trkpt lat="59.256285" lon="18.101053">
        <ele>27</ele>
        <time>2020-01-17T08:26:52Z</time>
      </trkpt>
      <trkpt lat="59.256236" lon="18.101051">
        <ele>27</ele>
        <time>2020-01-17T08:26:53Z</time>
      </trkpt>
      <trkpt lat="59.256186" lon="18.101048">
        <ele>27</ele>
        <time>2020-01-17T08:26:54Z</time>
      </trkpt>
      <trkpt lat="59.256137" lon="18.101044">
        <ele>27</ele>
        <time>2020-01-17T08:26:55Z</time>
      </trkpt>
      <trkpt lat="59.256088" lon="18.10104">
        <ele>26</ele>
        <time>2020-01-17T08:26:56Z</time>
      </trkpt>
      <trkpt lat="59.256039" lon="18.101034">
        <ele>26</ele>
        <time>2020-01-17T08:26:57Z</time>
      </trkpt>
      <trkpt lat="59.25599" lon="18.101027">
        <ele>26</ele>
        <time>2020-01-17T08:26:58Z</time>
      </trkpt>
      <trkpt lat="59.25594" lon="18.101021">
        <ele>26</ele>
        <time>2020-01-17T08:26:59Z</time>
      </trkpt>
      <trkpt lat="59.255891" lon="18.101018">
        <ele>26</ele>
        <time>2020-01-17T08:27:00Z</time>
      </trkpt>
      <trkpt lat="59.255846" lon="18.101013">
        <ele>26</ele>
        <time>2020-01-17T08:27:01Z</time>
      </trkpt>
      <trkpt lat="59.255803" lon="18.101008">
        <ele>26</ele>
        <time>2020-01-17T08:27:02Z</time>
      </trkpt>
      <trkpt lat="59.255765" lon="18.101004">
        <ele>26</ele>
        <time>2020-01-17T08:27:03Z</time>
      </trkpt>
      <trkpt lat="59.255739" lon="18.100998">
        <ele>26</ele>
        <time>2020-01-17T08:27:04Z</time>
      </trkpt>
      <trkpt lat="59.255708" lon="18.100984">
        <ele>26</ele>
        <time>2020-01-17T08:27:06Z</time>
      </trkpt>
      <trkpt lat="59.255675" lon="18.100979">
        <ele>26</ele>
        <time>2020-01-17T08:27:08Z</time>
      </trkpt>
      <trkpt lat="59.255654" lon="18.100981">
        <ele>26</ele>
        <time>2020-01-17T08:27:09Z</time>
      </trkpt>
      <trkpt lat="59.255631" lon="18.100988">
        <ele>26</ele>
        <time>2020-01-17T08:27:10Z</time>
      </trkpt>
      <trkpt lat="59.255601" lon="18.100993">
        <ele>26</ele>
        <time>2020-01-17T08:27:11Z</time>
      </trkpt>
      <trkpt lat="59.255568" lon="18.100986">
        <ele>26</ele>
        <time>2020-01-17T08:27:12Z</time>
      </trkpt>
      <trkpt lat="59.255533" lon="18.100974">
        <ele>26</ele>
        <time>2020-01-17T08:27:13Z</time>
      </trkpt>
      <trkpt lat="59.255495" lon="18.10096">
        <ele>26</ele>
        <time>2020-01-17T08:27:14Z</time>
      </trkpt>
      <trkpt lat="59.255455" lon="18.100947">
        <ele>26</ele>
        <time>2020-01-17T08:27:15Z</time>
      </trkpt>
      <trkpt lat="59.255411" lon="18.100935">
        <ele>26</ele>
        <time>2020-01-17T08:27:16Z</time>
      </trkpt>
      <trkpt lat="59.255367" lon="18.100923">
        <ele>26</ele>
        <time>2020-01-17T08:27:17Z</time>
      </trkpt>
      <trkpt lat="59.255322" lon="18.100912">
        <ele>26</ele>
        <time>2020-01-17T08:27:18Z</time>
      </trkpt>
      <trkpt lat="59.255277" lon="18.100902">
        <ele>26</ele>
        <time>2020-01-17T08:27:19Z</time>
      </trkpt>
      <trkpt lat="59.255231" lon="18.100893">
        <ele>26</ele>
        <time>2020-01-17T08:27:20Z</time>
      </trkpt>
      <trkpt lat="59.255183" lon="18.100885">
        <ele>26</ele>
        <time>2020-01-17T08:27:21Z</time>
      </trkpt>
      <trkpt lat="59.255134" lon="18.100874">
        <ele>26</ele>
        <time>2020-01-17T08:27:22Z</time>
      </trkpt>
      <trkpt lat="59.255084" lon="18.100867">
        <ele>26</ele>
        <time>2020-01-17T08:27:23Z</time>
      </trkpt>
      <trkpt lat="59.255035" lon="18.100858">
        <ele>26</ele>
        <time>2020-01-17T08:27:24Z</time>
      </trkpt>
      <trkpt lat="59.254984" lon="18.100848">
        <ele>26</ele>
        <time>2020-01-17T08:27:25Z</time>
      </trkpt>
      <trkpt lat="59.254933" lon="18.100835">
        <ele>26</ele>
        <time>2020-01-17T08:27:26Z</time>
      </trkpt>
      <trkpt lat="59.254884" lon="18.100825">
        <ele>26</ele>
        <time>2020-01-17T08:27:27Z</time>
      </trkpt>
      <trkpt lat="59.254832" lon="18.100815">
        <ele>25</ele>
        <time>2020-01-17T08:27:28Z</time>
      </trkpt>
      <trkpt lat="59.254778" lon="18.100809">
        <ele>25</ele>
        <time>2020-01-17T08:27:29Z</time>
      </trkpt>
      <trkpt lat="59.254727" lon="18.100799">
        <ele>25</ele>
        <time>2020-01-17T08:27:30Z</time>
      </trkpt>
      <trkpt lat="59.254677" lon="18.100784">
        <ele>25</ele>
        <time>2020-01-17T08:27:31Z</time>
      </trkpt>
      <trkpt lat="59.254627" lon="18.100762">
        <ele>25</ele>
        <time>2020-01-17T08:27:32Z</time>
      </trkpt>
      <trkpt lat="59.254576" lon="18.100736">
        <ele>25</ele>
        <time>2020-01-17T08:27:33Z</time>
      </trkpt>
      <trkpt lat="59.254525" lon="18.100711">
        <ele>25</ele>
        <time>2020-01-17T08:27:34Z</time>
      </trkpt>
      <trkpt lat="59.254474" lon="18.10069">
        <ele>25</ele>
        <time>2020-01-17T08:27:35Z</time>
      </trkpt>
      <trkpt lat="59.254425" lon="18.10067">
        <ele>25</ele>
        <time>2020-01-17T08:27:36Z</time>
      </trkpt>
      <trkpt lat="59.254376" lon="18.100648">
        <ele>25</ele>
        <time>2020-01-17T08:27:37Z</time>
      </trkpt>
      <trkpt lat="59.254326" lon="18.100627">
        <ele>25</ele>
        <time>2020-01-17T08:27:38Z</time>
      </trkpt>
      <trkpt lat="59.254276" lon="18.100609">
        <ele>24</ele>
        <time>2020-01-17T08:27:39Z</time>
      </trkpt>
      <trkpt lat="59.254226" lon="18.100596">
        <ele>24</ele>
        <time>2020-01-17T08:27:40Z</time>
      </trkpt>
      <trkpt lat="59.254176" lon="18.10059">
        <ele>24</ele>
        <time>2020-01-17T08:27:41Z</time>
      </trkpt>
      <trkpt lat="59.254126" lon="18.10059">
        <ele>24</ele>
        <time>2020-01-17T08:27:42Z</time>
      </trkpt>
      <trkpt lat="59.254076" lon="18.100595">
        <ele>24</ele>
        <time>2020-01-17T08:27:43Z</time>
      </trkpt>
      <trkpt lat="59.254025" lon="18.1006">
        <ele>24</ele>
        <time>2020-01-17T08:27:44Z</time>
      </trkpt>
      <trkpt lat="59.253974" lon="18.100599">
        <ele>24</ele>
        <time>2020-01-17T08:27:45Z</time>
      </trkpt>
      <trkpt lat="59.253924" lon="18.100588">
        <ele>24</ele>
        <time>2020-01-17T08:27:46Z</time>
      </trkpt>
      <trkpt lat="59.253875" lon="18.100568">
        <ele>24</ele>
        <time>2020-01-17T08:27:47Z</time>
      </trkpt>
      <trkpt lat="59.253825" lon="18.100549">
        <ele>24</ele>
        <time>2020-01-17T08:27:48Z</time>
      </trkpt>
      <trkpt lat="59.253775" lon="18.100528">
        <ele>23</ele>
        <time>2020-01-17T08:27:49Z</time>
      </trkpt>
      <trkpt lat="59.253723" lon="18.100505">
        <ele>23</ele>
        <time>2020-01-17T08:27:50Z</time>
      </trkpt>
      <trkpt lat="59.253672" lon="18.100481">
        <ele>23</ele>
        <time>2020-01-17T08:27:51Z</time>
      </trkpt>
      <trkpt lat="59.253618" lon="18.100453">
        <ele>23</ele>
        <time>2020-01-17T08:27:52Z</time>
      </trkpt>
      <trkpt lat="59.253567" lon="18.100425">
        <ele>23</ele>
        <time>2020-01-17T08:27:53Z</time>
      </trkpt>
      <trkpt lat="59.253514" lon="18.100396">
        <ele>23</ele>
        <time>2020-01-17T08:27:54Z</time>
      </trkpt>
      <trkpt lat="59.253462" lon="18.100363">
        <ele>23</ele>
        <time>2020-01-17T08:27:55Z</time>
      </trkpt>
      <trkpt lat="59.253411" lon="18.100326">
        <ele>23</ele>
        <time>2020-01-17T08:27:56Z</time>
      </trkpt>
      <trkpt lat="59.253361" lon="18.100286">
        <ele>23</ele>
        <time>2020-01-17T08:27:57Z</time>
      </trkpt>
      <trkpt lat="59.253312" lon="18.100246">
        <ele>22</ele>
        <time>2020-01-17T08:27:58Z</time>
      </trkpt>
      <trkpt lat="59.253261" lon="18.100208">
        <ele>22</ele>
        <time>2020-01-17T08:27:59Z</time>
      </trkpt>
      <trkpt lat="59.253209" lon="18.100175">
        <ele>22</ele>
        <time>2020-01-17T08:28:00Z</time>
      </trkpt>
      <trkpt lat="59.253156" lon="18.100149">
        <ele>22</ele>
        <time>2020-01-17T08:28:01Z</time>
      </trkpt>
      <trkpt lat="59.2531" lon="18.100134">
        <ele>22</ele>
        <time>2020-01-17T08:28:02Z</time>
      </trkpt>
      <trkpt lat="59.253044" lon="18.100131">
        <ele>22</ele>
        <time>2020-01-17T08:28:03Z</time>
      </trkpt>
      <trkpt lat="59.252989" lon="18.100135">
        <ele>22</ele>
        <time>2020-01-17T08:28:04Z</time>
      </trkpt>
      <trkpt lat="59.252933" lon="18.100142">
        <ele>22</ele>
        <time>2020-01-17T08:28:05Z</time>
      </trkpt>
      <trkpt lat="59.252876" lon="18.100149">
        <ele>22</ele>
        <time>2020-01-17T08:28:06Z</time>
      </trkpt>
      <trkpt lat="59.252821" lon="18.100161">
        <ele>22</ele>
        <time>2020-01-17T08:28:07Z</time>
      </trkpt>
      <trkpt lat="59.252764" lon="18.100176">
        <ele>22</ele>
        <time>2020-01-17T08:28:08Z</time>
      </trkpt>
      <trkpt lat="59.252708" lon="18.100191">
        <ele>22</ele>
        <time>2020-01-17T08:28:09Z</time>
      </trkpt>
      <trkpt lat="59.252654" lon="18.100209">
        <ele>22</ele>
        <time>2020-01-17T08:28:10Z</time>
      </trkpt>
      <trkpt lat="59.2526" lon="18.100228">
        <ele>22</ele>
        <time>2020-01-17T08:28:11Z</time>
      </trkpt>
      <trkpt lat="59.252547" lon="18.10025">
        <ele>22</ele>
        <time>2020-01-17T08:28:12Z</time>
      </trkpt>
      <trkpt lat="59.252496" lon="18.100276">
        <ele>22</ele>
        <time>2020-01-17T08:28:13Z</time>
      </trkpt>
      <trkpt lat="59.252446" lon="18.100304">
        <ele>22</ele>
        <time>2020-01-17T08:28:14Z</time>
      </trkpt>
      <trkpt lat="59.252398" lon="18.10033">
        <ele>22</ele>
        <time>2020-01-17T08:28:15Z</time>
      </trkpt>
      <trkpt lat="59.252351" lon="18.100357">
        <ele>22</ele>
        <time>2020-01-17T08:28:16Z</time>
      </trkpt>
      <trkpt lat="59.252306" lon="18.100386">
        <ele>22</ele>
        <time>2020-01-17T08:28:17Z</time>
      </trkpt>
      <trkpt lat="59.252263" lon="18.100413">
        <ele>22</ele>
        <time>2020-01-17T08:28:18Z</time>
      </trkpt>
      <trkpt lat="59.252223" lon="18.100437">
        <ele>22</ele>
        <time>2020-01-17T08:28:19Z</time>
      </trkpt>
      <trkpt lat="59.252187" lon="18.100461">
        <ele>23</ele>
        <time>2020-01-17T08:28:20Z</time>
      </trkpt>
      <trkpt lat="59.252154" lon="18.100483">
        <ele>23</ele>
        <time>2020-01-17T08:28:21Z</time>
      </trkpt>
      <trkpt lat="59.252122" lon="18.100503">
        <ele>23</ele>
        <time>2020-01-17T08:28:22Z</time>
      </trkpt>
      <trkpt lat="59.252089" lon="18.100521">
        <ele>23</ele>
        <time>2020-01-17T08:28:23Z</time>
      </trkpt>
      <trkpt lat="59.252058" lon="18.100539">
        <ele>23</ele>
        <time>2020-01-17T08:28:24Z</time>
      </trkpt>
      <trkpt lat="59.252028" lon="18.10056">
        <ele>23</ele>
        <time>2020-01-17T08:28:25Z</time>
      </trkpt>
      <trkpt lat="59.251998" lon="18.10058">
        <ele>24</ele>
        <time>2020-01-17T08:28:26Z</time>
      </trkpt>
      <trkpt lat="59.25197" lon="18.1006">
        <ele>24</ele>
        <time>2020-01-17T08:28:27Z</time>
      </trkpt>
      <trkpt lat="59.25194" lon="18.100617">
        <ele>24</ele>
        <time>2020-01-17T08:28:28Z</time>
      </trkpt>
      <trkpt lat="59.25191" lon="18.100635">
        <ele>24</ele>
        <time>2020-01-17T08:28:29Z</time>
      </trkpt>
      <trkpt lat="59.251879" lon="18.100655">
        <ele>25</ele>
        <time>2020-01-17T08:28:30Z</time>
      </trkpt>
      <trkpt lat="59.251849" lon="18.100674">
        <ele>25</ele>
        <time>2020-01-17T08:28:31Z</time>
      </trkpt>
      <trkpt lat="59.251818" lon="18.100691">
        <ele>25</ele>
        <time>2020-01-17T08:28:32Z</time>
      </trkpt>
      <trkpt lat="59.251787" lon="18.100709">
        <ele>25</ele>
        <time>2020-01-17T08:28:33Z</time>
      </trkpt>
      <trkpt lat="59.251755" lon="18.100729">
        <ele>25</ele>
        <time>2020-01-17T08:28:34Z</time>
      </trkpt>
      <trkpt lat="59.251725" lon="18.100752">
        <ele>26</ele>
        <time>2020-01-17T08:28:35Z</time>
      </trkpt>
      <trkpt lat="59.251693" lon="18.100775">
        <ele>26</ele>
        <time>2020-01-17T08:28:36Z</time>
      </trkpt>
      <trkpt lat="59.251659" lon="18.100797">
        <ele>26</ele>
        <time>2020-01-17T08:28:37Z</time>
      </trkpt>
      <trkpt lat="59.251625" lon="18.10082">
        <ele>26</ele>
        <time>2020-01-17T08:28:38Z</time>
      </trkpt>
      <trkpt lat="59.251591" lon="18.100842">
        <ele>26</ele>
        <time>2020-01-17T08:28:39Z</time>
      </trkpt>
      <trkpt lat="59.251557" lon="18.100864">
        <ele>26</ele>
        <time>2020-01-17T08:28:40Z</time>
      </trkpt>
      <trkpt lat="59.251522" lon="18.100885">
        <ele>26</ele>
        <time>2020-01-17T08:28:41Z</time>
      </trkpt>
      <trkpt lat="59.251486" lon="18.100903">
        <ele>27</ele>
        <time>2020-01-17T08:28:42Z</time>
      </trkpt>
      <trkpt lat="59.251449" lon="18.100917">
        <ele>27</ele>
        <time>2020-01-17T08:28:43Z</time>
      </trkpt>
      <trkpt lat="59.251412" lon="18.100925">
        <ele>27</ele>
        <time>2020-01-17T08:28:44Z</time>
      </trkpt>
      <trkpt lat="59.251374" lon="18.100928">
        <ele>27</ele>
        <time>2020-01-17T08:28:45Z</time>
      </trkpt>
      <trkpt lat="59.251336" lon="18.100923">
        <ele>27</ele>
        <time>2020-01-17T08:28:46Z</time>
      </trkpt>
      <trkpt lat="59.251299" lon="18.100911">
        <ele>27</ele>
        <time>2020-01-17T08:28:47Z</time>
      </trkpt>
      <trkpt lat="59.251262" lon="18.100894">
        <ele>27</ele>
        <time>2020-01-17T08:28:48Z</time>
      </trkpt>
      <trkpt lat="59.251226" lon="18.100872">
        <ele>27</ele>
        <time>2020-01-17T08:28:49Z</time>
      </trkpt>
      <trkpt lat="59.25119" lon="18.100848">
        <ele>27</ele>
        <time>2020-01-17T08:28:50Z</time>
      </trkpt>
      <trkpt lat="59.251155" lon="18.100824">
        <ele>27</ele>
        <time>2020-01-17T08:28:51Z</time>
      </trkpt>
      <trkpt lat="59.251119" lon="18.100799">
        <ele>27</ele>
        <time>2020-01-17T08:28:52Z</time>
      </trkpt>
      <trkpt lat="59.251084" lon="18.10077">
        <ele>27</ele>
        <time>2020-01-17T08:28:53Z</time>
      </trkpt>
      <trkpt lat="59.251051" lon="18.100739">
        <ele>27</ele>
        <time>2020-01-17T08:28:54Z</time>
      </trkpt>
      <trkpt lat="59.251017" lon="18.100705">
        <ele>27</ele>
        <time>2020-01-17T08:28:55Z</time>
      </trkpt>
      <trkpt lat="59.250985" lon="18.10067">
        <ele>27</ele>
        <time>2020-01-17T08:28:56Z</time>
      </trkpt>
      <trkpt lat="59.250953" lon="18.100633">
        <ele>27</ele>
        <time>2020-01-17T08:28:57Z</time>
      </trkpt>
      <trkpt lat="59.250922" lon="18.100593">
        <ele>27</ele>
        <time>2020-01-17T08:28:58Z</time>
      </trkpt>
      <trkpt lat="59.250891" lon="18.100549">
        <ele>27</ele>
        <time>2020-01-17T08:28:59Z</time>
      </trkpt>
      <trkpt lat="59.250863" lon="18.100503">
        <ele>27</ele>
        <time>2020-01-17T08:29:00Z</time>
      </trkpt>
      <trkpt lat="59.250834" lon="18.100453">
        <ele>28</ele>
        <time>2020-01-17T08:29:01Z</time>
      </trkpt>
      <trkpt lat="59.250807" lon="18.100401">
        <ele>28</ele>
        <time>2020-01-17T08:29:02Z</time>
      </trkpt>
      <trkpt lat="59.250782" lon="18.100348">
        <ele>28</ele>
        <time>2020-01-17T08:29:03Z</time>
      </trkpt>
      <trkpt lat="59.250758" lon="18.100292">
        <ele>28</ele>
        <time>2020-01-17T08:29:04Z</time>
      </trkpt>
      <trkpt lat="59.250734" lon="18.100234">
        <ele>28</ele>
        <time>2020-01-17T08:29:05Z</time>
      </trkpt>
      <trkpt lat="59.250711" lon="18.100174">
        <ele>28</ele>
        <time>2020-01-17T08:29:06Z</time>
      </trkpt>
      <trkpt lat="59.250688" lon="18.100117">
        <ele>28</ele>
        <time>2020-01-17T08:29:07Z</time>
      </trkpt>
      <trkpt lat="59.25066" lon="18.100065">
        <ele>28</ele>
        <time>2020-01-17T08:29:08Z</time>
      </trkpt>
      <trkpt lat="59.250632" lon="18.100017">
        <ele>28</ele>
        <time>2020-01-17T08:29:09Z</time>
      </trkpt>
      <trkpt lat="59.250604" lon="18.099968">
        <ele>28</ele>
        <time>2020-01-17T08:29:10Z</time>
      </trkpt>
      <trkpt lat="59.250576" lon="18.099919">
        <ele>28</ele>
        <time>2020-01-17T08:29:11Z</time>
      </trkpt>
      <trkpt lat="59.250545" lon="18.099874">
        <ele>28</ele>
        <time>2020-01-17T08:29:12Z</time>
      </trkpt>
      <trkpt lat="59.250512" lon="18.099831">
        <ele>28</ele>
        <time>2020-01-17T08:29:13Z</time>
      </trkpt>
      <trkpt lat="59.250473" lon="18.099792">
        <ele>28</ele>
        <time>2020-01-17T08:29:14Z</time>
      </trkpt>
      <trkpt lat="59.250432" lon="18.099759">
        <ele>28</ele>
        <time>2020-01-17T08:29:15Z</time>
      </trkpt>
      <trkpt lat="59.250386" lon="18.099727">
        <ele>28</ele>
        <time>2020-01-17T08:29:16Z</time>
      </trkpt>
      <trkpt lat="59.250336" lon="18.099699">
        <ele>28</ele>
        <time>2020-01-17T08:29:17Z</time>
      </trkpt>
      <trkpt lat="59.25028" lon="18.099673">
        <ele>28</ele>
        <time>2020-01-17T08:29:18Z</time>
      </trkpt>
      <trkpt lat="59.250224" lon="18.099648">
        <ele>28</ele>
        <time>2020-01-17T08:29:19Z</time>
      </trkpt>
      <trkpt lat="59.250166" lon="18.099626">
        <ele>27</ele>
        <time>2020-01-17T08:29:20Z</time>
      </trkpt>
      <trkpt lat="59.250111" lon="18.099604">
        <ele>27</ele>
        <time>2020-01-17T08:29:21Z</time>
      </trkpt>
      <trkpt lat="59.250056" lon="18.099582">
        <ele>27</ele>
        <time>2020-01-17T08:29:22Z</time>
      </trkpt>
      <trkpt lat="59.249998" lon="18.099559">
        <ele>27</ele>
        <time>2020-01-17T08:29:23Z</time>
      </trkpt>
      <trkpt lat="59.24994" lon="18.099535">
        <ele>27</ele>
        <time>2020-01-17T08:29:24Z</time>
      </trkpt>
      <trkpt lat="59.249882" lon="18.09951">
        <ele>27</ele>
        <time>2020-01-17T08:29:25Z</time>
      </trkpt>
      <trkpt lat="59.24982" lon="18.099486">
        <ele>27</ele>
        <time>2020-01-17T08:29:26Z</time>
      </trkpt>
      <trkpt lat="59.249756" lon="18.099466">
        <ele>27</ele>
        <time>2020-01-17T08:29:27Z</time>
      </trkpt>
      <trkpt lat="59.24969" lon="18.099451">
        <ele>27</ele>
        <time>2020-01-17T08:29:28Z</time>
      </trkpt>
      <trkpt lat="59.249624" lon="18.099445">
        <ele>27</ele>
        <time>2020-01-17T08:29:29Z</time>
      </trkpt>
      <trkpt lat="59.24956" lon="18.099452">
        <ele>27</ele>
        <time>2020-01-17T08:29:30Z</time>
      </trkpt>
      <trkpt lat="59.2495" lon="18.099467">
        <ele>27</ele>
        <time>2020-01-17T08:29:31Z</time>
      </trkpt>
      <trkpt lat="59.249443" lon="18.099487">
        <ele>27</ele>
        <time>2020-01-17T08:29:32Z</time>
      </trkpt>
      <trkpt lat="59.249388" lon="18.099507">
        <ele>27</ele>
        <time>2020-01-17T08:29:33Z</time>
      </trkpt>
      <trkpt lat="59.249338" lon="18.09953">
        <ele>27</ele>
        <time>2020-01-17T08:29:34Z</time>
      </trkpt>
      <trkpt lat="59.249289" lon="18.099554">
        <ele>27</ele>
        <time>2020-01-17T08:29:35Z</time>
      </trkpt>
      <trkpt lat="59.249238" lon="18.099578">
        <ele>27</ele>
        <time>2020-01-17T08:29:36Z</time>
      </trkpt>
      <trkpt lat="59.24919" lon="18.099599">
        <ele>27</ele>
        <time>2020-01-17T08:29:37Z</time>
      </trkpt>
      <trkpt lat="59.249144" lon="18.099621">
        <ele>27</ele>
        <time>2020-01-17T08:29:38Z</time>
      </trkpt>
      <trkpt lat="59.2491" lon="18.099648">
        <ele>28</ele>
        <time>2020-01-17T08:29:39Z</time>
      </trkpt>
      <trkpt lat="59.249059" lon="18.099677">
        <ele>28</ele>
        <time>2020-01-17T08:29:40Z</time>
      </trkpt>
      <trkpt lat="59.24902" lon="18.099709">
        <ele>28</ele>
        <time>2020-01-17T08:29:41Z</time>
      </trkpt>
      <trkpt lat="59.248982" lon="18.099741">
        <ele>28</ele>
        <time>2020-01-17T08:29:42Z</time>
      </trkpt>
      <trkpt lat="59.248944" lon="18.099775">
        <ele>28</ele>
        <time>2020-01-17T08:29:43Z</time>
      </trkpt>
      <trkpt lat="59.248907" lon="18.099812">
        <ele>29</ele>
        <time>2020-01-17T08:29:44Z</time>
      </trkpt>
      <trkpt lat="59.248872" lon="18.099851">
        <ele>29</ele>
        <time>2020-01-17T08:29:45Z</time>
      </trkpt>
      <trkpt lat="59.248838" lon="18.099891">
        <ele>29</ele>
        <time>2020-01-17T08:29:46Z</time>
      </trkpt>
      <trkpt lat="59.248807" lon="18.099934">
        <ele>29</ele>
        <time>2020-01-17T08:29:47Z</time>
      </trkpt>
      <trkpt lat="59.248778" lon="18.099979">
        <ele>30</ele>
        <time>2020-01-17T08:29:48Z</time>
      </trkpt>
      <trkpt lat="59.248752" lon="18.100028">
        <ele>30</ele>
        <time>2020-01-17T08:29:49Z</time>
      </trkpt>
      <trkpt lat="59.248728" lon="18.100078">
        <ele>30</ele>
        <time>2020-01-17T08:29:50Z</time>
      </trkpt>
      <trkpt lat="59.2487" lon="18.100131">
        <ele>30</ele>
        <time>2020-01-17T08:29:51Z</time>
      </trkpt>
      <trkpt lat="59.24867" lon="18.100186">
        <ele>31</ele>
        <time>2020-01-17T08:29:52Z</time>
      </trkpt>
      <trkpt lat="59.248645" lon="18.10024">
        <ele>31</ele>
        <time>2020-01-17T08:29:53Z</time>
      </trkpt>
      <trkpt lat="59.248616" lon="18.100289">
        <ele>31</ele>
        <time>2020-01-17T08:29:54Z</time>
      </trkpt>
      <trkpt lat="59.248583" lon="18.100335">
        <ele>31</ele>
        <time>2020-01-17T08:29:55Z</time>
      </trkpt>
      <trkpt lat="59.248546" lon="18.100378">
        <ele>31</ele>
        <time>2020-01-17T08:29:56Z</time>
      </trkpt>
      <trkpt lat="59.248511" lon="18.100419">
        <ele>31</ele>
        <time>2020-01-17T08:29:57Z</time>
      </trkpt>
      <trkpt lat="59.248476" lon="18.100458">
        <ele>32</ele>
        <time>2020-01-17T08:29:58Z</time>
      </trkpt>
      <trkpt lat="59.248432" lon="18.100487">
        <ele>32</ele>
        <time>2020-01-17T08:29:59Z</time>
      </trkpt>
      <trkpt lat="59.248388" lon="18.10051">
        <ele>32</ele>
        <time>2020-01-17T08:30:00Z</time>
      </trkpt>
      <trkpt lat="59.248349" lon="18.100532">
        <ele>32</ele>
        <time>2020-01-17T08:30:01Z</time>
      </trkpt>
      <trkpt lat="59.248313" lon="18.100558">
        <ele>32</ele>
        <time>2020-01-17T08:30:02Z</time>
      </trkpt>
      <trkpt lat="59.248282" lon="18.100586">
        <ele>32</ele>
        <time>2020-01-17T08:30:03Z</time>
      </trkpt>
      <trkpt lat="59.248255" lon="18.100616">
        <ele>32</ele>
        <time>2020-01-17T08:30:04Z</time>
      </trkpt>
      <trkpt lat="59.248218" lon="18.100654">
        <ele>32</ele>
        <time>2020-01-17T08:30:05Z</time>
      </trkpt>
      <trkpt lat="59.248181" lon="18.100696">
        <ele>32</ele>
        <time>2020-01-17T08:30:06Z</time>
      </trkpt>
      <trkpt lat="59.248143" lon="18.100738">
        <ele>32</ele>
        <time>2020-01-17T08:30:07Z</time>
      </trkpt>
      <trkpt lat="59.248108" lon="18.100792">
        <ele>33</ele>
        <time>2020-01-17T08:30:08Z</time>
      </trkpt>
      <trkpt lat="59.24808" lon="18.10085">
        <ele>33</ele>
        <time>2020-01-17T08:30:10Z</time>
      </trkpt>
      <trkpt lat="59.248049" lon="18.100912">
        <ele>33</ele>
        <time>2020-01-17T08:30:10Z</time>
      </trkpt>
      <trkpt lat="59.248016" lon="18.100976">
        <ele>33</ele>
        <time>2020-01-17T08:30:11Z</time>
      </trkpt>
      <trkpt lat="59.247991" lon="18.101042">
        <ele>33</ele>
        <time>2020-01-17T08:30:12Z</time>
      </trkpt>
      <trkpt lat="59.247961" lon="18.101108">
        <ele>34</ele>
        <time>2020-01-17T08:30:13Z</time>
      </trkpt>
      <trkpt lat="59.247932" lon="18.101174">
        <ele>34</ele>
        <time>2020-01-17T08:30:14Z</time>
      </trkpt>
      <trkpt lat="59.247903" lon="18.10124">
        <ele>34</ele>
        <time>2020-01-17T08:30:15Z</time>
      </trkpt>
      <trkpt lat="59.247877" lon="18.101308">
        <ele>34</ele>
        <time>2020-01-17T08:30:16Z</time>
      </trkpt>
      <trkpt lat="59.247849" lon="18.101374">
        <ele>34</ele>
        <time>2020-01-17T08:30:17Z</time>
      </trkpt>
      <trkpt lat="59.247822" lon="18.101442">
        <ele>34</ele>
        <time>2020-01-17T08:30:18Z</time>
      </trkpt>
      <trkpt lat="59.247796" lon="18.10151">
        <ele>34</ele>
        <time>2020-01-17T08:30:19Z</time>
      </trkpt>
      <trkpt lat="59.247774" lon="18.10158">
        <ele>34</ele>
        <time>2020-01-17T08:30:20Z</time>
      </trkpt>
      <trkpt lat="59.247755" lon="18.101652">
        <ele>34</ele>
        <time>2020-01-17T08:30:21Z</time>
      </trkpt>
      <trkpt lat="59.247738" lon="18.101728">
        <ele>34</ele>
        <time>2020-01-17T08:30:22Z</time>
      </trkpt>
      <trkpt lat="59.247724" lon="18.101806">
        <ele>34</ele>
        <time>2020-01-17T08:30:23Z</time>
      </trkpt>
      <trkpt lat="59.247709" lon="18.101886">
        <ele>34</ele>
        <time>2020-01-17T08:30:24Z</time>
      </trkpt>
      <trkpt lat="59.247692" lon="18.101968">
        <ele>34</ele>
        <time>2020-01-17T08:30:25Z</time>
      </trkpt>
      <trkpt lat="59.247676" lon="18.10205">
        <ele>34</ele>
        <time>2020-01-17T08:30:26Z</time>
      </trkpt>
      <trkpt lat="59.247662" lon="18.102134">
        <ele>34</ele>
        <time>2020-01-17T08:30:27Z</time>
      </trkpt>
      <trkpt lat="59.247649" lon="18.102216">
        <ele>34</ele>
        <time>2020-01-17T08:30:28Z</time>
      </trkpt>
      <trkpt lat="59.247631" lon="18.102296">
        <ele>33</ele>
        <time>2020-01-17T08:30:29Z</time>
      </trkpt>
      <trkpt lat="59.247614" lon="18.102376">
        <ele>33</ele>
        <time>2020-01-17T08:30:30Z</time>
      </trkpt>
      <trkpt lat="59.247597" lon="18.102458">
        <ele>33</ele>
        <time>2020-01-17T08:30:31Z</time>
      </trkpt>
      <trkpt lat="59.24758" lon="18.10254">
        <ele>34</ele>
        <time>2020-01-17T08:30:32Z</time>
      </trkpt>
      <trkpt lat="59.24756" lon="18.102622">
        <ele>34</ele>
        <time>2020-01-17T08:30:33Z</time>
      </trkpt>
      <trkpt lat="59.247539" lon="18.102704">
        <ele>33</ele>
        <time>2020-01-17T08:30:34Z</time>
      </trkpt>
      <trkpt lat="59.247517" lon="18.102788">
        <ele>33</ele>
        <time>2020-01-17T08:30:35Z</time>
      </trkpt>
      <trkpt lat="59.247493" lon="18.102874">
        <ele>33</ele>
        <time>2020-01-17T08:30:36Z</time>
      </trkpt>
      <trkpt lat="59.247464" lon="18.102958">
        <ele>33</ele>
        <time>2020-01-17T08:30:37Z</time>
      </trkpt>
      <trkpt lat="59.24743" lon="18.103036">
        <ele>33</ele>
        <time>2020-01-17T08:30:38Z</time>
      </trkpt>
      <trkpt lat="59.247395" lon="18.103112">
        <ele>33</ele>
        <time>2020-01-17T08:30:39Z</time>
      </trkpt>
      <trkpt lat="59.247361" lon="18.103184">
        <ele>33</ele>
        <time>2020-01-17T08:30:40Z</time>
      </trkpt>
      <trkpt lat="59.247322" lon="18.103258">
        <ele>33</ele>
        <time>2020-01-17T08:30:41Z</time>
      </trkpt>
      <trkpt lat="59.247284" lon="18.103326">
        <ele>33</ele>
        <time>2020-01-17T08:30:42Z</time>
      </trkpt>
      <trkpt lat="59.247249" lon="18.103402">
        <ele>34</ele>
        <time>2020-01-17T08:30:43Z</time>
      </trkpt>
      <trkpt lat="59.247211" lon="18.10349">
        <ele>34</ele>
        <time>2020-01-17T08:30:44Z</time>
      </trkpt>
      <trkpt lat="59.247161" lon="18.103592">
        <ele>33</ele>
        <time>2020-01-17T08:30:45Z</time>
      </trkpt>
      <trkpt lat="59.247112" lon="18.10371">
        <ele>33</ele>
        <time>2020-01-17T08:30:46Z</time>
      </trkpt>
      <trkpt lat="59.247066" lon="18.103838">
        <ele>32</ele>
        <time>2020-01-17T08:30:47Z</time>
      </trkpt>
      <trkpt lat="59.247028" lon="18.103974">
        <ele>32</ele>
        <time>2020-01-17T08:30:48Z</time>
      </trkpt>
      <trkpt lat="59.247003" lon="18.104116">
        <ele>32</ele>
        <time>2020-01-17T08:30:49Z</time>
      </trkpt>
      <trkpt lat="59.246992" lon="18.104244">
        <ele>32</ele>
        <time>2020-01-17T08:30:50Z</time>
      </trkpt>
      <trkpt lat="59.246987" lon="18.104356">
        <ele>32</ele>
        <time>2020-01-17T08:30:51Z</time>
      </trkpt>
      <trkpt lat="59.246985" lon="18.104464">
        <ele>32</ele>
        <time>2020-01-17T08:30:52Z</time>
      </trkpt>
      <trkpt lat="59.24698" lon="18.104576">
        <ele>32</ele>
        <time>2020-01-17T08:30:53Z</time>
      </trkpt>
      <trkpt lat="59.246974" lon="18.104708">
        <ele>31</ele>
        <time>2020-01-17T08:30:54Z</time>
      </trkpt>
      <trkpt lat="59.246946" lon="18.104812">
        <ele>31</ele>
        <time>2020-01-17T08:30:55Z</time>
      </trkpt>
      <trkpt lat="59.246919" lon="18.10489">
        <ele>31</ele>
        <time>2020-01-17T08:30:56Z</time>
      </trkpt>
      <trkpt lat="59.246881" lon="18.104952">
        <ele>30</ele>
        <time>2020-01-17T08:30:57Z</time>
      </trkpt>
      <trkpt lat="59.246843" lon="18.105008">
        <ele>30</ele>
        <time>2020-01-17T08:30:58Z</time>
      </trkpt>
      <trkpt lat="59.246805" lon="18.10506">
        <ele>30</ele>
        <time>2020-01-17T08:30:59Z</time>
      </trkpt>
      <trkpt lat="59.246768" lon="18.105108">
        <ele>29</ele>
        <time>2020-01-17T08:31:00Z</time>
      </trkpt>
      <trkpt lat="59.246731" lon="18.105152">
        <ele>29</ele>
        <time>2020-01-17T08:31:01Z</time>
      </trkpt>
      <trkpt lat="59.246701" lon="18.105192">
        <ele>29</ele>
        <time>2020-01-17T08:31:02Z</time>
      </trkpt>
      <trkpt lat="59.246672" lon="18.10523">
        <ele>29</ele>
        <time>2020-01-17T08:31:03Z</time>
      </trkpt>
      <trkpt lat="59.246643" lon="18.105266">
        <ele>29</ele>
        <time>2020-01-17T08:31:04Z</time>
      </trkpt>
      <trkpt lat="59.246614" lon="18.105302">
        <ele>29</ele>
        <time>2020-01-17T08:31:05Z</time>
      </trkpt>
      <trkpt lat="59.246581" lon="18.105332">
        <ele>30</ele>
        <time>2020-01-17T08:31:06Z</time>
      </trkpt>
      <trkpt lat="59.246545" lon="18.10535">
        <ele>30</ele>
        <time>2020-01-17T08:31:07Z</time>
      </trkpt>
      <trkpt lat="59.246508" lon="18.10536">
        <ele>29</ele>
        <time>2020-01-17T08:31:08Z</time>
      </trkpt>
      <trkpt lat="59.246467" lon="18.105366">
        <ele>29</ele>
        <time>2020-01-17T08:31:09Z</time>
      </trkpt>
      <trkpt lat="59.246424" lon="18.10537">
        <ele>29</ele>
        <time>2020-01-17T08:31:10Z</time>
      </trkpt>
      <trkpt lat="59.246383" lon="18.105374">
        <ele>29</ele>
        <time>2020-01-17T08:31:11Z</time>
      </trkpt>
      <trkpt lat="59.246343" lon="18.105382">
        <ele>29</ele>
        <time>2020-01-17T08:31:12Z</time>
      </trkpt>
      <trkpt lat="59.246301" lon="18.105396">
        <ele>29</ele>
        <time>2020-01-17T08:31:13Z</time>
      </trkpt>
      <trkpt lat="59.246262" lon="18.105412">
        <ele>29</ele>
        <time>2020-01-17T08:31:14Z</time>
      </trkpt>
      <trkpt lat="59.246225" lon="18.105436">
        <ele>29</ele>
        <time>2020-01-17T08:31:15Z</time>
      </trkpt>
      <trkpt lat="59.246193" lon="18.105468">
        <ele>29</ele>
        <time>2020-01-17T08:31:16Z</time>
      </trkpt>
      <trkpt lat="59.246166" lon="18.105506">
        <ele>29</ele>
        <time>2020-01-17T08:31:17Z</time>
      </trkpt>
      <trkpt lat="59.24614" lon="18.105542">
        <ele>29</ele>
        <time>2020-01-17T08:31:18Z</time>
      </trkpt>
      <trkpt lat="59.246112" lon="18.10558">
        <ele>30</ele>
        <time>2020-01-17T08:31:19Z</time>
      </trkpt>
      <trkpt lat="59.246086" lon="18.10562">
        <ele>30</ele>
        <time>2020-01-17T08:31:20Z</time>
      </trkpt>
      <trkpt lat="59.246058" lon="18.10566">
        <ele>30</ele>
        <time>2020-01-17T08:31:21Z</time>
      </trkpt>
      <trkpt lat="59.246035" lon="18.1057">
        <ele>31</ele>
        <time>2020-01-17T08:31:22Z</time>
      </trkpt>
      <trkpt lat="59.246007" lon="18.105742">
        <ele>31</ele>
        <time>2020-01-17T08:31:23Z</time>
      </trkpt>
      <trkpt lat="59.245978" lon="18.105788">
        <ele>31</ele>
        <time>2020-01-17T08:31:24Z</time>
      </trkpt>
      <trkpt lat="59.245948" lon="18.105834">
        <ele>31</ele>
        <time>2020-01-17T08:31:25Z</time>
      </trkpt>
      <trkpt lat="59.245918" lon="18.105878">
        <ele>31</ele>
        <time>2020-01-17T08:31:26Z</time>
      </trkpt>
      <trkpt lat="59.245887" lon="18.105918">
        <ele>31</ele>
        <time>2020-01-17T08:31:27Z</time>
      </trkpt>
      <trkpt lat="59.245859" lon="18.105958">
        <ele>31</ele>
        <time>2020-01-17T08:31:28Z</time>
      </trkpt>
      <trkpt lat="59.245832" lon="18.105996">
        <ele>31</ele>
        <time>2020-01-17T08:31:29Z</time>
      </trkpt>
      <trkpt lat="59.245807" lon="18.106032">
        <ele>31</ele>
        <time>2020-01-17T08:31:30Z</time>
      </trkpt>
      <trkpt lat="59.245784" lon="18.10607">
        <ele>31</ele>
        <time>2020-01-17T08:31:31Z</time>
      </trkpt>
      <trkpt lat="59.245763" lon="18.10611">
        <ele>31</ele>
        <time>2020-01-17T08:31:32Z</time>
      </trkpt>
      <trkpt lat="59.24574" lon="18.106148">
        <ele>32</ele>
        <time>2020-01-17T08:31:33Z</time>
      </trkpt>
      <trkpt lat="59.245714" lon="18.106188">
        <ele>32</ele>
        <time>2020-01-17T08:31:34Z</time>
      </trkpt>
      <trkpt lat="59.245686" lon="18.106224">
        <ele>33</ele>
        <time>2020-01-17T08:31:35Z</time>
      </trkpt>
      <trkpt lat="59.245658" lon="18.10626">
        <ele>33</ele>
        <time>2020-01-17T08:31:36Z</time>
      </trkpt>
      <trkpt lat="59.245628" lon="18.106304">
        <ele>33</ele>
        <time>2020-01-17T08:31:37Z</time>
      </trkpt>
      <trkpt lat="59.245597" lon="18.106352">
        <ele>33</ele>
        <time>2020-01-17T08:31:38Z</time>
      </trkpt>
      <trkpt lat="59.245568" lon="18.1064">
        <ele>33</ele>
        <time>2020-01-17T08:31:39Z</time>
      </trkpt>
      <trkpt lat="59.24554" lon="18.106448">
        <ele>33</ele>
        <time>2020-01-17T08:31:40Z</time>
      </trkpt>
      <trkpt lat="59.245517" lon="18.106496">
        <ele>33</ele>
        <time>2020-01-17T08:31:41Z</time>
      </trkpt>
      <trkpt lat="59.245499" lon="18.106542">
        <ele>33</ele>
        <time>2020-01-17T08:31:42Z</time>
      </trkpt>
      <trkpt lat="59.245477" lon="18.106586">
        <ele>34</ele>
        <time>2020-01-17T08:31:43Z</time>
      </trkpt>
      <trkpt lat="59.245448" lon="18.106634">
        <ele>34</ele>
        <time>2020-01-17T08:31:44Z</time>
      </trkpt>
      <trkpt lat="59.245419" lon="18.106682">
        <ele>33</ele>
        <time>2020-01-17T08:31:45Z</time>
      </trkpt>
      <trkpt lat="59.24539" lon="18.10673">
        <ele>33</ele>
        <time>2020-01-17T08:31:46Z</time>
      </trkpt>
      <trkpt lat="59.245354" lon="18.106778">
        <ele>33</ele>
        <time>2020-01-17T08:31:47Z</time>
      </trkpt>
      <trkpt lat="59.245321" lon="18.10683">
        <ele>33</ele>
        <time>2020-01-17T08:31:48Z</time>
      </trkpt>
      <trkpt lat="59.24529" lon="18.106878">
        <ele>33</ele>
        <time>2020-01-17T08:31:49Z</time>
      </trkpt>
      <trkpt lat="59.245257" lon="18.106932">
        <ele>33</ele>
        <time>2020-01-17T08:31:50Z</time>
      </trkpt>
      <trkpt lat="59.245227" lon="18.106982">
        <ele>33</ele>
        <time>2020-01-17T08:31:51Z</time>
      </trkpt>
      <trkpt lat="59.245198" lon="18.107032">
        <ele>33</ele>
        <time>2020-01-17T08:31:52Z</time>
      </trkpt>
      <trkpt lat="59.245171" lon="18.10708">
        <ele>34</ele>
        <time>2020-01-17T08:31:53Z</time>
      </trkpt>
      <trkpt lat="59.245146" lon="18.107128">
        <ele>34</ele>
        <time>2020-01-17T08:31:54Z</time>
      </trkpt>
      <trkpt lat="59.24512" lon="18.107174">
        <ele>34</ele>
        <time>2020-01-17T08:31:55Z</time>
      </trkpt>
      <trkpt lat="59.245091" lon="18.107218">
        <ele>34</ele>
        <time>2020-01-17T08:31:56Z</time>
      </trkpt>
      <trkpt lat="59.245061" lon="18.10726">
        <ele>34</ele>
        <time>2020-01-17T08:31:57Z</time>
      </trkpt>
      <trkpt lat="59.245035" lon="18.107302">
        <ele>34</ele>
        <time>2020-01-17T08:31:58Z</time>
      </trkpt>
      <trkpt lat="59.245008" lon="18.107344">
        <ele>34</ele>
        <time>2020-01-17T08:31:59Z</time>
      </trkpt>
      <trkpt lat="59.24498" lon="18.107391">
        <ele>34</ele>
        <time>2020-01-17T08:32:00Z</time>
      </trkpt>
      <trkpt lat="59.244951" lon="18.107436">
        <ele>34</ele>
        <time>2020-01-17T08:32:01Z</time>
      </trkpt>
      <trkpt lat="59.244923" lon="18.107486">
        <ele>34</ele>
        <time>2020-01-17T08:32:02Z</time>
      </trkpt>
      <trkpt lat="59.244896" lon="18.107538">
        <ele>35</ele>
        <time>2020-01-17T08:32:03Z</time>
      </trkpt>
      <trkpt lat="59.244868" lon="18.107591">
        <ele>35</ele>
        <time>2020-01-17T08:32:04Z</time>
      </trkpt>
      <trkpt lat="59.24484" lon="18.107643">
        <ele>35</ele>
        <time>2020-01-17T08:32:05Z</time>
      </trkpt>
      <trkpt lat="59.244809" lon="18.107692">
        <ele>35</ele>
        <time>2020-01-17T08:32:06Z</time>
      </trkpt>
      <trkpt lat="59.244777" lon="18.107741">
        <ele>35</ele>
        <time>2020-01-17T08:32:07Z</time>
      </trkpt>
      <trkpt lat="59.24475" lon="18.107795">
        <ele>35</ele>
        <time>2020-01-17T08:32:08Z</time>
      </trkpt>
      <trkpt lat="59.244725" lon="18.10785">
        <ele>35</ele>
        <time>2020-01-17T08:32:09Z</time>
      </trkpt>
      <trkpt lat="59.244698" lon="18.107904">
        <ele>35</ele>
        <time>2020-01-17T08:32:10Z</time>
      </trkpt>
      <trkpt lat="59.24467" lon="18.107959">
        <ele>35</ele>
        <time>2020-01-17T08:32:11Z</time>
      </trkpt>
      <trkpt lat="59.244641" lon="18.108015">
        <ele>35</ele>
        <time>2020-01-17T08:32:12Z</time>
      </trkpt>
      <trkpt lat="59.244611" lon="18.108072">
        <ele>35</ele>
        <time>2020-01-17T08:32:13Z</time>
      </trkpt>
      <trkpt lat="59.244582" lon="18.10813">
        <ele>35</ele>
        <time>2020-01-17T08:32:14Z</time>
      </trkpt>
      <trkpt lat="59.244552" lon="18.10819">
        <ele>35</ele>
        <time>2020-01-17T08:32:15Z</time>
      </trkpt>
      <trkpt lat="59.244524" lon="18.108251">
        <ele>35</ele>
        <time>2020-01-17T08:32:16Z</time>
      </trkpt>
      <trkpt lat="59.244493" lon="18.108312">
        <ele>35</ele>
        <time>2020-01-17T08:32:17Z</time>
      </trkpt>
      <trkpt lat="59.244462" lon="18.108372">
        <ele>35</ele>
        <time>2020-01-17T08:32:18Z</time>
      </trkpt>
      <trkpt lat="59.244427" lon="18.108435">
        <ele>35</ele>
        <time>2020-01-17T08:32:19Z</time>
      </trkpt>
      <trkpt lat="59.244394" lon="18.108498">
        <ele>35</ele>
        <time>2020-01-17T08:32:20Z</time>
      </trkpt>
      <trkpt lat="59.244355" lon="18.108563">
        <ele>35</ele>
        <time>2020-01-17T08:32:21Z</time>
      </trkpt>
      <trkpt lat="59.244322" lon="18.108628">
        <ele>36</ele>
        <time>2020-01-17T08:32:22Z</time>
      </trkpt>
      <trkpt lat="59.244286" lon="18.108694">
        <ele>36</ele>
        <time>2020-01-17T08:32:23Z</time>
      </trkpt>
      <trkpt lat="59.244253" lon="18.10876">
        <ele>36</ele>
        <time>2020-01-17T08:32:24Z</time>
      </trkpt>
      <trkpt lat="59.244215" lon="18.108829">
        <ele>35</ele>
        <time>2020-01-17T08:32:25Z</time>
      </trkpt>
      <trkpt lat="59.244177" lon="18.108902">
        <ele>35</ele>
        <time>2020-01-17T08:32:26Z</time>
      </trkpt>
      <trkpt lat="59.244141" lon="18.10898">
        <ele>35</ele>
        <time>2020-01-17T08:32:27Z</time>
      </trkpt>
      <trkpt lat="59.244106" lon="18.109062">
        <ele>35</ele>
        <time>2020-01-17T08:32:28Z</time>
      </trkpt>
      <trkpt lat="59.244073" lon="18.109149">
        <ele>35</ele>
        <time>2020-01-17T08:32:29Z</time>
      </trkpt>
      <trkpt lat="59.244041" lon="18.109238">
        <ele>34</ele>
        <time>2020-01-17T08:32:30Z</time>
      </trkpt>
      <trkpt lat="59.244015" lon="18.109331">
        <ele>34</ele>
        <time>2020-01-17T08:32:31Z</time>
      </trkpt>
      <trkpt lat="59.24399" lon="18.109427">
        <ele>34</ele>
        <time>2020-01-17T08:32:32Z</time>
      </trkpt>
      <trkpt lat="59.243971" lon="18.109526">
        <ele>34</ele>
        <time>2020-01-17T08:32:33Z</time>
      </trkpt>
      <trkpt lat="59.243956" lon="18.109629">
        <ele>34</ele>
        <time>2020-01-17T08:32:34Z</time>
      </trkpt>
      <trkpt lat="59.243943" lon="18.109732">
        <ele>34</ele>
        <time>2020-01-17T08:32:35Z</time>
      </trkpt>
      <trkpt lat="59.24393" lon="18.109838">
        <ele>34</ele>
        <time>2020-01-17T08:32:36Z</time>
      </trkpt>
      <trkpt lat="59.243922" lon="18.109946">
        <ele>34</ele>
        <time>2020-01-17T08:32:37Z</time>
      </trkpt>
      <trkpt lat="59.243914" lon="18.110054">
        <ele>34</ele>
        <time>2020-01-17T08:32:38Z</time>
      </trkpt>
      <trkpt lat="59.243909" lon="18.110163">
        <ele>34</ele>
        <time>2020-01-17T08:32:39Z</time>
      </trkpt>
      <trkpt lat="59.243907" lon="18.110275">
        <ele>34</ele>
        <time>2020-01-17T08:32:40Z</time>
      </trkpt>
      <trkpt lat="59.243905" lon="18.110392">
        <ele>34</ele>
        <time>2020-01-17T08:32:41Z</time>
      </trkpt>
      <trkpt lat="59.243905" lon="18.110511">
        <ele>34</ele>
        <time>2020-01-17T08:32:42Z</time>
      </trkpt>
      <trkpt lat="59.243905" lon="18.110632">
        <ele>34</ele>
        <time>2020-01-17T08:32:43Z</time>
      </trkpt>
      <trkpt lat="59.243906" lon="18.110758">
        <ele>34</ele>
        <time>2020-01-17T08:32:44Z</time>
      </trkpt>
      <trkpt lat="59.243906" lon="18.110884">
        <ele>34</ele>
        <time>2020-01-17T08:32:45Z</time>
      </trkpt>
      <trkpt lat="59.243905" lon="18.111015">
        <ele>34</ele>
        <time>2020-01-17T08:32:46Z</time>
      </trkpt>
      <trkpt lat="59.243905" lon="18.111148">
        <ele>33</ele>
        <time>2020-01-17T08:32:47Z</time>
      </trkpt>
      <trkpt lat="59.243905" lon="18.111277">
        <ele>33</ele>
        <time>2020-01-17T08:32:48Z</time>
      </trkpt>
      <trkpt lat="59.243912" lon="18.111411">
        <ele>32</ele>
        <time>2020-01-17T08:32:49Z</time>
      </trkpt>
      <trkpt lat="59.243917" lon="18.111548">
        <ele>31</ele>
        <time>2020-01-17T08:32:50Z</time>
      </trkpt>
      <trkpt lat="59.243917" lon="18.111685">
        <ele>31</ele>
        <time>2020-01-17T08:32:51Z</time>
      </trkpt>
      <trkpt lat="59.243918" lon="18.111821">
        <ele>30</ele>
        <time>2020-01-17T08:32:52Z</time>
      </trkpt>
      <trkpt lat="59.243918" lon="18.111959">
        <ele>30</ele>
        <time>2020-01-17T08:32:53Z</time>
      </trkpt>
      <trkpt lat="59.243916" lon="18.112099">
        <ele>30</ele>
        <time>2020-01-17T08:32:54Z</time>
      </trkpt>
      <trkpt lat="59.243913" lon="18.112237">
        <ele>30</ele>
        <time>2020-01-17T08:32:55Z</time>
      </trkpt>
      <trkpt lat="59.24391" lon="18.112375">
        <ele>30</ele>
        <time>2020-01-17T08:32:56Z</time>
      </trkpt>
      <trkpt lat="59.243906" lon="18.112511">
        <ele>30</ele>
        <time>2020-01-17T08:32:57Z</time>
      </trkpt>
      <trkpt lat="59.243903" lon="18.112644">
        <ele>30</ele>
        <time>2020-01-17T08:32:58Z</time>
      </trkpt>
      <trkpt lat="59.243898" lon="18.112776">
        <ele>30</ele>
        <time>2020-01-17T08:32:59Z</time>
      </trkpt>
      <trkpt lat="59.243892" lon="18.112906">
        <ele>30</ele>
        <time>2020-01-17T08:33:01Z</time>
      </trkpt>
      <trkpt lat="59.243884" lon="18.113034">
        <ele>30</ele>
        <time>2020-01-17T08:33:01Z</time>
      </trkpt>
      <trkpt lat="59.243873" lon="18.113158">
        <ele>29</ele>
        <time>2020-01-17T08:33:02Z</time>
      </trkpt>
      <trkpt lat="59.243862" lon="18.113279">
        <ele>29</ele>
        <time>2020-01-17T08:33:03Z</time>
      </trkpt>
      <trkpt lat="59.243851" lon="18.113398">
        <ele>29</ele>
        <time>2020-01-17T08:33:04Z</time>
      </trkpt>
      <trkpt lat="59.24384" lon="18.113514">
        <ele>30</ele>
        <time>2020-01-17T08:33:05Z</time>
      </trkpt>
      <trkpt lat="59.243827" lon="18.11363">
        <ele>30</ele>
        <time>2020-01-17T08:33:06Z</time>
      </trkpt>
      <trkpt lat="59.243812" lon="18.113745">
        <ele>30</ele>
        <time>2020-01-17T08:33:07Z</time>
      </trkpt>
      <trkpt lat="59.243797" lon="18.113857">
        <ele>30</ele>
        <time>2020-01-17T08:33:08Z</time>
      </trkpt>
      <trkpt lat="59.243781" lon="18.113968">
        <ele>30</ele>
        <time>2020-01-17T08:33:09Z</time>
      </trkpt>
      <trkpt lat="59.243765" lon="18.114078">
        <ele>30</ele>
        <time>2020-01-17T08:33:10Z</time>
      </trkpt>
      <trkpt lat="59.243748" lon="18.114188">
        <ele>30</ele>
        <time>2020-01-17T08:33:11Z</time>
      </trkpt>
      <trkpt lat="59.243733" lon="18.114301">
        <ele>30</ele>
        <time>2020-01-17T08:33:12Z</time>
      </trkpt>
      <trkpt lat="59.243718" lon="18.114412">
        <ele>30</ele>
        <time>2020-01-17T08:33:13Z</time>
      </trkpt>
      <trkpt lat="59.243702" lon="18.114521">
        <ele>30</ele>
        <time>2020-01-17T08:33:14Z</time>
      </trkpt>
      <trkpt lat="59.243685" lon="18.11463">
        <ele>30</ele>
        <time>2020-01-17T08:33:15Z</time>
      </trkpt>
      <trkpt lat="59.243665" lon="18.114736">
        <ele>30</ele>
        <time>2020-01-17T08:33:16Z</time>
      </trkpt>
      <trkpt lat="59.243645" lon="18.114843">
        <ele>30</ele>
        <time>2020-01-17T08:33:17Z</time>
      </trkpt>
      <trkpt lat="59.243627" lon="18.11495">
        <ele>30</ele>
        <time>2020-01-17T08:33:18Z</time>
      </trkpt>
      <trkpt lat="59.24361" lon="18.115058">
        <ele>30</ele>
        <time>2020-01-17T08:33:19Z</time>
      </trkpt>
      <trkpt lat="59.243597" lon="18.11517">
        <ele>30</ele>
        <time>2020-01-17T08:33:20Z</time>
      </trkpt>
      <trkpt lat="59.243588" lon="18.115284">
        <ele>30</ele>
        <time>2020-01-17T08:33:21Z</time>
      </trkpt>
      <trkpt lat="59.243577" lon="18.115401">
        <ele>30</ele>
        <time>2020-01-17T08:33:22Z</time>
      </trkpt>
      <trkpt lat="59.243563" lon="18.115519">
        <ele>30</ele>
        <time>2020-01-17T08:33:23Z</time>
      </trkpt>
      <trkpt lat="59.243545" lon="18.115637">
        <ele>29</ele>
        <time>2020-01-17T08:33:24Z</time>
      </trkpt>
      <trkpt lat="59.24352" lon="18.115751">
        <ele>29</ele>
        <time>2020-01-17T08:33:25Z</time>
      </trkpt>
      <trkpt lat="59.243491" lon="18.115861">
        <ele>29</ele>
        <time>2020-01-17T08:33:26Z</time>
      </trkpt>
      <trkpt lat="59.243463" lon="18.115968">
        <ele>29</ele>
        <time>2020-01-17T08:33:27Z</time>
      </trkpt>
      <trkpt lat="59.243434" lon="18.116073">
        <ele>28</ele>
        <time>2020-01-17T08:33:28Z</time>
      </trkpt>
      <trkpt lat="59.243403" lon="18.116179">
        <ele>28</ele>
        <time>2020-01-17T08:33:29Z</time>
      </trkpt>
      <trkpt lat="59.243369" lon="18.116281">
        <ele>28</ele>
        <time>2020-01-17T08:33:30Z</time>
      </trkpt>
      <trkpt lat="59.243336" lon="18.116383">
        <ele>28</ele>
        <time>2020-01-17T08:33:31Z</time>
      </trkpt>
      <trkpt lat="59.243304" lon="18.116486">
        <ele>27</ele>
        <time>2020-01-17T08:33:32Z</time>
      </trkpt>
      <trkpt lat="59.243271" lon="18.116587">
        <ele>27</ele>
        <time>2020-01-17T08:33:33Z</time>
      </trkpt>
      <trkpt lat="59.243238" lon="18.116686">
        <ele>27</ele>
        <time>2020-01-17T08:33:34Z</time>
      </trkpt>
      <trkpt lat="59.243207" lon="18.116784">
        <ele>27</ele>
        <time>2020-01-17T08:33:35Z</time>
      </trkpt>
      <trkpt lat="59.243176" lon="18.116883">
        <ele>26</ele>
        <time>2020-01-17T08:33:36Z</time>
      </trkpt>
      <trkpt lat="59.243145" lon="18.116981">
        <ele>26</ele>
        <time>2020-01-17T08:33:37Z</time>
      </trkpt>
      <trkpt lat="59.243112" lon="18.117079">
        <ele>26</ele>
        <time>2020-01-17T08:33:38Z</time>
      </trkpt>
      <trkpt lat="59.243079" lon="18.117176">
        <ele>26</ele>
        <time>2020-01-17T08:33:39Z</time>
      </trkpt>
      <trkpt lat="59.243045" lon="18.11727">
        <ele>26</ele>
        <time>2020-01-17T08:33:40Z</time>
      </trkpt>
      <trkpt lat="59.243012" lon="18.117365">
        <ele>26</ele>
        <time>2020-01-17T08:33:41Z</time>
      </trkpt>
      <trkpt lat="59.242982" lon="18.117463">
        <ele>26</ele>
        <time>2020-01-17T08:33:42Z</time>
      </trkpt>
      <trkpt lat="59.242952" lon="18.117562">
        <ele>26</ele>
        <time>2020-01-17T08:33:43Z</time>
      </trkpt>
      <trkpt lat="59.24292" lon="18.11766">
        <ele>26</ele>
        <time>2020-01-17T08:33:44Z</time>
      </trkpt>
      <trkpt lat="59.242887" lon="18.117757">
        <ele>26</ele>
        <time>2020-01-17T08:33:45Z</time>
      </trkpt>
      <trkpt lat="59.242856" lon="18.117854">
        <ele>26</ele>
        <time>2020-01-17T08:33:46Z</time>
      </trkpt>
      <trkpt lat="59.242827" lon="18.117952">
        <ele>26</ele>
        <time>2020-01-17T08:33:47Z</time>
      </trkpt>
      <trkpt lat="59.242797" lon="18.118048">
        <ele>26</ele>
        <time>2020-01-17T08:33:48Z</time>
      </trkpt>
      <trkpt lat="59.242768" lon="18.118143">
        <ele>26</ele>
        <time>2020-01-17T08:33:49Z</time>
      </trkpt>
      <trkpt lat="59.242739" lon="18.118239">
        <ele>26</ele>
        <time>2020-01-17T08:33:50Z</time>
      </trkpt>
      <trkpt lat="59.242714" lon="18.118333">
        <ele>26</ele>
        <time>2020-01-17T08:33:51Z</time>
      </trkpt>
      <trkpt lat="59.242685" lon="18.118424">
        <ele>26</ele>
        <time>2020-01-17T08:33:52Z</time>
      </trkpt>
      <trkpt lat="59.242654" lon="18.118515">
        <ele>26</ele>
        <time>2020-01-17T08:33:53Z</time>
      </trkpt>
      <trkpt lat="59.242625" lon="18.118607">
        <ele>26</ele>
        <time>2020-01-17T08:33:54Z</time>
      </trkpt>
      <trkpt lat="59.242595" lon="18.118696">
        <ele>26</ele>
        <time>2020-01-17T08:33:55Z</time>
      </trkpt>
      <trkpt lat="59.242566" lon="18.118779">
        <ele>26</ele>
        <time>2020-01-17T08:33:56Z</time>
      </trkpt>
      <trkpt lat="59.242539" lon="18.118855">
        <ele>27</ele>
        <time>2020-01-17T08:33:57Z</time>
      </trkpt>
      <trkpt lat="59.242512" lon="18.118924">
        <ele>27</ele>
        <time>2020-01-17T08:33:58Z</time>
      </trkpt>
      <trkpt lat="59.242483" lon="18.118985">
        <ele>27</ele>
        <time>2020-01-17T08:33:59Z</time>
      </trkpt>
      <trkpt lat="59.242448" lon="18.119041">
        <ele>28</ele>
        <time>2020-01-17T08:34:00Z</time>
      </trkpt>
      <trkpt lat="59.242409" lon="18.119086">
        <ele>28</ele>
        <time>2020-01-17T08:34:01Z</time>
      </trkpt>
      <trkpt lat="59.242368" lon="18.119129">
        <ele>28</ele>
        <time>2020-01-17T08:34:02Z</time>
      </trkpt>
      <trkpt lat="59.242319" lon="18.119168">
        <ele>28</ele>
        <time>2020-01-17T08:34:03Z</time>
      </trkpt>
      <trkpt lat="59.24227" lon="18.119205">
        <ele>28</ele>
        <time>2020-01-17T08:34:04Z</time>
      </trkpt>
      <trkpt lat="59.242216" lon="18.119242">
        <ele>28</ele>
        <time>2020-01-17T08:34:05Z</time>
      </trkpt>
      <trkpt lat="59.242163" lon="18.119277">
        <ele>28</ele>
        <time>2020-01-17T08:34:06Z</time>
      </trkpt>
      <trkpt lat="59.242112" lon="18.119307">
        <ele>29</ele>
        <time>2020-01-17T08:34:07Z</time>
      </trkpt>
      <trkpt lat="59.24206" lon="18.11933">
        <ele>28</ele>
        <time>2020-01-17T08:34:08Z</time>
      </trkpt>
      <trkpt lat="59.242007" lon="18.119348">
        <ele>28</ele>
        <time>2020-01-17T08:34:09Z</time>
      </trkpt>
      <trkpt lat="59.241958" lon="18.119368">
        <ele>28</ele>
        <time>2020-01-17T08:34:10Z</time>
      </trkpt>
      <trkpt lat="59.241912" lon="18.119391">
        <ele>28</ele>
        <time>2020-01-17T08:34:11Z</time>
      </trkpt>
      <trkpt lat="59.241863" lon="18.119404">
        <ele>28</ele>
        <time>2020-01-17T08:34:12Z</time>
      </trkpt>
      <trkpt lat="59.241812" lon="18.119398">
        <ele>27</ele>
        <time>2020-01-17T08:34:13Z</time>
      </trkpt>
      <trkpt lat="59.241761" lon="18.11938">
        <ele>27</ele>
        <time>2020-01-17T08:34:14Z</time>
      </trkpt>
      <trkpt lat="59.241709" lon="18.119353">
        <ele>27</ele>
        <time>2020-01-17T08:34:15Z</time>
      </trkpt>
      <trkpt lat="59.241657" lon="18.119326">
        <ele>27</ele>
        <time>2020-01-17T08:34:16Z</time>
      </trkpt>
      <trkpt lat="59.241606" lon="18.119307">
        <ele>27</ele>
        <time>2020-01-17T08:34:17Z</time>
      </trkpt>
      <trkpt lat="59.241558" lon="18.119293">
        <ele>27</ele>
        <time>2020-01-17T08:34:18Z</time>
      </trkpt>
      <trkpt lat="59.241509" lon="18.11928">
        <ele>26</ele>
        <time>2020-01-17T08:34:19Z</time>
      </trkpt>
      <trkpt lat="59.24146" lon="18.119259">
        <ele>26</ele>
        <time>2020-01-17T08:34:20Z</time>
      </trkpt>
      <trkpt lat="59.241409" lon="18.119228">
        <ele>26</ele>
        <time>2020-01-17T08:34:21Z</time>
      </trkpt>
      <trkpt lat="59.241362" lon="18.11919">
        <ele>26</ele>
        <time>2020-01-17T08:34:22Z</time>
      </trkpt>
      <trkpt lat="59.241307" lon="18.119163">
        <ele>26</ele>
        <time>2020-01-17T08:34:23Z</time>
      </trkpt>
      <trkpt lat="59.241253" lon="18.119176">
        <ele>26</ele>
        <time>2020-01-17T08:34:24Z</time>
      </trkpt>
      <trkpt lat="59.241213" lon="18.119238">
        <ele>26</ele>
        <time>2020-01-17T08:34:25Z</time>
      </trkpt>
      <trkpt lat="59.241192" lon="18.119317">
        <ele>26</ele>
        <time>2020-01-17T08:34:26Z</time>
      </trkpt>
      <trkpt lat="59.241188" lon="18.119392">
        <ele>26</ele>
        <time>2020-01-17T08:34:27Z</time>
      </trkpt>
      <trkpt lat="59.241183" lon="18.119462">
        <ele>25</ele>
        <time>2020-01-17T08:34:28Z</time>
      </trkpt>
      <trkpt lat="59.241182" lon="18.119527">
        <ele>25</ele>
        <time>2020-01-17T08:34:29Z</time>
      </trkpt>
      <trkpt lat="59.241184" lon="18.1196">
        <ele>25</ele>
        <time>2020-01-17T08:34:30Z</time>
      </trkpt>
      <trkpt lat="59.241186" lon="18.119666">
        <ele>25</ele>
        <time>2020-01-17T08:34:31Z</time>
      </trkpt>
      <trkpt lat="59.241185" lon="18.11972">
        <ele>25</ele>
        <time>2020-01-17T08:34:32Z</time>
      </trkpt>
      <trkpt lat="59.241166" lon="18.119767">
        <ele>25</ele>
        <time>2020-01-17T08:34:33Z</time>
      </trkpt>
      <trkpt lat="59.241132" lon="18.119785">
        <ele>24</ele>
        <time>2020-01-17T08:34:34Z</time>
      </trkpt>
      <trkpt lat="59.241094" lon="18.119786">
        <ele>24</ele>
        <time>2020-01-17T08:34:35Z</time>
      </trkpt>
      <trkpt lat="59.241009" lon="18.119698">
        <ele>24</ele>
        <time>2020-01-17T08:34:37Z</time>
      </trkpt>
      <trkpt lat="59.240953" lon="18.119641">
        <ele>24</ele>
        <time>2020-01-17T08:34:38Z</time>
      </trkpt>
      <trkpt lat="59.240908" lon="18.119609">
        <ele>24</ele>
        <time>2020-01-17T08:34:39Z</time>
      </trkpt>
      <trkpt lat="59.240854" lon="18.119583">
        <ele>23</ele>
        <time>2020-01-17T08:34:40Z</time>
      </trkpt>
      <trkpt lat="59.240803" lon="18.119562">
        <ele>23</ele>
        <time>2020-01-17T08:34:41Z</time>
      </trkpt>
      <trkpt lat="59.240753" lon="18.119543">
        <ele>23</ele>
        <time>2020-01-17T08:34:42Z</time>
      </trkpt>
      <trkpt lat="59.240704" lon="18.119536">
        <ele>23</ele>
        <time>2020-01-17T08:34:43Z</time>
      </trkpt>
      <trkpt lat="59.240652" lon="18.119541">
        <ele>23</ele>
        <time>2020-01-17T08:34:44Z</time>
      </trkpt>
      <trkpt lat="59.240599" lon="18.119546">
        <ele>23</ele>
        <time>2020-01-17T08:34:45Z</time>
      </trkpt>
      <trkpt lat="59.240549" lon="18.11953">
        <ele>23</ele>
        <time>2020-01-17T08:34:46Z</time>
      </trkpt>
      <trkpt lat="59.240505" lon="18.119488">
        <ele>22</ele>
        <time>2020-01-17T08:34:47Z</time>
      </trkpt>
      <trkpt lat="59.240466" lon="18.119437">
        <ele>22</ele>
        <time>2020-01-17T08:34:48Z</time>
      </trkpt>
      <trkpt lat="59.240425" lon="18.119401">
        <ele>23</ele>
        <time>2020-01-17T08:34:49Z</time>
      </trkpt>
      <trkpt lat="59.24038" lon="18.119389">
        <ele>23</ele>
        <time>2020-01-17T08:34:50Z</time>
      </trkpt>
      <trkpt lat="59.240334" lon="18.119395">
        <ele>23</ele>
        <time>2020-01-17T08:34:51Z</time>
      </trkpt>
      <trkpt lat="59.240286" lon="18.119408">
        <ele>23</ele>
        <time>2020-01-17T08:34:52Z</time>
      </trkpt>
      <trkpt lat="59.24024" lon="18.119424">
        <ele>23</ele>
        <time>2020-01-17T08:34:53Z</time>
      </trkpt>
      <trkpt lat="59.240193" lon="18.119442">
        <ele>23</ele>
        <time>2020-01-17T08:34:54Z</time>
      </trkpt>
      <trkpt lat="59.240148" lon="18.119464">
        <ele>23</ele>
        <time>2020-01-17T08:34:55Z</time>
      </trkpt>
      <trkpt lat="59.240102" lon="18.119484">
        <ele>23</ele>
        <time>2020-01-17T08:34:56Z</time>
      </trkpt>
      <trkpt lat="59.240055" lon="18.119502">
        <ele>23</ele>
        <time>2020-01-17T08:34:57Z</time>
      </trkpt>
      <trkpt lat="59.240009" lon="18.11952">
        <ele>23</ele>
        <time>2020-01-17T08:34:58Z</time>
      </trkpt>
      <trkpt lat="59.239964" lon="18.11954">
        <ele>23</ele>
        <time>2020-01-17T08:34:59Z</time>
      </trkpt>
      <trkpt lat="59.239918" lon="18.119558">
        <ele>23</ele>
        <time>2020-01-17T08:35:00Z</time>
      </trkpt>
      <trkpt lat="59.239872" lon="18.119575">
        <ele>23</ele>
        <time>2020-01-17T08:35:01Z</time>
      </trkpt>
      <trkpt lat="59.239826" lon="18.119591">
        <ele>23</ele>
        <time>2020-01-17T08:35:02Z</time>
      </trkpt>
      <trkpt lat="59.239782" lon="18.119609">
        <ele>23</ele>
        <time>2020-01-17T08:35:03Z</time>
      </trkpt>
      <trkpt lat="59.23974" lon="18.119628">
        <ele>23</ele>
        <time>2020-01-17T08:35:04Z</time>
      </trkpt>
      <trkpt lat="59.239696" lon="18.119645">
        <ele>23</ele>
        <time>2020-01-17T08:35:05Z</time>
      </trkpt>
      <trkpt lat="59.239652" lon="18.119662">
        <ele>23</ele>
        <time>2020-01-17T08:35:06Z</time>
      </trkpt>
      <trkpt lat="59.239608" lon="18.119677">
        <ele>23</ele>
        <time>2020-01-17T08:35:07Z</time>
      </trkpt>
      <trkpt lat="59.239564" lon="18.11969">
        <ele>23</ele>
        <time>2020-01-17T08:35:08Z</time>
      </trkpt>
      <trkpt lat="59.23952" lon="18.119707">
        <ele>23</ele>
        <time>2020-01-17T08:35:09Z</time>
      </trkpt>
      <trkpt lat="59.239476" lon="18.119726">
        <ele>24</ele>
        <time>2020-01-17T08:35:10Z</time>
      </trkpt>
      <trkpt lat="59.239432" lon="18.119742">
        <ele>24</ele>
        <time>2020-01-17T08:35:11Z</time>
      </trkpt>
      <trkpt lat="59.23939" lon="18.119758">
        <ele>24</ele>
        <time>2020-01-17T08:35:12Z</time>
      </trkpt>
      <trkpt lat="59.239347" lon="18.119773">
        <ele>24</ele>
        <time>2020-01-17T08:35:14Z</time>
      </trkpt>
      <trkpt lat="59.239304" lon="18.119789">
        <ele>24</ele>
        <time>2020-01-17T08:35:14Z</time>
      </trkpt>
      <trkpt lat="59.239259" lon="18.119801">
        <ele>24</ele>
        <time>2020-01-17T08:35:15Z</time>
      </trkpt>
      <trkpt lat="59.239214" lon="18.119808">
        <ele>24</ele>
        <time>2020-01-17T08:35:16Z</time>
      </trkpt>
      <trkpt lat="59.239168" lon="18.11981">
        <ele>25</ele>
        <time>2020-01-17T08:35:17Z</time>
      </trkpt>
      <trkpt lat="59.239122" lon="18.119811">
        <ele>25</ele>
        <time>2020-01-17T08:35:18Z</time>
      </trkpt>
      <trkpt lat="59.239077" lon="18.119816">
        <ele>24</ele>
        <time>2020-01-17T08:35:19Z</time>
      </trkpt>
      <trkpt lat="59.239031" lon="18.119821">
        <ele>25</ele>
        <time>2020-01-17T08:35:20Z</time>
      </trkpt>
      <trkpt lat="59.238984" lon="18.119824">
        <ele>25</ele>
        <time>2020-01-17T08:35:21Z</time>
      </trkpt>
      <trkpt lat="59.238937" lon="18.119824">
        <ele>25</ele>
        <time>2020-01-17T08:35:22Z</time>
      </trkpt>
      <trkpt lat="59.23889" lon="18.119822">
        <ele>25</ele>
        <time>2020-01-17T08:35:23Z</time>
      </trkpt>
      <trkpt lat="59.238845" lon="18.119819">
        <ele>24</ele>
        <time>2020-01-17T08:35:24Z</time>
      </trkpt>
      <trkpt lat="59.2388" lon="18.119812">
        <ele>24</ele>
        <time>2020-01-17T08:35:25Z</time>
      </trkpt>
      <trkpt lat="59.238755" lon="18.119809">
        <ele>24</ele>
        <time>2020-01-17T08:35:26Z</time>
      </trkpt>
      <trkpt lat="59.23871" lon="18.119805">
        <ele>24</ele>
        <time>2020-01-17T08:35:27Z</time>
      </trkpt>
      <trkpt lat="59.238665" lon="18.119798">
        <ele>25</ele>
        <time>2020-01-17T08:35:28Z</time>
      </trkpt>
      <trkpt lat="59.238623" lon="18.11979">
        <ele>25</ele>
        <time>2020-01-17T08:35:29Z</time>
      </trkpt>
      <trkpt lat="59.23858" lon="18.119782">
        <ele>25</ele>
        <time>2020-01-17T08:35:30Z</time>
      </trkpt>
      <trkpt lat="59.238537" lon="18.119773">
        <ele>25</ele>
        <time>2020-01-17T08:35:31Z</time>
      </trkpt>
      <trkpt lat="59.238496" lon="18.119763">
        <ele>25</ele>
        <time>2020-01-17T08:35:32Z</time>
      </trkpt>
      <trkpt lat="59.238455" lon="18.119754">
        <ele>25</ele>
        <time>2020-01-17T08:35:33Z</time>
      </trkpt>
      <trkpt lat="59.238413" lon="18.119748">
        <ele>25</ele>
        <time>2020-01-17T08:35:34Z</time>
      </trkpt>
      <trkpt lat="59.238371" lon="18.119742">
        <ele>25</ele>
        <time>2020-01-17T08:35:35Z</time>
      </trkpt>
      <trkpt lat="59.23833" lon="18.119736">
        <ele>25</ele>
        <time>2020-01-17T08:35:36Z</time>
      </trkpt>
      <trkpt lat="59.238289" lon="18.119728">
        <ele>25</ele>
        <time>2020-01-17T08:35:37Z</time>
      </trkpt>
      <trkpt lat="59.238247" lon="18.119719">
        <ele>25</ele>
        <time>2020-01-17T08:35:38Z</time>
      </trkpt>
      <trkpt lat="59.238206" lon="18.119709">
        <ele>25</ele>
        <time>2020-01-17T08:35:39Z</time>
      </trkpt>
      <trkpt lat="59.238166" lon="18.119699">
        <ele>25</ele>
        <time>2020-01-17T08:35:40Z</time>
      </trkpt>
      <trkpt lat="59.238124" lon="18.119693">
        <ele>25</ele>
        <time>2020-01-17T08:35:41Z</time>
      </trkpt>
      <trkpt lat="59.238081" lon="18.119689">
        <ele>25</ele>
        <time>2020-01-17T08:35:42Z</time>
      </trkpt>
      <trkpt lat="59.238038" lon="18.119682">
        <ele>25</ele>
        <time>2020-01-17T08:35:43Z</time>
      </trkpt>
      <trkpt lat="59.237996" lon="18.119673">
        <ele>25</ele>
        <time>2020-01-17T08:35:44Z</time>
      </trkpt>
      <trkpt lat="59.237953" lon="18.119663">
        <ele>25</ele>
        <time>2020-01-17T08:35:45Z</time>
      </trkpt>
      <trkpt lat="59.237909" lon="18.119657">
        <ele>25</ele>
        <time>2020-01-17T08:35:46Z</time>
      </trkpt>
      <trkpt lat="59.237865" lon="18.119655">
        <ele>25</ele>
        <time>2020-01-17T08:35:47Z</time>
      </trkpt>
      <trkpt lat="59.237821" lon="18.119651">
        <ele>25</ele>
        <time>2020-01-17T08:35:48Z</time>
      </trkpt>
      <trkpt lat="59.237777" lon="18.119643">
        <ele>26</ele>
        <time>2020-01-17T08:35:49Z</time>
      </trkpt>
      <trkpt lat="59.237734" lon="18.119634">
        <ele>26</ele>
        <time>2020-01-17T08:35:50Z</time>
      </trkpt>
      <trkpt lat="59.237691" lon="18.119628">
        <ele>26</ele>
        <time>2020-01-17T08:35:51Z</time>
      </trkpt>
      <trkpt lat="59.237647" lon="18.119623">
        <ele>26</ele>
        <time>2020-01-17T08:35:52Z</time>
      </trkpt>
      <trkpt lat="59.237603" lon="18.119617">
        <ele>26</ele>
        <time>2020-01-17T08:35:53Z</time>
      </trkpt>
      <trkpt lat="59.237559" lon="18.119611">
        <ele>26</ele>
        <time>2020-01-17T08:35:54Z</time>
      </trkpt>
      <trkpt lat="59.237517" lon="18.119604">
        <ele>26</ele>
        <time>2020-01-17T08:35:55Z</time>
      </trkpt>
      <trkpt lat="59.237474" lon="18.119596">
        <ele>26</ele>
        <time>2020-01-17T08:35:56Z</time>
      </trkpt>
      <trkpt lat="59.237431" lon="18.119591">
        <ele>26</ele>
        <time>2020-01-17T08:35:57Z</time>
      </trkpt>
      <trkpt lat="59.237386" lon="18.119587">
        <ele>26</ele>
        <time>2020-01-17T08:35:58Z</time>
      </trkpt>
      <trkpt lat="59.237341" lon="18.11958">
        <ele>26</ele>
        <time>2020-01-17T08:35:59Z</time>
      </trkpt>
      <trkpt lat="59.237297" lon="18.119573">
        <ele>26</ele>
        <time>2020-01-17T08:36:00Z</time>
      </trkpt>
      <trkpt lat="59.237253" lon="18.119566">
        <ele>26</ele>
        <time>2020-01-17T08:36:01Z</time>
      </trkpt>
      <trkpt lat="59.237209" lon="18.119558">
        <ele>26</ele>
        <time>2020-01-17T08:36:02Z</time>
      </trkpt>
      <trkpt lat="59.237165" lon="18.119553">
        <ele>26</ele>
        <time>2020-01-17T08:36:03Z</time>
      </trkpt>
      <trkpt lat="59.23712" lon="18.119549">
        <ele>26</ele>
        <time>2020-01-17T08:36:04Z</time>
      </trkpt>
      <trkpt lat="59.237076" lon="18.119543">
        <ele>26</ele>
        <time>2020-01-17T08:36:05Z</time>
      </trkpt>
      <trkpt lat="59.23703" lon="18.119537">
        <ele>26</ele>
        <time>2020-01-17T08:36:06Z</time>
      </trkpt>
      <trkpt lat="59.236986" lon="18.119532">
        <ele>26</ele>
        <time>2020-01-17T08:36:07Z</time>
      </trkpt>
      <trkpt lat="59.23694" lon="18.119527">
        <ele>26</ele>
        <time>2020-01-17T08:36:08Z</time>
      </trkpt>
      <trkpt lat="59.236894" lon="18.119522">
        <ele>26</ele>
        <time>2020-01-17T08:36:09Z</time>
      </trkpt>
      <trkpt lat="59.236849" lon="18.119521">
        <ele>26</ele>
        <time>2020-01-17T08:36:11Z</time>
      </trkpt>
      <trkpt lat="59.236804" lon="18.119519">
        <ele>26</ele>
        <time>2020-01-17T08:36:11Z</time>
      </trkpt>
      <trkpt lat="59.236758" lon="18.119516">
        <ele>26</ele>
        <time>2020-01-17T08:36:12Z</time>
      </trkpt>
      <trkpt lat="59.236712" lon="18.119516">
        <ele>26</ele>
        <time>2020-01-17T08:36:13Z</time>
      </trkpt>
      <trkpt lat="59.236665" lon="18.119515">
        <ele>26</ele>
        <time>2020-01-17T08:36:14Z</time>
      </trkpt>
      <trkpt lat="59.236618" lon="18.119516">
        <ele>26</ele>
        <time>2020-01-17T08:36:15Z</time>
      </trkpt>
      <trkpt lat="59.236571" lon="18.119517">
        <ele>26</ele>
        <time>2020-01-17T08:36:16Z</time>
      </trkpt>
      <trkpt lat="59.236524" lon="18.119519">
        <ele>26</ele>
        <time>2020-01-17T08:36:17Z</time>
      </trkpt>
      <trkpt lat="59.236477" lon="18.119524">
        <ele>26</ele>
        <time>2020-01-17T08:36:18Z</time>
      </trkpt>
      <trkpt lat="59.236431" lon="18.11953">
        <ele>26</ele>
        <time>2020-01-17T08:36:19Z</time>
      </trkpt>
      <trkpt lat="59.236385" lon="18.119538">
        <ele>26</ele>
        <time>2020-01-17T08:36:20Z</time>
      </trkpt>
      <trkpt lat="59.236338" lon="18.119545">
        <ele>26</ele>
        <time>2020-01-17T08:36:21Z</time>
      </trkpt>
      <trkpt lat="59.236291" lon="18.119551">
        <ele>26</ele>
        <time>2020-01-17T08:36:22Z</time>
      </trkpt>
      <trkpt lat="59.236245" lon="18.119556">
        <ele>26</ele>
        <time>2020-01-17T08:36:23Z</time>
      </trkpt>
      <trkpt lat="59.236199" lon="18.119564">
        <ele>26</ele>
        <time>2020-01-17T08:36:24Z</time>
      </trkpt>
      <trkpt lat="59.236152" lon="18.119575">
        <ele>26</ele>
        <time>2020-01-17T08:36:25Z</time>
      </trkpt>
      <trkpt lat="59.236105" lon="18.119586">
        <ele>26</ele>
        <time>2020-01-17T08:36:26Z</time>
      </trkpt>
      <trkpt lat="59.236058" lon="18.119599">
        <ele>26</ele>
        <time>2020-01-17T08:36:27Z</time>
      </trkpt>
      <trkpt lat="59.236011" lon="18.119614">
        <ele>26</ele>
        <time>2020-01-17T08:36:28Z</time>
      </trkpt>
      <trkpt lat="59.235964" lon="18.119628">
        <ele>27</ele>
        <time>2020-01-17T08:36:29Z</time>
      </trkpt>
      <trkpt lat="59.235918" lon="18.119646">
        <ele>27</ele>
        <time>2020-01-17T08:36:30Z</time>
      </trkpt>
      <trkpt lat="59.235872" lon="18.119665">
        <ele>27</ele>
        <time>2020-01-17T08:36:31Z</time>
      </trkpt>
      <trkpt lat="59.235824" lon="18.119682">
        <ele>27</ele>
        <time>2020-01-17T08:36:32Z</time>
      </trkpt>
      <trkpt lat="59.235777" lon="18.119701">
        <ele>27</ele>
        <time>2020-01-17T08:36:33Z</time>
      </trkpt>
      <trkpt lat="59.235732" lon="18.119726">
        <ele>27</ele>
        <time>2020-01-17T08:36:34Z</time>
      </trkpt>
      <trkpt lat="59.235688" lon="18.119754">
        <ele>27</ele>
        <time>2020-01-17T08:36:35Z</time>
      </trkpt>
      <trkpt lat="59.235644" lon="18.119784">
        <ele>28</ele>
        <time>2020-01-17T08:36:36Z</time>
      </trkpt>
      <trkpt lat="59.2356" lon="18.119813">
        <ele>28</ele>
        <time>2020-01-17T08:36:37Z</time>
      </trkpt>
      <trkpt lat="59.235556" lon="18.119841">
        <ele>28</ele>
        <time>2020-01-17T08:36:38Z</time>
      </trkpt>
      <trkpt lat="59.235512" lon="18.119869">
        <ele>28</ele>
        <time>2020-01-17T08:36:39Z</time>
      </trkpt>
      <trkpt lat="59.235469" lon="18.119898">
        <ele>28</ele>
        <time>2020-01-17T08:36:40Z</time>
      </trkpt>
      <trkpt lat="59.235423" lon="18.119927">
        <ele>29</ele>
        <time>2020-01-17T08:36:41Z</time>
      </trkpt>
      <trkpt lat="59.235376" lon="18.119955">
        <ele>29</ele>
        <time>2020-01-17T08:36:42Z</time>
      </trkpt>
      <trkpt lat="59.235329" lon="18.11998">
        <ele>29</ele>
        <time>2020-01-17T08:36:43Z</time>
      </trkpt>
      <trkpt lat="59.235282" lon="18.120006">
        <ele>29</ele>
        <time>2020-01-17T08:36:44Z</time>
      </trkpt>
      <trkpt lat="59.235235" lon="18.12003">
        <ele>29</ele>
        <time>2020-01-17T08:36:45Z</time>
      </trkpt>
      <trkpt lat="59.235188" lon="18.120045">
        <ele>28</ele>
        <time>2020-01-17T08:36:46Z</time>
      </trkpt>
      <trkpt lat="59.23514" lon="18.120054">
        <ele>28</ele>
        <time>2020-01-17T08:36:47Z</time>
      </trkpt>
      <trkpt lat="59.235095" lon="18.120062">
        <ele>28</ele>
        <time>2020-01-17T08:36:48Z</time>
      </trkpt>
      <trkpt lat="59.235051" lon="18.120074">
        <ele>28</ele>
        <time>2020-01-17T08:36:49Z</time>
      </trkpt>
      <trkpt lat="59.235009" lon="18.120091">
        <ele>28</ele>
        <time>2020-01-17T08:36:50Z</time>
      </trkpt>
      <trkpt lat="59.234967" lon="18.120111">
        <ele>28</ele>
        <time>2020-01-17T08:36:51Z</time>
      </trkpt>
      <trkpt lat="59.234925" lon="18.120134">
        <ele>28</ele>
        <time>2020-01-17T08:36:52Z</time>
      </trkpt>
      <trkpt lat="59.234884" lon="18.120158">
        <ele>28</ele>
        <time>2020-01-17T08:36:53Z</time>
      </trkpt>
      <trkpt lat="59.234843" lon="18.120185">
        <ele>28</ele>
        <time>2020-01-17T08:36:54Z</time>
      </trkpt>
      <trkpt lat="59.234805" lon="18.120212">
        <ele>28</ele>
        <time>2020-01-17T08:36:55Z</time>
      </trkpt>
      <trkpt lat="59.234769" lon="18.120238">
        <ele>28</ele>
        <time>2020-01-17T08:36:56Z</time>
      </trkpt>
      <trkpt lat="59.234735" lon="18.120263">
        <ele>28</ele>
        <time>2020-01-17T08:36:57Z</time>
      </trkpt>
      <trkpt lat="59.2347" lon="18.120288">
        <ele>28</ele>
        <time>2020-01-17T08:36:58Z</time>
      </trkpt>
      <trkpt lat="59.234668" lon="18.120311">
        <ele>28</ele>
        <time>2020-01-17T08:36:59Z</time>
      </trkpt>
      <trkpt lat="59.234637" lon="18.120332">
        <ele>28</ele>
        <time>2020-01-17T08:37:00Z</time>
      </trkpt>
      <trkpt lat="59.234609" lon="18.120352">
        <ele>28</ele>
        <time>2020-01-17T08:37:01Z</time>
      </trkpt>
      <trkpt lat="59.234579" lon="18.120371">
        <ele>29</ele>
        <time>2020-01-17T08:37:02Z</time>
      </trkpt>
      <trkpt lat="59.234551" lon="18.120389">
        <ele>29</ele>
        <time>2020-01-17T08:37:03Z</time>
      </trkpt>
      <trkpt lat="59.234522" lon="18.120407">
        <ele>29</ele>
        <time>2020-01-17T08:37:04Z</time>
      </trkpt>
      <trkpt lat="59.234495" lon="18.120425">
        <ele>29</ele>
        <time>2020-01-17T08:37:05Z</time>
      </trkpt>
      <trkpt lat="59.234467" lon="18.120443">
        <ele>29</ele>
        <time>2020-01-17T08:37:06Z</time>
      </trkpt>
      <trkpt lat="59.23444" lon="18.12046">
        <ele>29</ele>
        <time>2020-01-17T08:37:08Z</time>
      </trkpt>
      <trkpt lat="59.234412" lon="18.120477">
        <ele>29</ele>
        <time>2020-01-17T08:37:08Z</time>
      </trkpt>
      <trkpt lat="59.234385" lon="18.120495">
        <ele>29</ele>
        <time>2020-01-17T08:37:09Z</time>
      </trkpt>
      <trkpt lat="59.234359" lon="18.120513">
        <ele>29</ele>
        <time>2020-01-17T08:37:10Z</time>
      </trkpt>
      <trkpt lat="59.234332" lon="18.120531">
        <ele>29</ele>
        <time>2020-01-17T08:37:11Z</time>
      </trkpt>
      <trkpt lat="59.234305" lon="18.12055">
        <ele>29</ele>
        <time>2020-01-17T08:37:12Z</time>
      </trkpt>
      <trkpt lat="59.234277" lon="18.120568">
        <ele>30</ele>
        <time>2020-01-17T08:37:13Z</time>
      </trkpt>
      <trkpt lat="59.234251" lon="18.120587">
        <ele>30</ele>
        <time>2020-01-17T08:37:14Z</time>
      </trkpt>
      <trkpt lat="59.234222" lon="18.120607">
        <ele>30</ele>
        <time>2020-01-17T08:37:15Z</time>
      </trkpt>
      <trkpt lat="59.234192" lon="18.120625">
        <ele>30</ele>
        <time>2020-01-17T08:37:16Z</time>
      </trkpt>
      <trkpt lat="59.234163" lon="18.120643">
        <ele>30</ele>
        <time>2020-01-17T08:37:17Z</time>
      </trkpt>
      <trkpt lat="59.234135" lon="18.120662">
        <ele>30</ele>
        <time>2020-01-17T08:37:18Z</time>
      </trkpt>
      <trkpt lat="59.234107" lon="18.120679">
        <ele>30</ele>
        <time>2020-01-17T08:37:19Z</time>
      </trkpt>
      <trkpt lat="59.234081" lon="18.120695">
        <ele>31</ele>
        <time>2020-01-17T08:37:20Z</time>
      </trkpt>
      <trkpt lat="59.234055" lon="18.120712">
        <ele>31</ele>
        <time>2020-01-17T08:37:21Z</time>
      </trkpt>
      <trkpt lat="59.234033" lon="18.120726">
        <ele>31</ele>
        <time>2020-01-17T08:37:22Z</time>
      </trkpt>
      <trkpt lat="59.234012" lon="18.120741">
        <ele>31</ele>
        <time>2020-01-17T08:37:23Z</time>
      </trkpt>
      <trkpt lat="59.23399" lon="18.120756">
        <ele>31</ele>
        <time>2020-01-17T08:37:24Z</time>
      </trkpt>
      <trkpt lat="59.233965" lon="18.120773">
        <ele>32</ele>
        <time>2020-01-17T08:37:25Z</time>
      </trkpt>
      <trkpt lat="59.233939" lon="18.12079">
        <ele>32</ele>
        <time>2020-01-17T08:37:26Z</time>
      </trkpt>
      <trkpt lat="59.233914" lon="18.120806">
        <ele>32</ele>
        <time>2020-01-17T08:37:27Z</time>
      </trkpt>
      <trkpt lat="59.233892" lon="18.12082">
        <ele>32</ele>
        <time>2020-01-17T08:37:28Z</time>
      </trkpt>
      <trkpt lat="59.233862" lon="18.12084">
        <ele>33</ele>
        <time>2020-01-17T08:37:29Z</time>
      </trkpt>
      <trkpt lat="59.233834" lon="18.120857">
        <ele>33</ele>
        <time>2020-01-17T08:37:30Z</time>
      </trkpt>
      <trkpt lat="59.233812" lon="18.120872">
        <ele>33</ele>
        <time>2020-01-17T08:37:31Z</time>
      </trkpt>
      <trkpt lat="59.233788" lon="18.12089">
        <ele>34</ele>
        <time>2020-01-17T08:37:32Z</time>
      </trkpt>
      <trkpt lat="59.23377" lon="18.120903">
        <ele>34</ele>
        <time>2020-01-17T08:37:33Z</time>
      </trkpt>
      <trkpt lat="59.233735" lon="18.120927">
        <ele>35</ele>
        <time>2020-01-17T08:37:35Z</time>
      </trkpt>
      <trkpt lat="59.233718" lon="18.120941">
        <ele>35</ele>
        <time>2020-01-17T08:37:36Z</time>
      </trkpt>
      <trkpt lat="59.233698" lon="18.120958">
        <ele>35</ele>
        <time>2020-01-17T08:37:37Z</time>
      </trkpt>
      <trkpt lat="59.233676" lon="18.120975">
        <ele>36</ele>
        <time>2020-01-17T08:37:38Z</time>
      </trkpt>
      <trkpt lat="59.233655" lon="18.12099">
        <ele>36</ele>
        <time>2020-01-17T08:37:39Z</time>
      </trkpt>
      <trkpt lat="59.233635" lon="18.121006">
        <ele>36</ele>
        <time>2020-01-17T08:37:40Z</time>
      </trkpt>
      <trkpt lat="59.233606" lon="18.121031">
        <ele>36</ele>
        <time>2020-01-17T08:37:41Z</time>
      </trkpt>
      <trkpt lat="59.233577" lon="18.121054">
        <ele>37</ele>
        <time>2020-01-17T08:37:42Z</time>
      </trkpt>
      <trkpt lat="59.233555" lon="18.121071">
        <ele>37</ele>
        <time>2020-01-17T08:37:43Z</time>
      </trkpt>
      <trkpt lat="59.233537" lon="18.121087">
        <ele>37</ele>
        <time>2020-01-17T08:37:44Z</time>
      </trkpt>
      <trkpt lat="59.233514" lon="18.121102">
        <ele>37</ele>
        <time>2020-01-17T08:37:45Z</time>
      </trkpt>
      <trkpt lat="59.23349" lon="18.121115">
        <ele>38</ele>
        <time>2020-01-17T08:37:46Z</time>
      </trkpt>
      <trkpt lat="59.233468" lon="18.121133">
        <ele>38</ele>
        <time>2020-01-17T08:37:47Z</time>
      </trkpt>
      <trkpt lat="59.233441" lon="18.121152">
        <ele>38</ele>
        <time>2020-01-17T08:37:48Z</time>
      </trkpt>
      <trkpt lat="59.233409" lon="18.121172">
        <ele>38</ele>
        <time>2020-01-17T08:37:49Z</time>
      </trkpt>
      <trkpt lat="59.233386" lon="18.121194">
        <ele>38</ele>
        <time>2020-01-17T08:37:50Z</time>
      </trkpt>
      <trkpt lat="59.233359" lon="18.121216">
        <ele>38</ele>
        <time>2020-01-17T08:37:51Z</time>
      </trkpt>
      <trkpt lat="59.233317" lon="18.121248">
        <ele>38</ele>
        <time>2020-01-17T08:37:52Z</time>
      </trkpt>
      <trkpt lat="59.233273" lon="18.121275">
        <ele>38</ele>
        <time>2020-01-17T08:37:53Z</time>
      </trkpt>
      <trkpt lat="59.233226" lon="18.121298">
        <ele>39</ele>
        <time>2020-01-17T08:37:54Z</time>
      </trkpt>
      <trkpt lat="59.233183" lon="18.121316">
        <ele>39</ele>
        <time>2020-01-17T08:37:55Z</time>
      </trkpt>
      <trkpt lat="59.233143" lon="18.12133">
        <ele>39</ele>
        <time>2020-01-17T08:37:56Z</time>
      </trkpt>
      <trkpt lat="59.233104" lon="18.121339">
        <ele>39</ele>
        <time>2020-01-17T08:37:57Z</time>
      </trkpt>
      <trkpt lat="59.233068" lon="18.12134">
        <ele>39</ele>
        <time>2020-01-17T08:37:58Z</time>
      </trkpt>
      <trkpt lat="59.233029" lon="18.121338">
        <ele>39</ele>
        <time>2020-01-17T08:37:59Z</time>
      </trkpt>
      <trkpt lat="59.232995" lon="18.121322">
        <ele>39</ele>
        <time>2020-01-17T08:38:00Z</time>
      </trkpt>
      <trkpt lat="59.232962" lon="18.121302">
        <ele>39</ele>
        <time>2020-01-17T08:38:01Z</time>
      </trkpt>
      <trkpt lat="59.232931" lon="18.121278">
        <ele>39</ele>
        <time>2020-01-17T08:38:02Z</time>
      </trkpt>
      <trkpt lat="59.232902" lon="18.12125">
        <ele>39</ele>
        <time>2020-01-17T08:38:03Z</time>
      </trkpt>
      <trkpt lat="59.232874" lon="18.121218">
        <ele>40</ele>
        <time>2020-01-17T08:38:04Z</time>
      </trkpt>
      <trkpt lat="59.232847" lon="18.121186">
        <ele>40</ele>
        <time>2020-01-17T08:38:05Z</time>
      </trkpt>
      <trkpt lat="59.23282" lon="18.121153">
        <ele>40</ele>
        <time>2020-01-17T08:38:06Z</time>
      </trkpt>
      <trkpt lat="59.232791" lon="18.121124">
        <ele>40</ele>
        <time>2020-01-17T08:38:07Z</time>
      </trkpt>
      <trkpt lat="59.232769" lon="18.121096">
        <ele>40</ele>
        <time>2020-01-17T08:38:08Z</time>
      </trkpt>
      <trkpt lat="59.232745" lon="18.121069">
        <ele>40</ele>
        <time>2020-01-17T08:38:09Z</time>
      </trkpt>
      <trkpt lat="59.23272" lon="18.121044">
        <ele>40</ele>
        <time>2020-01-17T08:38:10Z</time>
      </trkpt>
      <trkpt lat="59.232694" lon="18.121031">
        <ele>40</ele>
        <time>2020-01-17T08:38:11Z</time>
      </trkpt>
      <trkpt lat="59.232672" lon="18.121025">
        <ele>40</ele>
        <time>2020-01-17T08:38:12Z</time>
      </trkpt>
      <trkpt lat="59.232646" lon="18.12101">
        <ele>39</ele>
        <time>2020-01-17T08:38:14Z</time>
      </trkpt>
      <trkpt lat="59.232639" lon="18.121004">
        <ele>39</ele>
        <time>2020-01-17T08:38:19Z</time>
      </trkpt>
      <trkpt lat="59.232573" lon="18.120847">
        <ele>39</ele>
        <time>2020-01-17T08:38:46Z</time>
      </trkpt>
      <trkpt lat="59.232549" lon="18.120783">
        <ele>39</ele>
        <time>2020-01-17T08:38:47Z</time>
      </trkpt>
      <trkpt lat="59.232524" lon="18.120715">
        <ele>39</ele>
        <time>2020-01-17T08:38:48Z</time>
      </trkpt>
      <trkpt lat="59.232501" lon="18.12064">
        <ele>39</ele>
        <time>2020-01-17T08:38:49Z</time>
      </trkpt>
      <trkpt lat="59.232479" lon="18.120561">
        <ele>39</ele>
        <time>2020-01-17T08:38:50Z</time>
      </trkpt>
      <trkpt lat="59.232454" lon="18.120482">
        <ele>39</ele>
        <time>2020-01-17T08:38:51Z</time>
      </trkpt>
      <trkpt lat="59.232422" lon="18.12041">
        <ele>39</ele>
        <time>2020-01-17T08:38:52Z</time>
      </trkpt>
      <trkpt lat="59.232386" lon="18.120352">
        <ele>39</ele>
        <time>2020-01-17T08:38:53Z</time>
      </trkpt>
      <trkpt lat="59.232342" lon="18.120311">
        <ele>39</ele>
        <time>2020-01-17T08:38:54Z</time>
      </trkpt>
      <trkpt lat="59.232292" lon="18.120288">
        <ele>39</ele>
        <time>2020-01-17T08:38:55Z</time>
      </trkpt>
      <trkpt lat="59.232242" lon="18.120276">
        <ele>39</ele>
        <time>2020-01-17T08:38:56Z</time>
      </trkpt>
      <trkpt lat="59.232191" lon="18.120272">
        <ele>39</ele>
        <time>2020-01-17T08:38:57Z</time>
      </trkpt>
      <trkpt lat="59.232142" lon="18.12027">
        <ele>39</ele>
        <time>2020-01-17T08:38:58Z</time>
      </trkpt>
      <trkpt lat="59.232094" lon="18.12027">
        <ele>39</ele>
        <time>2020-01-17T08:38:59Z</time>
      </trkpt>
      <trkpt lat="59.232048" lon="18.120274">
        <ele>39</ele>
        <time>2020-01-17T08:39:00Z</time>
      </trkpt>
      <trkpt lat="59.232003" lon="18.120283">
        <ele>40</ele>
        <time>2020-01-17T08:39:01Z</time>
      </trkpt>
      <trkpt lat="59.231961" lon="18.120293">
        <ele>40</ele>
        <time>2020-01-17T08:39:02Z</time>
      </trkpt>
      <trkpt lat="59.231923" lon="18.1203">
        <ele>40</ele>
        <time>2020-01-17T08:39:03Z</time>
      </trkpt>
      <trkpt lat="59.231887" lon="18.120311">
        <ele>40</ele>
        <time>2020-01-17T08:39:04Z</time>
      </trkpt>
      <trkpt lat="59.23185" lon="18.120327">
        <ele>40</ele>
        <time>2020-01-17T08:39:05Z</time>
      </trkpt>
      <trkpt lat="59.231813" lon="18.120347">
        <ele>40</ele>
        <time>2020-01-17T08:39:06Z</time>
      </trkpt>
      <trkpt lat="59.231778" lon="18.120366">
        <ele>41</ele>
        <time>2020-01-17T08:39:07Z</time>
      </trkpt>
      <trkpt lat="59.231742" lon="18.120383">
        <ele>41</ele>
        <time>2020-01-17T08:39:08Z</time>
      </trkpt>
      <trkpt lat="59.231703" lon="18.120401">
        <ele>41</ele>
        <time>2020-01-17T08:39:09Z</time>
      </trkpt>
      <trkpt lat="59.231662" lon="18.120426">
        <ele>41</ele>
        <time>2020-01-17T08:39:10Z</time>
      </trkpt>
      <trkpt lat="59.231619" lon="18.120455">
        <ele>41</ele>
        <time>2020-01-17T08:39:11Z</time>
      </trkpt>
      <trkpt lat="59.231577" lon="18.120487">
        <ele>41</ele>
        <time>2020-01-17T08:39:12Z</time>
      </trkpt>
      <trkpt lat="59.231536" lon="18.120516">
        <ele>41</ele>
        <time>2020-01-17T08:39:13Z</time>
      </trkpt>
      <trkpt lat="59.231496" lon="18.120538">
        <ele>41</ele>
        <time>2020-01-17T08:39:14Z</time>
      </trkpt>
      <trkpt lat="59.231456" lon="18.12056">
        <ele>41</ele>
        <time>2020-01-17T08:39:15Z</time>
      </trkpt>
      <trkpt lat="59.231413" lon="18.120588">
        <ele>41</ele>
        <time>2020-01-17T08:39:16Z</time>
      </trkpt>
      <trkpt lat="59.231363" lon="18.120622">
        <ele>41</ele>
        <time>2020-01-17T08:39:17Z</time>
      </trkpt>
      <trkpt lat="59.23131" lon="18.120655">
        <ele>41</ele>
        <time>2020-01-17T08:39:18Z</time>
      </trkpt>
      <trkpt lat="59.231257" lon="18.120691">
        <ele>41</ele>
        <time>2020-01-17T08:39:19Z</time>
      </trkpt>
      <trkpt lat="59.231205" lon="18.120729">
        <ele>41</ele>
        <time>2020-01-17T08:39:20Z</time>
      </trkpt>
      <trkpt lat="59.231152" lon="18.120771">
        <ele>40</ele>
        <time>2020-01-17T08:39:21Z</time>
      </trkpt>
      <trkpt lat="59.231097" lon="18.120812">
        <ele>40</ele>
        <time>2020-01-17T08:39:22Z</time>
      </trkpt>
      <trkpt lat="59.231039" lon="18.120854">
        <ele>40</ele>
        <time>2020-01-17T08:39:23Z</time>
      </trkpt>
      <trkpt lat="59.230979" lon="18.120897">
        <ele>40</ele>
        <time>2020-01-17T08:39:24Z</time>
      </trkpt>
      <trkpt lat="59.230917" lon="18.120937">
        <ele>40</ele>
        <time>2020-01-17T08:39:25Z</time>
      </trkpt>
      <trkpt lat="59.230855" lon="18.120974">
        <ele>40</ele>
        <time>2020-01-17T08:39:26Z</time>
      </trkpt>
      <trkpt lat="59.230793" lon="18.12101">
        <ele>40</ele>
        <time>2020-01-17T08:39:27Z</time>
      </trkpt>
      <trkpt lat="59.230731" lon="18.121046">
        <ele>40</ele>
        <time>2020-01-17T08:39:28Z</time>
      </trkpt>
      <trkpt lat="59.23067" lon="18.121079">
        <ele>39</ele>
        <time>2020-01-17T08:39:29Z</time>
      </trkpt>
      <trkpt lat="59.230609" lon="18.121099">
        <ele>39</ele>
        <time>2020-01-17T08:39:30Z</time>
      </trkpt>
      <trkpt lat="59.230548" lon="18.121111">
        <ele>39</ele>
        <time>2020-01-17T08:39:31Z</time>
      </trkpt>
      <trkpt lat="59.230487" lon="18.121117">
        <ele>39</ele>
        <time>2020-01-17T08:39:32Z</time>
      </trkpt>
      <trkpt lat="59.230424" lon="18.121119">
        <ele>39</ele>
        <time>2020-01-17T08:39:33Z</time>
      </trkpt>
      <trkpt lat="59.230361" lon="18.121124">
        <ele>39</ele>
        <time>2020-01-17T08:39:34Z</time>
      </trkpt>
      <trkpt lat="59.2303" lon="18.12114">
        <ele>38</ele>
        <time>2020-01-17T08:39:35Z</time>
      </trkpt>
      <trkpt lat="59.230241" lon="18.121173">
        <ele>38</ele>
        <time>2020-01-17T08:39:36Z</time>
      </trkpt>
      <trkpt lat="59.230183" lon="18.121218">
        <ele>38</ele>
        <time>2020-01-17T08:39:37Z</time>
      </trkpt>
      <trkpt lat="59.230126" lon="18.121267">
        <ele>38</ele>
        <time>2020-01-17T08:39:38Z</time>
      </trkpt>
      <trkpt lat="59.230071" lon="18.121319">
        <ele>38</ele>
        <time>2020-01-17T08:39:39Z</time>
      </trkpt>
      <trkpt lat="59.230018" lon="18.121373">
        <ele>38</ele>
        <time>2020-01-17T08:39:40Z</time>
      </trkpt>
      <trkpt lat="59.229964" lon="18.121428">
        <ele>38</ele>
        <time>2020-01-17T08:39:41Z</time>
      </trkpt>
      <trkpt lat="59.229904" lon="18.121487">
        <ele>37</ele>
        <time>2020-01-17T08:39:42Z</time>
      </trkpt>
      <trkpt lat="59.229845" lon="18.121553">
        <ele>37</ele>
        <time>2020-01-17T08:39:43Z</time>
      </trkpt>
      <trkpt lat="59.229801" lon="18.12164">
        <ele>37</ele>
        <time>2020-01-17T08:39:44Z</time>
      </trkpt>
      <trkpt lat="59.229767" lon="18.121752">
        <ele>37</ele>
        <time>2020-01-17T08:39:45Z</time>
      </trkpt>
      <trkpt lat="59.229743" lon="18.121874">
        <ele>37</ele>
        <time>2020-01-17T08:39:46Z</time>
      </trkpt>
      <trkpt lat="59.229736" lon="18.121991">
        <ele>37</ele>
        <time>2020-01-17T08:39:47Z</time>
      </trkpt>
      <trkpt lat="59.229746" lon="18.122097">
        <ele>37</ele>
        <time>2020-01-17T08:39:48Z</time>
      </trkpt>
      <trkpt lat="59.229782" lon="18.122185">
        <ele>37</ele>
        <time>2020-01-17T08:39:49Z</time>
      </trkpt>
      <trkpt lat="59.229815" lon="18.122275">
        <ele>37</ele>
        <time>2020-01-17T08:39:50Z</time>
      </trkpt>
      <trkpt lat="59.229846" lon="18.122363">
        <ele>37</ele>
        <time>2020-01-17T08:39:51Z</time>
      </trkpt>
      <trkpt lat="59.229876" lon="18.122452">
        <ele>37</ele>
        <time>2020-01-17T08:39:52Z</time>
      </trkpt>
      <trkpt lat="59.229907" lon="18.122541">
        <ele>37</ele>
        <time>2020-01-17T08:39:53Z</time>
      </trkpt>
      <trkpt lat="59.229936" lon="18.122628">
        <ele>37</ele>
        <time>2020-01-17T08:39:54Z</time>
      </trkpt>
      <trkpt lat="59.229964" lon="18.122714">
        <ele>37</ele>
        <time>2020-01-17T08:39:55Z</time>
      </trkpt>
      <trkpt lat="59.229993" lon="18.122799">
        <ele>37</ele>
        <time>2020-01-17T08:39:56Z</time>
      </trkpt>
      <trkpt lat="59.230017" lon="18.122883">
        <ele>37</ele>
        <time>2020-01-17T08:39:57Z</time>
      </trkpt>
      <trkpt lat="59.230029" lon="18.12297">
        <ele>37</ele>
        <time>2020-01-17T08:39:58Z</time>
      </trkpt>
      <trkpt lat="59.230034" lon="18.123058">
        <ele>37</ele>
        <time>2020-01-17T08:39:59Z</time>
      </trkpt>
      <trkpt lat="59.230033" lon="18.123148">
        <ele>37</ele>
        <time>2020-01-17T08:40:00Z</time>
      </trkpt>
      <trkpt lat="59.230025" lon="18.123234">
        <ele>38</ele>
        <time>2020-01-17T08:40:01Z</time>
      </trkpt>
      <trkpt lat="59.230012" lon="18.123318">
        <ele>38</ele>
        <time>2020-01-17T08:40:02Z</time>
      </trkpt>
      <trkpt lat="59.229994" lon="18.123394">
        <ele>38</ele>
        <time>2020-01-17T08:40:03Z</time>
      </trkpt>
      <trkpt lat="59.22997" lon="18.123464">
        <ele>38</ele>
        <time>2020-01-17T08:40:04Z</time>
      </trkpt>
      <trkpt lat="59.229938" lon="18.12352">
        <ele>38</ele>
        <time>2020-01-17T08:40:05Z</time>
      </trkpt>
      <trkpt lat="59.2299" lon="18.123564">
        <ele>38</ele>
        <time>2020-01-17T08:40:06Z</time>
      </trkpt>
      <trkpt lat="59.229862" lon="18.1236">
        <ele>38</ele>
        <time>2020-01-17T08:40:07Z</time>
      </trkpt>
      <trkpt lat="59.229823" lon="18.123636">
        <ele>38</ele>
        <time>2020-01-17T08:40:08Z</time>
      </trkpt>
      <trkpt lat="59.229786" lon="18.123672">
        <ele>38</ele>
        <time>2020-01-17T08:40:09Z</time>
      </trkpt>
      <trkpt lat="59.229751" lon="18.123708">
        <ele>38</ele>
        <time>2020-01-17T08:40:10Z</time>
      </trkpt>
      <trkpt lat="59.229714" lon="18.123746">
        <ele>38</ele>
        <time>2020-01-17T08:40:11Z</time>
      </trkpt>
      <trkpt lat="59.229675" lon="18.123786">
        <ele>38</ele>
        <time>2020-01-17T08:40:12Z</time>
      </trkpt>
      <trkpt lat="59.229636" lon="18.123826">
        <ele>38</ele>
        <time>2020-01-17T08:40:13Z</time>
      </trkpt>
      <trkpt lat="59.229596" lon="18.123866">
        <ele>38</ele>
        <time>2020-01-17T08:40:14Z</time>
      </trkpt>
      <trkpt lat="59.229555" lon="18.123906">
        <ele>39</ele>
        <time>2020-01-17T08:40:15Z</time>
      </trkpt>
      <trkpt lat="59.229512" lon="18.123948">
        <ele>39</ele>
        <time>2020-01-17T08:40:16Z</time>
      </trkpt>
      <trkpt lat="59.229467" lon="18.12399">
        <ele>39</ele>
        <time>2020-01-17T08:40:17Z</time>
      </trkpt>
      <trkpt lat="59.229422" lon="18.124038">
        <ele>39</ele>
        <time>2020-01-17T08:40:18Z</time>
      </trkpt>
      <trkpt lat="59.229381" lon="18.124092">
        <ele>39</ele>
        <time>2020-01-17T08:40:19Z</time>
      </trkpt>
      <trkpt lat="59.229345" lon="18.12416">
        <ele>39</ele>
        <time>2020-01-17T08:40:20Z</time>
      </trkpt>
      <trkpt lat="59.229318" lon="18.124242">
        <ele>39</ele>
        <time>2020-01-17T08:40:21Z</time>
      </trkpt>
      <trkpt lat="59.229298" lon="18.124332">
        <ele>39</ele>
        <time>2020-01-17T08:40:22Z</time>
      </trkpt>
      <trkpt lat="59.229286" lon="18.12443">
        <ele>39</ele>
        <time>2020-01-17T08:40:23Z</time>
      </trkpt>
      <trkpt lat="59.229278" lon="18.124524">
        <ele>39</ele>
        <time>2020-01-17T08:40:24Z</time>
      </trkpt>
      <trkpt lat="59.22927" lon="18.124618">
        <ele>39</ele>
        <time>2020-01-17T08:40:25Z</time>
      </trkpt>
      <trkpt lat="59.229259" lon="18.12472">
        <ele>39</ele>
        <time>2020-01-17T08:40:26Z</time>
      </trkpt>
      <trkpt lat="59.229253" lon="18.12481">
        <ele>40</ele>
        <time>2020-01-17T08:40:27Z</time>
      </trkpt>
      <trkpt lat="59.229241" lon="18.124902">
        <ele>40</ele>
        <time>2020-01-17T08:40:28Z</time>
      </trkpt>
      <trkpt lat="59.22921" lon="18.124996">
        <ele>39</ele>
        <time>2020-01-17T08:40:29Z</time>
      </trkpt>
      <trkpt lat="59.229173" lon="18.125104">
        <ele>39</ele>
        <time>2020-01-17T08:40:30Z</time>
      </trkpt>
      <trkpt lat="59.229141" lon="18.12522">
        <ele>39</ele>
        <time>2020-01-17T08:40:31Z</time>
      </trkpt>
      <trkpt lat="59.229102" lon="18.125328">
        <ele>38</ele>
        <time>2020-01-17T08:40:32Z</time>
      </trkpt>
      <trkpt lat="59.229063" lon="18.12543">
        <ele>38</ele>
        <time>2020-01-17T08:40:33Z</time>
      </trkpt>
      <trkpt lat="59.229022" lon="18.125528">
        <ele>38</ele>
        <time>2020-01-17T08:40:34Z</time>
      </trkpt>
      <trkpt lat="59.228979" lon="18.125622">
        <ele>38</ele>
        <time>2020-01-17T08:40:35Z</time>
      </trkpt>
      <trkpt lat="59.228941" lon="18.125708">
        <ele>38</ele>
        <time>2020-01-17T08:40:36Z</time>
      </trkpt>
      <trkpt lat="59.2289" lon="18.12579">
        <ele>38</ele>
        <time>2020-01-17T08:40:37Z</time>
      </trkpt>
      <trkpt lat="59.228861" lon="18.125868">
        <ele>38</ele>
        <time>2020-01-17T08:40:38Z</time>
      </trkpt>
      <trkpt lat="59.228826" lon="18.125938">
        <ele>38</ele>
        <time>2020-01-17T08:40:39Z</time>
      </trkpt>
      <trkpt lat="59.228794" lon="18.126002">
        <ele>38</ele>
        <time>2020-01-17T08:40:40Z</time>
      </trkpt>
      <trkpt lat="59.228766" lon="18.126064">
        <ele>38</ele>
        <time>2020-01-17T08:40:41Z</time>
      </trkpt>
      <trkpt lat="59.228743" lon="18.12613">
        <ele>38</ele>
        <time>2020-01-17T08:40:42Z</time>
      </trkpt>
      <trkpt lat="59.228721" lon="18.126198">
        <ele>38</ele>
        <time>2020-01-17T08:40:43Z</time>
      </trkpt>
      <trkpt lat="59.228698" lon="18.126258">
        <ele>38</ele>
        <time>2020-01-17T08:40:44Z</time>
      </trkpt>
      <trkpt lat="59.22867" lon="18.126306">
        <ele>38</ele>
        <time>2020-01-17T08:40:45Z</time>
      </trkpt>
      <trkpt lat="59.228642" lon="18.126348">
        <ele>38</ele>
        <time>2020-01-17T08:40:46Z</time>
      </trkpt>
      <trkpt lat="59.228611" lon="18.126382">
        <ele>38</ele>
        <time>2020-01-17T08:40:47Z</time>
      </trkpt>
      <trkpt lat="59.228578" lon="18.126404">
        <ele>38</ele>
        <time>2020-01-17T08:40:48Z</time>
      </trkpt>
      <trkpt lat="59.228542" lon="18.126412">
        <ele>38</ele>
        <time>2020-01-17T08:40:49Z</time>
      </trkpt>
      <trkpt lat="59.228503" lon="18.126412">
        <ele>37</ele>
        <time>2020-01-17T08:40:50Z</time>
      </trkpt>
      <trkpt lat="59.228466" lon="18.126404">
        <ele>38</ele>
        <time>2020-01-17T08:40:51Z</time>
      </trkpt>
      <trkpt lat="59.228431" lon="18.126398">
        <ele>38</ele>
        <time>2020-01-17T08:40:52Z</time>
      </trkpt>
      <trkpt lat="59.228393" lon="18.126392">
        <ele>37</ele>
        <time>2020-01-17T08:40:53Z</time>
      </trkpt>
      <trkpt lat="59.228357" lon="18.126388">
        <ele>37</ele>
        <time>2020-01-17T08:40:54Z</time>
      </trkpt>
      <trkpt lat="59.228322" lon="18.126386">
        <ele>38</ele>
        <time>2020-01-17T08:40:55Z</time>
      </trkpt>
      <trkpt lat="59.228286" lon="18.126388">
        <ele>38</ele>
        <time>2020-01-17T08:40:56Z</time>
      </trkpt>
      <trkpt lat="59.228248" lon="18.126394">
        <ele>38</ele>
        <time>2020-01-17T08:40:57Z</time>
      </trkpt>
      <trkpt lat="59.228209" lon="18.126404">
        <ele>38</ele>
        <time>2020-01-17T08:40:58Z</time>
      </trkpt>
      <trkpt lat="59.22817" lon="18.126414">
        <ele>38</ele>
        <time>2020-01-17T08:40:59Z</time>
      </trkpt>
      <trkpt lat="59.228133" lon="18.12642">
        <ele>38</ele>
        <time>2020-01-17T08:41:00Z</time>
      </trkpt>
      <trkpt lat="59.228097" lon="18.126428">
        <ele>38</ele>
        <time>2020-01-17T08:41:01Z</time>
      </trkpt>
      <trkpt lat="59.228062" lon="18.126436">
        <ele>38</ele>
        <time>2020-01-17T08:41:02Z</time>
      </trkpt>
      <trkpt lat="59.228027" lon="18.126444">
        <ele>38</ele>
        <time>2020-01-17T08:41:03Z</time>
      </trkpt>
      <trkpt lat="59.227991" lon="18.126452">
        <ele>38</ele>
        <time>2020-01-17T08:41:04Z</time>
      </trkpt>
      <trkpt lat="59.227955" lon="18.12646">
        <ele>38</ele>
        <time>2020-01-17T08:41:05Z</time>
      </trkpt>
      <trkpt lat="59.22792" lon="18.126464">
        <ele>39</ele>
        <time>2020-01-17T08:41:06Z</time>
      </trkpt>
      <trkpt lat="59.227885" lon="18.126474">
        <ele>39</ele>
        <time>2020-01-17T08:41:07Z</time>
      </trkpt>
      <trkpt lat="59.22785" lon="18.126486">
        <ele>39</ele>
        <time>2020-01-17T08:41:08Z</time>
      </trkpt>
      <trkpt lat="59.227818" lon="18.126506">
        <ele>39</ele>
        <time>2020-01-17T08:41:09Z</time>
      </trkpt>
      <trkpt lat="59.227789" lon="18.12654">
        <ele>39</ele>
        <time>2020-01-17T08:41:10Z</time>
      </trkpt>
      <trkpt lat="59.227768" lon="18.126592">
        <ele>39</ele>
        <time>2020-01-17T08:41:11Z</time>
      </trkpt>
      <trkpt lat="59.227753" lon="18.126652">
        <ele>39</ele>
        <time>2020-01-17T08:41:12Z</time>
      </trkpt>
      <trkpt lat="59.227739" lon="18.126716">
        <ele>39</ele>
        <time>2020-01-17T08:41:13Z</time>
      </trkpt>
      <trkpt lat="59.227728" lon="18.126782">
        <ele>39</ele>
        <time>2020-01-17T08:41:14Z</time>
      </trkpt>
      <trkpt lat="59.227718" lon="18.12685">
        <ele>39</ele>
        <time>2020-01-17T08:41:15Z</time>
      </trkpt>
      <trkpt lat="59.227706" lon="18.126918">
        <ele>39</ele>
        <time>2020-01-17T08:41:16Z</time>
      </trkpt>
      <trkpt lat="59.227693" lon="18.126988">
        <ele>39</ele>
        <time>2020-01-17T08:41:17Z</time>
      </trkpt>
      <trkpt lat="59.227678" lon="18.127054">
        <ele>39</ele>
        <time>2020-01-17T08:41:18Z</time>
      </trkpt>
      <trkpt lat="59.227661" lon="18.127124">
        <ele>39</ele>
        <time>2020-01-17T08:41:19Z</time>
      </trkpt>
      <trkpt lat="59.227637" lon="18.1272">
        <ele>39</ele>
        <time>2020-01-17T08:41:20Z</time>
      </trkpt>
      <trkpt lat="59.227613" lon="18.127278">
        <ele>39</ele>
        <time>2020-01-17T08:41:21Z</time>
      </trkpt>
      <trkpt lat="59.227588" lon="18.127354">
        <ele>39</ele>
        <time>2020-01-17T08:41:22Z</time>
      </trkpt>
      <trkpt lat="59.227558" lon="18.127432">
        <ele>39</ele>
        <time>2020-01-17T08:41:23Z</time>
      </trkpt>
      <trkpt lat="59.22753" lon="18.127508">
        <ele>39</ele>
        <time>2020-01-17T08:41:24Z</time>
      </trkpt>
      <trkpt lat="59.227502" lon="18.127584">
        <ele>39</ele>
        <time>2020-01-17T08:41:25Z</time>
      </trkpt>
      <trkpt lat="59.227471" lon="18.127664">
        <ele>39</ele>
        <time>2020-01-17T08:41:26Z</time>
      </trkpt>
      <trkpt lat="59.227441" lon="18.127744">
        <ele>39</ele>
        <time>2020-01-17T08:41:27Z</time>
      </trkpt>
      <trkpt lat="59.227413" lon="18.127824">
        <ele>39</ele>
        <time>2020-01-17T08:41:28Z</time>
      </trkpt>
      <trkpt lat="59.227387" lon="18.127904">
        <ele>39</ele>
        <time>2020-01-17T08:41:29Z</time>
      </trkpt>
      <trkpt lat="59.227362" lon="18.127984">
        <ele>39</ele>
        <time>2020-01-17T08:41:30Z</time>
      </trkpt>
      <trkpt lat="59.227336" lon="18.12806">
        <ele>39</ele>
        <time>2020-01-17T08:41:31Z</time>
      </trkpt>
      <trkpt lat="59.227312" lon="18.128138">
        <ele>40</ele>
        <time>2020-01-17T08:41:32Z</time>
      </trkpt>
      <trkpt lat="59.227288" lon="18.128216">
        <ele>40</ele>
        <time>2020-01-17T08:41:33Z</time>
      </trkpt>
      <trkpt lat="59.227263" lon="18.12829">
        <ele>40</ele>
        <time>2020-01-17T08:41:34Z</time>
      </trkpt>
      <trkpt lat="59.227235" lon="18.128372">
        <ele>40</ele>
        <time>2020-01-17T08:41:35Z</time>
      </trkpt>
      <trkpt lat="59.227204" lon="18.128454">
        <ele>40</ele>
        <time>2020-01-17T08:41:36Z</time>
      </trkpt>
      <trkpt lat="59.227177" lon="18.128536">
        <ele>40</ele>
        <time>2020-01-17T08:41:37Z</time>
      </trkpt>
      <trkpt lat="59.227152" lon="18.128614">
        <ele>40</ele>
        <time>2020-01-17T08:41:38Z</time>
      </trkpt>
      <trkpt lat="59.227118" lon="18.1287">
        <ele>40</ele>
        <time>2020-01-17T08:41:39Z</time>
      </trkpt>
      <trkpt lat="59.227083" lon="18.128786">
        <ele>40</ele>
        <time>2020-01-17T08:41:40Z</time>
      </trkpt>
      <trkpt lat="59.227057" lon="18.128868">
        <ele>40</ele>
        <time>2020-01-17T08:41:41Z</time>
      </trkpt>
      <trkpt lat="59.227026" lon="18.128954">
        <ele>40</ele>
        <time>2020-01-17T08:41:42Z</time>
      </trkpt>
      <trkpt lat="59.226993" lon="18.129044">
        <ele>40</ele>
        <time>2020-01-17T08:41:43Z</time>
      </trkpt>
      <trkpt lat="59.22696" lon="18.129134">
        <ele>40</ele>
        <time>2020-01-17T08:41:44Z</time>
      </trkpt>
      <trkpt lat="59.226925" lon="18.129222">
        <ele>40</ele>
        <time>2020-01-17T08:41:45Z</time>
      </trkpt>
      <trkpt lat="59.22689" lon="18.129312">
        <ele>40</ele>
        <time>2020-01-17T08:41:46Z</time>
      </trkpt>
      <trkpt lat="59.226857" lon="18.129398">
        <ele>40</ele>
        <time>2020-01-17T08:41:47Z</time>
      </trkpt>
      <trkpt lat="59.226824" lon="18.129484">
        <ele>40</ele>
        <time>2020-01-17T08:41:48Z</time>
      </trkpt>
      <trkpt lat="59.226793" lon="18.12957">
        <ele>40</ele>
        <time>2020-01-17T08:41:49Z</time>
      </trkpt>
      <trkpt lat="59.226763" lon="18.129656">
        <ele>40</ele>
        <time>2020-01-17T08:41:50Z</time>
      </trkpt>
      <trkpt lat="59.226732" lon="18.129744">
        <ele>40</ele>
        <time>2020-01-17T08:41:51Z</time>
      </trkpt>
      <trkpt lat="59.2267" lon="18.129832">
        <ele>40</ele>
        <time>2020-01-17T08:41:52Z</time>
      </trkpt>
      <trkpt lat="59.226668" lon="18.129922">
        <ele>40</ele>
        <time>2020-01-17T08:41:53Z</time>
      </trkpt>
      <trkpt lat="59.226635" lon="18.13001">
        <ele>40</ele>
        <time>2020-01-17T08:41:54Z</time>
      </trkpt>
      <trkpt lat="59.2266" lon="18.130096">
        <ele>39</ele>
        <time>2020-01-17T08:41:55Z</time>
      </trkpt>
      <trkpt lat="59.226565" lon="18.130182">
        <ele>39</ele>
        <time>2020-01-17T08:41:56Z</time>
      </trkpt>
      <trkpt lat="59.226533" lon="18.130266">
        <ele>39</ele>
        <time>2020-01-17T08:41:57Z</time>
      </trkpt>
      <trkpt lat="59.226499" lon="18.130346">
        <ele>40</ele>
        <time>2020-01-17T08:41:58Z</time>
      </trkpt>
      <trkpt lat="59.226462" lon="18.130424">
        <ele>40</ele>
        <time>2020-01-17T08:41:59Z</time>
      </trkpt>
      <trkpt lat="59.22642" lon="18.130498">
        <ele>40</ele>
        <time>2020-01-17T08:42:00Z</time>
      </trkpt>
      <trkpt lat="59.226374" lon="18.130565">
        <ele>40</ele>
        <time>2020-01-17T08:42:01Z</time>
      </trkpt>
      <trkpt lat="59.22633" lon="18.13063">
        <ele>40</ele>
        <time>2020-01-17T08:42:02Z</time>
      </trkpt>
      <trkpt lat="59.226285" lon="18.130693">
        <ele>40</ele>
        <time>2020-01-17T08:42:03Z</time>
      </trkpt>
      <trkpt lat="59.22624" lon="18.130755">
        <ele>40</ele>
        <time>2020-01-17T08:42:04Z</time>
      </trkpt>
      <trkpt lat="59.226197" lon="18.130816">
        <ele>40</ele>
        <time>2020-01-17T08:42:05Z</time>
      </trkpt>
      <trkpt lat="59.226164" lon="18.130873">
        <ele>40</ele>
        <time>2020-01-17T08:42:06Z</time>
      </trkpt>
      <trkpt lat="59.226118" lon="18.13094">
        <ele>40</ele>
        <time>2020-01-17T08:42:07Z</time>
      </trkpt>
      <trkpt lat="59.22607" lon="18.131005">
        <ele>40</ele>
        <time>2020-01-17T08:42:08Z</time>
      </trkpt>
      <trkpt lat="59.22603" lon="18.131068">
        <ele>40</ele>
        <time>2020-01-17T08:42:09Z</time>
      </trkpt>
      <trkpt lat="59.225989" lon="18.131131">
        <ele>40</ele>
        <time>2020-01-17T08:42:10Z</time>
      </trkpt>
      <trkpt lat="59.22595" lon="18.131191">
        <ele>40</ele>
        <time>2020-01-17T08:42:11Z</time>
      </trkpt>
      <trkpt lat="59.225911" lon="18.13125">
        <ele>40</ele>
        <time>2020-01-17T08:42:12Z</time>
      </trkpt>
      <trkpt lat="59.225873" lon="18.131312">
        <ele>40</ele>
        <time>2020-01-17T08:42:13Z</time>
      </trkpt>
      <trkpt lat="59.225833" lon="18.131378">
        <ele>40</ele>
        <time>2020-01-17T08:42:14Z</time>
      </trkpt>
      <trkpt lat="59.225794" lon="18.13145">
        <ele>40</ele>
        <time>2020-01-17T08:42:15Z</time>
      </trkpt>
      <trkpt lat="59.225765" lon="18.131534">
        <ele>40</ele>
        <time>2020-01-17T08:42:16Z</time>
      </trkpt>
      <trkpt lat="59.225754" lon="18.131628">
        <ele>40</ele>
        <time>2020-01-17T08:42:17Z</time>
      </trkpt>
      <trkpt lat="59.225739" lon="18.131729">
        <ele>39</ele>
        <time>2020-01-17T08:42:18Z</time>
      </trkpt>
      <trkpt lat="59.225725" lon="18.131825">
        <ele>39</ele>
        <time>2020-01-17T08:42:19Z</time>
      </trkpt>
      <trkpt lat="59.225703" lon="18.131918">
        <ele>39</ele>
        <time>2020-01-17T08:42:20Z</time>
      </trkpt>
      <trkpt lat="59.225687" lon="18.132003">
        <ele>39</ele>
        <time>2020-01-17T08:42:21Z</time>
      </trkpt>
      <trkpt lat="59.225666" lon="18.132082">
        <ele>39</ele>
        <time>2020-01-17T08:42:22Z</time>
      </trkpt>
      <trkpt lat="59.225643" lon="18.132146">
        <ele>39</ele>
        <time>2020-01-17T08:42:23Z</time>
      </trkpt>
      <trkpt lat="59.225615" lon="18.132195">
        <ele>40</ele>
        <time>2020-01-17T08:42:24Z</time>
      </trkpt>
      <trkpt lat="59.225585" lon="18.132239">
        <ele>40</ele>
        <time>2020-01-17T08:42:25Z</time>
      </trkpt>
      <trkpt lat="59.225554" lon="18.132283">
        <ele>40</ele>
        <time>2020-01-17T08:42:26Z</time>
      </trkpt>
      <trkpt lat="59.225527" lon="18.132328">
        <ele>40</ele>
        <time>2020-01-17T08:42:27Z</time>
      </trkpt>
      <trkpt lat="59.225504" lon="18.132373">
        <ele>40</ele>
        <time>2020-01-17T08:42:28Z</time>
      </trkpt>
      <trkpt lat="59.225477" lon="18.132418">
        <ele>40</ele>
        <time>2020-01-17T08:42:29Z</time>
      </trkpt>
      <trkpt lat="59.22545" lon="18.132471">
        <ele>41</ele>
        <time>2020-01-17T08:42:30Z</time>
      </trkpt>
      <trkpt lat="59.225407" lon="18.132535">
        <ele>41</ele>
        <time>2020-01-17T08:42:31Z</time>
      </trkpt>
      <trkpt lat="59.22536" lon="18.132602">
        <ele>41</ele>
        <time>2020-01-17T08:42:32Z</time>
      </trkpt>
      <trkpt lat="59.225314" lon="18.132674">
        <ele>41</ele>
        <time>2020-01-17T08:42:33Z</time>
      </trkpt>
      <trkpt lat="59.225262" lon="18.132757">
        <ele>41</ele>
        <time>2020-01-17T08:42:34Z</time>
      </trkpt>
      <trkpt lat="59.225215" lon="18.132843">
        <ele>41</ele>
        <time>2020-01-17T08:42:35Z</time>
      </trkpt>
      <trkpt lat="59.225161" lon="18.132938">
        <ele>41</ele>
        <time>2020-01-17T08:42:36Z</time>
      </trkpt>
      <trkpt lat="59.225099" lon="18.133041">
        <ele>40</ele>
        <time>2020-01-17T08:42:37Z</time>
      </trkpt>
      <trkpt lat="59.225017" lon="18.133165">
        <ele>40</ele>
        <time>2020-01-17T08:42:38Z</time>
      </trkpt>
      <trkpt lat="59.224939" lon="18.133292">
        <ele>39</ele>
        <time>2020-01-17T08:42:39Z</time>
      </trkpt>
      <trkpt lat="59.224868" lon="18.133417">
        <ele>38</ele>
        <time>2020-01-17T08:42:40Z</time>
      </trkpt>
      <trkpt lat="59.224801" lon="18.133547">
        <ele>37</ele>
        <time>2020-01-17T08:42:41Z</time>
      </trkpt>
      <trkpt lat="59.224731" lon="18.133685">
        <ele>37</ele>
        <time>2020-01-17T08:42:42Z</time>
      </trkpt>
      <trkpt lat="59.224666" lon="18.133819">
        <ele>36</ele>
        <time>2020-01-17T08:42:43Z</time>
      </trkpt>
      <trkpt lat="59.224607" lon="18.133951">
        <ele>35</ele>
        <time>2020-01-17T08:42:44Z</time>
      </trkpt>
      <trkpt lat="59.224549" lon="18.134083">
        <ele>35</ele>
        <time>2020-01-17T08:42:45Z</time>
      </trkpt>
      <trkpt lat="59.224494" lon="18.134214">
        <ele>35</ele>
        <time>2020-01-17T08:42:46Z</time>
      </trkpt>
      <trkpt lat="59.224441" lon="18.134341">
        <ele>34</ele>
        <time>2020-01-17T08:42:47Z</time>
      </trkpt>
      <trkpt lat="59.224391" lon="18.134465">
        <ele>34</ele>
        <time>2020-01-17T08:42:48Z</time>
      </trkpt>
      <trkpt lat="59.224347" lon="18.134581">
        <ele>34</ele>
        <time>2020-01-17T08:42:49Z</time>
      </trkpt>
      <trkpt lat="59.224303" lon="18.134694">
        <ele>33</ele>
        <time>2020-01-17T08:42:50Z</time>
      </trkpt>
      <trkpt lat="59.224257" lon="18.134803">
        <ele>33</ele>
        <time>2020-01-17T08:42:51Z</time>
      </trkpt>
      <trkpt lat="59.224212" lon="18.134907">
        <ele>32</ele>
        <time>2020-01-17T08:42:52Z</time>
      </trkpt>
      <trkpt lat="59.224169" lon="18.13501">
        <ele>32</ele>
        <time>2020-01-17T08:42:53Z</time>
      </trkpt>
      <trkpt lat="59.224129" lon="18.13511">
        <ele>32</ele>
        <time>2020-01-17T08:42:54Z</time>
      </trkpt>
      <trkpt lat="59.224091" lon="18.135209">
        <ele>32</ele>
        <time>2020-01-17T08:42:55Z</time>
      </trkpt>
      <trkpt lat="59.224057" lon="18.135306">
        <ele>32</ele>
        <time>2020-01-17T08:42:56Z</time>
      </trkpt>
      <trkpt lat="59.224018" lon="18.135398">
        <ele>32</ele>
        <time>2020-01-17T08:42:57Z</time>
      </trkpt>
      <trkpt lat="59.223979" lon="18.135489">
        <ele>32</ele>
        <time>2020-01-17T08:42:58Z</time>
      </trkpt>
      <trkpt lat="59.223939" lon="18.135575">
        <ele>32</ele>
        <time>2020-01-17T08:42:59Z</time>
      </trkpt>
      <trkpt lat="59.223906" lon="18.135662">
        <ele>32</ele>
        <time>2020-01-17T08:43:00Z</time>
      </trkpt>
      <trkpt lat="59.223872" lon="18.135745">
        <ele>32</ele>
        <time>2020-01-17T08:43:01Z</time>
      </trkpt>
      <trkpt lat="59.223841" lon="18.135825">
        <ele>32</ele>
        <time>2020-01-17T08:43:02Z</time>
      </trkpt>
      <trkpt lat="59.223809" lon="18.135903">
        <ele>32</ele>
        <time>2020-01-17T08:43:03Z</time>
      </trkpt>
      <trkpt lat="59.223778" lon="18.135981">
        <ele>32</ele>
        <time>2020-01-17T08:43:04Z</time>
      </trkpt>
      <trkpt lat="59.223746" lon="18.13606">
        <ele>32</ele>
        <time>2020-01-17T08:43:05Z</time>
      </trkpt>
      <trkpt lat="59.223713" lon="18.136138">
        <ele>32</ele>
        <time>2020-01-17T08:43:06Z</time>
      </trkpt>
      <trkpt lat="59.223679" lon="18.136216">
        <ele>31</ele>
        <time>2020-01-17T08:43:07Z</time>
      </trkpt>
      <trkpt lat="59.223644" lon="18.136293">
        <ele>31</ele>
        <time>2020-01-17T08:43:08Z</time>
      </trkpt>
      <trkpt lat="59.22361" lon="18.13637">
        <ele>31</ele>
        <time>2020-01-17T08:43:09Z</time>
      </trkpt>
      <trkpt lat="59.223575" lon="18.136445">
        <ele>31</ele>
        <time>2020-01-17T08:43:10Z</time>
      </trkpt>
      <trkpt lat="59.223538" lon="18.136518">
        <ele>31</ele>
        <time>2020-01-17T08:43:11Z</time>
      </trkpt>
      <trkpt lat="59.2235" lon="18.136591">
        <ele>31</ele>
        <time>2020-01-17T08:43:12Z</time>
      </trkpt>
      <trkpt lat="59.223463" lon="18.136662">
        <ele>31</ele>
        <time>2020-01-17T08:43:13Z</time>
      </trkpt>
      <trkpt lat="59.223424" lon="18.136729">
        <ele>31</ele>
        <time>2020-01-17T08:43:14Z</time>
      </trkpt>
      <trkpt lat="59.223384" lon="18.136796">
        <ele>31</ele>
        <time>2020-01-17T08:43:15Z</time>
      </trkpt>
      <trkpt lat="59.223344" lon="18.136862">
        <ele>31</ele>
        <time>2020-01-17T08:43:16Z</time>
      </trkpt>
      <trkpt lat="59.223304" lon="18.136927">
        <ele>31</ele>
        <time>2020-01-17T08:43:17Z</time>
      </trkpt>
      <trkpt lat="59.223264" lon="18.136988">
        <ele>31</ele>
        <time>2020-01-17T08:43:18Z</time>
      </trkpt>
      <trkpt lat="59.223223" lon="18.137047">
        <ele>31</ele>
        <time>2020-01-17T08:43:19Z</time>
      </trkpt>
      <trkpt lat="59.223184" lon="18.137103">
        <ele>31</ele>
        <time>2020-01-17T08:43:20Z</time>
      </trkpt>
      <trkpt lat="59.223147" lon="18.137158">
        <ele>31</ele>
        <time>2020-01-17T08:43:21Z</time>
      </trkpt>
      <trkpt lat="59.223108" lon="18.13721">
        <ele>31</ele>
        <time>2020-01-17T08:43:22Z</time>
      </trkpt>
      <trkpt lat="59.223068" lon="18.137259">
        <ele>31</ele>
        <time>2020-01-17T08:43:23Z</time>
      </trkpt>
      <trkpt lat="59.223027" lon="18.137306">
        <ele>31</ele>
        <time>2020-01-17T08:43:24Z</time>
      </trkpt>
      <trkpt lat="59.222986" lon="18.137351">
        <ele>31</ele>
        <time>2020-01-17T08:43:25Z</time>
      </trkpt>
      <trkpt lat="59.222949" lon="18.137394">
        <ele>31</ele>
        <time>2020-01-17T08:43:26Z</time>
      </trkpt>
      <trkpt lat="59.22291" lon="18.137439">
        <ele>31</ele>
        <time>2020-01-17T08:43:27Z</time>
      </trkpt>
      <trkpt lat="59.222869" lon="18.137481">
        <ele>31</ele>
        <time>2020-01-17T08:43:28Z</time>
      </trkpt>
      <trkpt lat="59.222823" lon="18.137522">
        <ele>32</ele>
        <time>2020-01-17T08:43:29Z</time>
      </trkpt>
      <trkpt lat="59.222775" lon="18.137561">
        <ele>31</ele>
        <time>2020-01-17T08:43:30Z</time>
      </trkpt>
      <trkpt lat="59.222726" lon="18.1376">
        <ele>31</ele>
        <time>2020-01-17T08:43:31Z</time>
      </trkpt>
      <trkpt lat="59.222683" lon="18.137638">
        <ele>31</ele>
        <time>2020-01-17T08:43:32Z</time>
      </trkpt>
      <trkpt lat="59.222636" lon="18.137672">
        <ele>31</ele>
        <time>2020-01-17T08:43:33Z</time>
      </trkpt>
      <trkpt lat="59.222589" lon="18.137703">
        <ele>31</ele>
        <time>2020-01-17T08:43:34Z</time>
      </trkpt>
      <trkpt lat="59.222542" lon="18.137733">
        <ele>31</ele>
        <time>2020-01-17T08:43:35Z</time>
      </trkpt>
      <trkpt lat="59.222496" lon="18.137763">
        <ele>31</ele>
        <time>2020-01-17T08:43:36Z</time>
      </trkpt>
      <trkpt lat="59.22245" lon="18.137793">
        <ele>31</ele>
        <time>2020-01-17T08:43:37Z</time>
      </trkpt>
      <trkpt lat="59.222405" lon="18.137818">
        <ele>31</ele>
        <time>2020-01-17T08:43:38Z</time>
      </trkpt>
      <trkpt lat="59.22236" lon="18.137842">
        <ele>31</ele>
        <time>2020-01-17T08:43:39Z</time>
      </trkpt>
      <trkpt lat="59.222315" lon="18.137866">
        <ele>31</ele>
        <time>2020-01-17T08:43:40Z</time>
      </trkpt>
      <trkpt lat="59.22227" lon="18.13789">
        <ele>31</ele>
        <time>2020-01-17T08:43:41Z</time>
      </trkpt>
      <trkpt lat="59.222223" lon="18.137912">
        <ele>31</ele>
        <time>2020-01-17T08:43:42Z</time>
      </trkpt>
      <trkpt lat="59.222178" lon="18.137934">
        <ele>32</ele>
        <time>2020-01-17T08:43:43Z</time>
      </trkpt>
      <trkpt lat="59.222132" lon="18.137955">
        <ele>32</ele>
        <time>2020-01-17T08:43:44Z</time>
      </trkpt>
      <trkpt lat="59.222089" lon="18.137976">
        <ele>32</ele>
        <time>2020-01-17T08:43:45Z</time>
      </trkpt>
      <trkpt lat="59.222044" lon="18.138001">
        <ele>32</ele>
        <time>2020-01-17T08:43:46Z</time>
      </trkpt>
      <trkpt lat="59.222" lon="18.138024">
        <ele>33</ele>
        <time>2020-01-17T08:43:47Z</time>
      </trkpt>
      <trkpt lat="59.221953" lon="18.138043">
        <ele>33</ele>
        <time>2020-01-17T08:43:48Z</time>
      </trkpt>
      <trkpt lat="59.221908" lon="18.138059">
        <ele>33</ele>
        <time>2020-01-17T08:43:49Z</time>
      </trkpt>
      <trkpt lat="59.221863" lon="18.138077">
        <ele>33</ele>
        <time>2020-01-17T08:43:50Z</time>
      </trkpt>
      <trkpt lat="59.221814" lon="18.138098">
        <ele>33</ele>
        <time>2020-01-17T08:43:51Z</time>
      </trkpt>
      <trkpt lat="59.221761" lon="18.13812">
        <ele>33</ele>
        <time>2020-01-17T08:43:52Z</time>
      </trkpt>
      <trkpt lat="59.22171" lon="18.138142">
        <ele>33</ele>
        <time>2020-01-17T08:43:53Z</time>
      </trkpt>
      <trkpt lat="59.22166" lon="18.138163">
        <ele>33</ele>
        <time>2020-01-17T08:43:54Z</time>
      </trkpt>
      <trkpt lat="59.22161" lon="18.138184">
        <ele>33</ele>
        <time>2020-01-17T08:43:55Z</time>
      </trkpt>
      <trkpt lat="59.221561" lon="18.138204">
        <ele>33</ele>
        <time>2020-01-17T08:43:56Z</time>
      </trkpt>
      <trkpt lat="59.221512" lon="18.138225">
        <ele>33</ele>
        <time>2020-01-17T08:43:57Z</time>
      </trkpt>
      <trkpt lat="59.221461" lon="18.138244">
        <ele>33</ele>
        <time>2020-01-17T08:43:58Z</time>
      </trkpt>
      <trkpt lat="59.22141" lon="18.138262">
        <ele>33</ele>
        <time>2020-01-17T08:43:59Z</time>
      </trkpt>
      <trkpt lat="59.22136" lon="18.138281">
        <ele>33</ele>
        <time>2020-01-17T08:44:00Z</time>
      </trkpt>
      <trkpt lat="59.22131" lon="18.138302">
        <ele>33</ele>
        <time>2020-01-17T08:44:01Z</time>
      </trkpt>
      <trkpt lat="59.221266" lon="18.138319">
        <ele>33</ele>
        <time>2020-01-17T08:44:02Z</time>
      </trkpt>
      <trkpt lat="59.221221" lon="18.138336">
        <ele>33</ele>
        <time>2020-01-17T08:44:03Z</time>
      </trkpt>
      <trkpt lat="59.221171" lon="18.138356">
        <ele>33</ele>
        <time>2020-01-17T08:44:04Z</time>
      </trkpt>
      <trkpt lat="59.221119" lon="18.138376">
        <ele>33</ele>
        <time>2020-01-17T08:44:05Z</time>
      </trkpt>
      <trkpt lat="59.221069" lon="18.138396">
        <ele>33</ele>
        <time>2020-01-17T08:44:06Z</time>
      </trkpt>
      <trkpt lat="59.221018" lon="18.138416">
        <ele>33</ele>
        <time>2020-01-17T08:44:07Z</time>
      </trkpt>
      <trkpt lat="59.220966" lon="18.138435">
        <ele>33</ele>
        <time>2020-01-17T08:44:08Z</time>
      </trkpt>
      <trkpt lat="59.220913" lon="18.138454">
        <ele>33</ele>
        <time>2020-01-17T08:44:09Z</time>
      </trkpt>
      <trkpt lat="59.220859" lon="18.138476">
        <ele>32</ele>
        <time>2020-01-17T08:44:10Z</time>
      </trkpt>
      <trkpt lat="59.220805" lon="18.138498">
        <ele>32</ele>
        <time>2020-01-17T08:44:11Z</time>
      </trkpt>
      <trkpt lat="59.220751" lon="18.138523">
        <ele>32</ele>
        <time>2020-01-17T08:44:12Z</time>
      </trkpt>
      <trkpt lat="59.220697" lon="18.13855">
        <ele>32</ele>
        <time>2020-01-17T08:44:13Z</time>
      </trkpt>
      <trkpt lat="59.220644" lon="18.138582">
        <ele>33</ele>
        <time>2020-01-17T08:44:14Z</time>
      </trkpt>
      <trkpt lat="59.220588" lon="18.138617">
        <ele>32</ele>
        <time>2020-01-17T08:44:15Z</time>
      </trkpt>
      <trkpt lat="59.220529" lon="18.138653">
        <ele>32</ele>
        <time>2020-01-17T08:44:16Z</time>
      </trkpt>
      <trkpt lat="59.220469" lon="18.138693">
        <ele>32</ele>
        <time>2020-01-17T08:44:17Z</time>
      </trkpt>
      <trkpt lat="59.220408" lon="18.138735">
        <ele>32</ele>
        <time>2020-01-17T08:44:18Z</time>
      </trkpt>
      <trkpt lat="59.220347" lon="18.138782">
        <ele>32</ele>
        <time>2020-01-17T08:44:19Z</time>
      </trkpt>
      <trkpt lat="59.220287" lon="18.138832">
        <ele>32</ele>
        <time>2020-01-17T08:44:20Z</time>
      </trkpt>
      <trkpt lat="59.22023" lon="18.138888">
        <ele>32</ele>
        <time>2020-01-17T08:44:21Z</time>
      </trkpt>
      <trkpt lat="59.220173" lon="18.138952">
        <ele>32</ele>
        <time>2020-01-17T08:44:22Z</time>
      </trkpt>
      <trkpt lat="59.220119" lon="18.13902">
        <ele>32</ele>
        <time>2020-01-17T08:44:23Z</time>
      </trkpt>
      <trkpt lat="59.22007" lon="18.139091">
        <ele>32</ele>
        <time>2020-01-17T08:44:24Z</time>
      </trkpt>
      <trkpt lat="59.220021" lon="18.139164">
        <ele>32</ele>
        <time>2020-01-17T08:44:25Z</time>
      </trkpt>
      <trkpt lat="59.219977" lon="18.139235">
        <ele>32</ele>
        <time>2020-01-17T08:44:26Z</time>
      </trkpt>
      <trkpt lat="59.219939" lon="18.139302">
        <ele>33</ele>
        <time>2020-01-17T08:44:27Z</time>
      </trkpt>
      <trkpt lat="59.219897" lon="18.139367">
        <ele>33</ele>
        <time>2020-01-17T08:44:28Z</time>
      </trkpt>
      <trkpt lat="59.21984" lon="18.139441">
        <ele>32</ele>
        <time>2020-01-17T08:44:29Z</time>
      </trkpt>
      <trkpt lat="59.219769" lon="18.139515">
        <ele>32</ele>
        <time>2020-01-17T08:44:30Z</time>
      </trkpt>
      <trkpt lat="59.21969" lon="18.139599">
        <ele>31</ele>
        <time>2020-01-17T08:44:31Z</time>
      </trkpt>
      <trkpt lat="59.219626" lon="18.139681">
        <ele>31</ele>
        <time>2020-01-17T08:44:32Z</time>
      </trkpt>
      <trkpt lat="59.219559" lon="18.139766">
        <ele>30</ele>
        <time>2020-01-17T08:44:33Z</time>
      </trkpt>
      <trkpt lat="59.21949" lon="18.139847">
        <ele>30</ele>
        <time>2020-01-17T08:44:34Z</time>
      </trkpt>
      <trkpt lat="59.219422" lon="18.139925">
        <ele>30</ele>
        <time>2020-01-17T08:44:35Z</time>
      </trkpt>
      <trkpt lat="59.219357" lon="18.140002">
        <ele>29</ele>
        <time>2020-01-17T08:44:36Z</time>
      </trkpt>
      <trkpt lat="59.219291" lon="18.140078">
        <ele>29</ele>
        <time>2020-01-17T08:44:37Z</time>
      </trkpt>
      <trkpt lat="59.219229" lon="18.140149">
        <ele>29</ele>
        <time>2020-01-17T08:44:38Z</time>
      </trkpt>
      <trkpt lat="59.219169" lon="18.140219">
        <ele>28</ele>
        <time>2020-01-17T08:44:39Z</time>
      </trkpt>
      <trkpt lat="59.219114" lon="18.140288">
        <ele>28</ele>
        <time>2020-01-17T08:44:40Z</time>
      </trkpt>
      <trkpt lat="59.219062" lon="18.140355">
        <ele>28</ele>
        <time>2020-01-17T08:44:41Z</time>
      </trkpt>
      <trkpt lat="59.219006" lon="18.140421">
        <ele>28</ele>
        <time>2020-01-17T08:44:42Z</time>
      </trkpt>
      <trkpt lat="59.21895" lon="18.140487">
        <ele>28</ele>
        <time>2020-01-17T08:44:43Z</time>
      </trkpt>
      <trkpt lat="59.218895" lon="18.140551">
        <ele>27</ele>
        <time>2020-01-17T08:44:44Z</time>
      </trkpt>
      <trkpt lat="59.218842" lon="18.140616">
        <ele>27</ele>
        <time>2020-01-17T08:44:45Z</time>
      </trkpt>
      <trkpt lat="59.218793" lon="18.140684">
        <ele>27</ele>
        <time>2020-01-17T08:44:46Z</time>
      </trkpt>
      <trkpt lat="59.21875" lon="18.140761">
        <ele>27</ele>
        <time>2020-01-17T08:44:47Z</time>
      </trkpt>
      <trkpt lat="59.218714" lon="18.140846">
        <ele>27</ele>
        <time>2020-01-17T08:44:49Z</time>
      </trkpt>
      <trkpt lat="59.218688" lon="18.140938">
        <ele>27</ele>
        <time>2020-01-17T08:44:49Z</time>
      </trkpt>
      <trkpt lat="59.218672" lon="18.141036">
        <ele>27</ele>
        <time>2020-01-17T08:44:50Z</time>
      </trkpt>
      <trkpt lat="59.218655" lon="18.141138">
        <ele>26</ele>
        <time>2020-01-17T08:44:51Z</time>
      </trkpt>
      <trkpt lat="59.218641" lon="18.141236">
        <ele>26</ele>
        <time>2020-01-17T08:44:52Z</time>
      </trkpt>
      <trkpt lat="59.218632" lon="18.141331">
        <ele>26</ele>
        <time>2020-01-17T08:44:53Z</time>
      </trkpt>
      <trkpt lat="59.218622" lon="18.141423">
        <ele>26</ele>
        <time>2020-01-17T08:44:54Z</time>
      </trkpt>
      <trkpt lat="59.218604" lon="18.141499">
        <ele>26</ele>
        <time>2020-01-17T08:44:55Z</time>
      </trkpt>
      <trkpt lat="59.218573" lon="18.141543">
        <ele>26</ele>
        <time>2020-01-17T08:44:56Z</time>
      </trkpt>
      <trkpt lat="59.218537" lon="18.141563">
        <ele>26</ele>
        <time>2020-01-17T08:44:57Z</time>
      </trkpt>
      <trkpt lat="59.218498" lon="18.14157">
        <ele>26</ele>
        <time>2020-01-17T08:44:58Z</time>
      </trkpt>
      <trkpt lat="59.218459" lon="18.141579">
        <ele>26</ele>
        <time>2020-01-17T08:44:59Z</time>
      </trkpt>
      <trkpt lat="59.218427" lon="18.141592">
        <ele>26</ele>
        <time>2020-01-17T08:45:00Z</time>
      </trkpt>
      <trkpt lat="59.218395" lon="18.141608">
        <ele>26</ele>
        <time>2020-01-17T08:45:01Z</time>
      </trkpt>
      <trkpt lat="59.218362" lon="18.141627">
        <ele>26</ele>
        <time>2020-01-17T08:45:02Z</time>
      </trkpt>
      <trkpt lat="59.218324" lon="18.141636">
        <ele>26</ele>
        <time>2020-01-17T08:45:03Z</time>
      </trkpt>
      <trkpt lat="59.218289" lon="18.141612">
        <ele>26</ele>
        <time>2020-01-17T08:45:04Z</time>
      </trkpt>
      <trkpt lat="59.218257" lon="18.141565">
        <ele>25</ele>
        <time>2020-01-17T08:45:05Z</time>
      </trkpt>
      <trkpt lat="59.218223" lon="18.141521">
        <ele>25</ele>
        <time>2020-01-17T08:45:06Z</time>
      </trkpt>
      <trkpt lat="59.218186" lon="18.141492">
        <ele>25</ele>
        <time>2020-01-17T08:45:07Z</time>
      </trkpt>
      <trkpt lat="59.218148" lon="18.141486">
        <ele>25</ele>
        <time>2020-01-17T08:45:08Z</time>
      </trkpt>
      <trkpt lat="59.218109" lon="18.1415">
        <ele>25</ele>
        <time>2020-01-17T08:45:09Z</time>
      </trkpt>
      <trkpt lat="59.218072" lon="18.141527">
        <ele>25</ele>
        <time>2020-01-17T08:45:10Z</time>
      </trkpt>
      <trkpt lat="59.218033" lon="18.14156">
        <ele>25</ele>
        <time>2020-01-17T08:45:11Z</time>
      </trkpt>
      <trkpt lat="59.217996" lon="18.141598">
        <ele>25</ele>
        <time>2020-01-17T08:45:12Z</time>
      </trkpt>
      <trkpt lat="59.217959" lon="18.14164">
        <ele>26</ele>
        <time>2020-01-17T08:45:13Z</time>
      </trkpt>
      <trkpt lat="59.217921" lon="18.141682">
        <ele>26</ele>
        <time>2020-01-17T08:45:14Z</time>
      </trkpt>
      <trkpt lat="59.217883" lon="18.141725">
        <ele>26</ele>
        <time>2020-01-17T08:45:15Z</time>
      </trkpt>
      <trkpt lat="59.217844" lon="18.141769">
        <ele>26</ele>
        <time>2020-01-17T08:45:16Z</time>
      </trkpt>
      <trkpt lat="59.217807" lon="18.141815">
        <ele>26</ele>
        <time>2020-01-17T08:45:17Z</time>
      </trkpt>
      <trkpt lat="59.217767" lon="18.141857">
        <ele>26</ele>
        <time>2020-01-17T08:45:18Z</time>
      </trkpt>
      <trkpt lat="59.217726" lon="18.141899">
        <ele>26</ele>
        <time>2020-01-17T08:45:19Z</time>
      </trkpt>
      <trkpt lat="59.217685" lon="18.141942">
        <ele>26</ele>
        <time>2020-01-17T08:45:20Z</time>
      </trkpt>
      <trkpt lat="59.217643" lon="18.141986">
        <ele>26</ele>
        <time>2020-01-17T08:45:21Z</time>
      </trkpt>
      <trkpt lat="59.217601" lon="18.142029">
        <ele>26</ele>
        <time>2020-01-17T08:45:22Z</time>
      </trkpt>
      <trkpt lat="59.217561" lon="18.142074">
        <ele>26</ele>
        <time>2020-01-17T08:45:23Z</time>
      </trkpt>
      <trkpt lat="59.217522" lon="18.14212">
        <ele>26</ele>
        <time>2020-01-17T08:45:24Z</time>
      </trkpt>
      <trkpt lat="59.217482" lon="18.142167">
        <ele>26</ele>
        <time>2020-01-17T08:45:25Z</time>
      </trkpt>
      <trkpt lat="59.217441" lon="18.142215">
        <ele>26</ele>
        <time>2020-01-17T08:45:26Z</time>
      </trkpt>
      <trkpt lat="59.2174" lon="18.142264">
        <ele>26</ele>
        <time>2020-01-17T08:45:27Z</time>
      </trkpt>
      <trkpt lat="59.21736" lon="18.142314">
        <ele>26</ele>
        <time>2020-01-17T08:45:28Z</time>
      </trkpt>
      <trkpt lat="59.21732" lon="18.142364">
        <ele>25</ele>
        <time>2020-01-17T08:45:29Z</time>
      </trkpt>
      <trkpt lat="59.217277" lon="18.142415">
        <ele>25</ele>
        <time>2020-01-17T08:45:30Z</time>
      </trkpt>
      <trkpt lat="59.217235" lon="18.142465">
        <ele>26</ele>
        <time>2020-01-17T08:45:31Z</time>
      </trkpt>
      <trkpt lat="59.217192" lon="18.142516">
        <ele>25</ele>
        <time>2020-01-17T08:45:32Z</time>
      </trkpt>
      <trkpt lat="59.217146" lon="18.142567">
        <ele>25</ele>
        <time>2020-01-17T08:45:33Z</time>
      </trkpt>
      <trkpt lat="59.217102" lon="18.142621">
        <ele>26</ele>
        <time>2020-01-17T08:45:34Z</time>
      </trkpt>
      <trkpt lat="59.217057" lon="18.142675">
        <ele>26</ele>
        <time>2020-01-17T08:45:35Z</time>
      </trkpt>
      <trkpt lat="59.217011" lon="18.142729">
        <ele>26</ele>
        <time>2020-01-17T08:45:36Z</time>
      </trkpt>
      <trkpt lat="59.216963" lon="18.142784">
        <ele>26</ele>
        <time>2020-01-17T08:45:37Z</time>
      </trkpt>
      <trkpt lat="59.216915" lon="18.142838">
        <ele>26</ele>
        <time>2020-01-17T08:45:38Z</time>
      </trkpt>
      <trkpt lat="59.216867" lon="18.142891">
        <ele>26</ele>
        <time>2020-01-17T08:45:39Z</time>
      </trkpt>
      <trkpt lat="59.216821" lon="18.142945">
        <ele>26</ele>
        <time>2020-01-17T08:45:40Z</time>
      </trkpt>
      <trkpt lat="59.216777" lon="18.142998">
        <ele>26</ele>
        <time>2020-01-17T08:45:41Z</time>
      </trkpt>
      <trkpt lat="59.216735" lon="18.143049">
        <ele>26</ele>
        <time>2020-01-17T08:45:42Z</time>
      </trkpt>
      <trkpt lat="59.21669" lon="18.1431">
        <ele>26</ele>
        <time>2020-01-17T08:45:43Z</time>
      </trkpt>
      <trkpt lat="59.216641" lon="18.143153">
        <ele>26</ele>
        <time>2020-01-17T08:45:44Z</time>
      </trkpt>
      <trkpt lat="59.216597" lon="18.143205">
        <ele>26</ele>
        <time>2020-01-17T08:45:45Z</time>
      </trkpt>
      <trkpt lat="59.216561" lon="18.143255">
        <ele>26</ele>
        <time>2020-01-17T08:45:46Z</time>
      </trkpt>
      <trkpt lat="59.216519" lon="18.143306">
        <ele>26</ele>
        <time>2020-01-17T08:45:47Z</time>
      </trkpt>
      <trkpt lat="59.216479" lon="18.143355">
        <ele>26</ele>
        <time>2020-01-17T08:45:48Z</time>
      </trkpt>
      <trkpt lat="59.216437" lon="18.143407">
        <ele>26</ele>
        <time>2020-01-17T08:45:49Z</time>
      </trkpt>
      <trkpt lat="59.216394" lon="18.14346">
        <ele>27</ele>
        <time>2020-01-17T08:45:50Z</time>
      </trkpt>
      <trkpt lat="59.21635" lon="18.143511">
        <ele>27</ele>
        <time>2020-01-17T08:45:51Z</time>
      </trkpt>
      <trkpt lat="59.2163" lon="18.143565">
        <ele>27</ele>
        <time>2020-01-17T08:45:52Z</time>
      </trkpt>
      <trkpt lat="59.216256" lon="18.143614">
        <ele>27</ele>
        <time>2020-01-17T08:45:53Z</time>
      </trkpt>
      <trkpt lat="59.216219" lon="18.143661">
        <ele>27</ele>
        <time>2020-01-17T08:45:54Z</time>
      </trkpt>
      <trkpt lat="59.216178" lon="18.14371">
        <ele>27</ele>
        <time>2020-01-17T08:45:55Z</time>
      </trkpt>
      <trkpt lat="59.216137" lon="18.14376">
        <ele>27</ele>
        <time>2020-01-17T08:45:56Z</time>
      </trkpt>
      <trkpt lat="59.216098" lon="18.14381">
        <ele>28</ele>
        <time>2020-01-17T08:45:57Z</time>
      </trkpt>
      <trkpt lat="59.216059" lon="18.14386">
        <ele>28</ele>
        <time>2020-01-17T08:45:58Z</time>
      </trkpt>
      <trkpt lat="59.216025" lon="18.143905">
        <ele>28</ele>
        <time>2020-01-17T08:45:59Z</time>
      </trkpt>
      <trkpt lat="59.21599" lon="18.143949">
        <ele>28</ele>
        <time>2020-01-17T08:46:00Z</time>
      </trkpt>
      <trkpt lat="59.215951" lon="18.143995">
        <ele>28</ele>
        <time>2020-01-17T08:46:01Z</time>
      </trkpt>
      <trkpt lat="59.215917" lon="18.144036">
        <ele>28</ele>
        <time>2020-01-17T08:46:02Z</time>
      </trkpt>
      <trkpt lat="59.215876" lon="18.144078">
        <ele>28</ele>
        <time>2020-01-17T08:46:03Z</time>
      </trkpt>
      <trkpt lat="59.215827" lon="18.144127">
        <ele>28</ele>
        <time>2020-01-17T08:46:04Z</time>
      </trkpt>
      <trkpt lat="59.215776" lon="18.144179">
        <ele>28</ele>
        <time>2020-01-17T08:46:05Z</time>
      </trkpt>
      <trkpt lat="59.215733" lon="18.144228">
        <ele>28</ele>
        <time>2020-01-17T08:46:06Z</time>
      </trkpt>
      <trkpt lat="59.21569" lon="18.144274">
        <ele>28</ele>
        <time>2020-01-17T08:46:07Z</time>
      </trkpt>
      <trkpt lat="59.215647" lon="18.144319">
        <ele>28</ele>
        <time>2020-01-17T08:46:08Z</time>
      </trkpt>
      <trkpt lat="59.215607" lon="18.144364">
        <ele>28</ele>
        <time>2020-01-17T08:46:09Z</time>
      </trkpt>
      <trkpt lat="59.215568" lon="18.14441">
        <ele>28</ele>
        <time>2020-01-17T08:46:10Z</time>
      </trkpt>
      <trkpt lat="59.215522" lon="18.144459">
        <ele>28</ele>
        <time>2020-01-17T08:46:11Z</time>
      </trkpt>
      <trkpt lat="59.215483" lon="18.144504">
        <ele>28</ele>
        <time>2020-01-17T08:46:12Z</time>
      </trkpt>
      <trkpt lat="59.215443" lon="18.144548">
        <ele>28</ele>
        <time>2020-01-17T08:46:13Z</time>
      </trkpt>
      <trkpt lat="59.215403" lon="18.14459">
        <ele>28</ele>
        <time>2020-01-17T08:46:14Z</time>
      </trkpt>
      <trkpt lat="59.215365" lon="18.144634">
        <ele>28</ele>
        <time>2020-01-17T08:46:15Z</time>
      </trkpt>
      <trkpt lat="59.215329" lon="18.144679">
        <ele>28</ele>
        <time>2020-01-17T08:46:16Z</time>
      </trkpt>
      <trkpt lat="59.215293" lon="18.144725">
        <ele>28</ele>
        <time>2020-01-17T08:46:17Z</time>
      </trkpt>
      <trkpt lat="59.21526" lon="18.144767">
        <ele>28</ele>
        <time>2020-01-17T08:46:18Z</time>
      </trkpt>
      <trkpt lat="59.215223" lon="18.144811">
        <ele>28</ele>
        <time>2020-01-17T08:46:19Z</time>
      </trkpt>
      <trkpt lat="59.215187" lon="18.144856">
        <ele>28</ele>
        <time>2020-01-17T08:46:20Z</time>
      </trkpt>
      <trkpt lat="59.215152" lon="18.1449">
        <ele>28</ele>
        <time>2020-01-17T08:46:21Z</time>
      </trkpt>
      <trkpt lat="59.215119" lon="18.144941">
        <ele>28</ele>
        <time>2020-01-17T08:46:22Z</time>
      </trkpt>
      <trkpt lat="59.21509" lon="18.144976">
        <ele>29</ele>
        <time>2020-01-17T08:46:23Z</time>
      </trkpt>
      <trkpt lat="59.215055" lon="18.145017">
        <ele>29</ele>
        <time>2020-01-17T08:46:24Z</time>
      </trkpt>
      <trkpt lat="59.215023" lon="18.145056">
        <ele>29</ele>
        <time>2020-01-17T08:46:25Z</time>
      </trkpt>
      <trkpt lat="59.214997" lon="18.145093">
        <ele>29</ele>
        <time>2020-01-17T08:46:26Z</time>
      </trkpt>
      <trkpt lat="59.214973" lon="18.145127">
        <ele>30</ele>
        <time>2020-01-17T08:46:27Z</time>
      </trkpt>
      <trkpt lat="59.214948" lon="18.145161">
        <ele>30</ele>
        <time>2020-01-17T08:46:28Z</time>
      </trkpt>
      <trkpt lat="59.214914" lon="18.145199">
        <ele>30</ele>
        <time>2020-01-17T08:46:29Z</time>
      </trkpt>
      <trkpt lat="59.214876" lon="18.145238">
        <ele>30</ele>
        <time>2020-01-17T08:46:30Z</time>
      </trkpt>
      <trkpt lat="59.214838" lon="18.145279">
        <ele>31</ele>
        <time>2020-01-17T08:46:31Z</time>
      </trkpt>
      <trkpt lat="59.214803" lon="18.145321">
        <ele>31</ele>
        <time>2020-01-17T08:46:32Z</time>
      </trkpt>
      <trkpt lat="59.214767" lon="18.145364">
        <ele>31</ele>
        <time>2020-01-17T08:46:33Z</time>
      </trkpt>
      <trkpt lat="59.214738" lon="18.1454">
        <ele>31</ele>
        <time>2020-01-17T08:46:34Z</time>
      </trkpt>
      <trkpt lat="59.214702" lon="18.145441">
        <ele>31</ele>
        <time>2020-01-17T08:46:35Z</time>
      </trkpt>
      <trkpt lat="59.21467" lon="18.145479">
        <ele>32</ele>
        <time>2020-01-17T08:46:36Z</time>
      </trkpt>
      <trkpt lat="59.214641" lon="18.145518">
        <ele>32</ele>
        <time>2020-01-17T08:46:37Z</time>
      </trkpt>
      <trkpt lat="59.21461" lon="18.145556">
        <ele>32</ele>
        <time>2020-01-17T08:46:38Z</time>
      </trkpt>
      <trkpt lat="59.21457" lon="18.145601">
        <ele>32</ele>
        <time>2020-01-17T08:46:39Z</time>
      </trkpt>
      <trkpt lat="59.214528" lon="18.145644">
        <ele>32</ele>
        <time>2020-01-17T08:46:40Z</time>
      </trkpt>
      <trkpt lat="59.214492" lon="18.145682">
        <ele>33</ele>
        <time>2020-01-17T08:46:41Z</time>
      </trkpt>
      <trkpt lat="59.214458" lon="18.145722">
        <ele>33</ele>
        <time>2020-01-17T08:46:42Z</time>
      </trkpt>
      <trkpt lat="59.214423" lon="18.145762">
        <ele>33</ele>
        <time>2020-01-17T08:46:43Z</time>
      </trkpt>
      <trkpt lat="59.214386" lon="18.145801">
        <ele>33</ele>
        <time>2020-01-17T08:46:44Z</time>
      </trkpt>
      <trkpt lat="59.214352" lon="18.145837">
        <ele>33</ele>
        <time>2020-01-17T08:46:45Z</time>
      </trkpt>
      <trkpt lat="59.214311" lon="18.145877">
        <ele>33</ele>
        <time>2020-01-17T08:46:46Z</time>
      </trkpt>
      <trkpt lat="59.214271" lon="18.145919">
        <ele>33</ele>
        <time>2020-01-17T08:46:47Z</time>
      </trkpt>
      <trkpt lat="59.214237" lon="18.145957">
        <ele>34</ele>
        <time>2020-01-17T08:46:48Z</time>
      </trkpt>
      <trkpt lat="59.214202" lon="18.145997">
        <ele>34</ele>
        <time>2020-01-17T08:46:49Z</time>
      </trkpt>
      <trkpt lat="59.214166" lon="18.146035">
        <ele>34</ele>
        <time>2020-01-17T08:46:50Z</time>
      </trkpt>
      <trkpt lat="59.214127" lon="18.146073">
        <ele>34</ele>
        <time>2020-01-17T08:46:51Z</time>
      </trkpt>
      <trkpt lat="59.214096" lon="18.146106">
        <ele>34</ele>
        <time>2020-01-17T08:46:52Z</time>
      </trkpt>
      <trkpt lat="59.214064" lon="18.146141">
        <ele>34</ele>
        <time>2020-01-17T08:46:53Z</time>
      </trkpt>
      <trkpt lat="59.21403" lon="18.146179">
        <ele>34</ele>
        <time>2020-01-17T08:46:54Z</time>
      </trkpt>
      <trkpt lat="59.213999" lon="18.146215">
        <ele>35</ele>
        <time>2020-01-17T08:46:55Z</time>
      </trkpt>
      <trkpt lat="59.213971" lon="18.14625">
        <ele>35</ele>
        <time>2020-01-17T08:46:56Z</time>
      </trkpt>
      <trkpt lat="59.213938" lon="18.146288">
        <ele>35</ele>
        <time>2020-01-17T08:46:57Z</time>
      </trkpt>
      <trkpt lat="59.213905" lon="18.146325">
        <ele>35</ele>
        <time>2020-01-17T08:46:58Z</time>
      </trkpt>
      <trkpt lat="59.213871" lon="18.14636">
        <ele>35</ele>
        <time>2020-01-17T08:46:59Z</time>
      </trkpt>
      <trkpt lat="59.213842" lon="18.146394">
        <ele>35</ele>
        <time>2020-01-17T08:47:00Z</time>
      </trkpt>
      <trkpt lat="59.213818" lon="18.146426">
        <ele>35</ele>
        <time>2020-01-17T08:47:01Z</time>
      </trkpt>
      <trkpt lat="59.213789" lon="18.146461">
        <ele>35</ele>
        <time>2020-01-17T08:47:02Z</time>
      </trkpt>
      <trkpt lat="59.213755" lon="18.146499">
        <ele>36</ele>
        <time>2020-01-17T08:47:03Z</time>
      </trkpt>
      <trkpt lat="59.213718" lon="18.146534">
        <ele>36</ele>
        <time>2020-01-17T08:47:04Z</time>
      </trkpt>
      <trkpt lat="59.213683" lon="18.14657">
        <ele>36</ele>
        <time>2020-01-17T08:47:05Z</time>
      </trkpt>
      <trkpt lat="59.213648" lon="18.146607">
        <ele>35</ele>
        <time>2020-01-17T08:47:06Z</time>
      </trkpt>
      <trkpt lat="59.213613" lon="18.146642">
        <ele>35</ele>
        <time>2020-01-17T08:47:07Z</time>
      </trkpt>
      <trkpt lat="59.213576" lon="18.146676">
        <ele>35</ele>
        <time>2020-01-17T08:47:08Z</time>
      </trkpt>
      <trkpt lat="59.213539" lon="18.146706">
        <ele>35</ele>
        <time>2020-01-17T08:47:09Z</time>
      </trkpt>
      <trkpt lat="59.213503" lon="18.146734">
        <ele>35</ele>
        <time>2020-01-17T08:47:10Z</time>
      </trkpt>
      <trkpt lat="59.213468" lon="18.14676">
        <ele>35</ele>
        <time>2020-01-17T08:47:11Z</time>
      </trkpt>
      <trkpt lat="59.213433" lon="18.146786">
        <ele>35</ele>
        <time>2020-01-17T08:47:12Z</time>
      </trkpt>
      <trkpt lat="59.213398" lon="18.146809">
        <ele>35</ele>
        <time>2020-01-17T08:47:13Z</time>
      </trkpt>
      <trkpt lat="59.213363" lon="18.146832">
        <ele>35</ele>
        <time>2020-01-17T08:47:14Z</time>
      </trkpt>
      <trkpt lat="59.21333" lon="18.146854">
        <ele>35</ele>
        <time>2020-01-17T08:47:15Z</time>
      </trkpt>
      <trkpt lat="59.213297" lon="18.146875">
        <ele>35</ele>
        <time>2020-01-17T08:47:16Z</time>
      </trkpt>
      <trkpt lat="59.213264" lon="18.146897">
        <ele>35</ele>
        <time>2020-01-17T08:47:17Z</time>
      </trkpt>
      <trkpt lat="59.213231" lon="18.146918">
        <ele>35</ele>
        <time>2020-01-17T08:47:18Z</time>
      </trkpt>
      <trkpt lat="59.213197" lon="18.146936">
        <ele>35</ele>
        <time>2020-01-17T08:47:19Z</time>
      </trkpt>
      <trkpt lat="59.213162" lon="18.146952">
        <ele>35</ele>
        <time>2020-01-17T08:47:20Z</time>
      </trkpt>
      <trkpt lat="59.213128" lon="18.146967">
        <ele>35</ele>
        <time>2020-01-17T08:47:21Z</time>
      </trkpt>
      <trkpt lat="59.213094" lon="18.146982">
        <ele>35</ele>
        <time>2020-01-17T08:47:22Z</time>
      </trkpt>
      <trkpt lat="59.213059" lon="18.146995">
        <ele>35</ele>
        <time>2020-01-17T08:47:23Z</time>
      </trkpt>
      <trkpt lat="59.213025" lon="18.147011">
        <ele>35</ele>
        <time>2020-01-17T08:47:24Z</time>
      </trkpt>
      <trkpt lat="59.212993" lon="18.147026">
        <ele>35</ele>
        <time>2020-01-17T08:47:25Z</time>
      </trkpt>
      <trkpt lat="59.212962" lon="18.147039">
        <ele>35</ele>
        <time>2020-01-17T08:47:26Z</time>
      </trkpt>
      <trkpt lat="59.21293" lon="18.147051">
        <ele>35</ele>
        <time>2020-01-17T08:47:27Z</time>
      </trkpt>
      <trkpt lat="59.212898" lon="18.147061">
        <ele>35</ele>
        <time>2020-01-17T08:47:28Z</time>
      </trkpt>
      <trkpt lat="59.212867" lon="18.147071">
        <ele>35</ele>
        <time>2020-01-17T08:47:29Z</time>
      </trkpt>
      <trkpt lat="59.212836" lon="18.147079">
        <ele>35</ele>
        <time>2020-01-17T08:47:30Z</time>
      </trkpt>
      <trkpt lat="59.212805" lon="18.147086">
        <ele>35</ele>
        <time>2020-01-17T08:47:31Z</time>
      </trkpt>
      <trkpt lat="59.212775" lon="18.147093">
        <ele>35</ele>
        <time>2020-01-17T08:47:32Z</time>
      </trkpt>
      <trkpt lat="59.212744" lon="18.1471">
        <ele>35</ele>
        <time>2020-01-17T08:47:33Z</time>
      </trkpt>
      <trkpt lat="59.212712" lon="18.147108">
        <ele>35</ele>
        <time>2020-01-17T08:47:34Z</time>
      </trkpt>
      <trkpt lat="59.212681" lon="18.147116">
        <ele>35</ele>
        <time>2020-01-17T08:47:35Z</time>
      </trkpt>
      <trkpt lat="59.21265" lon="18.147124">
        <ele>35</ele>
        <time>2020-01-17T08:47:36Z</time>
      </trkpt>
      <trkpt lat="59.212619" lon="18.147129">
        <ele>36</ele>
        <time>2020-01-17T08:47:37Z</time>
      </trkpt>
      <trkpt lat="59.212589" lon="18.147134">
        <ele>36</ele>
        <time>2020-01-17T08:47:38Z</time>
      </trkpt>
      <trkpt lat="59.212558" lon="18.14714">
        <ele>36</ele>
        <time>2020-01-17T08:47:39Z</time>
      </trkpt>
      <trkpt lat="59.212527" lon="18.147146">
        <ele>36</ele>
        <time>2020-01-17T08:47:40Z</time>
      </trkpt>
      <trkpt lat="59.212496" lon="18.14715">
        <ele>36</ele>
        <time>2020-01-17T08:47:41Z</time>
      </trkpt>
      <trkpt lat="59.212467" lon="18.147152">
        <ele>36</ele>
        <time>2020-01-17T08:47:42Z</time>
      </trkpt>
      <trkpt lat="59.212438" lon="18.147156">
        <ele>36</ele>
        <time>2020-01-17T08:47:43Z</time>
      </trkpt>
      <trkpt lat="59.212409" lon="18.147159">
        <ele>36</ele>
        <time>2020-01-17T08:47:44Z</time>
      </trkpt>
      <trkpt lat="59.212379" lon="18.147161">
        <ele>36</ele>
        <time>2020-01-17T08:47:45Z</time>
      </trkpt>
      <trkpt lat="59.212349" lon="18.147163">
        <ele>37</ele>
        <time>2020-01-17T08:47:46Z</time>
      </trkpt>
      <trkpt lat="59.212319" lon="18.147164">
        <ele>37</ele>
        <time>2020-01-17T08:47:47Z</time>
      </trkpt>
      <trkpt lat="59.212288" lon="18.147166">
        <ele>37</ele>
        <time>2020-01-17T08:47:48Z</time>
      </trkpt>
      <trkpt lat="59.212258" lon="18.147166">
        <ele>37</ele>
        <time>2020-01-17T08:47:49Z</time>
      </trkpt>
      <trkpt lat="59.212228" lon="18.147167">
        <ele>37</ele>
        <time>2020-01-17T08:47:50Z</time>
      </trkpt>
      <trkpt lat="59.212199" lon="18.147167">
        <ele>37</ele>
        <time>2020-01-17T08:47:51Z</time>
      </trkpt>
      <trkpt lat="59.212171" lon="18.147165">
        <ele>37</ele>
        <time>2020-01-17T08:47:52Z</time>
      </trkpt>
      <trkpt lat="59.212144" lon="18.147162">
        <ele>37</ele>
        <time>2020-01-17T08:47:53Z</time>
      </trkpt>
      <trkpt lat="59.212116" lon="18.147161">
        <ele>37</ele>
        <time>2020-01-17T08:47:54Z</time>
      </trkpt>
      <trkpt lat="59.21209" lon="18.147158">
        <ele>38</ele>
        <time>2020-01-17T08:47:55Z</time>
      </trkpt>
      <trkpt lat="59.212065" lon="18.147158">
        <ele>38</ele>
        <time>2020-01-17T08:47:56Z</time>
      </trkpt>
      <trkpt lat="59.21204" lon="18.147158">
        <ele>38</ele>
        <time>2020-01-17T08:47:57Z</time>
      </trkpt>
      <trkpt lat="59.212015" lon="18.147154">
        <ele>38</ele>
        <time>2020-01-17T08:47:58Z</time>
      </trkpt>
      <trkpt lat="59.211988" lon="18.14715">
        <ele>38</ele>
        <time>2020-01-17T08:47:59Z</time>
      </trkpt>
      <trkpt lat="59.21196" lon="18.147146">
        <ele>38</ele>
        <time>2020-01-17T08:48:00Z</time>
      </trkpt>
      <trkpt lat="59.211934" lon="18.147143">
        <ele>39</ele>
        <time>2020-01-17T08:48:01Z</time>
      </trkpt>
      <trkpt lat="59.211906" lon="18.14714">
        <ele>39</ele>
        <time>2020-01-17T08:48:02Z</time>
      </trkpt>
      <trkpt lat="59.21188" lon="18.147137">
        <ele>39</ele>
        <time>2020-01-17T08:48:03Z</time>
      </trkpt>
      <trkpt lat="59.211854" lon="18.147134">
        <ele>39</ele>
        <time>2020-01-17T08:48:04Z</time>
      </trkpt>
      <trkpt lat="59.21183" lon="18.147131">
        <ele>39</ele>
        <time>2020-01-17T08:48:05Z</time>
      </trkpt>
      <trkpt lat="59.211805" lon="18.147124">
        <ele>40</ele>
        <time>2020-01-17T08:48:06Z</time>
      </trkpt>
      <trkpt lat="59.211779" lon="18.147112">
        <ele>40</ele>
        <time>2020-01-17T08:48:07Z</time>
      </trkpt>
      <trkpt lat="59.211751" lon="18.147099">
        <ele>40</ele>
        <time>2020-01-17T08:48:08Z</time>
      </trkpt>
      <trkpt lat="59.211724" lon="18.147087">
        <ele>40</ele>
        <time>2020-01-17T08:48:09Z</time>
      </trkpt>
      <trkpt lat="59.211697" lon="18.147076">
        <ele>40</ele>
        <time>2020-01-17T08:48:10Z</time>
      </trkpt>
      <trkpt lat="59.211671" lon="18.147066">
        <ele>40</ele>
        <time>2020-01-17T08:48:11Z</time>
      </trkpt>
      <trkpt lat="59.211645" lon="18.147057">
        <ele>41</ele>
        <time>2020-01-17T08:48:12Z</time>
      </trkpt>
      <trkpt lat="59.211617" lon="18.147047">
        <ele>41</ele>
        <time>2020-01-17T08:48:13Z</time>
      </trkpt>
      <trkpt lat="59.21159" lon="18.147035">
        <ele>41</ele>
        <time>2020-01-17T08:48:14Z</time>
      </trkpt>
      <trkpt lat="59.211564" lon="18.147024">
        <ele>41</ele>
        <time>2020-01-17T08:48:15Z</time>
      </trkpt>
      <trkpt lat="59.211538" lon="18.147015">
        <ele>41</ele>
        <time>2020-01-17T08:48:16Z</time>
      </trkpt>
      <trkpt lat="59.211512" lon="18.147004">
        <ele>41</ele>
        <time>2020-01-17T08:48:17Z</time>
      </trkpt>
      <trkpt lat="59.211486" lon="18.146991">
        <ele>41</ele>
        <time>2020-01-17T08:48:18Z</time>
      </trkpt>
      <trkpt lat="59.21146" lon="18.146982">
        <ele>42</ele>
        <time>2020-01-17T08:48:19Z</time>
      </trkpt>
      <trkpt lat="59.211434" lon="18.146971">
        <ele>42</ele>
        <time>2020-01-17T08:48:20Z</time>
      </trkpt>
      <trkpt lat="59.211408" lon="18.146962">
        <ele>42</ele>
        <time>2020-01-17T08:48:21Z</time>
      </trkpt>
      <trkpt lat="59.211383" lon="18.146951">
        <ele>42</ele>
        <time>2020-01-17T08:48:22Z</time>
      </trkpt>
      <trkpt lat="59.211359" lon="18.146937">
        <ele>42</ele>
        <time>2020-01-17T08:48:23Z</time>
      </trkpt>
      <trkpt lat="59.211334" lon="18.146922">
        <ele>42</ele>
        <time>2020-01-17T08:48:24Z</time>
      </trkpt>
      <trkpt lat="59.211309" lon="18.146907">
        <ele>42</ele>
        <time>2020-01-17T08:48:25Z</time>
      </trkpt>
      <trkpt lat="59.211282" lon="18.146893">
        <ele>43</ele>
        <time>2020-01-17T08:48:26Z</time>
      </trkpt>
      <trkpt lat="59.211256" lon="18.146876">
        <ele>43</ele>
        <time>2020-01-17T08:48:27Z</time>
      </trkpt>
      <trkpt lat="59.211229" lon="18.146857">
        <ele>43</ele>
        <time>2020-01-17T08:48:28Z</time>
      </trkpt>
      <trkpt lat="59.211201" lon="18.146837">
        <ele>43</ele>
        <time>2020-01-17T08:48:29Z</time>
      </trkpt>
      <trkpt lat="59.211172" lon="18.146818">
        <ele>43</ele>
        <time>2020-01-17T08:48:30Z</time>
      </trkpt>
      <trkpt lat="59.211143" lon="18.146799">
        <ele>43</ele>
        <time>2020-01-17T08:48:31Z</time>
      </trkpt>
      <trkpt lat="59.211114" lon="18.146777">
        <ele>43</ele>
        <time>2020-01-17T08:48:32Z</time>
      </trkpt>
      <trkpt lat="59.211085" lon="18.146752">
        <ele>43</ele>
        <time>2020-01-17T08:48:33Z</time>
      </trkpt>
      <trkpt lat="59.211055" lon="18.146727">
        <ele>44</ele>
        <time>2020-01-17T08:48:34Z</time>
      </trkpt>
      <trkpt lat="59.211025" lon="18.146702">
        <ele>44</ele>
        <time>2020-01-17T08:48:35Z</time>
      </trkpt>
      <trkpt lat="59.210995" lon="18.146677">
        <ele>44</ele>
        <time>2020-01-17T08:48:36Z</time>
      </trkpt>
      <trkpt lat="59.210967" lon="18.146651">
        <ele>44</ele>
        <time>2020-01-17T08:48:37Z</time>
      </trkpt>
      <trkpt lat="59.210939" lon="18.146625">
        <ele>44</ele>
        <time>2020-01-17T08:48:38Z</time>
      </trkpt>
      <trkpt lat="59.21091" lon="18.146598">
        <ele>44</ele>
        <time>2020-01-17T08:48:39Z</time>
      </trkpt>
      <trkpt lat="59.210879" lon="18.146571">
        <ele>44</ele>
        <time>2020-01-17T08:48:40Z</time>
      </trkpt>
      <trkpt lat="59.210849" lon="18.146543">
        <ele>44</ele>
        <time>2020-01-17T08:48:41Z</time>
      </trkpt>
      <trkpt lat="59.210819" lon="18.146515">
        <ele>45</ele>
        <time>2020-01-17T08:48:42Z</time>
      </trkpt>
      <trkpt lat="59.210787" lon="18.146486">
        <ele>45</ele>
        <time>2020-01-17T08:48:43Z</time>
      </trkpt>
      <trkpt lat="59.210756" lon="18.146455">
        <ele>45</ele>
        <time>2020-01-17T08:48:44Z</time>
      </trkpt>
      <trkpt lat="59.210725" lon="18.146424">
        <ele>45</ele>
        <time>2020-01-17T08:48:45Z</time>
      </trkpt>
      <trkpt lat="59.210694" lon="18.146392">
        <ele>45</ele>
        <time>2020-01-17T08:48:46Z</time>
      </trkpt>
      <trkpt lat="59.210664" lon="18.146359">
        <ele>45</ele>
        <time>2020-01-17T08:48:47Z</time>
      </trkpt>
      <trkpt lat="59.210635" lon="18.146327">
        <ele>46</ele>
        <time>2020-01-17T08:48:48Z</time>
      </trkpt>
      <trkpt lat="59.210607" lon="18.146295">
        <ele>46</ele>
        <time>2020-01-17T08:48:49Z</time>
      </trkpt>
      <trkpt lat="59.210577" lon="18.146263">
        <ele>46</ele>
        <time>2020-01-17T08:48:50Z</time>
      </trkpt>
      <trkpt lat="59.210546" lon="18.14623">
        <ele>46</ele>
        <time>2020-01-17T08:48:51Z</time>
      </trkpt>
      <trkpt lat="59.210517" lon="18.146197">
        <ele>46</ele>
        <time>2020-01-17T08:48:52Z</time>
      </trkpt>
      <trkpt lat="59.210487" lon="18.146164">
        <ele>47</ele>
        <time>2020-01-17T08:48:53Z</time>
      </trkpt>
      <trkpt lat="59.210455" lon="18.14613">
        <ele>47</ele>
        <time>2020-01-17T08:48:54Z</time>
      </trkpt>
      <trkpt lat="59.210424" lon="18.146095">
        <ele>47</ele>
        <time>2020-01-17T08:48:55Z</time>
      </trkpt>
      <trkpt lat="59.210394" lon="18.14606">
        <ele>47</ele>
        <time>2020-01-17T08:48:56Z</time>
      </trkpt>
      <trkpt lat="59.210366" lon="18.146024">
        <ele>48</ele>
        <time>2020-01-17T08:48:57Z</time>
      </trkpt>
      <trkpt lat="59.210336" lon="18.145989">
        <ele>48</ele>
        <time>2020-01-17T08:48:58Z</time>
      </trkpt>
      <trkpt lat="59.210306" lon="18.145957">
        <ele>48</ele>
        <time>2020-01-17T08:48:59Z</time>
      </trkpt>
      <trkpt lat="59.210275" lon="18.14593">
        <ele>48</ele>
        <time>2020-01-17T08:49:00Z</time>
      </trkpt>
      <trkpt lat="59.210244" lon="18.145906">
        <ele>48</ele>
        <time>2020-01-17T08:49:01Z</time>
      </trkpt>
      <trkpt lat="59.210214" lon="18.145886">
        <ele>48</ele>
        <time>2020-01-17T08:49:02Z</time>
      </trkpt>
      <trkpt lat="59.210184" lon="18.145864">
        <ele>49</ele>
        <time>2020-01-17T08:49:03Z</time>
      </trkpt>
      <trkpt lat="59.210154" lon="18.145844">
        <ele>49</ele>
        <time>2020-01-17T08:49:04Z</time>
      </trkpt>
      <trkpt lat="59.210127" lon="18.145818">
        <ele>49</ele>
        <time>2020-01-17T08:49:05Z</time>
      </trkpt>
      <trkpt lat="59.210104" lon="18.145784">
        <ele>49</ele>
        <time>2020-01-17T08:49:06Z</time>
      </trkpt>
      <trkpt lat="59.21008" lon="18.145744">
        <ele>49</ele>
        <time>2020-01-17T08:49:07Z</time>
      </trkpt>
      <trkpt lat="59.210057" lon="18.145702">
        <ele>50</ele>
        <time>2020-01-17T08:49:08Z</time>
      </trkpt>
      <trkpt lat="59.210035" lon="18.145656">
        <ele>50</ele>
        <time>2020-01-17T08:49:09Z</time>
      </trkpt>
      <trkpt lat="59.210014" lon="18.14561">
        <ele>50</ele>
        <time>2020-01-17T08:49:10Z</time>
      </trkpt>
      <trkpt lat="59.209993" lon="18.145558">
        <ele>50</ele>
        <time>2020-01-17T08:49:11Z</time>
      </trkpt>
      <trkpt lat="59.209976" lon="18.145506">
        <ele>50</ele>
        <time>2020-01-17T08:49:12Z</time>
      </trkpt>
      <trkpt lat="59.209956" lon="18.145449">
        <ele>50</ele>
        <time>2020-01-17T08:49:13Z</time>
      </trkpt>
      <trkpt lat="59.209935" lon="18.145394">
        <ele>50</ele>
        <time>2020-01-17T08:49:14Z</time>
      </trkpt>
      <trkpt lat="59.209915" lon="18.145338">
        <ele>50</ele>
        <time>2020-01-17T08:49:15Z</time>
      </trkpt>
      <trkpt lat="59.209895" lon="18.145282">
        <ele>50</ele>
        <time>2020-01-17T08:49:16Z</time>
      </trkpt>
      <trkpt lat="59.209876" lon="18.145228">
        <ele>50</ele>
        <time>2020-01-17T08:49:17Z</time>
      </trkpt>
      <trkpt lat="59.209853" lon="18.145174">
        <ele>51</ele>
        <time>2020-01-17T08:49:18Z</time>
      </trkpt>
      <trkpt lat="59.20983" lon="18.145122">
        <ele>51</ele>
        <time>2020-01-17T08:49:19Z</time>
      </trkpt>
      <trkpt lat="59.209804" lon="18.145076">
        <ele>51</ele>
        <time>2020-01-17T08:49:20Z</time>
      </trkpt>
      <trkpt lat="59.209776" lon="18.145034">
        <ele>51</ele>
        <time>2020-01-17T08:49:21Z</time>
      </trkpt>
      <trkpt lat="59.209748" lon="18.144994">
        <ele>51</ele>
        <time>2020-01-17T08:49:22Z</time>
      </trkpt>
      <trkpt lat="59.209718" lon="18.144956">
        <ele>51</ele>
        <time>2020-01-17T08:49:23Z</time>
      </trkpt>
      <trkpt lat="59.209684" lon="18.144922">
        <ele>51</ele>
        <time>2020-01-17T08:49:24Z</time>
      </trkpt>
      <trkpt lat="59.209649" lon="18.144898">
        <ele>51</ele>
        <time>2020-01-17T08:49:25Z</time>
      </trkpt>
      <trkpt lat="59.209612" lon="18.144874">
        <ele>51</ele>
        <time>2020-01-17T08:49:26Z</time>
      </trkpt>
      <trkpt lat="59.209578" lon="18.144836">
        <ele>51</ele>
        <time>2020-01-17T08:49:27Z</time>
      </trkpt>
      <trkpt lat="59.209548" lon="18.144784">
        <ele>51</ele>
        <time>2020-01-17T08:49:28Z</time>
      </trkpt>
      <trkpt lat="59.209521" lon="18.14473">
        <ele>51</ele>
        <time>2020-01-17T08:49:29Z</time>
      </trkpt>
      <trkpt lat="59.2095" lon="18.144666">
        <ele>51</ele>
        <time>2020-01-17T08:49:30Z</time>
      </trkpt>
      <trkpt lat="59.209492" lon="18.144594">
        <ele>51</ele>
        <time>2020-01-17T08:49:31Z</time>
      </trkpt>
      <trkpt lat="59.209492" lon="18.144524">
        <ele>52</ele>
        <time>2020-01-17T08:49:32Z</time>
      </trkpt>
      <trkpt lat="59.209491" lon="18.14445">
        <ele>52</ele>
        <time>2020-01-17T08:49:33Z</time>
      </trkpt>
      <trkpt lat="59.209484" lon="18.144374">
        <ele>52</ele>
        <time>2020-01-17T08:49:34Z</time>
      </trkpt>
      <trkpt lat="59.209473" lon="18.144302">
        <ele>52</ele>
        <time>2020-01-17T08:49:35Z</time>
      </trkpt>
      <trkpt lat="59.209456" lon="18.144232">
        <ele>52</ele>
        <time>2020-01-17T08:49:36Z</time>
      </trkpt>
      <trkpt lat="59.209436" lon="18.144164">
        <ele>52</ele>
        <time>2020-01-17T08:49:37Z</time>
      </trkpt>
      <trkpt lat="59.209412" lon="18.1441">
        <ele>52</ele>
        <time>2020-01-17T08:49:38Z</time>
      </trkpt>
      <trkpt lat="59.209384" lon="18.144038">
        <ele>52</ele>
        <time>2020-01-17T08:49:39Z</time>
      </trkpt>
      <trkpt lat="59.209359" lon="18.143976">
        <ele>52</ele>
        <time>2020-01-17T08:49:40Z</time>
      </trkpt>
      <trkpt lat="59.209332" lon="18.143916">
        <ele>52</ele>
        <time>2020-01-17T08:49:41Z</time>
      </trkpt>
      <trkpt lat="59.209306" lon="18.143854">
        <ele>52</ele>
        <time>2020-01-17T08:49:42Z</time>
      </trkpt>
      <trkpt lat="59.209279" lon="18.14379">
        <ele>52</ele>
        <time>2020-01-17T08:49:43Z</time>
      </trkpt>
      <trkpt lat="59.209253" lon="18.143726">
        <ele>52</ele>
        <time>2020-01-17T08:49:44Z</time>
      </trkpt>
      <trkpt lat="59.209227" lon="18.143658">
        <ele>52</ele>
        <time>2020-01-17T08:49:45Z</time>
      </trkpt>
      <trkpt lat="59.2092" lon="18.143592">
        <ele>52</ele>
        <time>2020-01-17T08:49:46Z</time>
      </trkpt>
      <trkpt lat="59.209171" lon="18.143526">
        <ele>52</ele>
        <time>2020-01-17T08:49:47Z</time>
      </trkpt>
      <trkpt lat="59.209144" lon="18.14346">
        <ele>52</ele>
        <time>2020-01-17T08:49:48Z</time>
      </trkpt>
      <trkpt lat="59.209116" lon="18.143392">
        <ele>52</ele>
        <time>2020-01-17T08:49:49Z</time>
      </trkpt>
      <trkpt lat="59.209088" lon="18.143326">
        <ele>52</ele>
        <time>2020-01-17T08:49:50Z</time>
      </trkpt>
      <trkpt lat="59.20906" lon="18.14326">
        <ele>52</ele>
        <time>2020-01-17T08:49:51Z</time>
      </trkpt>
      <trkpt lat="59.209033" lon="18.143194">
        <ele>52</ele>
        <time>2020-01-17T08:49:52Z</time>
      </trkpt>
      <trkpt lat="59.209008" lon="18.143126">
        <ele>52</ele>
        <time>2020-01-17T08:49:53Z</time>
      </trkpt>
      <trkpt lat="59.208982" lon="18.14306">
        <ele>52</ele>
        <time>2020-01-17T08:49:54Z</time>
      </trkpt>
      <trkpt lat="59.208954" lon="18.142992">
        <ele>52</ele>
        <time>2020-01-17T08:49:55Z</time>
      </trkpt>
      <trkpt lat="59.208926" lon="18.142926">
        <ele>52</ele>
        <time>2020-01-17T08:49:56Z</time>
      </trkpt>
      <trkpt lat="59.208898" lon="18.142862">
        <ele>53</ele>
        <time>2020-01-17T08:49:57Z</time>
      </trkpt>
      <trkpt lat="59.20887" lon="18.142794">
        <ele>53</ele>
        <time>2020-01-17T08:49:58Z</time>
      </trkpt>
      <trkpt lat="59.208842" lon="18.142728">
        <ele>53</ele>
        <time>2020-01-17T08:49:59Z</time>
      </trkpt>
      <trkpt lat="59.208813" lon="18.14266">
        <ele>53</ele>
        <time>2020-01-17T08:50:00Z</time>
      </trkpt>
      <trkpt lat="59.208784" lon="18.14259">
        <ele>53</ele>
        <time>2020-01-17T08:50:01Z</time>
      </trkpt>
      <trkpt lat="59.208755" lon="18.142519">
        <ele>53</ele>
        <time>2020-01-17T08:50:02Z</time>
      </trkpt>
      <trkpt lat="59.208727" lon="18.14245">
        <ele>53</ele>
        <time>2020-01-17T08:50:03Z</time>
      </trkpt>
      <trkpt lat="59.208699" lon="18.14238">
        <ele>53</ele>
        <time>2020-01-17T08:50:04Z</time>
      </trkpt>
      <trkpt lat="59.208668" lon="18.142309">
        <ele>53</ele>
        <time>2020-01-17T08:50:05Z</time>
      </trkpt>
      <trkpt lat="59.208637" lon="18.142239">
        <ele>53</ele>
        <time>2020-01-17T08:50:06Z</time>
      </trkpt>
      <trkpt lat="59.208604" lon="18.142168">
        <ele>53</ele>
        <time>2020-01-17T08:50:07Z</time>
      </trkpt>
      <trkpt lat="59.208571" lon="18.142097">
        <ele>53</ele>
        <time>2020-01-17T08:50:08Z</time>
      </trkpt>
      <trkpt lat="59.208538" lon="18.142022">
        <ele>53</ele>
        <time>2020-01-17T08:50:09Z</time>
      </trkpt>
      <trkpt lat="59.208502" lon="18.141947">
        <ele>53</ele>
        <time>2020-01-17T08:50:10Z</time>
      </trkpt>
      <trkpt lat="59.208464" lon="18.141871">
        <ele>53</ele>
        <time>2020-01-17T08:50:11Z</time>
      </trkpt>
      <trkpt lat="59.208425" lon="18.141793">
        <ele>53</ele>
        <time>2020-01-17T08:50:12Z</time>
      </trkpt>
      <trkpt lat="59.208383" lon="18.141715">
        <ele>52</ele>
        <time>2020-01-17T08:50:13Z</time>
      </trkpt>
      <trkpt lat="59.208341" lon="18.141637">
        <ele>52</ele>
        <time>2020-01-17T08:50:14Z</time>
      </trkpt>
      <trkpt lat="59.208299" lon="18.14156">
        <ele>52</ele>
        <time>2020-01-17T08:50:15Z</time>
      </trkpt>
      <trkpt lat="59.208253" lon="18.141482">
        <ele>52</ele>
        <time>2020-01-17T08:50:16Z</time>
      </trkpt>
      <trkpt lat="59.208207" lon="18.141404">
        <ele>52</ele>
        <time>2020-01-17T08:50:17Z</time>
      </trkpt>
      <trkpt lat="59.20816" lon="18.141327">
        <ele>52</ele>
        <time>2020-01-17T08:50:18Z</time>
      </trkpt>
      <trkpt lat="59.208111" lon="18.141253">
        <ele>52</ele>
        <time>2020-01-17T08:50:19Z</time>
      </trkpt>
      <trkpt lat="59.208057" lon="18.141182">
        <ele>52</ele>
        <time>2020-01-17T08:50:20Z</time>
      </trkpt>
      <trkpt lat="59.208" lon="18.141112">
        <ele>52</ele>
        <time>2020-01-17T08:50:21Z</time>
      </trkpt>
      <trkpt lat="59.207945" lon="18.141044">
        <ele>51</ele>
        <time>2020-01-17T08:50:22Z</time>
      </trkpt>
      <trkpt lat="59.207895" lon="18.140973">
        <ele>51</ele>
        <time>2020-01-17T08:50:23Z</time>
      </trkpt>
      <trkpt lat="59.207848" lon="18.140902">
        <ele>51</ele>
        <time>2020-01-17T08:50:24Z</time>
      </trkpt>
      <trkpt lat="59.207791" lon="18.140837">
        <ele>51</ele>
        <time>2020-01-17T08:50:25Z</time>
      </trkpt>
      <trkpt lat="59.207735" lon="18.140777">
        <ele>51</ele>
        <time>2020-01-17T08:50:26Z</time>
      </trkpt>
      <trkpt lat="59.207674" lon="18.140722">
        <ele>51</ele>
        <time>2020-01-17T08:50:27Z</time>
      </trkpt>
      <trkpt lat="59.207611" lon="18.140671">
        <ele>51</ele>
        <time>2020-01-17T08:50:28Z</time>
      </trkpt>
      <trkpt lat="59.207548" lon="18.140624">
        <ele>51</ele>
        <time>2020-01-17T08:50:29Z</time>
      </trkpt>
      <trkpt lat="59.207483" lon="18.140581">
        <ele>51</ele>
        <time>2020-01-17T08:50:30Z</time>
      </trkpt>
      <trkpt lat="59.207418" lon="18.140543">
        <ele>51</ele>
        <time>2020-01-17T08:50:31Z</time>
      </trkpt>
      <trkpt lat="59.207353" lon="18.140505">
        <ele>51</ele>
        <time>2020-01-17T08:50:32Z</time>
      </trkpt>
      <trkpt lat="59.207287" lon="18.14047">
        <ele>51</ele>
        <time>2020-01-17T08:50:33Z</time>
      </trkpt>
      <trkpt lat="59.207218" lon="18.14044">
        <ele>50</ele>
        <time>2020-01-17T08:50:34Z</time>
      </trkpt>
      <trkpt lat="59.207147" lon="18.140419">
        <ele>50</ele>
        <time>2020-01-17T08:50:35Z</time>
      </trkpt>
      <trkpt lat="59.207081" lon="18.140402">
        <ele>50</ele>
        <time>2020-01-17T08:50:36Z</time>
      </trkpt>
      <trkpt lat="59.207018" lon="18.140385">
        <ele>49</ele>
        <time>2020-01-17T08:50:37Z</time>
      </trkpt>
      <trkpt lat="59.206956" lon="18.140369">
        <ele>49</ele>
        <time>2020-01-17T08:50:38Z</time>
      </trkpt>
      <trkpt lat="59.206895" lon="18.140354">
        <ele>48</ele>
        <time>2020-01-17T08:50:39Z</time>
      </trkpt>
      <trkpt lat="59.206836" lon="18.140341">
        <ele>48</ele>
        <time>2020-01-17T08:50:40Z</time>
      </trkpt>
      <trkpt lat="59.206778" lon="18.140331">
        <ele>48</ele>
        <time>2020-01-17T08:50:41Z</time>
      </trkpt>
      <trkpt lat="59.206717" lon="18.140325">
        <ele>48</ele>
        <time>2020-01-17T08:50:42Z</time>
      </trkpt>
      <trkpt lat="59.206651" lon="18.140325">
        <ele>48</ele>
        <time>2020-01-17T08:50:43Z</time>
      </trkpt>
      <trkpt lat="59.206585" lon="18.140328">
        <ele>47</ele>
        <time>2020-01-17T08:50:44Z</time>
      </trkpt>
      <trkpt lat="59.20652" lon="18.140338">
        <ele>47</ele>
        <time>2020-01-17T08:50:45Z</time>
      </trkpt>
      <trkpt lat="59.206459" lon="18.140356">
        <ele>47</ele>
        <time>2020-01-17T08:50:46Z</time>
      </trkpt>
      <trkpt lat="59.206405" lon="18.14038">
        <ele>46</ele>
        <time>2020-01-17T08:50:47Z</time>
      </trkpt>
      <trkpt lat="59.206361" lon="18.140417">
        <ele>46</ele>
        <time>2020-01-17T08:50:48Z</time>
      </trkpt>
      <trkpt lat="59.206324" lon="18.140472">
        <ele>46</ele>
        <time>2020-01-17T08:50:49Z</time>
      </trkpt>
      <trkpt lat="59.206287" lon="18.140538">
        <ele>46</ele>
        <time>2020-01-17T08:50:50Z</time>
      </trkpt>
      <trkpt lat="59.20625" lon="18.140614">
        <ele>46</ele>
        <time>2020-01-17T08:50:51Z</time>
      </trkpt>
      <trkpt lat="59.206214" lon="18.140689">
        <ele>45</ele>
        <time>2020-01-17T08:50:52Z</time>
      </trkpt>
      <trkpt lat="59.206172" lon="18.140753">
        <ele>45</ele>
        <time>2020-01-17T08:50:53Z</time>
      </trkpt>
      <trkpt lat="59.206123" lon="18.140799">
        <ele>45</ele>
        <time>2020-01-17T08:50:54Z</time>
      </trkpt>
      <trkpt lat="59.20607" lon="18.140833">
        <ele>45</ele>
        <time>2020-01-17T08:50:55Z</time>
      </trkpt>
      <trkpt lat="59.206013" lon="18.140866">
        <ele>45</ele>
        <time>2020-01-17T08:50:56Z</time>
      </trkpt>
      <trkpt lat="59.205958" lon="18.140897">
        <ele>45</ele>
        <time>2020-01-17T08:50:57Z</time>
      </trkpt>
      <trkpt lat="59.205903" lon="18.140927">
        <ele>45</ele>
        <time>2020-01-17T08:50:58Z</time>
      </trkpt>
      <trkpt lat="59.205847" lon="18.140961">
        <ele>45</ele>
        <time>2020-01-17T08:50:59Z</time>
      </trkpt>
      <trkpt lat="59.205794" lon="18.140999">
        <ele>45</ele>
        <time>2020-01-17T08:51:00Z</time>
      </trkpt>
      <trkpt lat="59.205742" lon="18.141042">
        <ele>45</ele>
        <time>2020-01-17T08:51:01Z</time>
      </trkpt>
      <trkpt lat="59.205688" lon="18.141087">
        <ele>45</ele>
        <time>2020-01-17T08:51:02Z</time>
      </trkpt>
      <trkpt lat="59.205638" lon="18.14113">
        <ele>45</ele>
        <time>2020-01-17T08:51:03Z</time>
      </trkpt>
      <trkpt lat="59.205588" lon="18.141174">
        <ele>45</ele>
        <time>2020-01-17T08:51:04Z</time>
      </trkpt>
      <trkpt lat="59.205536" lon="18.141217">
        <ele>45</ele>
        <time>2020-01-17T08:51:05Z</time>
      </trkpt>
      <trkpt lat="59.205484" lon="18.141258">
        <ele>44</ele>
        <time>2020-01-17T08:51:06Z</time>
      </trkpt>
      <trkpt lat="59.205432" lon="18.141299">
        <ele>44</ele>
        <time>2020-01-17T08:51:07Z</time>
      </trkpt>
      <trkpt lat="59.205379" lon="18.141341">
        <ele>44</ele>
        <time>2020-01-17T08:51:08Z</time>
      </trkpt>
      <trkpt lat="59.205328" lon="18.141386">
        <ele>44</ele>
        <time>2020-01-17T08:51:09Z</time>
      </trkpt>
      <trkpt lat="59.20527" lon="18.141434">
        <ele>44</ele>
        <time>2020-01-17T08:51:10Z</time>
      </trkpt>
      <trkpt lat="59.20521" lon="18.141484">
        <ele>44</ele>
        <time>2020-01-17T08:51:11Z</time>
      </trkpt>
      <trkpt lat="59.205147" lon="18.141531">
        <ele>43</ele>
        <time>2020-01-17T08:51:12Z</time>
      </trkpt>
      <trkpt lat="59.205084" lon="18.141573">
        <ele>43</ele>
        <time>2020-01-17T08:51:13Z</time>
      </trkpt>
      <trkpt lat="59.205022" lon="18.141614">
        <ele>43</ele>
        <time>2020-01-17T08:51:14Z</time>
      </trkpt>
      <trkpt lat="59.204964" lon="18.141654">
        <ele>43</ele>
        <time>2020-01-17T08:51:15Z</time>
      </trkpt>
      <trkpt lat="59.204911" lon="18.141698">
        <ele>43</ele>
        <time>2020-01-17T08:51:16Z</time>
      </trkpt>
      <trkpt lat="59.204862" lon="18.141745">
        <ele>42</ele>
        <time>2020-01-17T08:51:17Z</time>
      </trkpt>
      <trkpt lat="59.204811" lon="18.141788">
        <ele>42</ele>
        <time>2020-01-17T08:51:18Z</time>
      </trkpt>
      <trkpt lat="59.204758" lon="18.14182">
        <ele>42</ele>
        <time>2020-01-17T08:51:19Z</time>
      </trkpt>
      <trkpt lat="59.2047" lon="18.141848">
        <ele>42</ele>
        <time>2020-01-17T08:51:20Z</time>
      </trkpt>
      <trkpt lat="59.204644" lon="18.141878">
        <ele>42</ele>
        <time>2020-01-17T08:51:21Z</time>
      </trkpt>
      <trkpt lat="59.204584" lon="18.141906">
        <ele>42</ele>
        <time>2020-01-17T08:51:22Z</time>
      </trkpt>
      <trkpt lat="59.204522" lon="18.141933">
        <ele>41</ele>
        <time>2020-01-17T08:51:23Z</time>
      </trkpt>
      <trkpt lat="59.204458" lon="18.141958">
        <ele>41</ele>
        <time>2020-01-17T08:51:24Z</time>
      </trkpt>
      <trkpt lat="59.204396" lon="18.141985">
        <ele>41</ele>
        <time>2020-01-17T08:51:25Z</time>
      </trkpt>
      <trkpt lat="59.204332" lon="18.14201">
        <ele>41</ele>
        <time>2020-01-17T08:51:26Z</time>
      </trkpt>
      <trkpt lat="59.20427" lon="18.142034">
        <ele>40</ele>
        <time>2020-01-17T08:51:27Z</time>
      </trkpt>
      <trkpt lat="59.204208" lon="18.142057">
        <ele>40</ele>
        <time>2020-01-17T08:51:28Z</time>
      </trkpt>
      <trkpt lat="59.204146" lon="18.14208">
        <ele>40</ele>
        <time>2020-01-17T08:51:29Z</time>
      </trkpt>
      <trkpt lat="59.204085" lon="18.142103">
        <ele>40</ele>
        <time>2020-01-17T08:51:30Z</time>
      </trkpt>
      <trkpt lat="59.204024" lon="18.142125">
        <ele>40</ele>
        <time>2020-01-17T08:51:31Z</time>
      </trkpt>
      <trkpt lat="59.203965" lon="18.142146">
        <ele>40</ele>
        <time>2020-01-17T08:51:32Z</time>
      </trkpt>
      <trkpt lat="59.203906" lon="18.142168">
        <ele>40</ele>
        <time>2020-01-17T08:51:33Z</time>
      </trkpt>
      <trkpt lat="59.203849" lon="18.142188">
        <ele>40</ele>
        <time>2020-01-17T08:51:34Z</time>
      </trkpt>
      <trkpt lat="59.203791" lon="18.142205">
        <ele>40</ele>
        <time>2020-01-17T08:51:35Z</time>
      </trkpt>
      <trkpt lat="59.203736" lon="18.142219">
        <ele>40</ele>
        <time>2020-01-17T08:51:36Z</time>
      </trkpt>
      <trkpt lat="59.203678" lon="18.14223">
        <ele>40</ele>
        <time>2020-01-17T08:51:37Z</time>
      </trkpt>
      <trkpt lat="59.203622" lon="18.142241">
        <ele>40</ele>
        <time>2020-01-17T08:51:38Z</time>
      </trkpt>
      <trkpt lat="59.203566" lon="18.142248">
        <ele>40</ele>
        <time>2020-01-17T08:51:39Z</time>
      </trkpt>
      <trkpt lat="59.203509" lon="18.142253">
        <ele>40</ele>
        <time>2020-01-17T08:51:40Z</time>
      </trkpt>
      <trkpt lat="59.203455" lon="18.142257">
        <ele>40</ele>
        <time>2020-01-17T08:51:41Z</time>
      </trkpt>
      <trkpt lat="59.203402" lon="18.142257">
        <ele>40</ele>
        <time>2020-01-17T08:51:42Z</time>
      </trkpt>
      <trkpt lat="59.20335" lon="18.142254">
        <ele>39</ele>
        <time>2020-01-17T08:51:43Z</time>
      </trkpt>
      <trkpt lat="59.2033" lon="18.142248">
        <ele>39</ele>
        <time>2020-01-17T08:51:44Z</time>
      </trkpt>
      <trkpt lat="59.203245" lon="18.142241">
        <ele>39</ele>
        <time>2020-01-17T08:51:45Z</time>
      </trkpt>
      <trkpt lat="59.203192" lon="18.142232">
        <ele>39</ele>
        <time>2020-01-17T08:51:46Z</time>
      </trkpt>
      <trkpt lat="59.203138" lon="18.142222">
        <ele>39</ele>
        <time>2020-01-17T08:51:47Z</time>
      </trkpt>
      <trkpt lat="59.203086" lon="18.142211">
        <ele>39</ele>
        <time>2020-01-17T08:51:48Z</time>
      </trkpt>
      <trkpt lat="59.203032" lon="18.142201">
        <ele>39</ele>
        <time>2020-01-17T08:51:49Z</time>
      </trkpt>
      <trkpt lat="59.202979" lon="18.142194">
        <ele>39</ele>
        <time>2020-01-17T08:51:50Z</time>
      </trkpt>
      <trkpt lat="59.202926" lon="18.142187">
        <ele>39</ele>
        <time>2020-01-17T08:51:51Z</time>
      </trkpt>
      <trkpt lat="59.202876" lon="18.14218">
        <ele>39</ele>
        <time>2020-01-17T08:51:52Z</time>
      </trkpt>
      <trkpt lat="59.202824" lon="18.142173">
        <ele>39</ele>
        <time>2020-01-17T08:51:53Z</time>
      </trkpt>
      <trkpt lat="59.202772" lon="18.142169">
        <ele>39</ele>
        <time>2020-01-17T08:51:54Z</time>
      </trkpt>
      <trkpt lat="59.20272" lon="18.142171">
        <ele>38</ele>
        <time>2020-01-17T08:51:55Z</time>
      </trkpt>
      <trkpt lat="59.202668" lon="18.142177">
        <ele>38</ele>
        <time>2020-01-17T08:51:56Z</time>
      </trkpt>
      <trkpt lat="59.202614" lon="18.142186">
        <ele>38</ele>
        <time>2020-01-17T08:51:57Z</time>
      </trkpt>
      <trkpt lat="59.20256" lon="18.142196">
        <ele>38</ele>
        <time>2020-01-17T08:51:58Z</time>
      </trkpt>
      <trkpt lat="59.202506" lon="18.142207">
        <ele>38</ele>
        <time>2020-01-17T08:51:59Z</time>
      </trkpt>
      <trkpt lat="59.202452" lon="18.142218">
        <ele>38</ele>
        <time>2020-01-17T08:52:00Z</time>
      </trkpt>
      <trkpt lat="59.202396" lon="18.142224">
        <ele>38</ele>
        <time>2020-01-17T08:52:01Z</time>
      </trkpt>
      <trkpt lat="59.202339" lon="18.142224">
        <ele>38</ele>
        <time>2020-01-17T08:52:02Z</time>
      </trkpt>
      <trkpt lat="59.202282" lon="18.142214">
        <ele>37</ele>
        <time>2020-01-17T08:52:03Z</time>
      </trkpt>
      <trkpt lat="59.202223" lon="18.142197">
        <ele>37</ele>
        <time>2020-01-17T08:52:04Z</time>
      </trkpt>
      <trkpt lat="59.202166" lon="18.142178">
        <ele>37</ele>
        <time>2020-01-17T08:52:05Z</time>
      </trkpt>
      <trkpt lat="59.202108" lon="18.142153">
        <ele>37</ele>
        <time>2020-01-17T08:52:06Z</time>
      </trkpt>
      <trkpt lat="59.20205" lon="18.142124">
        <ele>37</ele>
        <time>2020-01-17T08:52:07Z</time>
      </trkpt>
      <trkpt lat="59.201992" lon="18.142097">
        <ele>37</ele>
        <time>2020-01-17T08:52:08Z</time>
      </trkpt>
      <trkpt lat="59.201933" lon="18.14207">
        <ele>37</ele>
        <time>2020-01-17T08:52:09Z</time>
      </trkpt>
      <trkpt lat="59.201876" lon="18.142043">
        <ele>36</ele>
        <time>2020-01-17T08:52:10Z</time>
      </trkpt>
      <trkpt lat="59.201818" lon="18.142018">
        <ele>36</ele>
        <time>2020-01-17T08:52:11Z</time>
      </trkpt>
      <trkpt lat="59.201758" lon="18.141997">
        <ele>36</ele>
        <time>2020-01-17T08:52:12Z</time>
      </trkpt>
      <trkpt lat="59.2017" lon="18.141974">
        <ele>36</ele>
        <time>2020-01-17T08:52:13Z</time>
      </trkpt>
      <trkpt lat="59.20164" lon="18.141947">
        <ele>36</ele>
        <time>2020-01-17T08:52:14Z</time>
      </trkpt>
      <trkpt lat="59.201581" lon="18.141919">
        <ele>36</ele>
        <time>2020-01-17T08:52:15Z</time>
      </trkpt>
      <trkpt lat="59.201522" lon="18.14189">
        <ele>36</ele>
        <time>2020-01-17T08:52:16Z</time>
      </trkpt>
      <trkpt lat="59.201466" lon="18.141856">
        <ele>36</ele>
        <time>2020-01-17T08:52:17Z</time>
      </trkpt>
      <trkpt lat="59.201409" lon="18.141817">
        <ele>36</ele>
        <time>2020-01-17T08:52:18Z</time>
      </trkpt>
      <trkpt lat="59.201353" lon="18.141775">
        <ele>35</ele>
        <time>2020-01-17T08:52:19Z</time>
      </trkpt>
      <trkpt lat="59.201296" lon="18.141729">
        <ele>35</ele>
        <time>2020-01-17T08:52:20Z</time>
      </trkpt>
      <trkpt lat="59.201239" lon="18.141682">
        <ele>35</ele>
        <time>2020-01-17T08:52:21Z</time>
      </trkpt>
      <trkpt lat="59.201182" lon="18.141632">
        <ele>35</ele>
        <time>2020-01-17T08:52:22Z</time>
      </trkpt>
      <trkpt lat="59.201125" lon="18.14158">
        <ele>35</ele>
        <time>2020-01-17T08:52:23Z</time>
      </trkpt>
      <trkpt lat="59.201067" lon="18.141529">
        <ele>35</ele>
        <time>2020-01-17T08:52:24Z</time>
      </trkpt>
      <trkpt lat="59.201008" lon="18.14148">
        <ele>35</ele>
        <time>2020-01-17T08:52:25Z</time>
      </trkpt>
      <trkpt lat="59.200951" lon="18.141431">
        <ele>35</ele>
        <time>2020-01-17T08:52:26Z</time>
      </trkpt>
      <trkpt lat="59.200899" lon="18.141379">
        <ele>35</ele>
        <time>2020-01-17T08:52:27Z</time>
      </trkpt>
      <trkpt lat="59.200838" lon="18.141334">
        <ele>34</ele>
        <time>2020-01-17T08:52:28Z</time>
      </trkpt>
      <trkpt lat="59.20078" lon="18.141295">
        <ele>34</ele>
        <time>2020-01-17T08:52:29Z</time>
      </trkpt>
      <trkpt lat="59.200719" lon="18.141281">
        <ele>34</ele>
        <time>2020-01-17T08:52:30Z</time>
      </trkpt>
      <trkpt lat="59.200655" lon="18.141295">
        <ele>34</ele>
        <time>2020-01-17T08:52:31Z</time>
      </trkpt>
      <trkpt lat="59.200595" lon="18.141332">
        <ele>34</ele>
        <time>2020-01-17T08:52:32Z</time>
      </trkpt>
      <trkpt lat="59.200539" lon="18.141388">
        <ele>34</ele>
        <time>2020-01-17T08:52:33Z</time>
      </trkpt>
      <trkpt lat="59.20048" lon="18.141454">
        <ele>34</ele>
        <time>2020-01-17T08:52:34Z</time>
      </trkpt>
      <trkpt lat="59.200421" lon="18.141522">
        <ele>33</ele>
        <time>2020-01-17T08:52:35Z</time>
      </trkpt>
      <trkpt lat="59.200362" lon="18.141591">
        <ele>33</ele>
        <time>2020-01-17T08:52:36Z</time>
      </trkpt>
      <trkpt lat="59.200296" lon="18.141664">
        <ele>32</ele>
        <time>2020-01-17T08:52:37Z</time>
      </trkpt>
      <trkpt lat="59.200229" lon="18.141736">
        <ele>32</ele>
        <time>2020-01-17T08:52:38Z</time>
      </trkpt>
      <trkpt lat="59.200161" lon="18.141808">
        <ele>31</ele>
        <time>2020-01-17T08:52:39Z</time>
      </trkpt>
      <trkpt lat="59.200091" lon="18.141883">
        <ele>30</ele>
        <time>2020-01-17T08:52:40Z</time>
      </trkpt>
      <trkpt lat="59.200023" lon="18.141964">
        <ele>30</ele>
        <time>2020-01-17T08:52:41Z</time>
      </trkpt>
      <trkpt lat="59.199955" lon="18.142047">
        <ele>29</ele>
        <time>2020-01-17T08:52:42Z</time>
      </trkpt>
      <trkpt lat="59.19989" lon="18.142138">
        <ele>29</ele>
        <time>2020-01-17T08:52:43Z</time>
      </trkpt>
      <trkpt lat="59.199827" lon="18.14224">
        <ele>28</ele>
        <time>2020-01-17T08:52:44Z</time>
      </trkpt>
      <trkpt lat="59.199774" lon="18.142356">
        <ele>28</ele>
        <time>2020-01-17T08:52:45Z</time>
      </trkpt>
      <trkpt lat="59.199725" lon="18.142475">
        <ele>28</ele>
        <time>2020-01-17T08:52:46Z</time>
      </trkpt>
      <trkpt lat="59.199681" lon="18.142589">
        <ele>28</ele>
        <time>2020-01-17T08:52:47Z</time>
      </trkpt>
      <trkpt lat="59.199638" lon="18.142702">
        <ele>28</ele>
        <time>2020-01-17T08:52:48Z</time>
      </trkpt>
      <trkpt lat="59.199584" lon="18.142805">
        <ele>28</ele>
        <time>2020-01-17T08:52:49Z</time>
      </trkpt>
      <trkpt lat="59.199522" lon="18.142888">
        <ele>28</ele>
        <time>2020-01-17T08:52:50Z</time>
      </trkpt>
      <trkpt lat="59.199454" lon="18.142948">
        <ele>27</ele>
        <time>2020-01-17T08:52:51Z</time>
      </trkpt>
      <trkpt lat="59.199384" lon="18.142982">
        <ele>27</ele>
        <time>2020-01-17T08:52:52Z</time>
      </trkpt>
      <trkpt lat="59.199314" lon="18.142997">
        <ele>27</ele>
        <time>2020-01-17T08:52:53Z</time>
      </trkpt>
      <trkpt lat="59.199244" lon="18.142999">
        <ele>27</ele>
        <time>2020-01-17T08:52:54Z</time>
      </trkpt>
      <trkpt lat="59.199177" lon="18.142993">
        <ele>27</ele>
        <time>2020-01-17T08:52:55Z</time>
      </trkpt>
      <trkpt lat="59.199112" lon="18.142988">
        <ele>27</ele>
        <time>2020-01-17T08:52:56Z</time>
      </trkpt>
      <trkpt lat="59.199049" lon="18.142986">
        <ele>27</ele>
        <time>2020-01-17T08:52:57Z</time>
      </trkpt>
      <trkpt lat="59.198986" lon="18.142982">
        <ele>27</ele>
        <time>2020-01-17T08:52:58Z</time>
      </trkpt>
      <trkpt lat="59.198923" lon="18.142981">
        <ele>27</ele>
        <time>2020-01-17T08:52:59Z</time>
      </trkpt>
      <trkpt lat="59.19886" lon="18.142981">
        <ele>27</ele>
        <time>2020-01-17T08:53:00Z</time>
      </trkpt>
      <trkpt lat="59.198798" lon="18.142978">
        <ele>26</ele>
        <time>2020-01-17T08:53:01Z</time>
      </trkpt>
      <trkpt lat="59.198735" lon="18.142975">
        <ele>26</ele>
        <time>2020-01-17T08:53:02Z</time>
      </trkpt>
      <trkpt lat="59.198674" lon="18.142969">
        <ele>26</ele>
        <time>2020-01-17T08:53:03Z</time>
      </trkpt>
      <trkpt lat="59.198613" lon="18.142959">
        <ele>26</ele>
        <time>2020-01-17T08:53:04Z</time>
      </trkpt>
      <trkpt lat="59.198553" lon="18.142942">
        <ele>26</ele>
        <time>2020-01-17T08:53:05Z</time>
      </trkpt>
      <trkpt lat="59.198494" lon="18.142915">
        <ele>26</ele>
        <time>2020-01-17T08:53:06Z</time>
      </trkpt>
      <trkpt lat="59.198435" lon="18.142885">
        <ele>26</ele>
        <time>2020-01-17T08:53:07Z</time>
      </trkpt>
      <trkpt lat="59.198376" lon="18.142854">
        <ele>26</ele>
        <time>2020-01-17T08:53:08Z</time>
      </trkpt>
      <trkpt lat="59.198319" lon="18.142821">
        <ele>26</ele>
        <time>2020-01-17T08:53:09Z</time>
      </trkpt>
      <trkpt lat="59.198262" lon="18.142785">
        <ele>26</ele>
        <time>2020-01-17T08:53:10Z</time>
      </trkpt>
      <trkpt lat="59.198206" lon="18.142746">
        <ele>26</ele>
        <time>2020-01-17T08:53:11Z</time>
      </trkpt>
      <trkpt lat="59.198152" lon="18.142706">
        <ele>26</ele>
        <time>2020-01-17T08:53:12Z</time>
      </trkpt>
      <trkpt lat="59.198097" lon="18.142664">
        <ele>26</ele>
        <time>2020-01-17T08:53:13Z</time>
      </trkpt>
      <trkpt lat="59.198043" lon="18.142621">
        <ele>26</ele>
        <time>2020-01-17T08:53:14Z</time>
      </trkpt>
      <trkpt lat="59.197991" lon="18.142578">
        <ele>26</ele>
        <time>2020-01-17T08:53:15Z</time>
      </trkpt>
      <trkpt lat="59.197937" lon="18.142536">
        <ele>26</ele>
        <time>2020-01-17T08:53:16Z</time>
      </trkpt>
      <trkpt lat="59.197883" lon="18.142495">
        <ele>26</ele>
        <time>2020-01-17T08:53:17Z</time>
      </trkpt>
      <trkpt lat="59.197831" lon="18.142454">
        <ele>26</ele>
        <time>2020-01-17T08:53:18Z</time>
      </trkpt>
      <trkpt lat="59.197779" lon="18.142416">
        <ele>26</ele>
        <time>2020-01-17T08:53:19Z</time>
      </trkpt>
      <trkpt lat="59.197726" lon="18.142377">
        <ele>26</ele>
        <time>2020-01-17T08:53:20Z</time>
      </trkpt>
      <trkpt lat="59.197673" lon="18.142339">
        <ele>26</ele>
        <time>2020-01-17T08:53:21Z</time>
      </trkpt>
      <trkpt lat="59.197622" lon="18.142302">
        <ele>26</ele>
        <time>2020-01-17T08:53:22Z</time>
      </trkpt>
      <trkpt lat="59.197571" lon="18.142266">
        <ele>26</ele>
        <time>2020-01-17T08:53:23Z</time>
      </trkpt>
      <trkpt lat="59.197521" lon="18.142227">
        <ele>26</ele>
        <time>2020-01-17T08:53:24Z</time>
      </trkpt>
      <trkpt lat="59.197474" lon="18.142186">
        <ele>26</ele>
        <time>2020-01-17T08:53:25Z</time>
      </trkpt>
      <trkpt lat="59.197428" lon="18.142143">
        <ele>26</ele>
        <time>2020-01-17T08:53:26Z</time>
      </trkpt>
      <trkpt lat="59.197384" lon="18.1421">
        <ele>26</ele>
        <time>2020-01-17T08:53:27Z</time>
      </trkpt>
      <trkpt lat="59.197341" lon="18.142054">
        <ele>26</ele>
        <time>2020-01-17T08:53:28Z</time>
      </trkpt>
      <trkpt lat="59.197301" lon="18.142005">
        <ele>26</ele>
        <time>2020-01-17T08:53:29Z</time>
      </trkpt>
      <trkpt lat="59.197262" lon="18.141956">
        <ele>26</ele>
        <time>2020-01-17T08:53:30Z</time>
      </trkpt>
      <trkpt lat="59.197226" lon="18.141906">
        <ele>26</ele>
        <time>2020-01-17T08:53:31Z</time>
      </trkpt>
      <trkpt lat="59.197191" lon="18.141857">
        <ele>26</ele>
        <time>2020-01-17T08:53:32Z</time>
      </trkpt>
      <trkpt lat="59.197156" lon="18.141809">
        <ele>26</ele>
        <time>2020-01-17T08:53:33Z</time>
      </trkpt>
      <trkpt lat="59.197124" lon="18.141761">
        <ele>27</ele>
        <time>2020-01-17T08:53:34Z</time>
      </trkpt>
      <trkpt lat="59.197093" lon="18.141713">
        <ele>27</ele>
        <time>2020-01-17T08:53:35Z</time>
      </trkpt>
      <trkpt lat="59.197062" lon="18.141664">
        <ele>27</ele>
        <time>2020-01-17T08:53:36Z</time>
      </trkpt>
      <trkpt lat="59.197031" lon="18.141614">
        <ele>27</ele>
        <time>2020-01-17T08:53:37Z</time>
      </trkpt>
      <trkpt lat="59.197003" lon="18.14156">
        <ele>27</ele>
        <time>2020-01-17T08:53:38Z</time>
      </trkpt>
      <trkpt lat="59.196976" lon="18.141508">
        <ele>27</ele>
        <time>2020-01-17T08:53:39Z</time>
      </trkpt>
      <trkpt lat="59.196949" lon="18.141459">
        <ele>28</ele>
        <time>2020-01-17T08:53:41Z</time>
      </trkpt>
      <trkpt lat="59.196925" lon="18.141415">
        <ele>28</ele>
        <time>2020-01-17T08:53:41Z</time>
      </trkpt>
      <trkpt lat="59.196901" lon="18.141374">
        <ele>28</ele>
        <time>2020-01-17T08:53:42Z</time>
      </trkpt>
      <trkpt lat="59.196874" lon="18.141336">
        <ele>28</ele>
        <time>2020-01-17T08:53:43Z</time>
      </trkpt>
      <trkpt lat="59.196846" lon="18.1413">
        <ele>28</ele>
        <time>2020-01-17T08:53:44Z</time>
      </trkpt>
      <trkpt lat="59.19682" lon="18.141263">
        <ele>29</ele>
        <time>2020-01-17T08:53:45Z</time>
      </trkpt>
      <trkpt lat="59.196794" lon="18.141228">
        <ele>29</ele>
        <time>2020-01-17T08:53:46Z</time>
      </trkpt>
      <trkpt lat="59.19677" lon="18.141195">
        <ele>29</ele>
        <time>2020-01-17T08:53:47Z</time>
      </trkpt>
      <trkpt lat="59.196746" lon="18.141165">
        <ele>29</ele>
        <time>2020-01-17T08:53:48Z</time>
      </trkpt>
      <trkpt lat="59.196724" lon="18.141137">
        <ele>29</ele>
        <time>2020-01-17T08:53:49Z</time>
      </trkpt>
      <trkpt lat="59.196702" lon="18.14111">
        <ele>30</ele>
        <time>2020-01-17T08:53:50Z</time>
      </trkpt>
      <trkpt lat="59.19668" lon="18.141082">
        <ele>30</ele>
        <time>2020-01-17T08:53:51Z</time>
      </trkpt>
      <trkpt lat="59.196658" lon="18.141057">
        <ele>30</ele>
        <time>2020-01-17T08:53:52Z</time>
      </trkpt>
      <trkpt lat="59.196634" lon="18.141033">
        <ele>30</ele>
        <time>2020-01-17T08:53:53Z</time>
      </trkpt>
      <trkpt lat="59.19661" lon="18.141008">
        <ele>30</ele>
        <time>2020-01-17T08:53:54Z</time>
      </trkpt>
      <trkpt lat="59.196586" lon="18.140985">
        <ele>30</ele>
        <time>2020-01-17T08:53:55Z</time>
      </trkpt>
      <trkpt lat="59.196562" lon="18.140964">
        <ele>31</ele>
        <time>2020-01-17T08:53:56Z</time>
      </trkpt>
      <trkpt lat="59.196537" lon="18.140945">
        <ele>31</ele>
        <time>2020-01-17T08:53:57Z</time>
      </trkpt>
      <trkpt lat="59.196512" lon="18.140927">
        <ele>31</ele>
        <time>2020-01-17T08:53:58Z</time>
      </trkpt>
      <trkpt lat="59.196485" lon="18.14091">
        <ele>31</ele>
        <time>2020-01-17T08:53:59Z</time>
      </trkpt>
      <trkpt lat="59.196458" lon="18.140894">
        <ele>31</ele>
        <time>2020-01-17T08:54:00Z</time>
      </trkpt>
      <trkpt lat="59.19643" lon="18.140879">
        <ele>31</ele>
        <time>2020-01-17T08:54:01Z</time>
      </trkpt>
      <trkpt lat="59.196403" lon="18.140863">
        <ele>31</ele>
        <time>2020-01-17T08:54:02Z</time>
      </trkpt>
      <trkpt lat="59.196374" lon="18.140848">
        <ele>31</ele>
        <time>2020-01-17T08:54:03Z</time>
      </trkpt>
      <trkpt lat="59.196345" lon="18.140836">
        <ele>32</ele>
        <time>2020-01-17T08:54:04Z</time>
      </trkpt>
      <trkpt lat="59.196314" lon="18.140825">
        <ele>32</ele>
        <time>2020-01-17T08:54:05Z</time>
      </trkpt>
      <trkpt lat="59.196284" lon="18.140813">
        <ele>32</ele>
        <time>2020-01-17T08:54:06Z</time>
      </trkpt>
      <trkpt lat="59.196252" lon="18.140803">
        <ele>32</ele>
        <time>2020-01-17T08:54:07Z</time>
      </trkpt>
      <trkpt lat="59.196221" lon="18.140793">
        <ele>32</ele>
        <time>2020-01-17T08:54:08Z</time>
      </trkpt>
      <trkpt lat="59.19619" lon="18.140781">
        <ele>32</ele>
        <time>2020-01-17T08:54:09Z</time>
      </trkpt>
      <trkpt lat="59.196158" lon="18.140772">
        <ele>32</ele>
        <time>2020-01-17T08:54:10Z</time>
      </trkpt>
      <trkpt lat="59.196127" lon="18.140764">
        <ele>32</ele>
        <time>2020-01-17T08:54:11Z</time>
      </trkpt>
      <trkpt lat="59.196096" lon="18.140755">
        <ele>32</ele>
        <time>2020-01-17T08:54:12Z</time>
      </trkpt>
      <trkpt lat="59.196064" lon="18.140749">
        <ele>32</ele>
        <time>2020-01-17T08:54:13Z</time>
      </trkpt>
      <trkpt lat="59.196033" lon="18.140743">
        <ele>32</ele>
        <time>2020-01-17T08:54:14Z</time>
      </trkpt>
      <trkpt lat="59.196002" lon="18.140737">
        <ele>32</ele>
        <time>2020-01-17T08:54:15Z</time>
      </trkpt>
      <trkpt lat="59.195971" lon="18.140731">
        <ele>32</ele>
        <time>2020-01-17T08:54:16Z</time>
      </trkpt>
      <trkpt lat="59.19594" lon="18.140726">
        <ele>32</ele>
        <time>2020-01-17T08:54:17Z</time>
      </trkpt>
      <trkpt lat="59.195908" lon="18.140722">
        <ele>33</ele>
        <time>2020-01-17T08:54:18Z</time>
      </trkpt>
      <trkpt lat="59.195877" lon="18.140717">
        <ele>33</ele>
        <time>2020-01-17T08:54:19Z</time>
      </trkpt>
      <trkpt lat="59.195846" lon="18.140711">
        <ele>33</ele>
        <time>2020-01-17T08:54:20Z</time>
      </trkpt>
      <trkpt lat="59.195815" lon="18.140703">
        <ele>33</ele>
        <time>2020-01-17T08:54:21Z</time>
      </trkpt>
      <trkpt lat="59.195784" lon="18.140697">
        <ele>33</ele>
        <time>2020-01-17T08:54:22Z</time>
      </trkpt>
      <trkpt lat="59.195753" lon="18.140691">
        <ele>33</ele>
        <time>2020-01-17T08:54:23Z</time>
      </trkpt>
      <trkpt lat="59.195723" lon="18.140686">
        <ele>33</ele>
        <time>2020-01-17T08:54:24Z</time>
      </trkpt>
      <trkpt lat="59.195691" lon="18.14068">
        <ele>33</ele>
        <time>2020-01-17T08:54:25Z</time>
      </trkpt>
      <trkpt lat="59.19566" lon="18.140675">
        <ele>33</ele>
        <time>2020-01-17T08:54:26Z</time>
      </trkpt>
      <trkpt lat="59.195629" lon="18.14067">
        <ele>33</ele>
        <time>2020-01-17T08:54:27Z</time>
      </trkpt>
      <trkpt lat="59.195599" lon="18.140665">
        <ele>33</ele>
        <time>2020-01-17T08:54:28Z</time>
      </trkpt>
      <trkpt lat="59.195569" lon="18.140661">
        <ele>33</ele>
        <time>2020-01-17T08:54:29Z</time>
      </trkpt>
      <trkpt lat="59.195539" lon="18.140656">
        <ele>33</ele>
        <time>2020-01-17T08:54:30Z</time>
      </trkpt>
      <trkpt lat="59.19551" lon="18.14065">
        <ele>33</ele>
        <time>2020-01-17T08:54:31Z</time>
      </trkpt>
      <trkpt lat="59.195482" lon="18.140645">
        <ele>34</ele>
        <time>2020-01-17T08:54:32Z</time>
      </trkpt>
      <trkpt lat="59.195453" lon="18.140642">
        <ele>34</ele>
        <time>2020-01-17T08:54:33Z</time>
      </trkpt>
      <trkpt lat="59.195425" lon="18.140639">
        <ele>34</ele>
        <time>2020-01-17T08:54:34Z</time>
      </trkpt>
      <trkpt lat="59.195395" lon="18.140637">
        <ele>34</ele>
        <time>2020-01-17T08:54:35Z</time>
      </trkpt>
      <trkpt lat="59.195367" lon="18.140637">
        <ele>34</ele>
        <time>2020-01-17T08:54:36Z</time>
      </trkpt>
      <trkpt lat="59.195338" lon="18.140637">
        <ele>34</ele>
        <time>2020-01-17T08:54:37Z</time>
      </trkpt>
      <trkpt lat="59.195309" lon="18.140636">
        <ele>34</ele>
        <time>2020-01-17T08:54:38Z</time>
      </trkpt>
      <trkpt lat="59.195281" lon="18.140638">
        <ele>34</ele>
        <time>2020-01-17T08:54:39Z</time>
      </trkpt>
      <trkpt lat="59.195253" lon="18.140641">
        <ele>34</ele>
        <time>2020-01-17T08:54:40Z</time>
      </trkpt>
      <trkpt lat="59.195226" lon="18.140645">
        <ele>35</ele>
        <time>2020-01-17T08:54:41Z</time>
      </trkpt>
      <trkpt lat="59.195199" lon="18.140651">
        <ele>35</ele>
        <time>2020-01-17T08:54:42Z</time>
      </trkpt>
      <trkpt lat="59.195172" lon="18.140659">
        <ele>35</ele>
        <time>2020-01-17T08:54:43Z</time>
      </trkpt>
      <trkpt lat="59.195146" lon="18.140668">
        <ele>35</ele>
        <time>2020-01-17T08:54:44Z</time>
      </trkpt>
      <trkpt lat="59.19512" lon="18.140676">
        <ele>35</ele>
        <time>2020-01-17T08:54:45Z</time>
      </trkpt>
      <trkpt lat="59.195094" lon="18.140687">
        <ele>35</ele>
        <time>2020-01-17T08:54:46Z</time>
      </trkpt>
      <trkpt lat="59.195068" lon="18.140699">
        <ele>35</ele>
        <time>2020-01-17T08:54:47Z</time>
      </trkpt>
      <trkpt lat="59.195041" lon="18.140713">
        <ele>36</ele>
        <time>2020-01-17T08:54:48Z</time>
      </trkpt>
      <trkpt lat="59.195014" lon="18.140729">
        <ele>36</ele>
        <time>2020-01-17T08:54:49Z</time>
      </trkpt>
      <trkpt lat="59.194988" lon="18.140746">
        <ele>36</ele>
        <time>2020-01-17T08:54:50Z</time>
      </trkpt>
      <trkpt lat="59.194961" lon="18.140765">
        <ele>36</ele>
        <time>2020-01-17T08:54:51Z</time>
      </trkpt>
      <trkpt lat="59.194935" lon="18.140785">
        <ele>36</ele>
        <time>2020-01-17T08:54:52Z</time>
      </trkpt>
      <trkpt lat="59.194909" lon="18.140806">
        <ele>36</ele>
        <time>2020-01-17T08:54:53Z</time>
      </trkpt>
      <trkpt lat="59.194884" lon="18.140827">
        <ele>37</ele>
        <time>2020-01-17T08:54:54Z</time>
      </trkpt>
      <trkpt lat="59.194859" lon="18.140848">
        <ele>37</ele>
        <time>2020-01-17T08:54:55Z</time>
      </trkpt>
      <trkpt lat="59.194834" lon="18.140869">
        <ele>37</ele>
        <time>2020-01-17T08:54:56Z</time>
      </trkpt>
      <trkpt lat="59.194809" lon="18.140891">
        <ele>37</ele>
        <time>2020-01-17T08:54:57Z</time>
      </trkpt>
      <trkpt lat="59.194783" lon="18.140915">
        <ele>37</ele>
        <time>2020-01-17T08:54:58Z</time>
      </trkpt>
      <trkpt lat="59.194756" lon="18.140939">
        <ele>37</ele>
        <time>2020-01-17T08:54:59Z</time>
      </trkpt>
      <trkpt lat="59.194729" lon="18.140965">
        <ele>38</ele>
        <time>2020-01-17T08:55:00Z</time>
      </trkpt>
      <trkpt lat="59.194703" lon="18.140992">
        <ele>38</ele>
        <time>2020-01-17T08:55:01Z</time>
      </trkpt>
      <trkpt lat="59.194679" lon="18.141018">
        <ele>38</ele>
        <time>2020-01-17T08:55:02Z</time>
      </trkpt>
      <trkpt lat="59.194655" lon="18.141043">
        <ele>38</ele>
        <time>2020-01-17T08:55:03Z</time>
      </trkpt>
      <trkpt lat="59.19463" lon="18.141068">
        <ele>38</ele>
        <time>2020-01-17T08:55:04Z</time>
      </trkpt>
      <trkpt lat="59.194605" lon="18.141095">
        <ele>39</ele>
        <time>2020-01-17T08:55:05Z</time>
      </trkpt>
      <trkpt lat="59.19458" lon="18.141123">
        <ele>39</ele>
        <time>2020-01-17T08:55:06Z</time>
      </trkpt>
      <trkpt lat="59.194554" lon="18.14115">
        <ele>39</ele>
        <time>2020-01-17T08:55:07Z</time>
      </trkpt>
      <trkpt lat="59.194528" lon="18.141177">
        <ele>39</ele>
        <time>2020-01-17T08:55:08Z</time>
      </trkpt>
      <trkpt lat="59.1945" lon="18.141205">
        <ele>40</ele>
        <time>2020-01-17T08:55:09Z</time>
      </trkpt>
      <trkpt lat="59.194474" lon="18.141233">
        <ele>40</ele>
        <time>2020-01-17T08:55:10Z</time>
      </trkpt>
      <trkpt lat="59.194445" lon="18.141263">
        <ele>40</ele>
        <time>2020-01-17T08:55:11Z</time>
      </trkpt>
      <trkpt lat="59.194415" lon="18.141293">
        <ele>40</ele>
        <time>2020-01-17T08:55:12Z</time>
      </trkpt>
      <trkpt lat="59.194385" lon="18.141322">
        <ele>41</ele>
        <time>2020-01-17T08:55:13Z</time>
      </trkpt>
      <trkpt lat="59.194352" lon="18.141354">
        <ele>41</ele>
        <time>2020-01-17T08:55:14Z</time>
      </trkpt>
      <trkpt lat="59.19432" lon="18.141386">
        <ele>41</ele>
        <time>2020-01-17T08:55:15Z</time>
      </trkpt>
      <trkpt lat="59.194287" lon="18.141414">
        <ele>41</ele>
        <time>2020-01-17T08:55:16Z</time>
      </trkpt>
      <trkpt lat="59.194254" lon="18.141445">
        <ele>41</ele>
        <time>2020-01-17T08:55:17Z</time>
      </trkpt>
      <trkpt lat="59.194223" lon="18.141476">
        <ele>41</ele>
        <time>2020-01-17T08:55:18Z</time>
      </trkpt>
      <trkpt lat="59.19419" lon="18.141507">
        <ele>41</ele>
        <time>2020-01-17T08:55:19Z</time>
      </trkpt>
      <trkpt lat="59.194158" lon="18.141538">
        <ele>41</ele>
        <time>2020-01-17T08:55:20Z</time>
      </trkpt>
      <trkpt lat="59.194128" lon="18.141568">
        <ele>41</ele>
        <time>2020-01-17T08:55:21Z</time>
      </trkpt>
      <trkpt lat="59.194096" lon="18.141598">
        <ele>41</ele>
        <time>2020-01-17T08:55:22Z</time>
      </trkpt>
      <trkpt lat="59.194063" lon="18.141628">
        <ele>41</ele>
        <time>2020-01-17T08:55:23Z</time>
      </trkpt>
      <trkpt lat="59.194031" lon="18.141656">
        <ele>41</ele>
        <time>2020-01-17T08:55:24Z</time>
      </trkpt>
      <trkpt lat="59.193997" lon="18.141684">
        <ele>41</ele>
        <time>2020-01-17T08:55:25Z</time>
      </trkpt>
      <trkpt lat="59.193964" lon="18.141712">
        <ele>41</ele>
        <time>2020-01-17T08:55:26Z</time>
      </trkpt>
      <trkpt lat="59.19393" lon="18.141744">
        <ele>41</ele>
        <time>2020-01-17T08:55:27Z</time>
      </trkpt>
      <trkpt lat="59.193896" lon="18.141778">
        <ele>41</ele>
        <time>2020-01-17T08:55:28Z</time>
      </trkpt>
      <trkpt lat="59.193865" lon="18.141813">
        <ele>42</ele>
        <time>2020-01-17T08:55:29Z</time>
      </trkpt>
      <trkpt lat="59.193832" lon="18.141847">
        <ele>42</ele>
        <time>2020-01-17T08:55:30Z</time>
      </trkpt>
      <trkpt lat="59.1938" lon="18.141879">
        <ele>42</ele>
        <time>2020-01-17T08:55:31Z</time>
      </trkpt>
      <trkpt lat="59.193766" lon="18.141912">
        <ele>42</ele>
        <time>2020-01-17T08:55:32Z</time>
      </trkpt>
      <trkpt lat="59.19373" lon="18.141944">
        <ele>42</ele>
        <time>2020-01-17T08:55:33Z</time>
      </trkpt>
      <trkpt lat="59.193694" lon="18.141975">
        <ele>42</ele>
        <time>2020-01-17T08:55:35Z</time>
      </trkpt>
      <trkpt lat="59.193658" lon="18.142004">
        <ele>42</ele>
        <time>2020-01-17T08:55:35Z</time>
      </trkpt>
      <trkpt lat="59.193621" lon="18.142034">
        <ele>42</ele>
        <time>2020-01-17T08:55:36Z</time>
      </trkpt>
      <trkpt lat="59.193584" lon="18.142069">
        <ele>42</ele>
        <time>2020-01-17T08:55:37Z</time>
      </trkpt>
      <trkpt lat="59.193546" lon="18.142107">
        <ele>43</ele>
        <time>2020-01-17T08:55:38Z</time>
      </trkpt>
      <trkpt lat="59.193504" lon="18.142143">
        <ele>43</ele>
        <time>2020-01-17T08:55:39Z</time>
      </trkpt>
      <trkpt lat="59.193464" lon="18.142176">
        <ele>43</ele>
        <time>2020-01-17T08:55:40Z</time>
      </trkpt>
      <trkpt lat="59.193423" lon="18.14221">
        <ele>43</ele>
        <time>2020-01-17T08:55:41Z</time>
      </trkpt>
      <trkpt lat="59.193381" lon="18.142243">
        <ele>43</ele>
        <time>2020-01-17T08:55:42Z</time>
      </trkpt>
      <trkpt lat="59.193339" lon="18.142273">
        <ele>43</ele>
        <time>2020-01-17T08:55:43Z</time>
      </trkpt>
      <trkpt lat="59.193295" lon="18.142302">
        <ele>43</ele>
        <time>2020-01-17T08:55:44Z</time>
      </trkpt>
      <trkpt lat="59.193252" lon="18.14233">
        <ele>43</ele>
        <time>2020-01-17T08:55:45Z</time>
      </trkpt>
      <trkpt lat="59.193209" lon="18.14236">
        <ele>43</ele>
        <time>2020-01-17T08:55:46Z</time>
      </trkpt>
      <trkpt lat="59.193166" lon="18.142396">
        <ele>43</ele>
        <time>2020-01-17T08:55:47Z</time>
      </trkpt>
      <trkpt lat="59.193121" lon="18.142437">
        <ele>43</ele>
        <time>2020-01-17T08:55:48Z</time>
      </trkpt>
      <trkpt lat="59.193076" lon="18.14248">
        <ele>43</ele>
        <time>2020-01-17T08:55:49Z</time>
      </trkpt>
      <trkpt lat="59.193031" lon="18.142525">
        <ele>43</ele>
        <time>2020-01-17T08:55:50Z</time>
      </trkpt>
      <trkpt lat="59.192986" lon="18.142572">
        <ele>43</ele>
        <time>2020-01-17T08:55:51Z</time>
      </trkpt>
      <trkpt lat="59.192938" lon="18.14262">
        <ele>43</ele>
        <time>2020-01-17T08:55:52Z</time>
      </trkpt>
      <trkpt lat="59.192889" lon="18.14267">
        <ele>43</ele>
        <time>2020-01-17T08:55:53Z</time>
      </trkpt>
      <trkpt lat="59.192838" lon="18.142718">
        <ele>43</ele>
        <time>2020-01-17T08:55:54Z</time>
      </trkpt>
      <trkpt lat="59.192789" lon="18.142767">
        <ele>43</ele>
        <time>2020-01-17T08:55:55Z</time>
      </trkpt>
      <trkpt lat="59.19274" lon="18.142817">
        <ele>42</ele>
        <time>2020-01-17T08:55:56Z</time>
      </trkpt>
      <trkpt lat="59.19269" lon="18.142867">
        <ele>42</ele>
        <time>2020-01-17T08:55:57Z</time>
      </trkpt>
      <trkpt lat="59.192641" lon="18.142916">
        <ele>42</ele>
        <time>2020-01-17T08:55:58Z</time>
      </trkpt>
      <trkpt lat="59.192593" lon="18.142965">
        <ele>43</ele>
        <time>2020-01-17T08:55:59Z</time>
      </trkpt>
      <trkpt lat="59.192542" lon="18.143016">
        <ele>43</ele>
        <time>2020-01-17T08:56:00Z</time>
      </trkpt>
      <trkpt lat="59.192487" lon="18.14307">
        <ele>43</ele>
        <time>2020-01-17T08:56:01Z</time>
      </trkpt>
      <trkpt lat="59.19243" lon="18.143127">
        <ele>43</ele>
        <time>2020-01-17T08:56:02Z</time>
      </trkpt>
      <trkpt lat="59.192371" lon="18.143189">
        <ele>43</ele>
        <time>2020-01-17T08:56:03Z</time>
      </trkpt>
      <trkpt lat="59.19231" lon="18.143251">
        <ele>43</ele>
        <time>2020-01-17T08:56:04Z</time>
      </trkpt>
      <trkpt lat="59.192248" lon="18.143316">
        <ele>43</ele>
        <time>2020-01-17T08:56:05Z</time>
      </trkpt>
      <trkpt lat="59.192185" lon="18.143384">
        <ele>43</ele>
        <time>2020-01-17T08:56:06Z</time>
      </trkpt>
      <trkpt lat="59.192122" lon="18.143454">
        <ele>43</ele>
        <time>2020-01-17T08:56:07Z</time>
      </trkpt>
      <trkpt lat="59.192059" lon="18.143522">
        <ele>43</ele>
        <time>2020-01-17T08:56:08Z</time>
      </trkpt>
      <trkpt lat="59.191999" lon="18.143586">
        <ele>43</ele>
        <time>2020-01-17T08:56:09Z</time>
      </trkpt>
      <trkpt lat="59.191937" lon="18.143648">
        <ele>42</ele>
        <time>2020-01-17T08:56:10Z</time>
      </trkpt>
      <trkpt lat="59.191871" lon="18.143706">
        <ele>42</ele>
        <time>2020-01-17T08:56:11Z</time>
      </trkpt>
      <trkpt lat="59.191803" lon="18.143761">
        <ele>42</ele>
        <time>2020-01-17T08:56:12Z</time>
      </trkpt>
      <trkpt lat="59.191731" lon="18.143813">
        <ele>41</ele>
        <time>2020-01-17T08:56:13Z</time>
      </trkpt>
      <trkpt lat="59.19166" lon="18.143862">
        <ele>41</ele>
        <time>2020-01-17T08:56:14Z</time>
      </trkpt>
      <trkpt lat="59.191589" lon="18.143908">
        <ele>40</ele>
        <time>2020-01-17T08:56:15Z</time>
      </trkpt>
      <trkpt lat="59.191517" lon="18.14395">
        <ele>40</ele>
        <time>2020-01-17T08:56:16Z</time>
      </trkpt>
      <trkpt lat="59.191443" lon="18.14399">
        <ele>39</ele>
        <time>2020-01-17T08:56:17Z</time>
      </trkpt>
      <trkpt lat="59.191364" lon="18.144025">
        <ele>39</ele>
        <time>2020-01-17T08:56:18Z</time>
      </trkpt>
      <trkpt lat="59.191285" lon="18.144057">
        <ele>38</ele>
        <time>2020-01-17T08:56:19Z</time>
      </trkpt>
      <trkpt lat="59.191205" lon="18.144087">
        <ele>38</ele>
        <time>2020-01-17T08:56:20Z</time>
      </trkpt>
      <trkpt lat="59.191125" lon="18.144115">
        <ele>38</ele>
        <time>2020-01-17T08:56:21Z</time>
      </trkpt>
      <trkpt lat="59.191041" lon="18.144138">
        <ele>37</ele>
        <time>2020-01-17T08:56:22Z</time>
      </trkpt>
      <trkpt lat="59.190957" lon="18.144155">
        <ele>37</ele>
        <time>2020-01-17T08:56:23Z</time>
      </trkpt>
      <trkpt lat="59.190875" lon="18.144169">
        <ele>36</ele>
        <time>2020-01-17T08:56:24Z</time>
      </trkpt>
      <trkpt lat="59.190793" lon="18.144188">
        <ele>36</ele>
        <time>2020-01-17T08:56:25Z</time>
      </trkpt>
      <trkpt lat="59.190707" lon="18.144211">
        <ele>35</ele>
        <time>2020-01-17T08:56:26Z</time>
      </trkpt>
      <trkpt lat="59.190618" lon="18.144229">
        <ele>35</ele>
        <time>2020-01-17T08:56:27Z</time>
      </trkpt>
      <trkpt lat="59.190533" lon="18.144245">
        <ele>35</ele>
        <time>2020-01-17T08:56:28Z</time>
      </trkpt>
      <trkpt lat="59.19045" lon="18.144266">
        <ele>34</ele>
        <time>2020-01-17T08:56:29Z</time>
      </trkpt>
      <trkpt lat="59.190366" lon="18.144293">
        <ele>34</ele>
        <time>2020-01-17T08:56:30Z</time>
      </trkpt>
      <trkpt lat="59.190287" lon="18.144319">
        <ele>34</ele>
        <time>2020-01-17T08:56:31Z</time>
      </trkpt>
      <trkpt lat="59.190216" lon="18.14434">
        <ele>34</ele>
        <time>2020-01-17T08:56:32Z</time>
      </trkpt>
      <trkpt lat="59.190152" lon="18.144355">
        <ele>33</ele>
        <time>2020-01-17T08:56:33Z</time>
      </trkpt>
      <trkpt lat="59.190093" lon="18.144367">
        <ele>33</ele>
        <time>2020-01-17T08:56:34Z</time>
      </trkpt>
      <trkpt lat="59.190033" lon="18.14438">
        <ele>33</ele>
        <time>2020-01-17T08:56:35Z</time>
      </trkpt>
      <trkpt lat="59.189975" lon="18.144388">
        <ele>33</ele>
        <time>2020-01-17T08:56:36Z</time>
      </trkpt>
      <trkpt lat="59.189905" lon="18.144401">
        <ele>33</ele>
        <time>2020-01-17T08:56:37Z</time>
      </trkpt>
      <trkpt lat="59.189833" lon="18.14442">
        <ele>33</ele>
        <time>2020-01-17T08:56:38Z</time>
      </trkpt>
      <trkpt lat="59.189703" lon="18.144475">
        <ele>33</ele>
        <time>2020-01-17T08:56:40Z</time>
      </trkpt>
      <trkpt lat="59.189634" lon="18.144507">
        <ele>33</ele>
        <time>2020-01-17T08:56:41Z</time>
      </trkpt>
      <trkpt lat="59.18957" lon="18.144549">
        <ele>33</ele>
        <time>2020-01-17T08:56:42Z</time>
      </trkpt>
      <trkpt lat="59.18951" lon="18.144588">
        <ele>33</ele>
        <time>2020-01-17T08:56:43Z</time>
      </trkpt>
      <trkpt lat="59.189455" lon="18.144626">
        <ele>33</ele>
        <time>2020-01-17T08:56:44Z</time>
      </trkpt>
      <trkpt lat="59.189401" lon="18.144673">
        <ele>32</ele>
        <time>2020-01-17T08:56:45Z</time>
      </trkpt>
      <trkpt lat="59.189352" lon="18.144718">
        <ele>32</ele>
        <time>2020-01-17T08:56:46Z</time>
      </trkpt>
      <trkpt lat="59.189303" lon="18.144762">
        <ele>32</ele>
        <time>2020-01-17T08:56:47Z</time>
      </trkpt>
      <trkpt lat="59.189255" lon="18.14481">
        <ele>32</ele>
        <time>2020-01-17T08:56:48Z</time>
      </trkpt>
      <trkpt lat="59.189209" lon="18.144863">
        <ele>32</ele>
        <time>2020-01-17T08:56:49Z</time>
      </trkpt>
      <trkpt lat="59.189165" lon="18.144918">
        <ele>31</ele>
        <time>2020-01-17T08:56:50Z</time>
      </trkpt>
      <trkpt lat="59.18912" lon="18.144976">
        <ele>31</ele>
        <time>2020-01-17T08:56:51Z</time>
      </trkpt>
      <trkpt lat="59.189077" lon="18.145039">
        <ele>31</ele>
        <time>2020-01-17T08:56:52Z</time>
      </trkpt>
      <trkpt lat="59.189037" lon="18.145104">
        <ele>31</ele>
        <time>2020-01-17T08:56:53Z</time>
      </trkpt>
      <trkpt lat="59.188996" lon="18.145171">
        <ele>31</ele>
        <time>2020-01-17T08:56:54Z</time>
      </trkpt>
      <trkpt lat="59.188954" lon="18.145232">
        <ele>31</ele>
        <time>2020-01-17T08:56:55Z</time>
      </trkpt>
      <trkpt lat="59.188909" lon="18.145294">
        <ele>30</ele>
        <time>2020-01-17T08:56:56Z</time>
      </trkpt>
      <trkpt lat="59.188864" lon="18.145355">
        <ele>30</ele>
        <time>2020-01-17T08:56:57Z</time>
      </trkpt>
      <trkpt lat="59.188817" lon="18.145415">
        <ele>30</ele>
        <time>2020-01-17T08:56:58Z</time>
      </trkpt>
      <trkpt lat="59.188769" lon="18.145477">
        <ele>30</ele>
        <time>2020-01-17T08:56:59Z</time>
      </trkpt>
      <trkpt lat="59.188719" lon="18.145538">
        <ele>30</ele>
        <time>2020-01-17T08:57:00Z</time>
      </trkpt>
      <trkpt lat="59.188668" lon="18.145596">
        <ele>29</ele>
        <time>2020-01-17T08:57:01Z</time>
      </trkpt>
      <trkpt lat="59.188615" lon="18.145649">
        <ele>29</ele>
        <time>2020-01-17T08:57:02Z</time>
      </trkpt>
      <trkpt lat="59.18856" lon="18.1457">
        <ele>29</ele>
        <time>2020-01-17T08:57:03Z</time>
      </trkpt>
      <trkpt lat="59.188503" lon="18.145744">
        <ele>28</ele>
        <time>2020-01-17T08:57:04Z</time>
      </trkpt>
      <trkpt lat="59.188444" lon="18.145786">
        <ele>28</ele>
        <time>2020-01-17T08:57:05Z</time>
      </trkpt>
      <trkpt lat="59.188386" lon="18.145828">
        <ele>28</ele>
        <time>2020-01-17T08:57:06Z</time>
      </trkpt>
      <trkpt lat="59.188326" lon="18.145874">
        <ele>28</ele>
        <time>2020-01-17T08:57:07Z</time>
      </trkpt>
      <trkpt lat="59.188267" lon="18.145918">
        <ele>27</ele>
        <time>2020-01-17T08:57:08Z</time>
      </trkpt>
      <trkpt lat="59.188207" lon="18.145962">
        <ele>27</ele>
        <time>2020-01-17T08:57:09Z</time>
      </trkpt>
      <trkpt lat="59.188148" lon="18.146004">
        <ele>27</ele>
        <time>2020-01-17T08:57:10Z</time>
      </trkpt>
      <trkpt lat="59.18809" lon="18.146048">
        <ele>27</ele>
        <time>2020-01-17T08:57:11Z</time>
      </trkpt>
      <trkpt lat="59.188031" lon="18.146096">
        <ele>27</ele>
        <time>2020-01-17T08:57:12Z</time>
      </trkpt>
      <trkpt lat="59.18797" lon="18.146142">
        <ele>27</ele>
        <time>2020-01-17T08:57:13Z</time>
      </trkpt>
      <trkpt lat="59.187907" lon="18.14619">
        <ele>27</ele>
        <time>2020-01-17T08:57:14Z</time>
      </trkpt>
      <trkpt lat="59.187846" lon="18.146238">
        <ele>27</ele>
        <time>2020-01-17T08:57:15Z</time>
      </trkpt>
      <trkpt lat="59.187785" lon="18.146282">
        <ele>27</ele>
        <time>2020-01-17T08:57:16Z</time>
      </trkpt>
      <trkpt lat="59.187725" lon="18.146322">
        <ele>26</ele>
        <time>2020-01-17T08:57:17Z</time>
      </trkpt>
      <trkpt lat="59.187664" lon="18.146362">
        <ele>26</ele>
        <time>2020-01-17T08:57:18Z</time>
      </trkpt>
      <trkpt lat="59.187604" lon="18.146396">
        <ele>26</ele>
        <time>2020-01-17T08:57:19Z</time>
      </trkpt>
      <trkpt lat="59.187541" lon="18.146426">
        <ele>26</ele>
        <time>2020-01-17T08:57:20Z</time>
      </trkpt>
      <trkpt lat="59.187479" lon="18.146454">
        <ele>26</ele>
        <time>2020-01-17T08:57:21Z</time>
      </trkpt>
      <trkpt lat="59.187417" lon="18.146478">
        <ele>26</ele>
        <time>2020-01-17T08:57:22Z</time>
      </trkpt>
      <trkpt lat="59.187356" lon="18.146496">
        <ele>26</ele>
        <time>2020-01-17T08:57:23Z</time>
      </trkpt>
      <trkpt lat="59.187295" lon="18.146512">
        <ele>26</ele>
        <time>2020-01-17T08:57:24Z</time>
      </trkpt>
      <trkpt lat="59.187235" lon="18.146528">
        <ele>26</ele>
        <time>2020-01-17T08:57:25Z</time>
      </trkpt>
      <trkpt lat="59.187177" lon="18.146542">
        <ele>26</ele>
        <time>2020-01-17T08:57:26Z</time>
      </trkpt>
      <trkpt lat="59.18712" lon="18.146554">
        <ele>26</ele>
        <time>2020-01-17T08:57:27Z</time>
      </trkpt>
      <trkpt lat="59.187064" lon="18.146568">
        <ele>26</ele>
        <time>2020-01-17T08:57:28Z</time>
      </trkpt>
      <trkpt lat="59.187008" lon="18.146582">
        <ele>25</ele>
        <time>2020-01-17T08:57:29Z</time>
      </trkpt>
      <trkpt lat="59.186954" lon="18.146596">
        <ele>25</ele>
        <time>2020-01-17T08:57:30Z</time>
      </trkpt>
      <trkpt lat="59.1869" lon="18.146608">
        <ele>25</ele>
        <time>2020-01-17T08:57:31Z</time>
      </trkpt>
      <trkpt lat="59.186848" lon="18.146622">
        <ele>25</ele>
        <time>2020-01-17T08:57:32Z</time>
      </trkpt>
      <trkpt lat="59.186797" lon="18.146636">
        <ele>25</ele>
        <time>2020-01-17T08:57:33Z</time>
      </trkpt>
      <trkpt lat="59.186746" lon="18.146646">
        <ele>25</ele>
        <time>2020-01-17T08:57:34Z</time>
      </trkpt>
      <trkpt lat="59.186694" lon="18.146662">
        <ele>26</ele>
        <time>2020-01-17T08:57:35Z</time>
      </trkpt>
      <trkpt lat="59.186641" lon="18.146678">
        <ele>26</ele>
        <time>2020-01-17T08:57:36Z</time>
      </trkpt>
      <trkpt lat="59.186591" lon="18.146692">
        <ele>25</ele>
        <time>2020-01-17T08:57:37Z</time>
      </trkpt>
      <trkpt lat="59.18654" lon="18.146706">
        <ele>25</ele>
        <time>2020-01-17T08:57:38Z</time>
      </trkpt>
      <trkpt lat="59.186489" lon="18.146718">
        <ele>25</ele>
        <time>2020-01-17T08:57:39Z</time>
      </trkpt>
      <trkpt lat="59.186439" lon="18.146724">
        <ele>25</ele>
        <time>2020-01-17T08:57:40Z</time>
      </trkpt>
      <trkpt lat="59.186387" lon="18.146738">
        <ele>25</ele>
        <time>2020-01-17T08:57:41Z</time>
      </trkpt>
      <trkpt lat="59.186337" lon="18.14675">
        <ele>25</ele>
        <time>2020-01-17T08:57:42Z</time>
      </trkpt>
      <trkpt lat="59.186284" lon="18.146756">
        <ele>25</ele>
        <time>2020-01-17T08:57:43Z</time>
      </trkpt>
      <trkpt lat="59.186231" lon="18.146764">
        <ele>25</ele>
        <time>2020-01-17T08:57:44Z</time>
      </trkpt>
      <trkpt lat="59.186181" lon="18.146776">
        <ele>25</ele>
        <time>2020-01-17T08:57:45Z</time>
      </trkpt>
      <trkpt lat="59.186129" lon="18.146786">
        <ele>25</ele>
        <time>2020-01-17T08:57:46Z</time>
      </trkpt>
      <trkpt lat="59.186078" lon="18.146793">
        <ele>25</ele>
        <time>2020-01-17T08:57:47Z</time>
      </trkpt>
      <trkpt lat="59.186027" lon="18.146796">
        <ele>25</ele>
        <time>2020-01-17T08:57:48Z</time>
      </trkpt>
      <trkpt lat="59.185978" lon="18.146802">
        <ele>25</ele>
        <time>2020-01-17T08:57:49Z</time>
      </trkpt>
      <trkpt lat="59.185928" lon="18.14681">
        <ele>25</ele>
        <time>2020-01-17T08:57:50Z</time>
      </trkpt>
      <trkpt lat="59.185878" lon="18.14682">
        <ele>25</ele>
        <time>2020-01-17T08:57:51Z</time>
      </trkpt>
      <trkpt lat="59.185828" lon="18.14683">
        <ele>25</ele>
        <time>2020-01-17T08:57:52Z</time>
      </trkpt>
      <trkpt lat="59.185779" lon="18.146842">
        <ele>25</ele>
        <time>2020-01-17T08:57:53Z</time>
      </trkpt>
      <trkpt lat="59.185729" lon="18.146852">
        <ele>25</ele>
        <time>2020-01-17T08:57:54Z</time>
      </trkpt>
      <trkpt lat="59.185679" lon="18.146862">
        <ele>25</ele>
        <time>2020-01-17T08:57:55Z</time>
      </trkpt>
      <trkpt lat="59.185628" lon="18.146876">
        <ele>25</ele>
        <time>2020-01-17T08:57:56Z</time>
      </trkpt>
      <trkpt lat="59.185577" lon="18.146888">
        <ele>25</ele>
        <time>2020-01-17T08:57:57Z</time>
      </trkpt>
      <trkpt lat="59.185533" lon="18.146898">
        <ele>25</ele>
        <time>2020-01-17T08:57:58Z</time>
      </trkpt>
      <trkpt lat="59.185493" lon="18.146908">
        <ele>25</ele>
        <time>2020-01-17T08:57:59Z</time>
      </trkpt>
      <trkpt lat="59.185457" lon="18.146921">
        <ele>25</ele>
        <time>2020-01-17T08:58:00Z</time>
      </trkpt>
      <trkpt lat="59.185421" lon="18.146929">
        <ele>25</ele>
        <time>2020-01-17T08:58:01Z</time>
      </trkpt>
      <trkpt lat="59.185385" lon="18.146923">
        <ele>25</ele>
        <time>2020-01-17T08:58:02Z</time>
      </trkpt>
      <trkpt lat="59.185353" lon="18.146891">
        <ele>25</ele>
        <time>2020-01-17T08:58:03Z</time>
      </trkpt>
      <trkpt lat="59.185328" lon="18.146834">
        <ele>25</ele>
        <time>2020-01-17T08:58:04Z</time>
      </trkpt>
      <trkpt lat="59.185304" lon="18.146775">
        <ele>25</ele>
        <time>2020-01-17T08:58:05Z</time>
      </trkpt>
      <trkpt lat="59.185274" lon="18.146732">
        <ele>26</ele>
        <time>2020-01-17T08:58:06Z</time>
      </trkpt>
      <trkpt lat="59.185241" lon="18.146717">
        <ele>26</ele>
        <time>2020-01-17T08:58:07Z</time>
      </trkpt>
      <trkpt lat="59.185206" lon="18.146722">
        <ele>26</ele>
        <time>2020-01-17T08:58:08Z</time>
      </trkpt>
      <trkpt lat="59.185171" lon="18.146734">
        <ele>26</ele>
        <time>2020-01-17T08:58:09Z</time>
      </trkpt>
      <trkpt lat="59.185137" lon="18.146754">
        <ele>27</ele>
        <time>2020-01-17T08:58:10Z</time>
      </trkpt>
      <trkpt lat="59.185104" lon="18.146779">
        <ele>27</ele>
        <time>2020-01-17T08:58:11Z</time>
      </trkpt>
      <trkpt lat="59.185071" lon="18.146806">
        <ele>27</ele>
        <time>2020-01-17T08:58:12Z</time>
      </trkpt>
      <trkpt lat="59.185038" lon="18.146836">
        <ele>27</ele>
        <time>2020-01-17T08:58:13Z</time>
      </trkpt>
      <trkpt lat="59.185003" lon="18.146868">
        <ele>27</ele>
        <time>2020-01-17T08:58:14Z</time>
      </trkpt>
      <trkpt lat="59.184968" lon="18.146899">
        <ele>28</ele>
        <time>2020-01-17T08:58:15Z</time>
      </trkpt>
      <trkpt lat="59.184933" lon="18.146928">
        <ele>28</ele>
        <time>2020-01-17T08:58:16Z</time>
      </trkpt>
      <trkpt lat="59.184897" lon="18.146955">
        <ele>28</ele>
        <time>2020-01-17T08:58:17Z</time>
      </trkpt>
      <trkpt lat="59.184862" lon="18.14698">
        <ele>28</ele>
        <time>2020-01-17T08:58:18Z</time>
      </trkpt>
      <trkpt lat="59.184826" lon="18.147">
        <ele>28</ele>
        <time>2020-01-17T08:58:19Z</time>
      </trkpt>
      <trkpt lat="59.18479" lon="18.147017">
        <ele>28</ele>
        <time>2020-01-17T08:58:20Z</time>
      </trkpt>
      <trkpt lat="59.184753" lon="18.147028">
        <ele>28</ele>
        <time>2020-01-17T08:58:21Z</time>
      </trkpt>
      <trkpt lat="59.184716" lon="18.147037">
        <ele>28</ele>
        <time>2020-01-17T08:58:22Z</time>
      </trkpt>
      <trkpt lat="59.18468" lon="18.147047">
        <ele>28</ele>
        <time>2020-01-17T08:58:23Z</time>
      </trkpt>
      <trkpt lat="59.184644" lon="18.147056">
        <ele>29</ele>
        <time>2020-01-17T08:58:24Z</time>
      </trkpt>
      <trkpt lat="59.184607" lon="18.147065">
        <ele>29</ele>
        <time>2020-01-17T08:58:25Z</time>
      </trkpt>
      <trkpt lat="59.18457" lon="18.147076">
        <ele>29</ele>
        <time>2020-01-17T08:58:26Z</time>
      </trkpt>
      <trkpt lat="59.184534" lon="18.147088">
        <ele>29</ele>
        <time>2020-01-17T08:58:27Z</time>
      </trkpt>
      <trkpt lat="59.184498" lon="18.147098">
        <ele>29</ele>
        <time>2020-01-17T08:58:28Z</time>
      </trkpt>
      <trkpt lat="59.184462" lon="18.147104">
        <ele>29</ele>
        <time>2020-01-17T08:58:29Z</time>
      </trkpt>
      <trkpt lat="59.184428" lon="18.147109">
        <ele>29</ele>
        <time>2020-01-17T08:58:30Z</time>
      </trkpt>
      <trkpt lat="59.184394" lon="18.147115">
        <ele>29</ele>
        <time>2020-01-17T08:58:31Z</time>
      </trkpt>
      <trkpt lat="59.18436" lon="18.147121">
        <ele>30</ele>
        <time>2020-01-17T08:58:32Z</time>
      </trkpt>
      <trkpt lat="59.184326" lon="18.147127">
        <ele>30</ele>
        <time>2020-01-17T08:58:33Z</time>
      </trkpt>
      <trkpt lat="59.184294" lon="18.147132">
        <ele>30</ele>
        <time>2020-01-17T08:58:34Z</time>
      </trkpt>
      <trkpt lat="59.184261" lon="18.147139">
        <ele>30</ele>
        <time>2020-01-17T08:58:35Z</time>
      </trkpt>
      <trkpt lat="59.184227" lon="18.147148">
        <ele>30</ele>
        <time>2020-01-17T08:58:36Z</time>
      </trkpt>
      <trkpt lat="59.184191" lon="18.147157">
        <ele>31</ele>
        <time>2020-01-17T08:58:37Z</time>
      </trkpt>
      <trkpt lat="59.184156" lon="18.147164">
        <ele>31</ele>
        <time>2020-01-17T08:58:38Z</time>
      </trkpt>
      <trkpt lat="59.18412" lon="18.147171">
        <ele>31</ele>
        <time>2020-01-17T08:58:39Z</time>
      </trkpt>
      <trkpt lat="59.184084" lon="18.147178">
        <ele>31</ele>
        <time>2020-01-17T08:58:40Z</time>
      </trkpt>
      <trkpt lat="59.184048" lon="18.147186">
        <ele>31</ele>
        <time>2020-01-17T08:58:41Z</time>
      </trkpt>
      <trkpt lat="59.184011" lon="18.147193">
        <ele>31</ele>
        <time>2020-01-17T08:58:42Z</time>
      </trkpt>
      <trkpt lat="59.183973" lon="18.147201">
        <ele>31</ele>
        <time>2020-01-17T08:58:43Z</time>
      </trkpt>
      <trkpt lat="59.183935" lon="18.147209">
        <ele>32</ele>
        <time>2020-01-17T08:58:44Z</time>
      </trkpt>
      <trkpt lat="59.183897" lon="18.147218">
        <ele>32</ele>
        <time>2020-01-17T08:58:45Z</time>
      </trkpt>
      <trkpt lat="59.183859" lon="18.147225">
        <ele>32</ele>
        <time>2020-01-17T08:58:46Z</time>
      </trkpt>
      <trkpt lat="59.18382" lon="18.14723">
        <ele>32</ele>
        <time>2020-01-17T08:58:47Z</time>
      </trkpt>
      <trkpt lat="59.183781" lon="18.147233">
        <ele>32</ele>
        <time>2020-01-17T08:58:48Z</time>
      </trkpt>
      <trkpt lat="59.183742" lon="18.147236">
        <ele>32</ele>
        <time>2020-01-17T08:58:49Z</time>
      </trkpt>
      <trkpt lat="59.183704" lon="18.14724">
        <ele>32</ele>
        <time>2020-01-17T08:58:50Z</time>
      </trkpt>
      <trkpt lat="59.183665" lon="18.147246">
        <ele>33</ele>
        <time>2020-01-17T08:58:51Z</time>
      </trkpt>
      <trkpt lat="59.183628" lon="18.147259">
        <ele>33</ele>
        <time>2020-01-17T08:58:52Z</time>
      </trkpt>
      <trkpt lat="59.183591" lon="18.14728">
        <ele>33</ele>
        <time>2020-01-17T08:58:53Z</time>
      </trkpt>
      <trkpt lat="59.183556" lon="18.147305">
        <ele>33</ele>
        <time>2020-01-17T08:58:54Z</time>
      </trkpt>
      <trkpt lat="59.183522" lon="18.147322">
        <ele>33</ele>
        <time>2020-01-17T08:58:55Z</time>
      </trkpt>
      <trkpt lat="59.183486" lon="18.147326">
        <ele>33</ele>
        <time>2020-01-17T08:58:56Z</time>
      </trkpt>
      <trkpt lat="59.18345" lon="18.14732">
        <ele>33</ele>
        <time>2020-01-17T08:58:57Z</time>
      </trkpt>
      <trkpt lat="59.183414" lon="18.147312">
        <ele>33</ele>
        <time>2020-01-17T08:58:58Z</time>
      </trkpt>
      <trkpt lat="59.183378" lon="18.147298">
        <ele>33</ele>
        <time>2020-01-17T08:58:59Z</time>
      </trkpt>
      <trkpt lat="59.183344" lon="18.147269">
        <ele>34</ele>
        <time>2020-01-17T08:59:00Z</time>
      </trkpt>
      <trkpt lat="59.183313" lon="18.147234">
        <ele>34</ele>
        <time>2020-01-17T08:59:01Z</time>
      </trkpt>
      <trkpt lat="59.183281" lon="18.147202">
        <ele>34</ele>
        <time>2020-01-17T08:59:02Z</time>
      </trkpt>
      <trkpt lat="59.183245" lon="18.147176">
        <ele>34</ele>
        <time>2020-01-17T08:59:03Z</time>
      </trkpt>
      <trkpt lat="59.183208" lon="18.147158">
        <ele>34</ele>
        <time>2020-01-17T08:59:04Z</time>
      </trkpt>
      <trkpt lat="59.18317" lon="18.147143">
        <ele>34</ele>
        <time>2020-01-17T08:59:05Z</time>
      </trkpt>
      <trkpt lat="59.183133" lon="18.14713">
        <ele>34</ele>
        <time>2020-01-17T08:59:06Z</time>
      </trkpt>
      <trkpt lat="59.183094" lon="18.147116">
        <ele>34</ele>
        <time>2020-01-17T08:59:07Z</time>
      </trkpt>
      <trkpt lat="59.183056" lon="18.147102">
        <ele>34</ele>
        <time>2020-01-17T08:59:08Z</time>
      </trkpt>
      <trkpt lat="59.183016" lon="18.147089">
        <ele>34</ele>
        <time>2020-01-17T08:59:09Z</time>
      </trkpt>
      <trkpt lat="59.182977" lon="18.147078">
        <ele>35</ele>
        <time>2020-01-17T08:59:10Z</time>
      </trkpt>
      <trkpt lat="59.18294" lon="18.147066">
        <ele>35</ele>
        <time>2020-01-17T08:59:11Z</time>
      </trkpt>
      <trkpt lat="59.182903" lon="18.147047">
        <ele>35</ele>
        <time>2020-01-17T08:59:12Z</time>
      </trkpt>
      <trkpt lat="59.182868" lon="18.147024">
        <ele>35</ele>
        <time>2020-01-17T08:59:13Z</time>
      </trkpt>
      <trkpt lat="59.182831" lon="18.147001">
        <ele>35</ele>
        <time>2020-01-17T08:59:14Z</time>
      </trkpt>
      <trkpt lat="59.182795" lon="18.146977">
        <ele>35</ele>
        <time>2020-01-17T08:59:15Z</time>
      </trkpt>
      <trkpt lat="59.182759" lon="18.146951">
        <ele>35</ele>
        <time>2020-01-17T08:59:16Z</time>
      </trkpt>
      <trkpt lat="59.182724" lon="18.146925">
        <ele>35</ele>
        <time>2020-01-17T08:59:17Z</time>
      </trkpt>
      <trkpt lat="59.182689" lon="18.146899">
        <ele>36</ele>
        <time>2020-01-17T08:59:18Z</time>
      </trkpt>
      <trkpt lat="59.182655" lon="18.146871">
        <ele>36</ele>
        <time>2020-01-17T08:59:19Z</time>
      </trkpt>
      <trkpt lat="59.182619" lon="18.146842">
        <ele>36</ele>
        <time>2020-01-17T08:59:20Z</time>
      </trkpt>
      <trkpt lat="59.182588" lon="18.146812">
        <ele>36</ele>
        <time>2020-01-17T08:59:21Z</time>
      </trkpt>
      <trkpt lat="59.182563" lon="18.146778">
        <ele>36</ele>
        <time>2020-01-17T08:59:22Z</time>
      </trkpt>
      <trkpt lat="59.182533" lon="18.146746">
        <ele>36</ele>
        <time>2020-01-17T08:59:23Z</time>
      </trkpt>
      <trkpt lat="59.182498" lon="18.146718">
        <ele>36</ele>
        <time>2020-01-17T08:59:24Z</time>
      </trkpt>
      <trkpt lat="59.182467" lon="18.146684">
        <ele>37</ele>
        <time>2020-01-17T08:59:25Z</time>
      </trkpt>
      <trkpt lat="59.182437" lon="18.146647">
        <ele>37</ele>
        <time>2020-01-17T08:59:26Z</time>
      </trkpt>
      <trkpt lat="59.182402" lon="18.146613">
        <ele>37</ele>
        <time>2020-01-17T08:59:27Z</time>
      </trkpt>
      <trkpt lat="59.182367" lon="18.146577">
        <ele>37</ele>
        <time>2020-01-17T08:59:28Z</time>
      </trkpt>
      <trkpt lat="59.182332" lon="18.146539">
        <ele>37</ele>
        <time>2020-01-17T08:59:29Z</time>
      </trkpt>
      <trkpt lat="59.182295" lon="18.146501">
        <ele>37</ele>
        <time>2020-01-17T08:59:30Z</time>
      </trkpt>
      <trkpt lat="59.182262" lon="18.146461">
        <ele>37</ele>
        <time>2020-01-17T08:59:31Z</time>
      </trkpt>
      <trkpt lat="59.182231" lon="18.146426">
        <ele>37</ele>
        <time>2020-01-17T08:59:32Z</time>
      </trkpt>
      <trkpt lat="59.182197" lon="18.14639">
        <ele>37</ele>
        <time>2020-01-17T08:59:33Z</time>
      </trkpt>
      <trkpt lat="59.182162" lon="18.146351">
        <ele>37</ele>
        <time>2020-01-17T08:59:34Z</time>
      </trkpt>
      <trkpt lat="59.182127" lon="18.146311">
        <ele>37</ele>
        <time>2020-01-17T08:59:35Z</time>
      </trkpt>
      <trkpt lat="59.182092" lon="18.14627">
        <ele>37</ele>
        <time>2020-01-17T08:59:36Z</time>
      </trkpt>
      <trkpt lat="59.182056" lon="18.14623">
        <ele>37</ele>
        <time>2020-01-17T08:59:37Z</time>
      </trkpt>
      <trkpt lat="59.182021" lon="18.146188">
        <ele>37</ele>
        <time>2020-01-17T08:59:38Z</time>
      </trkpt>
      <trkpt lat="59.181987" lon="18.146149">
        <ele>37</ele>
        <time>2020-01-17T08:59:39Z</time>
      </trkpt>
      <trkpt lat="59.181954" lon="18.146109">
        <ele>38</ele>
        <time>2020-01-17T08:59:40Z</time>
      </trkpt>
      <trkpt lat="59.181925" lon="18.146067">
        <ele>38</ele>
        <time>2020-01-17T08:59:42Z</time>
      </trkpt>
      <trkpt lat="59.181892" lon="18.146029">
        <ele>38</ele>
        <time>2020-01-17T08:59:42Z</time>
      </trkpt>
      <trkpt lat="59.181857" lon="18.145992">
        <ele>38</ele>
        <time>2020-01-17T08:59:43Z</time>
      </trkpt>
      <trkpt lat="59.181823" lon="18.145956">
        <ele>38</ele>
        <time>2020-01-17T08:59:44Z</time>
      </trkpt>
      <trkpt lat="59.18179" lon="18.145918">
        <ele>38</ele>
        <time>2020-01-17T08:59:45Z</time>
      </trkpt>
      <trkpt lat="59.181756" lon="18.145881">
        <ele>38</ele>
        <time>2020-01-17T08:59:46Z</time>
      </trkpt>
      <trkpt lat="59.181728" lon="18.145839">
        <ele>38</ele>
        <time>2020-01-17T08:59:47Z</time>
      </trkpt>
      <trkpt lat="59.181703" lon="18.145798">
        <ele>38</ele>
        <time>2020-01-17T08:59:48Z</time>
      </trkpt>
      <trkpt lat="59.181673" lon="18.14576">
        <ele>38</ele>
        <time>2020-01-17T08:59:49Z</time>
      </trkpt>
      <trkpt lat="59.181643" lon="18.145723">
        <ele>38</ele>
        <time>2020-01-17T08:59:50Z</time>
      </trkpt>
      <trkpt lat="59.181612" lon="18.145687">
        <ele>39</ele>
        <time>2020-01-17T08:59:51Z</time>
      </trkpt>
      <trkpt lat="59.181576" lon="18.145652">
        <ele>39</ele>
        <time>2020-01-17T08:59:52Z</time>
      </trkpt>
      <trkpt lat="59.181541" lon="18.145618">
        <ele>39</ele>
        <time>2020-01-17T08:59:53Z</time>
      </trkpt>
      <trkpt lat="59.181507" lon="18.145583">
        <ele>39</ele>
        <time>2020-01-17T08:59:54Z</time>
      </trkpt>
      <trkpt lat="59.181473" lon="18.145548">
        <ele>39</ele>
        <time>2020-01-17T08:59:55Z</time>
      </trkpt>
      <trkpt lat="59.181438" lon="18.145513">
        <ele>39</ele>
        <time>2020-01-17T08:59:56Z</time>
      </trkpt>
      <trkpt lat="59.181404" lon="18.145479">
        <ele>39</ele>
        <time>2020-01-17T08:59:57Z</time>
      </trkpt>
      <trkpt lat="59.181371" lon="18.145443">
        <ele>39</ele>
        <time>2020-01-17T08:59:58Z</time>
      </trkpt>
      <trkpt lat="59.181338" lon="18.14541">
        <ele>39</ele>
        <time>2020-01-17T08:59:59Z</time>
      </trkpt>
      <trkpt lat="59.181303" lon="18.145381">
        <ele>39</ele>
        <time>2020-01-17T09:00:00Z</time>
      </trkpt>
      <trkpt lat="59.181272" lon="18.145352">
        <ele>39</ele>
        <time>2020-01-17T09:00:01Z</time>
      </trkpt>
      <trkpt lat="59.181241" lon="18.145325">
        <ele>39</ele>
        <time>2020-01-17T09:00:02Z</time>
      </trkpt>
      <trkpt lat="59.181208" lon="18.145302">
        <ele>39</ele>
        <time>2020-01-17T09:00:03Z</time>
      </trkpt>
      <trkpt lat="59.181174" lon="18.145277">
        <ele>39</ele>
        <time>2020-01-17T09:00:04Z</time>
      </trkpt>
      <trkpt lat="59.18114" lon="18.145246">
        <ele>39</ele>
        <time>2020-01-17T09:00:05Z</time>
      </trkpt>
      <trkpt lat="59.181105" lon="18.145212">
        <ele>39</ele>
        <time>2020-01-17T09:00:06Z</time>
      </trkpt>
      <trkpt lat="59.18107" lon="18.145177">
        <ele>39</ele>
        <time>2020-01-17T09:00:07Z</time>
      </trkpt>
      <trkpt lat="59.181037" lon="18.145135">
        <ele>39</ele>
        <time>2020-01-17T09:00:08Z</time>
      </trkpt>
      <trkpt lat="59.181005" lon="18.145091">
        <ele>39</ele>
        <time>2020-01-17T09:00:09Z</time>
      </trkpt>
      <trkpt lat="59.18097" lon="18.145047">
        <ele>39</ele>
        <time>2020-01-17T09:00:10Z</time>
      </trkpt>
      <trkpt lat="59.180935" lon="18.144997">
        <ele>39</ele>
        <time>2020-01-17T09:00:11Z</time>
      </trkpt>
      <trkpt lat="59.180894" lon="18.14495">
        <ele>39</ele>
        <time>2020-01-17T09:00:12Z</time>
      </trkpt>
      <trkpt lat="59.18085" lon="18.144907">
        <ele>39</ele>
        <time>2020-01-17T09:00:13Z</time>
      </trkpt>
      <trkpt lat="59.180807" lon="18.144865">
        <ele>38</ele>
        <time>2020-01-17T09:00:14Z</time>
      </trkpt>
      <trkpt lat="59.180763" lon="18.144826">
        <ele>38</ele>
        <time>2020-01-17T09:00:15Z</time>
      </trkpt>
      <trkpt lat="59.180721" lon="18.14478">
        <ele>38</ele>
        <time>2020-01-17T09:00:16Z</time>
      </trkpt>
      <trkpt lat="59.180678" lon="18.144728">
        <ele>38</ele>
        <time>2020-01-17T09:00:17Z</time>
      </trkpt>
      <trkpt lat="59.18064" lon="18.144669">
        <ele>38</ele>
        <time>2020-01-17T09:00:18Z</time>
      </trkpt>
      <trkpt lat="59.180602" lon="18.144608">
        <ele>38</ele>
        <time>2020-01-17T09:00:19Z</time>
      </trkpt>
      <trkpt lat="59.180564" lon="18.144546">
        <ele>38</ele>
        <time>2020-01-17T09:00:20Z</time>
      </trkpt>
      <trkpt lat="59.180525" lon="18.144484">
        <ele>38</ele>
        <time>2020-01-17T09:00:21Z</time>
      </trkpt>
      <trkpt lat="59.180484" lon="18.144426">
        <ele>38</ele>
        <time>2020-01-17T09:00:22Z</time>
      </trkpt>
      <trkpt lat="59.180441" lon="18.144371">
        <ele>38</ele>
        <time>2020-01-17T09:00:23Z</time>
      </trkpt>
      <trkpt lat="59.180398" lon="18.144318">
        <ele>38</ele>
        <time>2020-01-17T09:00:24Z</time>
      </trkpt>
      <trkpt lat="59.180354" lon="18.144267">
        <ele>38</ele>
        <time>2020-01-17T09:00:25Z</time>
      </trkpt>
      <trkpt lat="59.180312" lon="18.144216">
        <ele>38</ele>
        <time>2020-01-17T09:00:26Z</time>
      </trkpt>
      <trkpt lat="59.180269" lon="18.144163">
        <ele>38</ele>
        <time>2020-01-17T09:00:27Z</time>
      </trkpt>
      <trkpt lat="59.180227" lon="18.14411">
        <ele>38</ele>
        <time>2020-01-17T09:00:28Z</time>
      </trkpt>
      <trkpt lat="59.180183" lon="18.144057">
        <ele>38</ele>
        <time>2020-01-17T09:00:29Z</time>
      </trkpt>
      <trkpt lat="59.180138" lon="18.144006">
        <ele>38</ele>
        <time>2020-01-17T09:00:30Z</time>
      </trkpt>
      <trkpt lat="59.180092" lon="18.143955">
        <ele>38</ele>
        <time>2020-01-17T09:00:31Z</time>
      </trkpt>
      <trkpt lat="59.180044" lon="18.143903">
        <ele>38</ele>
        <time>2020-01-17T09:00:32Z</time>
      </trkpt>
      <trkpt lat="59.179995" lon="18.143852">
        <ele>38</ele>
        <time>2020-01-17T09:00:33Z</time>
      </trkpt>
      <trkpt lat="59.179945" lon="18.143805">
        <ele>38</ele>
        <time>2020-01-17T09:00:34Z</time>
      </trkpt>
      <trkpt lat="59.179895" lon="18.143762">
        <ele>38</ele>
        <time>2020-01-17T09:00:35Z</time>
      </trkpt>
      <trkpt lat="59.179844" lon="18.143722">
        <ele>38</ele>
        <time>2020-01-17T09:00:36Z</time>
      </trkpt>
      <trkpt lat="59.179793" lon="18.143681">
        <ele>39</ele>
        <time>2020-01-17T09:00:37Z</time>
      </trkpt>
      <trkpt lat="59.179744" lon="18.143644">
        <ele>39</ele>
        <time>2020-01-17T09:00:39Z</time>
      </trkpt>
      <trkpt lat="59.179698" lon="18.143609">
        <ele>39</ele>
        <time>2020-01-17T09:00:39Z</time>
      </trkpt>
      <trkpt lat="59.179653" lon="18.143586">
        <ele>39</ele>
        <time>2020-01-17T09:00:40Z</time>
      </trkpt>
      <trkpt lat="59.179598" lon="18.143591">
        <ele>38</ele>
        <time>2020-01-17T09:00:41Z</time>
      </trkpt>
      <trkpt lat="59.179543" lon="18.14361">
        <ele>38</ele>
        <time>2020-01-17T09:00:42Z</time>
      </trkpt>
      <trkpt lat="59.179492" lon="18.143626">
        <ele>38</ele>
        <time>2020-01-17T09:00:43Z</time>
      </trkpt>
      <trkpt lat="59.179441" lon="18.143639">
        <ele>38</ele>
        <time>2020-01-17T09:00:44Z</time>
      </trkpt>
      <trkpt lat="59.179391" lon="18.143651">
        <ele>38</ele>
        <time>2020-01-17T09:00:45Z</time>
      </trkpt>
      <trkpt lat="59.179343" lon="18.143653">
        <ele>38</ele>
        <time>2020-01-17T09:00:46Z</time>
      </trkpt>
      <trkpt lat="59.179294" lon="18.143635">
        <ele>38</ele>
        <time>2020-01-17T09:00:47Z</time>
      </trkpt>
      <trkpt lat="59.179248" lon="18.143588">
        <ele>38</ele>
        <time>2020-01-17T09:00:48Z</time>
      </trkpt>
      <trkpt lat="59.179205" lon="18.143523">
        <ele>38</ele>
        <time>2020-01-17T09:00:49Z</time>
      </trkpt>
      <trkpt lat="59.17916" lon="18.143459">
        <ele>38</ele>
        <time>2020-01-17T09:00:50Z</time>
      </trkpt>
      <trkpt lat="59.179116" lon="18.143397">
        <ele>38</ele>
        <time>2020-01-17T09:00:51Z</time>
      </trkpt>
      <trkpt lat="59.179072" lon="18.143341">
        <ele>37</ele>
        <time>2020-01-17T09:00:52Z</time>
      </trkpt>
      <trkpt lat="59.179026" lon="18.143299">
        <ele>37</ele>
        <time>2020-01-17T09:00:53Z</time>
      </trkpt>
      <trkpt lat="59.178979" lon="18.143264">
        <ele>37</ele>
        <time>2020-01-17T09:00:54Z</time>
      </trkpt>
      <trkpt lat="59.178933" lon="18.143233">
        <ele>37</ele>
        <time>2020-01-17T09:00:55Z</time>
      </trkpt>
      <trkpt lat="59.178887" lon="18.143204">
        <ele>36</ele>
        <time>2020-01-17T09:00:56Z</time>
      </trkpt>
      <trkpt lat="59.178843" lon="18.143176">
        <ele>36</ele>
        <time>2020-01-17T09:00:58Z</time>
      </trkpt>
      <trkpt lat="59.178798" lon="18.143145">
        <ele>36</ele>
        <time>2020-01-17T09:00:58Z</time>
      </trkpt>
      <trkpt lat="59.178753" lon="18.143114">
        <ele>36</ele>
        <time>2020-01-17T09:00:59Z</time>
      </trkpt>
      <trkpt lat="59.178706" lon="18.143087">
        <ele>36</ele>
        <time>2020-01-17T09:01:00Z</time>
      </trkpt>
      <trkpt lat="59.178662" lon="18.143058">
        <ele>36</ele>
        <time>2020-01-17T09:01:01Z</time>
      </trkpt>
      <trkpt lat="59.178619" lon="18.143026">
        <ele>36</ele>
        <time>2020-01-17T09:01:02Z</time>
      </trkpt>
      <trkpt lat="59.178574" lon="18.142996">
        <ele>36</ele>
        <time>2020-01-17T09:01:03Z</time>
      </trkpt>
      <trkpt lat="59.178535" lon="18.142968">
        <ele>36</ele>
        <time>2020-01-17T09:01:04Z</time>
      </trkpt>
      <trkpt lat="59.178494" lon="18.142942">
        <ele>36</ele>
        <time>2020-01-17T09:01:05Z</time>
      </trkpt>
      <trkpt lat="59.178456" lon="18.142917">
        <ele>36</ele>
        <time>2020-01-17T09:01:06Z</time>
      </trkpt>
      <trkpt lat="59.178416" lon="18.142889">
        <ele>36</ele>
        <time>2020-01-17T09:01:07Z</time>
      </trkpt>
      <trkpt lat="59.17838" lon="18.14286">
        <ele>36</ele>
        <time>2020-01-17T09:01:08Z</time>
      </trkpt>
      <trkpt lat="59.178341" lon="18.142831">
        <ele>36</ele>
        <time>2020-01-17T09:01:09Z</time>
      </trkpt>
      <trkpt lat="59.178304" lon="18.142803">
        <ele>36</ele>
        <time>2020-01-17T09:01:10Z</time>
      </trkpt>
      <trkpt lat="59.178266" lon="18.142777">
        <ele>36</ele>
        <time>2020-01-17T09:01:11Z</time>
      </trkpt>
      <trkpt lat="59.17823" lon="18.142752">
        <ele>36</ele>
        <time>2020-01-17T09:01:12Z</time>
      </trkpt>
      <trkpt lat="59.178192" lon="18.142726">
        <ele>36</ele>
        <time>2020-01-17T09:01:13Z</time>
      </trkpt>
      <trkpt lat="59.178154" lon="18.142699">
        <ele>36</ele>
        <time>2020-01-17T09:01:14Z</time>
      </trkpt>
      <trkpt lat="59.178116" lon="18.142675">
        <ele>36</ele>
        <time>2020-01-17T09:01:15Z</time>
      </trkpt>
      <trkpt lat="59.178074" lon="18.142654">
        <ele>36</ele>
        <time>2020-01-17T09:01:16Z</time>
      </trkpt>
      <trkpt lat="59.178034" lon="18.14264">
        <ele>36</ele>
        <time>2020-01-17T09:01:17Z</time>
      </trkpt>
      <trkpt lat="59.17799" lon="18.142635">
        <ele>36</ele>
        <time>2020-01-17T09:01:18Z</time>
      </trkpt>
      <trkpt lat="59.177947" lon="18.142637">
        <ele>36</ele>
        <time>2020-01-17T09:01:19Z</time>
      </trkpt>
      <trkpt lat="59.177902" lon="18.142648">
        <ele>36</ele>
        <time>2020-01-17T09:01:20Z</time>
      </trkpt>
      <trkpt lat="59.177856" lon="18.142663">
        <ele>36</ele>
        <time>2020-01-17T09:01:21Z</time>
      </trkpt>
      <trkpt lat="59.177805" lon="18.142677">
        <ele>36</ele>
        <time>2020-01-17T09:01:22Z</time>
      </trkpt>
      <trkpt lat="59.177752" lon="18.142693">
        <ele>36</ele>
        <time>2020-01-17T09:01:23Z</time>
      </trkpt>
      <trkpt lat="59.177698" lon="18.14271">
        <ele>35</ele>
        <time>2020-01-17T09:01:24Z</time>
      </trkpt>
      <trkpt lat="59.177643" lon="18.142726">
        <ele>35</ele>
        <time>2020-01-17T09:01:25Z</time>
      </trkpt>
      <trkpt lat="59.17759" lon="18.142741">
        <ele>36</ele>
        <time>2020-01-17T09:01:26Z</time>
      </trkpt>
      <trkpt lat="59.177541" lon="18.14275">
        <ele>36</ele>
        <time>2020-01-17T09:01:27Z</time>
      </trkpt>
      <trkpt lat="59.177492" lon="18.142755">
        <ele>36</ele>
        <time>2020-01-17T09:01:28Z</time>
      </trkpt>
      <trkpt lat="59.177446" lon="18.142759">
        <ele>36</ele>
        <time>2020-01-17T09:01:29Z</time>
      </trkpt>
      <trkpt lat="59.177406" lon="18.142762">
        <ele>36</ele>
        <time>2020-01-17T09:01:30Z</time>
      </trkpt>
      <trkpt lat="59.177368" lon="18.142763">
        <ele>36</ele>
        <time>2020-01-17T09:01:31Z</time>
      </trkpt>
      <trkpt lat="59.17733" lon="18.142762">
        <ele>36</ele>
        <time>2020-01-17T09:01:32Z</time>
      </trkpt>
      <trkpt lat="59.177294" lon="18.142763">
        <ele>36</ele>
        <time>2020-01-17T09:01:33Z</time>
      </trkpt>
      <trkpt lat="59.177258" lon="18.142767">
        <ele>36</ele>
        <time>2020-01-17T09:01:34Z</time>
      </trkpt>
      <trkpt lat="59.17722" lon="18.14277">
        <ele>37</ele>
        <time>2020-01-17T09:01:35Z</time>
      </trkpt>
      <trkpt lat="59.177182" lon="18.14277">
        <ele>37</ele>
        <time>2020-01-17T09:01:36Z</time>
      </trkpt>
      <trkpt lat="59.177144" lon="18.142771">
        <ele>37</ele>
        <time>2020-01-17T09:01:37Z</time>
      </trkpt>
      <trkpt lat="59.177106" lon="18.14277">
        <ele>37</ele>
        <time>2020-01-17T09:01:38Z</time>
      </trkpt>
      <trkpt lat="59.177064" lon="18.142767">
        <ele>37</ele>
        <time>2020-01-17T09:01:39Z</time>
      </trkpt>
      <trkpt lat="59.177026" lon="18.142763">
        <ele>37</ele>
        <time>2020-01-17T09:01:40Z</time>
      </trkpt>
      <trkpt lat="59.176988" lon="18.142759">
        <ele>38</ele>
        <time>2020-01-17T09:01:41Z</time>
      </trkpt>
      <trkpt lat="59.176952" lon="18.142753">
        <ele>38</ele>
        <time>2020-01-17T09:01:42Z</time>
      </trkpt>
      <trkpt lat="59.176916" lon="18.142744">
        <ele>38</ele>
        <time>2020-01-17T09:01:43Z</time>
      </trkpt>
      <trkpt lat="59.17688" lon="18.142736">
        <ele>38</ele>
        <time>2020-01-17T09:01:44Z</time>
      </trkpt>
      <trkpt lat="59.176846" lon="18.142727">
        <ele>38</ele>
        <time>2020-01-17T09:01:45Z</time>
      </trkpt>
      <trkpt lat="59.176813" lon="18.142716">
        <ele>38</ele>
        <time>2020-01-17T09:01:46Z</time>
      </trkpt>
      <trkpt lat="59.176781" lon="18.142704">
        <ele>38</ele>
        <time>2020-01-17T09:01:47Z</time>
      </trkpt>
      <trkpt lat="59.176746" lon="18.142692">
        <ele>39</ele>
        <time>2020-01-17T09:01:48Z</time>
      </trkpt>
      <trkpt lat="59.176709" lon="18.142679">
        <ele>39</ele>
        <time>2020-01-17T09:01:49Z</time>
      </trkpt>
      <trkpt lat="59.176672" lon="18.142664">
        <ele>39</ele>
        <time>2020-01-17T09:01:50Z</time>
      </trkpt>
      <trkpt lat="59.176636" lon="18.142646">
        <ele>39</ele>
        <time>2020-01-17T09:01:51Z</time>
      </trkpt>
      <trkpt lat="59.176601" lon="18.142627">
        <ele>39</ele>
        <time>2020-01-17T09:01:52Z</time>
      </trkpt>
      <trkpt lat="59.176565" lon="18.142605">
        <ele>39</ele>
        <time>2020-01-17T09:01:53Z</time>
      </trkpt>
      <trkpt lat="59.176529" lon="18.142584">
        <ele>39</ele>
        <time>2020-01-17T09:01:54Z</time>
      </trkpt>
      <trkpt lat="59.176492" lon="18.142564">
        <ele>40</ele>
        <time>2020-01-17T09:01:55Z</time>
      </trkpt>
      <trkpt lat="59.17646" lon="18.142544">
        <ele>40</ele>
        <time>2020-01-17T09:01:56Z</time>
      </trkpt>
      <trkpt lat="59.176426" lon="18.142525">
        <ele>40</ele>
        <time>2020-01-17T09:01:57Z</time>
      </trkpt>
      <trkpt lat="59.176394" lon="18.142502">
        <ele>40</ele>
        <time>2020-01-17T09:01:58Z</time>
      </trkpt>
      <trkpt lat="59.176359" lon="18.142478">
        <ele>40</ele>
        <time>2020-01-17T09:01:59Z</time>
      </trkpt>
      <trkpt lat="59.176324" lon="18.142452">
        <ele>40</ele>
        <time>2020-01-17T09:02:00Z</time>
      </trkpt>
      <trkpt lat="59.176289" lon="18.142425">
        <ele>40</ele>
        <time>2020-01-17T09:02:01Z</time>
      </trkpt>
      <trkpt lat="59.176257" lon="18.142395">
        <ele>40</ele>
        <time>2020-01-17T09:02:02Z</time>
      </trkpt>
      <trkpt lat="59.176227" lon="18.142356">
        <ele>40</ele>
        <time>2020-01-17T09:02:03Z</time>
      </trkpt>
      <trkpt lat="59.1762" lon="18.142308">
        <ele>40</ele>
        <time>2020-01-17T09:02:04Z</time>
      </trkpt>
      <trkpt lat="59.176175" lon="18.142254">
        <ele>40</ele>
        <time>2020-01-17T09:02:05Z</time>
      </trkpt>
      <trkpt lat="59.176153" lon="18.142196">
        <ele>40</ele>
        <time>2020-01-17T09:02:06Z</time>
      </trkpt>
      <trkpt lat="59.176136" lon="18.142136">
        <ele>41</ele>
        <time>2020-01-17T09:02:07Z</time>
      </trkpt>
      <trkpt lat="59.176125" lon="18.142074">
        <ele>41</ele>
        <time>2020-01-17T09:02:08Z</time>
      </trkpt>
      <trkpt lat="59.176115" lon="18.142012">
        <ele>41</ele>
        <time>2020-01-17T09:02:09Z</time>
      </trkpt>
      <trkpt lat="59.176106" lon="18.141949">
        <ele>41</ele>
        <time>2020-01-17T09:02:10Z</time>
      </trkpt>
      <trkpt lat="59.176098" lon="18.141886">
        <ele>41</ele>
        <time>2020-01-17T09:02:11Z</time>
      </trkpt>
      <trkpt lat="59.176089" lon="18.141822">
        <ele>41</ele>
        <time>2020-01-17T09:02:12Z</time>
      </trkpt>
      <trkpt lat="59.176077" lon="18.141759">
        <ele>41</ele>
        <time>2020-01-17T09:02:13Z</time>
      </trkpt>
      <trkpt lat="59.176066" lon="18.141696">
        <ele>41</ele>
        <time>2020-01-17T09:02:14Z</time>
      </trkpt>
      <trkpt lat="59.176054" lon="18.14163">
        <ele>41</ele>
        <time>2020-01-17T09:02:15Z</time>
      </trkpt>
      <trkpt lat="59.176039" lon="18.141564">
        <ele>41</ele>
        <time>2020-01-17T09:02:16Z</time>
      </trkpt>
      <trkpt lat="59.176023" lon="18.141498">
        <ele>41</ele>
        <time>2020-01-17T09:02:17Z</time>
      </trkpt>
      <trkpt lat="59.176007" lon="18.141429">
        <ele>42</ele>
        <time>2020-01-17T09:02:18Z</time>
      </trkpt>
      <trkpt lat="59.175993" lon="18.141359">
        <ele>42</ele>
        <time>2020-01-17T09:02:19Z</time>
      </trkpt>
      <trkpt lat="59.175973" lon="18.141298">
        <ele>42</ele>
        <time>2020-01-17T09:02:20Z</time>
      </trkpt>
      <trkpt lat="59.175946" lon="18.141257">
        <ele>42</ele>
        <time>2020-01-17T09:02:21Z</time>
      </trkpt>
      <trkpt lat="59.175911" lon="18.141235">
        <ele>42</ele>
        <time>2020-01-17T09:02:22Z</time>
      </trkpt>
      <trkpt lat="59.175874" lon="18.14122">
        <ele>42</ele>
        <time>2020-01-17T09:02:23Z</time>
      </trkpt>
      <trkpt lat="59.175837" lon="18.141204">
        <ele>42</ele>
        <time>2020-01-17T09:02:24Z</time>
      </trkpt>
      <trkpt lat="59.1758" lon="18.141189">
        <ele>42</ele>
        <time>2020-01-17T09:02:25Z</time>
      </trkpt>
      <trkpt lat="59.175764" lon="18.141176">
        <ele>42</ele>
        <time>2020-01-17T09:02:26Z</time>
      </trkpt>
      <trkpt lat="59.17573" lon="18.141171">
        <ele>42</ele>
        <time>2020-01-17T09:02:27Z</time>
      </trkpt>
      <trkpt lat="59.1757" lon="18.141173">
        <ele>42</ele>
        <time>2020-01-17T09:02:28Z</time>
      </trkpt>
      <trkpt lat="59.175674" lon="18.141177">
        <ele>42</ele>
        <time>2020-01-17T09:02:29Z</time>
      </trkpt>
      <trkpt lat="59.175652" lon="18.141183">
        <ele>42</ele>
        <time>2020-01-17T09:02:30Z</time>
      </trkpt>
      <trkpt lat="59.175633" lon="18.141193">
        <ele>42</ele>
        <time>2020-01-17T09:02:31Z</time>
      </trkpt>
      <trkpt lat="59.175616" lon="18.141208">
        <ele>42</ele>
        <time>2020-01-17T09:02:32Z</time>
      </trkpt>
      <trkpt lat="59.175595" lon="18.141255">
        <ele>42</ele>
        <time>2020-01-17T09:02:34Z</time>
      </trkpt>
      <trkpt lat="59.175582" lon="18.141285">
        <ele>42</ele>
        <time>2020-01-17T09:02:35Z</time>
      </trkpt>
      <trkpt lat="59.175569" lon="18.141318">
        <ele>42</ele>
        <time>2020-01-17T09:02:36Z</time>
      </trkpt>
      <trkpt lat="59.175556" lon="18.141359">
        <ele>42</ele>
        <time>2020-01-17T09:02:37Z</time>
      </trkpt>
      <trkpt lat="59.17554" lon="18.141409">
        <ele>43</ele>
        <time>2020-01-17T09:02:38Z</time>
      </trkpt>
      <trkpt lat="59.175519" lon="18.141466">
        <ele>42</ele>
        <time>2020-01-17T09:02:39Z</time>
      </trkpt>
      <trkpt lat="59.175493" lon="18.141527">
        <ele>42</ele>
        <time>2020-01-17T09:02:40Z</time>
      </trkpt>
      <trkpt lat="59.175464" lon="18.141591">
        <ele>42</ele>
        <time>2020-01-17T09:02:41Z</time>
      </trkpt>
      <trkpt lat="59.175436" lon="18.141653">
        <ele>43</ele>
        <time>2020-01-17T09:02:42Z</time>
      </trkpt>
      <trkpt lat="59.175411" lon="18.141702">
        <ele>43</ele>
        <time>2020-01-17T09:02:43Z</time>
      </trkpt>
      <trkpt lat="59.175385" lon="18.141739">
        <ele>43</ele>
        <time>2020-01-17T09:02:44Z</time>
      </trkpt>
      <trkpt lat="59.175358" lon="18.141766">
        <ele>43</ele>
        <time>2020-01-17T09:02:45Z</time>
      </trkpt>
      <trkpt lat="59.17533" lon="18.141779">
        <ele>43</ele>
        <time>2020-01-17T09:02:46Z</time>
      </trkpt>
      <trkpt lat="59.175302" lon="18.141787">
        <ele>43</ele>
        <time>2020-01-17T09:02:47Z</time>
      </trkpt>
      <trkpt lat="59.175272" lon="18.141795">
        <ele>43</ele>
        <time>2020-01-17T09:02:48Z</time>
      </trkpt>
      <trkpt lat="59.17524" lon="18.141804">
        <ele>43</ele>
        <time>2020-01-17T09:02:49Z</time>
      </trkpt>
      <trkpt lat="59.175207" lon="18.141814">
        <ele>43</ele>
        <time>2020-01-17T09:02:50Z</time>
      </trkpt>
      <trkpt lat="59.175173" lon="18.141823">
        <ele>43</ele>
        <time>2020-01-17T09:02:51Z</time>
      </trkpt>
      <trkpt lat="59.175141" lon="18.141835">
        <ele>43</ele>
        <time>2020-01-17T09:02:52Z</time>
      </trkpt>
      <trkpt lat="59.175107" lon="18.141842">
        <ele>43</ele>
        <time>2020-01-17T09:02:53Z</time>
      </trkpt>
      <trkpt lat="59.175074" lon="18.141844">
        <ele>43</ele>
        <time>2020-01-17T09:02:54Z</time>
      </trkpt>
      <trkpt lat="59.175042" lon="18.141843">
        <ele>44</ele>
        <time>2020-01-17T09:02:55Z</time>
      </trkpt>
      <trkpt lat="59.175009" lon="18.141849">
        <ele>44</ele>
        <time>2020-01-17T09:02:56Z</time>
      </trkpt>
      <trkpt lat="59.174977" lon="18.141865">
        <ele>44</ele>
        <time>2020-01-17T09:02:57Z</time>
      </trkpt>
      <trkpt lat="59.174946" lon="18.141889">
        <ele>44</ele>
        <time>2020-01-17T09:02:58Z</time>
      </trkpt>
      <trkpt lat="59.174918" lon="18.141916">
        <ele>44</ele>
        <time>2020-01-17T09:02:59Z</time>
      </trkpt>
      <trkpt lat="59.17489" lon="18.141946">
        <ele>44</ele>
        <time>2020-01-17T09:03:00Z</time>
      </trkpt>
      <trkpt lat="59.174859" lon="18.141977">
        <ele>44</ele>
        <time>2020-01-17T09:03:01Z</time>
      </trkpt>
      <trkpt lat="59.174828" lon="18.142004">
        <ele>44</ele>
        <time>2020-01-17T09:03:02Z</time>
      </trkpt>
      <trkpt lat="59.174797" lon="18.142032">
        <ele>44</ele>
        <time>2020-01-17T09:03:03Z</time>
      </trkpt>
      <trkpt lat="59.174768" lon="18.142069">
        <ele>44</ele>
        <time>2020-01-17T09:03:04Z</time>
      </trkpt>
      <trkpt lat="59.174745" lon="18.142114">
        <ele>44</ele>
        <time>2020-01-17T09:03:05Z</time>
      </trkpt>
      <trkpt lat="59.174727" lon="18.142166">
        <ele>44</ele>
        <time>2020-01-17T09:03:06Z</time>
      </trkpt>
      <trkpt lat="59.174707" lon="18.142221">
        <ele>44</ele>
        <time>2020-01-17T09:03:07Z</time>
      </trkpt>
      <trkpt lat="59.174682" lon="18.142263">
        <ele>44</ele>
        <time>2020-01-17T09:03:08Z</time>
      </trkpt>
      <trkpt lat="59.174653" lon="18.142287">
        <ele>45</ele>
        <time>2020-01-17T09:03:09Z</time>
      </trkpt>
      <trkpt lat="59.174619" lon="18.142303">
        <ele>45</ele>
        <time>2020-01-17T09:03:10Z</time>
      </trkpt>
      <trkpt lat="59.174583" lon="18.14231">
        <ele>45</ele>
        <time>2020-01-17T09:03:11Z</time>
      </trkpt>
      <trkpt lat="59.174551" lon="18.142311">
        <ele>45</ele>
        <time>2020-01-17T09:03:12Z</time>
      </trkpt>
      <trkpt lat="59.174517" lon="18.142309">
        <ele>45</ele>
        <time>2020-01-17T09:03:13Z</time>
      </trkpt>
      <trkpt lat="59.174484" lon="18.142307">
        <ele>45</ele>
        <time>2020-01-17T09:03:14Z</time>
      </trkpt>
      <trkpt lat="59.174452" lon="18.142303">
        <ele>45</ele>
        <time>2020-01-17T09:03:15Z</time>
      </trkpt>
      <trkpt lat="59.174422" lon="18.142294">
        <ele>45</ele>
        <time>2020-01-17T09:03:16Z</time>
      </trkpt>
      <trkpt lat="59.174393" lon="18.142288">
        <ele>45</ele>
        <time>2020-01-17T09:03:17Z</time>
      </trkpt>
      <trkpt lat="59.174362" lon="18.14229">
        <ele>45</ele>
        <time>2020-01-17T09:03:18Z</time>
      </trkpt>
      <trkpt lat="59.174332" lon="18.14229">
        <ele>46</ele>
        <time>2020-01-17T09:03:19Z</time>
      </trkpt>
      <trkpt lat="59.174303" lon="18.142292">
        <ele>46</ele>
        <time>2020-01-17T09:03:20Z</time>
      </trkpt>
      <trkpt lat="59.17427" lon="18.142296">
        <ele>46</ele>
        <time>2020-01-17T09:03:21Z</time>
      </trkpt>
      <trkpt lat="59.174244" lon="18.142305">
        <ele>46</ele>
        <time>2020-01-17T09:03:22Z</time>
      </trkpt>
      <trkpt lat="59.174222" lon="18.142321">
        <ele>46</ele>
        <time>2020-01-17T09:03:23Z</time>
      </trkpt>
      <trkpt lat="59.174206" lon="18.14234">
        <ele>47</ele>
        <time>2020-01-17T09:03:24Z</time>
      </trkpt>
      <trkpt lat="59.174191" lon="18.142363">
        <ele>47</ele>
        <time>2020-01-17T09:03:25Z</time>
      </trkpt>
      <trkpt lat="59.174172" lon="18.142388">
        <ele>47</ele>
        <time>2020-01-17T09:03:26Z</time>
      </trkpt>
      <trkpt lat="59.17415" lon="18.142415">
        <ele>47</ele>
        <time>2020-01-17T09:03:27Z</time>
      </trkpt>
      <trkpt lat="59.174125" lon="18.142443">
        <ele>48</ele>
        <time>2020-01-17T09:03:28Z</time>
      </trkpt>
      <trkpt lat="59.174104" lon="18.142464">
        <ele>48</ele>
        <time>2020-01-17T09:03:29Z</time>
      </trkpt>
      <trkpt lat="59.174073" lon="18.14249">
        <ele>49</ele>
        <time>2020-01-17T09:03:31Z</time>
      </trkpt>
      <trkpt lat="59.174056" lon="18.142514">
        <ele>49</ele>
        <time>2020-01-17T09:03:32Z</time>
      </trkpt>
      <trkpt lat="59.174044" lon="18.142544">
        <ele>49</ele>
        <time>2020-01-17T09:03:33Z</time>
      </trkpt>
      <trkpt lat="59.174038" lon="18.142585">
        <ele>49</ele>
        <time>2020-01-17T09:03:34Z</time>
      </trkpt>
      <trkpt lat="59.174035" lon="18.142629">
        <ele>49</ele>
        <time>2020-01-17T09:03:35Z</time>
      </trkpt>
      <trkpt lat="59.174031" lon="18.142675">
        <ele>50</ele>
        <time>2020-01-17T09:03:36Z</time>
      </trkpt>
      <trkpt lat="59.174022" lon="18.142719">
        <ele>50</ele>
        <time>2020-01-17T09:03:37Z</time>
      </trkpt>
      <trkpt lat="59.174009" lon="18.142754">
        <ele>50</ele>
        <time>2020-01-17T09:03:38Z</time>
      </trkpt>
      <trkpt lat="59.173996" lon="18.142788">
        <ele>51</ele>
        <time>2020-01-17T09:03:39Z</time>
      </trkpt>
      <trkpt lat="59.173982" lon="18.142833">
        <ele>51</ele>
        <time>2020-01-17T09:03:40Z</time>
      </trkpt>
      <trkpt lat="59.173968" lon="18.142884">
        <ele>51</ele>
        <time>2020-01-17T09:03:41Z</time>
      </trkpt>
      <trkpt lat="59.173953" lon="18.142939">
        <ele>51</ele>
        <time>2020-01-17T09:03:42Z</time>
      </trkpt>
      <trkpt lat="59.173941" lon="18.142999">
        <ele>51</ele>
        <time>2020-01-17T09:03:43Z</time>
      </trkpt>
      <trkpt lat="59.173925" lon="18.143068">
        <ele>51</ele>
        <time>2020-01-17T09:03:44Z</time>
      </trkpt>
      <trkpt lat="59.173915" lon="18.143138">
        <ele>51</ele>
        <time>2020-01-17T09:03:45Z</time>
      </trkpt>
      <trkpt lat="59.173907" lon="18.143209">
        <ele>51</ele>
        <time>2020-01-17T09:03:46Z</time>
      </trkpt>
      <trkpt lat="59.1739" lon="18.143281">
        <ele>51</ele>
        <time>2020-01-17T09:03:47Z</time>
      </trkpt>
      <trkpt lat="59.173891" lon="18.143354">
        <ele>51</ele>
        <time>2020-01-17T09:03:48Z</time>
      </trkpt>
      <trkpt lat="59.173878" lon="18.143414">
        <ele>52</ele>
        <time>2020-01-17T09:03:49Z</time>
      </trkpt>
      <trkpt lat="59.173855" lon="18.143454">
        <ele>52</ele>
        <time>2020-01-17T09:03:50Z</time>
      </trkpt>
      <trkpt lat="59.173826" lon="18.143467">
        <ele>52</ele>
        <time>2020-01-17T09:03:51Z</time>
      </trkpt>
      <trkpt lat="59.173792" lon="18.143468">
        <ele>52</ele>
        <time>2020-01-17T09:03:52Z</time>
      </trkpt>
      <trkpt lat="59.17376" lon="18.143456">
        <ele>52</ele>
        <time>2020-01-17T09:03:53Z</time>
      </trkpt>
      <trkpt lat="59.173728" lon="18.143444">
        <ele>52</ele>
        <time>2020-01-17T09:03:54Z</time>
      </trkpt>
      <trkpt lat="59.173696" lon="18.143444">
        <ele>52</ele>
        <time>2020-01-17T09:03:55Z</time>
      </trkpt>
      <trkpt lat="59.173666" lon="18.14345">
        <ele>52</ele>
        <time>2020-01-17T09:03:56Z</time>
      </trkpt>
      <trkpt lat="59.173636" lon="18.143452">
        <ele>52</ele>
        <time>2020-01-17T09:03:57Z</time>
      </trkpt>
      <trkpt lat="59.173608" lon="18.143447">
        <ele>52</ele>
        <time>2020-01-17T09:03:58Z</time>
      </trkpt>
      <trkpt lat="59.173586" lon="18.14343">
        <ele>52</ele>
        <time>2020-01-17T09:03:59Z</time>
      </trkpt>
      <trkpt lat="59.173566" lon="18.143414">
        <ele>53</ele>
        <time>2020-01-17T09:04:00Z</time>
      </trkpt>
    </trkseg>
  </trk>
</gpx>